<?xml version="1.0" encoding="UTF-8" standalone="no" ?>
<gpx xmlns="http://www.topografix.com/GPX/1/1" xmlns:xsi="http://www.w3.org/2001/XMLSchema-instance" xsi:schemaLocation="http://www.topografix.com/GPX/1/1 http://www.topografix.com/GPX/1/1/gpx.xsd" version="1.1" creator="VisuGPX - https://www.visugpx.com">
  <metadata>
    <name>Guy Mocquet 19/09</name>
    <desc><![CDATA[Guy Mocquet 19/09]]></desc>
  </metadata>
  <trk>
    <name><![CDATA[204 Rue Legendre]]></name>
    <desc><![CDATA[]]></desc>
    <trkseg>
      <trkpt lat="48.89277" lon="2.32709">
        <ele>111.9</ele>
        <time>2013-09-19T18:16:49.070Z</time>
      </trkpt>
      <trkpt lat="48.89283" lon="2.32701">
        <ele>121.8</ele>
        <time>2013-09-19T18:17:02.096Z</time>
      </trkpt>
      <trkpt lat="48.89284" lon="2.32701">
        <ele>121.8</ele>
        <time>2013-09-19T18:17:03.115Z</time>
      </trkpt>
      <trkpt lat="48.89285" lon="2.32702">
        <ele>121.5</ele>
        <time>2013-09-19T18:17:06.988Z</time>
      </trkpt>
      <trkpt lat="48.89285" lon="2.32702">
        <ele>121.6</ele>
        <time>2013-09-19T18:17:08.005Z</time>
      </trkpt>
      <trkpt lat="48.89286" lon="2.32702">
        <ele>122.6</ele>
        <time>2013-09-19T18:17:46.085Z</time>
      </trkpt>
      <trkpt lat="48.89286" lon="2.32702">
        <ele>122.7</ele>
        <time>2013-09-19T18:17:47.047Z</time>
      </trkpt>
      <trkpt lat="48.89287" lon="2.32709">
        <ele>124.7</ele>
        <time>2013-09-19T18:17:49.001Z</time>
      </trkpt>
      <trkpt lat="48.89285" lon="2.32717">
        <ele>125.6</ele>
        <time>2013-09-19T18:17:50.146Z</time>
      </trkpt>
      <trkpt lat="48.89293" lon="2.32712">
        <ele>119.1</ele>
        <time>2013-09-19T18:17:58.032Z</time>
      </trkpt>
      <trkpt lat="48.89293" lon="2.32712">
        <ele>118.4</ele>
        <time>2013-09-19T18:17:59.086Z</time>
      </trkpt>
      <trkpt lat="48.89292" lon="2.32712">
        <ele>117</ele>
        <time>2013-09-19T18:18:01.053Z</time>
      </trkpt>
      <trkpt lat="48.89292" lon="2.32713">
        <ele>117.2</ele>
        <time>2013-09-19T18:18:02.110Z</time>
      </trkpt>
      <trkpt lat="48.89291" lon="2.32713">
        <ele>116.4</ele>
        <time>2013-09-19T18:18:10.981Z</time>
      </trkpt>
      <trkpt lat="48.89291" lon="2.32712">
        <ele>116.3</ele>
        <time>2013-09-19T18:18:11.998Z</time>
      </trkpt>
      <trkpt lat="48.89295" lon="2.32701">
        <ele>118.7</ele>
        <time>2013-09-19T18:18:15.044Z</time>
      </trkpt>
      <trkpt lat="48.89296" lon="2.32696">
        <ele>119.8</ele>
        <time>2013-09-19T18:18:16.029Z</time>
      </trkpt>
      <trkpt lat="48.89297" lon="2.32684">
        <ele>118.9</ele>
        <time>2013-09-19T18:18:18.040Z</time>
      </trkpt>
      <trkpt lat="48.89298" lon="2.32676">
        <ele>118.2</ele>
        <time>2013-09-19T18:18:18.994Z</time>
      </trkpt>
      <trkpt lat="48.893" lon="2.32668">
        <ele>117.1</ele>
        <time>2013-09-19T18:18:20.019Z</time>
      </trkpt>
      <trkpt lat="48.89303" lon="2.3266">
        <ele>115.3</ele>
        <time>2013-09-19T18:18:20.996Z</time>
      </trkpt>
      <trkpt lat="48.89305" lon="2.32652">
        <ele>114.6</ele>
        <time>2013-09-19T18:18:21.986Z</time>
      </trkpt>
      <trkpt lat="48.89307" lon="2.32644">
        <ele>114.4</ele>
        <time>2013-09-19T18:18:22.995Z</time>
      </trkpt>
      <trkpt lat="48.89307" lon="2.3263">
        <ele>114</ele>
        <time>2013-09-19T18:18:25.042Z</time>
      </trkpt>
      <trkpt lat="48.89307" lon="2.32624">
        <ele>113.4</ele>
        <time>2013-09-19T18:18:26.057Z</time>
      </trkpt>
      <trkpt lat="48.89307" lon="2.32613">
        <ele>112.8</ele>
        <time>2013-09-19T18:18:28.006Z</time>
      </trkpt>
      <trkpt lat="48.89307" lon="2.32606">
        <ele>111.5</ele>
        <time>2013-09-19T18:18:29.040Z</time>
      </trkpt>
      <trkpt lat="48.89307" lon="2.32598">
        <ele>110.6</ele>
        <time>2013-09-19T18:18:30.006Z</time>
      </trkpt>
      <trkpt lat="48.89305" lon="2.3259">
        <ele>110.8</ele>
        <time>2013-09-19T18:18:31.009Z</time>
      </trkpt>
      <trkpt lat="48.89305" lon="2.32577">
        <ele>110.3</ele>
        <time>2013-09-19T18:18:33.009Z</time>
      </trkpt>
      <trkpt lat="48.89306" lon="2.32572">
        <ele>109.6</ele>
        <time>2013-09-19T18:18:34.002Z</time>
      </trkpt>
      <trkpt lat="48.89307" lon="2.3256">
        <ele>109</ele>
        <time>2013-09-19T18:18:35.992Z</time>
      </trkpt>
      <trkpt lat="48.89308" lon="2.32554">
        <ele>111.1</ele>
        <time>2013-09-19T18:18:37.052Z</time>
      </trkpt>
      <trkpt lat="48.89309" lon="2.32547">
        <ele>112.2</ele>
        <time>2013-09-19T18:18:37.994Z</time>
      </trkpt>
      <trkpt lat="48.89311" lon="2.3254">
        <ele>111.7</ele>
        <time>2013-09-19T18:18:39.018Z</time>
      </trkpt>
      <trkpt lat="48.89319" lon="2.32537">
        <ele>110</ele>
        <time>2013-09-19T18:18:41.065Z</time>
      </trkpt>
      <trkpt lat="48.89328" lon="2.32541">
        <ele>106.6</ele>
        <time>2013-09-19T18:18:42.053Z</time>
      </trkpt>
      <trkpt lat="48.89341" lon="2.32547">
        <ele>103.8</ele>
        <time>2013-09-19T18:18:43.099Z</time>
      </trkpt>
      <trkpt lat="48.89352" lon="2.32553">
        <ele>103.1</ele>
        <time>2013-09-19T18:18:44.006Z</time>
      </trkpt>
      <trkpt lat="48.89363" lon="2.32561">
        <ele>102.2</ele>
        <time>2013-09-19T18:18:44.996Z</time>
      </trkpt>
      <trkpt lat="48.89371" lon="2.32568">
        <ele>99.6</ele>
        <time>2013-09-19T18:18:46.016Z</time>
      </trkpt>
      <trkpt lat="48.89379" lon="2.32571">
        <ele>100.5</ele>
        <time>2013-09-19T18:18:47.115Z</time>
      </trkpt>
      <trkpt lat="48.89383" lon="2.32573">
        <ele>100.4</ele>
        <time>2013-09-19T18:18:48.004Z</time>
      </trkpt>
      <trkpt lat="48.8939" lon="2.32576">
        <ele>100.7</ele>
        <time>2013-09-19T18:18:50.002Z</time>
      </trkpt>
      <trkpt lat="48.89392" lon="2.32578">
        <ele>101</ele>
        <time>2013-09-19T18:18:51.008Z</time>
      </trkpt>
      <trkpt lat="48.89398" lon="2.32581">
        <ele>101.4</ele>
        <time>2013-09-19T18:18:53.003Z</time>
      </trkpt>
      <trkpt lat="48.89401" lon="2.32582">
        <ele>101.5</ele>
        <time>2013-09-19T18:18:53.995Z</time>
      </trkpt>
      <trkpt lat="48.89409" lon="2.32585">
        <ele>104.3</ele>
        <time>2013-09-19T18:18:55.998Z</time>
      </trkpt>
      <trkpt lat="48.89413" lon="2.32587">
        <ele>106</ele>
        <time>2013-09-19T18:18:57.007Z</time>
      </trkpt>
      <trkpt lat="48.89417" lon="2.3259">
        <ele>104.1</ele>
        <time>2013-09-19T18:18:57.998Z</time>
      </trkpt>
      <trkpt lat="48.89422" lon="2.32593">
        <ele>105.2</ele>
        <time>2013-09-19T18:18:59.013Z</time>
      </trkpt>
      <trkpt lat="48.89426" lon="2.32596">
        <ele>105.1</ele>
        <time>2013-09-19T18:18:59.995Z</time>
      </trkpt>
      <trkpt lat="48.89431" lon="2.32599">
        <ele>107</ele>
        <time>2013-09-19T18:19:01.006Z</time>
      </trkpt>
      <trkpt lat="48.89438" lon="2.32605">
        <ele>106.7</ele>
        <time>2013-09-19T18:19:03.754Z</time>
      </trkpt>
      <trkpt lat="48.89442" lon="2.32608">
        <ele>107.5</ele>
        <time>2013-09-19T18:19:03.989Z</time>
      </trkpt>
      <trkpt lat="48.8945" lon="2.32613">
        <ele>106.3</ele>
        <time>2013-09-19T18:19:06.003Z</time>
      </trkpt>
      <trkpt lat="48.89454" lon="2.32616">
        <ele>106.3</ele>
        <time>2013-09-19T18:19:06.999Z</time>
      </trkpt>
      <trkpt lat="48.89458" lon="2.32618">
        <ele>106.5</ele>
        <time>2013-09-19T18:19:08.015Z</time>
      </trkpt>
      <trkpt lat="48.89463" lon="2.3262">
        <ele>105.4</ele>
        <time>2013-09-19T18:19:08.998Z</time>
      </trkpt>
      <trkpt lat="48.89468" lon="2.32622">
        <ele>104.7</ele>
        <time>2013-09-19T18:19:10.012Z</time>
      </trkpt>
      <trkpt lat="48.89472" lon="2.32623">
        <ele>104.9</ele>
        <time>2013-09-19T18:19:11.071Z</time>
      </trkpt>
      <trkpt lat="48.89481" lon="2.32625">
        <ele>103.5</ele>
        <time>2013-09-19T18:19:13.021Z</time>
      </trkpt>
      <trkpt lat="48.89485" lon="2.32625">
        <ele>103.6</ele>
        <time>2013-09-19T18:19:14.005Z</time>
      </trkpt>
      <trkpt lat="48.89494" lon="2.32625">
        <ele>103.5</ele>
        <time>2013-09-19T18:19:16.011Z</time>
      </trkpt>
      <trkpt lat="48.89498" lon="2.32626">
        <ele>104.4</ele>
        <time>2013-09-19T18:19:17.022Z</time>
      </trkpt>
      <trkpt lat="48.89504" lon="2.32631">
        <ele>104.6</ele>
        <time>2013-09-19T18:19:19.073Z</time>
      </trkpt>
      <trkpt lat="48.89508" lon="2.32634">
        <ele>104.5</ele>
        <time>2013-09-19T18:19:20.054Z</time>
      </trkpt>
      <trkpt lat="48.89514" lon="2.32639">
        <ele>105.2</ele>
        <time>2013-09-19T18:19:22.001Z</time>
      </trkpt>
      <trkpt lat="48.89517" lon="2.32641">
        <ele>105.1</ele>
        <time>2013-09-19T18:19:23.003Z</time>
      </trkpt>
      <trkpt lat="48.89525" lon="2.32642">
        <ele>105</ele>
        <time>2013-09-19T18:19:26.069Z</time>
      </trkpt>
      <trkpt lat="48.89528" lon="2.32642">
        <ele>105.1</ele>
        <time>2013-09-19T18:19:27.079Z</time>
      </trkpt>
      <trkpt lat="48.89534" lon="2.32641">
        <ele>103.7</ele>
        <time>2013-09-19T18:19:29.016Z</time>
      </trkpt>
      <trkpt lat="48.89537" lon="2.3264">
        <ele>103.7</ele>
        <time>2013-09-19T18:19:29.998Z</time>
      </trkpt>
      <trkpt lat="48.89544" lon="2.32639">
        <ele>100.3</ele>
        <time>2013-09-19T18:19:32.017Z</time>
      </trkpt>
      <trkpt lat="48.89547" lon="2.32639">
        <ele>98.3</ele>
        <time>2013-09-19T18:19:33.006Z</time>
      </trkpt>
      <trkpt lat="48.89553" lon="2.32636">
        <ele>98.4</ele>
        <time>2013-09-19T18:19:35.087Z</time>
      </trkpt>
      <trkpt lat="48.89555" lon="2.32632">
        <ele>99.3</ele>
        <time>2013-09-19T18:19:36.060Z</time>
      </trkpt>
      <trkpt lat="48.89558" lon="2.32624">
        <ele>98.8</ele>
        <time>2013-09-19T18:19:38.002Z</time>
      </trkpt>
      <trkpt lat="48.89559" lon="2.32619">
        <ele>98.2</ele>
        <time>2013-09-19T18:19:39.003Z</time>
      </trkpt>
      <trkpt lat="48.89561" lon="2.3261">
        <ele>97.3</ele>
        <time>2013-09-19T18:19:41.032Z</time>
      </trkpt>
      <trkpt lat="48.89561" lon="2.32603">
        <ele>96.4</ele>
        <time>2013-09-19T18:19:42.086Z</time>
      </trkpt>
      <trkpt lat="48.89563" lon="2.32591">
        <ele>96.6</ele>
        <time>2013-09-19T18:19:44.056Z</time>
      </trkpt>
      <trkpt lat="48.89564" lon="2.32584">
        <ele>97.2</ele>
        <time>2013-09-19T18:19:45.036Z</time>
      </trkpt>
      <trkpt lat="48.89565" lon="2.3257">
        <ele>97</ele>
        <time>2013-09-19T18:19:47.061Z</time>
      </trkpt>
      <trkpt lat="48.89565" lon="2.32565">
        <ele>97.8</ele>
        <time>2013-09-19T18:19:48.045Z</time>
      </trkpt>
      <trkpt lat="48.89566" lon="2.32553">
        <ele>96.2</ele>
        <time>2013-09-19T18:19:50.047Z</time>
      </trkpt>
      <trkpt lat="48.89566" lon="2.32547">
        <ele>94.3</ele>
        <time>2013-09-19T18:19:51.080Z</time>
      </trkpt>
      <trkpt lat="48.89567" lon="2.32534">
        <ele>93.6</ele>
        <time>2013-09-19T18:19:53.024Z</time>
      </trkpt>
      <trkpt lat="48.89568" lon="2.32527">
        <ele>93.9</ele>
        <time>2013-09-19T18:19:54.010Z</time>
      </trkpt>
      <trkpt lat="48.8957" lon="2.3252">
        <ele>94.1</ele>
        <time>2013-09-19T18:19:55.007Z</time>
      </trkpt>
      <trkpt lat="48.89572" lon="2.32513">
        <ele>94.8</ele>
        <time>2013-09-19T18:19:56.007Z</time>
      </trkpt>
      <trkpt lat="48.89575" lon="2.32507">
        <ele>94.3</ele>
        <time>2013-09-19T18:19:57.110Z</time>
      </trkpt>
      <trkpt lat="48.89578" lon="2.32502">
        <ele>95.8</ele>
        <time>2013-09-19T18:19:58.057Z</time>
      </trkpt>
      <trkpt lat="48.89582" lon="2.3249">
        <ele>101.4</ele>
        <time>2013-09-19T18:20:00.052Z</time>
      </trkpt>
      <trkpt lat="48.89583" lon="2.32484">
        <ele>101.4</ele>
        <time>2013-09-19T18:20:01.001Z</time>
      </trkpt>
      <trkpt lat="48.89584" lon="2.32472">
        <ele>101.4</ele>
        <time>2013-09-19T18:20:03.023Z</time>
      </trkpt>
      <trkpt lat="48.89585" lon="2.32465">
        <ele>101.9</ele>
        <time>2013-09-19T18:20:04.007Z</time>
      </trkpt>
      <trkpt lat="48.89586" lon="2.32452">
        <ele>101.1</ele>
        <time>2013-09-19T18:20:06.113Z</time>
      </trkpt>
      <trkpt lat="48.89586" lon="2.32446">
        <ele>101.1</ele>
        <time>2013-09-19T18:20:07.151Z</time>
      </trkpt>
      <trkpt lat="48.89584" lon="2.32433">
        <ele>97.4</ele>
        <time>2013-09-19T18:20:09.039Z</time>
      </trkpt>
      <trkpt lat="48.89584" lon="2.32427">
        <ele>97</ele>
        <time>2013-09-19T18:20:10.010Z</time>
      </trkpt>
      <trkpt lat="48.89583" lon="2.3242">
        <ele>98.1</ele>
        <time>2013-09-19T18:20:11.004Z</time>
      </trkpt>
      <trkpt lat="48.89582" lon="2.32412">
        <ele>97.2</ele>
        <time>2013-09-19T18:20:12.009Z</time>
      </trkpt>
      <trkpt lat="48.89582" lon="2.32405">
        <ele>97</ele>
        <time>2013-09-19T18:20:13.033Z</time>
      </trkpt>
      <trkpt lat="48.89581" lon="2.32398">
        <ele>97.1</ele>
        <time>2013-09-19T18:20:14.022Z</time>
      </trkpt>
      <trkpt lat="48.8958" lon="2.32385">
        <ele>96.9</ele>
        <time>2013-09-19T18:20:16.102Z</time>
      </trkpt>
      <trkpt lat="48.89579" lon="2.32379">
        <ele>96.8</ele>
        <time>2013-09-19T18:20:17.025Z</time>
      </trkpt>
      <trkpt lat="48.89577" lon="2.32367">
        <ele>95.4</ele>
        <time>2013-09-19T18:20:20.017Z</time>
      </trkpt>
      <trkpt lat="48.89575" lon="2.32365">
        <ele>94.5</ele>
        <time>2013-09-19T18:20:21.026Z</time>
      </trkpt>
      <trkpt lat="48.89567" lon="2.32361">
        <ele>95.8</ele>
        <time>2013-09-19T18:20:25.030Z</time>
      </trkpt>
      <trkpt lat="48.89565" lon="2.32359">
        <ele>95.2</ele>
        <time>2013-09-19T18:20:25.990Z</time>
      </trkpt>
      <trkpt lat="48.89559" lon="2.32354">
        <ele>96.5</ele>
        <time>2013-09-19T18:20:28.035Z</time>
      </trkpt>
      <trkpt lat="48.89557" lon="2.32351">
        <ele>96.9</ele>
        <time>2013-09-19T18:20:29.023Z</time>
      </trkpt>
      <trkpt lat="48.89549" lon="2.32345">
        <ele>97.9</ele>
        <time>2013-09-19T18:20:32.018Z</time>
      </trkpt>
      <trkpt lat="48.89546" lon="2.32343">
        <ele>98.6</ele>
        <time>2013-09-19T18:20:33.015Z</time>
      </trkpt>
      <trkpt lat="48.89538" lon="2.3234">
        <ele>97.9</ele>
        <time>2013-09-19T18:20:36.005Z</time>
      </trkpt>
      <trkpt lat="48.89534" lon="2.32339">
        <ele>97.3</ele>
        <time>2013-09-19T18:20:37.037Z</time>
      </trkpt>
      <trkpt lat="48.89526" lon="2.32338">
        <ele>96</ele>
        <time>2013-09-19T18:20:39.002Z</time>
      </trkpt>
      <trkpt lat="48.89521" lon="2.32336">
        <ele>94.8</ele>
        <time>2013-09-19T18:20:40.012Z</time>
      </trkpt>
      <trkpt lat="48.89514" lon="2.3233">
        <ele>94.3</ele>
        <time>2013-09-19T18:20:41.004Z</time>
      </trkpt>
      <trkpt lat="48.89506" lon="2.32323">
        <ele>92.7</ele>
        <time>2013-09-19T18:20:42.034Z</time>
      </trkpt>
      <trkpt lat="48.89498" lon="2.32316">
        <ele>93.1</ele>
        <time>2013-09-19T18:20:43.005Z</time>
      </trkpt>
      <trkpt lat="48.89492" lon="2.32311">
        <ele>92.9</ele>
        <time>2013-09-19T18:20:44.012Z</time>
      </trkpt>
      <trkpt lat="48.89484" lon="2.32306">
        <ele>94.4</ele>
        <time>2013-09-19T18:20:45.022Z</time>
      </trkpt>
      <trkpt lat="48.89478" lon="2.32304">
        <ele>95.1</ele>
        <time>2013-09-19T18:20:46.073Z</time>
      </trkpt>
      <trkpt lat="48.89473" lon="2.32303">
        <ele>94.2</ele>
        <time>2013-09-19T18:20:47.045Z</time>
      </trkpt>
      <trkpt lat="48.89467" lon="2.32301">
        <ele>94.5</ele>
        <time>2013-09-19T18:20:48.009Z</time>
      </trkpt>
      <trkpt lat="48.89462" lon="2.32298">
        <ele>94.6</ele>
        <time>2013-09-19T18:20:49.004Z</time>
      </trkpt>
      <trkpt lat="48.89457" lon="2.32295">
        <ele>94.9</ele>
        <time>2013-09-19T18:20:50.045Z</time>
      </trkpt>
      <trkpt lat="48.89452" lon="2.32291">
        <ele>96</ele>
        <time>2013-09-19T18:20:51.020Z</time>
      </trkpt>
      <trkpt lat="48.89446" lon="2.32287">
        <ele>97.1</ele>
        <time>2013-09-19T18:20:52.050Z</time>
      </trkpt>
      <trkpt lat="48.89441" lon="2.32283">
        <ele>96.9</ele>
        <time>2013-09-19T18:20:53.038Z</time>
      </trkpt>
      <trkpt lat="48.89437" lon="2.32279">
        <ele>97.5</ele>
        <time>2013-09-19T18:20:54.021Z</time>
      </trkpt>
      <trkpt lat="48.89433" lon="2.3227">
        <ele>96.8</ele>
        <time>2013-09-19T18:20:55.075Z</time>
      </trkpt>
      <trkpt lat="48.8943" lon="2.32258">
        <ele>96.2</ele>
        <time>2013-09-19T18:20:56.126Z</time>
      </trkpt>
      <trkpt lat="48.89428" lon="2.32244">
        <ele>95.6</ele>
        <time>2013-09-19T18:20:57.042Z</time>
      </trkpt>
      <trkpt lat="48.89426" lon="2.3223">
        <ele>95.2</ele>
        <time>2013-09-19T18:20:58.135Z</time>
      </trkpt>
      <trkpt lat="48.89432" lon="2.32226">
        <ele>94.6</ele>
        <time>2013-09-19T18:20:59.028Z</time>
      </trkpt>
      <trkpt lat="48.89436" lon="2.32223">
        <ele>95.4</ele>
        <time>2013-09-19T18:21:00.090Z</time>
      </trkpt>
      <trkpt lat="48.89443" lon="2.32217">
        <ele>97.1</ele>
        <time>2013-09-19T18:21:02.150Z</time>
      </trkpt>
      <trkpt lat="48.89445" lon="2.32214">
        <ele>96.8</ele>
        <time>2013-09-19T18:21:03.005Z</time>
      </trkpt>
      <trkpt lat="48.89449" lon="2.32202">
        <ele>95.7</ele>
        <time>2013-09-19T18:21:07.000Z</time>
      </trkpt>
      <trkpt lat="48.89448" lon="2.32199">
        <ele>95.7</ele>
        <time>2013-09-19T18:21:08.011Z</time>
      </trkpt>
      <trkpt lat="48.89441" lon="2.32191">
        <ele>101.1</ele>
        <time>2013-09-19T18:21:18.015Z</time>
      </trkpt>
      <trkpt lat="48.89438" lon="2.32189">
        <ele>99.4</ele>
        <time>2013-09-19T18:21:19.000Z</time>
      </trkpt>
      <trkpt lat="48.8943" lon="2.32185">
        <ele>100.7</ele>
        <time>2013-09-19T18:21:22.063Z</time>
      </trkpt>
      <trkpt lat="48.89429" lon="2.32184">
        <ele>99.5</ele>
        <time>2013-09-19T18:21:23.005Z</time>
      </trkpt>
      <trkpt lat="48.89421" lon="2.3218">
        <ele>101.9</ele>
        <time>2013-09-19T18:21:27.153Z</time>
      </trkpt>
      <trkpt lat="48.89417" lon="2.32178">
        <ele>100.4</ele>
        <time>2013-09-19T18:21:28.086Z</time>
      </trkpt>
      <trkpt lat="48.8941" lon="2.32173">
        <ele>95.5</ele>
        <time>2013-09-19T18:21:30.120Z</time>
      </trkpt>
      <trkpt lat="48.89407" lon="2.32171">
        <ele>94.8</ele>
        <time>2013-09-19T18:21:31.012Z</time>
      </trkpt>
      <trkpt lat="48.89399" lon="2.32164">
        <ele>91.8</ele>
        <time>2013-09-19T18:21:36.817Z</time>
      </trkpt>
      <trkpt lat="48.89398" lon="2.3216">
        <ele>93</ele>
        <time>2013-09-19T18:21:37.149Z</time>
      </trkpt>
      <trkpt lat="48.89398" lon="2.32148">
        <ele>90.9</ele>
        <time>2013-09-19T18:21:39.026Z</time>
      </trkpt>
      <trkpt lat="48.89399" lon="2.32141">
        <ele>91.2</ele>
        <time>2013-09-19T18:21:40.024Z</time>
      </trkpt>
      <trkpt lat="48.894" lon="2.32128">
        <ele>90.7</ele>
        <time>2013-09-19T18:21:42.041Z</time>
      </trkpt>
      <trkpt lat="48.89402" lon="2.32123">
        <ele>89.8</ele>
        <time>2013-09-19T18:21:43.022Z</time>
      </trkpt>
      <trkpt lat="48.89405" lon="2.32113">
        <ele>90.1</ele>
        <time>2013-09-19T18:21:45.005Z</time>
      </trkpt>
      <trkpt lat="48.89407" lon="2.32109">
        <ele>89.5</ele>
        <time>2013-09-19T18:21:46.017Z</time>
      </trkpt>
      <trkpt lat="48.8941" lon="2.32097">
        <ele>87.2</ele>
        <time>2013-09-19T18:21:49.020Z</time>
      </trkpt>
      <trkpt lat="48.89412" lon="2.32094">
        <ele>87.1</ele>
        <time>2013-09-19T18:21:50.007Z</time>
      </trkpt>
      <trkpt lat="48.89415" lon="2.32086">
        <ele>86.6</ele>
        <time>2013-09-19T18:21:52.061Z</time>
      </trkpt>
      <trkpt lat="48.89417" lon="2.32083">
        <ele>85.8</ele>
        <time>2013-09-19T18:21:53.041Z</time>
      </trkpt>
      <trkpt lat="48.89421" lon="2.32075">
        <ele>87.2</ele>
        <time>2013-09-19T18:21:55.011Z</time>
      </trkpt>
      <trkpt lat="48.89423" lon="2.32072">
        <ele>87.1</ele>
        <time>2013-09-19T18:21:56.026Z</time>
      </trkpt>
      <trkpt lat="48.89428" lon="2.32063">
        <ele>87.7</ele>
        <time>2013-09-19T18:22:00.076Z</time>
      </trkpt>
      <trkpt lat="48.89429" lon="2.32061">
        <ele>87.7</ele>
        <time>2013-09-19T18:22:01.023Z</time>
      </trkpt>
      <trkpt lat="48.89425" lon="2.32051">
        <ele>90.8</ele>
        <time>2013-09-19T18:22:08.015Z</time>
      </trkpt>
      <trkpt lat="48.89415" lon="2.32048">
        <ele>91.1</ele>
        <time>2013-09-19T18:22:09.100Z</time>
      </trkpt>
      <trkpt lat="48.89405" lon="2.32045">
        <ele>91.1</ele>
        <time>2013-09-19T18:22:10.018Z</time>
      </trkpt>
      <trkpt lat="48.89394" lon="2.3204">
        <ele>90.4</ele>
        <time>2013-09-19T18:22:11.109Z</time>
      </trkpt>
      <trkpt lat="48.89387" lon="2.32036">
        <ele>91.5</ele>
        <time>2013-09-19T18:22:12.033Z</time>
      </trkpt>
      <trkpt lat="48.8938" lon="2.32032">
        <ele>90.8</ele>
        <time>2013-09-19T18:22:13.107Z</time>
      </trkpt>
      <trkpt lat="48.89376" lon="2.32029">
        <ele>91.1</ele>
        <time>2013-09-19T18:22:14.061Z</time>
      </trkpt>
      <trkpt lat="48.89371" lon="2.32026">
        <ele>92.5</ele>
        <time>2013-09-19T18:22:15.014Z</time>
      </trkpt>
      <trkpt lat="48.89363" lon="2.32023">
        <ele>94.5</ele>
        <time>2013-09-19T18:22:17.084Z</time>
      </trkpt>
      <trkpt lat="48.8936" lon="2.32024">
        <ele>97.3</ele>
        <time>2013-09-19T18:22:18.093Z</time>
      </trkpt>
      <trkpt lat="48.89352" lon="2.32025">
        <ele>98.4</ele>
        <time>2013-09-19T18:22:21.124Z</time>
      </trkpt>
      <trkpt lat="48.89349" lon="2.32025">
        <ele>98.6</ele>
        <time>2013-09-19T18:22:22.102Z</time>
      </trkpt>
      <trkpt lat="48.89343" lon="2.32023">
        <ele>101.3</ele>
        <time>2013-09-19T18:22:24.018Z</time>
      </trkpt>
      <trkpt lat="48.89339" lon="2.32022">
        <ele>103.2</ele>
        <time>2013-09-19T18:22:25.079Z</time>
      </trkpt>
      <trkpt lat="48.89332" lon="2.32016">
        <ele>101.3</ele>
        <time>2013-09-19T18:22:27.142Z</time>
      </trkpt>
      <trkpt lat="48.89328" lon="2.32012">
        <ele>101.6</ele>
        <time>2013-09-19T18:22:28.027Z</time>
      </trkpt>
      <trkpt lat="48.89324" lon="2.32007">
        <ele>101.2</ele>
        <time>2013-09-19T18:22:29.124Z</time>
      </trkpt>
      <trkpt lat="48.89321" lon="2.32002">
        <ele>101.4</ele>
        <time>2013-09-19T18:22:30.036Z</time>
      </trkpt>
      <trkpt lat="48.89317" lon="2.31997">
        <ele>100.7</ele>
        <time>2013-09-19T18:22:31.084Z</time>
      </trkpt>
      <trkpt lat="48.89313" lon="2.31993">
        <ele>100.4</ele>
        <time>2013-09-19T18:22:32.166Z</time>
      </trkpt>
      <trkpt lat="48.89305" lon="2.31986">
        <ele>99.8</ele>
        <time>2013-09-19T18:22:34.105Z</time>
      </trkpt>
      <trkpt lat="48.89301" lon="2.31983">
        <ele>99.4</ele>
        <time>2013-09-19T18:22:35.029Z</time>
      </trkpt>
      <trkpt lat="48.89294" lon="2.31978">
        <ele>99.7</ele>
        <time>2013-09-19T18:22:37.059Z</time>
      </trkpt>
      <trkpt lat="48.89292" lon="2.31976">
        <ele>101.1</ele>
        <time>2013-09-19T18:22:38.111Z</time>
      </trkpt>
      <trkpt lat="48.89284" lon="2.31973">
        <ele>97.6</ele>
        <time>2013-09-19T18:22:50.055Z</time>
      </trkpt>
      <trkpt lat="48.89282" lon="2.31971">
        <ele>97.7</ele>
        <time>2013-09-19T18:22:51.010Z</time>
      </trkpt>
      <trkpt lat="48.89275" lon="2.31967">
        <ele>97.3</ele>
        <time>2013-09-19T18:22:56.010Z</time>
      </trkpt>
      <trkpt lat="48.89272" lon="2.31964">
        <ele>97.1</ele>
        <time>2013-09-19T18:22:57.092Z</time>
      </trkpt>
      <trkpt lat="48.89268" lon="2.3196">
        <ele>96.9</ele>
        <time>2013-09-19T18:22:58.209Z</time>
      </trkpt>
      <trkpt lat="48.89262" lon="2.31955">
        <ele>96.7</ele>
        <time>2013-09-19T18:22:59.020Z</time>
      </trkpt>
      <trkpt lat="48.89256" lon="2.3195">
        <ele>97.9</ele>
        <time>2013-09-19T18:23:00.096Z</time>
      </trkpt>
      <trkpt lat="48.89247" lon="2.31942">
        <ele>96.8</ele>
        <time>2013-09-19T18:23:01.022Z</time>
      </trkpt>
      <trkpt lat="48.89228" lon="2.31926">
        <ele>92.5</ele>
        <time>2013-09-19T18:23:02.144Z</time>
      </trkpt>
      <trkpt lat="48.89228" lon="2.31926">
        <ele>92.5</ele>
        <time>2013-09-19T18:23:02.184Z</time>
      </trkpt>
      <trkpt lat="48.89212" lon="2.31913">
        <ele>92.3</ele>
        <time>2013-09-19T18:23:03.045Z</time>
      </trkpt>
      <trkpt lat="48.89198" lon="2.31904">
        <ele>93.2</ele>
        <time>2013-09-19T18:23:04.025Z</time>
      </trkpt>
      <trkpt lat="48.89186" lon="2.31896">
        <ele>93</ele>
        <time>2013-09-19T18:23:05.032Z</time>
      </trkpt>
      <trkpt lat="48.89175" lon="2.31888">
        <ele>91.9</ele>
        <time>2013-09-19T18:23:06.135Z</time>
      </trkpt>
      <trkpt lat="48.89168" lon="2.31883">
        <ele>92.5</ele>
        <time>2013-09-19T18:23:07.352Z</time>
      </trkpt>
      <trkpt lat="48.89162" lon="2.31878">
        <ele>92.5</ele>
        <time>2013-09-19T18:23:08.117Z</time>
      </trkpt>
      <trkpt lat="48.89168" lon="2.31872">
        <ele>94.5</ele>
        <time>2013-09-19T18:23:15.091Z</time>
      </trkpt>
      <trkpt lat="48.89169" lon="2.3187">
        <ele>93.4</ele>
        <time>2013-09-19T18:23:16.030Z</time>
      </trkpt>
      <trkpt lat="48.89164" lon="2.31859">
        <ele>97.2</ele>
        <time>2013-09-19T18:23:21.048Z</time>
      </trkpt>
      <trkpt lat="48.89162" lon="2.31856">
        <ele>95.2</ele>
        <time>2013-09-19T18:23:22.241Z</time>
      </trkpt>
      <trkpt lat="48.89156" lon="2.31854">
        <ele>95.2</ele>
        <time>2013-09-19T18:23:24.017Z</time>
      </trkpt>
      <trkpt lat="48.89153" lon="2.31853">
        <ele>96</ele>
        <time>2013-09-19T18:23:25.018Z</time>
      </trkpt>
      <trkpt lat="48.89146" lon="2.3185">
        <ele>98.5</ele>
        <time>2013-09-19T18:23:27.459Z</time>
      </trkpt>
      <trkpt lat="48.89142" lon="2.31849">
        <ele>99.9</ele>
        <time>2013-09-19T18:23:28.110Z</time>
      </trkpt>
      <trkpt lat="48.89135" lon="2.31845">
        <ele>101.4</ele>
        <time>2013-09-19T18:23:30.024Z</time>
      </trkpt>
      <trkpt lat="48.89132" lon="2.31843">
        <ele>104</ele>
        <time>2013-09-19T18:23:31.025Z</time>
      </trkpt>
      <trkpt lat="48.89125" lon="2.31836">
        <ele>104.4</ele>
        <time>2013-09-19T18:23:33.179Z</time>
      </trkpt>
      <trkpt lat="48.89122" lon="2.31833">
        <ele>104.6</ele>
        <time>2013-09-19T18:23:34.042Z</time>
      </trkpt>
      <trkpt lat="48.89116" lon="2.31825">
        <ele>106.3</ele>
        <time>2013-09-19T18:23:36.804Z</time>
      </trkpt>
      <trkpt lat="48.89113" lon="2.31822">
        <ele>106.1</ele>
        <time>2013-09-19T18:23:37.047Z</time>
      </trkpt>
      <trkpt lat="48.89107" lon="2.31815">
        <ele>106.6</ele>
        <time>2013-09-19T18:23:39.034Z</time>
      </trkpt>
      <trkpt lat="48.89104" lon="2.31812">
        <ele>106.5</ele>
        <time>2013-09-19T18:23:40.123Z</time>
      </trkpt>
      <trkpt lat="48.89097" lon="2.31804">
        <ele>106.3</ele>
        <time>2013-09-19T18:23:42.178Z</time>
      </trkpt>
      <trkpt lat="48.89094" lon="2.31798">
        <ele>106.6</ele>
        <time>2013-09-19T18:23:43.107Z</time>
      </trkpt>
      <trkpt lat="48.8909" lon="2.31792">
        <ele>106.6</ele>
        <time>2013-09-19T18:23:44.030Z</time>
      </trkpt>
      <trkpt lat="48.89085" lon="2.31784">
        <ele>106.6</ele>
        <time>2013-09-19T18:23:45.018Z</time>
      </trkpt>
      <trkpt lat="48.89081" lon="2.31779">
        <ele>108.5</ele>
        <time>2013-09-19T18:23:46.853Z</time>
      </trkpt>
      <trkpt lat="48.89078" lon="2.31774">
        <ele>108.8</ele>
        <time>2013-09-19T18:23:47.170Z</time>
      </trkpt>
      <trkpt lat="48.89073" lon="2.31768">
        <ele>110.7</ele>
        <time>2013-09-19T18:23:49.154Z</time>
      </trkpt>
      <trkpt lat="48.8907" lon="2.31766">
        <ele>108.1</ele>
        <time>2013-09-19T18:23:50.054Z</time>
      </trkpt>
      <trkpt lat="48.89066" lon="2.31762">
        <ele>108.1</ele>
        <time>2013-09-19T18:23:51.899Z</time>
      </trkpt>
      <trkpt lat="48.89061" lon="2.31758">
        <ele>102.8</ele>
        <time>2013-09-19T18:23:52.105Z</time>
      </trkpt>
      <trkpt lat="48.89055" lon="2.31754">
        <ele>97.2</ele>
        <time>2013-09-19T18:23:53.051Z</time>
      </trkpt>
      <trkpt lat="48.89047" lon="2.31749">
        <ele>94.1</ele>
        <time>2013-09-19T18:23:54.173Z</time>
      </trkpt>
      <trkpt lat="48.89041" lon="2.31745">
        <ele>93.3</ele>
        <time>2013-09-19T18:23:55.033Z</time>
      </trkpt>
      <trkpt lat="48.89034" lon="2.31741">
        <ele>92</ele>
        <time>2013-09-19T18:23:56.170Z</time>
      </trkpt>
      <trkpt lat="48.89029" lon="2.31738">
        <ele>91.2</ele>
        <time>2013-09-19T18:23:57.105Z</time>
      </trkpt>
      <trkpt lat="48.89025" lon="2.31734">
        <ele>91.8</ele>
        <time>2013-09-19T18:23:58.164Z</time>
      </trkpt>
      <trkpt lat="48.89017" lon="2.31727">
        <ele>92.1</ele>
        <time>2013-09-19T18:24:00.081Z</time>
      </trkpt>
      <trkpt lat="48.89013" lon="2.31723">
        <ele>93.6</ele>
        <time>2013-09-19T18:24:01.149Z</time>
      </trkpt>
      <trkpt lat="48.8901" lon="2.31719">
        <ele>93.2</ele>
        <time>2013-09-19T18:24:02.075Z</time>
      </trkpt>
      <trkpt lat="48.89006" lon="2.31714">
        <ele>92.4</ele>
        <time>2013-09-19T18:24:03.018Z</time>
      </trkpt>
      <trkpt lat="48.89002" lon="2.3171">
        <ele>92.2</ele>
        <time>2013-09-19T18:24:04.018Z</time>
      </trkpt>
      <trkpt lat="48.88996" lon="2.31705">
        <ele>91.7</ele>
        <time>2013-09-19T18:24:05.145Z</time>
      </trkpt>
      <trkpt lat="48.88991" lon="2.31701">
        <ele>91.7</ele>
        <time>2013-09-19T18:24:06.973Z</time>
      </trkpt>
      <trkpt lat="48.88985" lon="2.31697">
        <ele>91.2</ele>
        <time>2013-09-19T18:24:07.154Z</time>
      </trkpt>
      <trkpt lat="48.8898" lon="2.31692">
        <ele>90.5</ele>
        <time>2013-09-19T18:24:08.153Z</time>
      </trkpt>
      <trkpt lat="48.88975" lon="2.31689">
        <ele>90.5</ele>
        <time>2013-09-19T18:24:09.060Z</time>
      </trkpt>
      <trkpt lat="48.88968" lon="2.31684">
        <ele>93.1</ele>
        <time>2013-09-19T18:24:11.034Z</time>
      </trkpt>
      <trkpt lat="48.88965" lon="2.31682">
        <ele>93.6</ele>
        <time>2013-09-19T18:24:12.034Z</time>
      </trkpt>
      <trkpt lat="48.88958" lon="2.31673">
        <ele>94.4</ele>
        <time>2013-09-19T18:24:14.157Z</time>
      </trkpt>
      <trkpt lat="48.88955" lon="2.31669">
        <ele>94.6</ele>
        <time>2013-09-19T18:24:15.111Z</time>
      </trkpt>
      <trkpt lat="48.88952" lon="2.31664">
        <ele>94</ele>
        <time>2013-09-19T18:24:16.091Z</time>
      </trkpt>
      <trkpt lat="48.88948" lon="2.31659">
        <ele>93.6</ele>
        <time>2013-09-19T18:24:17.180Z</time>
      </trkpt>
      <trkpt lat="48.88944" lon="2.31655">
        <ele>93.9</ele>
        <time>2013-09-19T18:24:18.029Z</time>
      </trkpt>
      <trkpt lat="48.88939" lon="2.3165">
        <ele>94.5</ele>
        <time>2013-09-19T18:24:19.039Z</time>
      </trkpt>
      <trkpt lat="48.88935" lon="2.31646">
        <ele>94</ele>
        <time>2013-09-19T18:24:20.048Z</time>
      </trkpt>
      <trkpt lat="48.88931" lon="2.31642">
        <ele>93.6</ele>
        <time>2013-09-19T18:24:21.175Z</time>
      </trkpt>
      <trkpt lat="48.88924" lon="2.31635">
        <ele>90.8</ele>
        <time>2013-09-19T18:24:23.058Z</time>
      </trkpt>
      <trkpt lat="48.8892" lon="2.31632">
        <ele>91.2</ele>
        <time>2013-09-19T18:24:24.020Z</time>
      </trkpt>
      <trkpt lat="48.88913" lon="2.31624">
        <ele>91.3</ele>
        <time>2013-09-19T18:24:26.022Z</time>
      </trkpt>
      <trkpt lat="48.88909" lon="2.3162">
        <ele>92</ele>
        <time>2013-09-19T18:24:27.092Z</time>
      </trkpt>
      <trkpt lat="48.88901" lon="2.31613">
        <ele>92.4</ele>
        <time>2013-09-19T18:24:29.049Z</time>
      </trkpt>
      <trkpt lat="48.88898" lon="2.31609">
        <ele>92.3</ele>
        <time>2013-09-19T18:24:30.029Z</time>
      </trkpt>
      <trkpt lat="48.88894" lon="2.31605">
        <ele>92.9</ele>
        <time>2013-09-19T18:24:31.028Z</time>
      </trkpt>
      <trkpt lat="48.8889" lon="2.31601">
        <ele>92.6</ele>
        <time>2013-09-19T18:24:32.095Z</time>
      </trkpt>
      <trkpt lat="48.88886" lon="2.31597">
        <ele>90.5</ele>
        <time>2013-09-19T18:24:33.637Z</time>
      </trkpt>
      <trkpt lat="48.88882" lon="2.31594">
        <ele>90</ele>
        <time>2013-09-19T18:24:34.025Z</time>
      </trkpt>
      <trkpt lat="48.88878" lon="2.3159">
        <ele>89.7</ele>
        <time>2013-09-19T18:24:35.021Z</time>
      </trkpt>
      <trkpt lat="48.88874" lon="2.31587">
        <ele>90.3</ele>
        <time>2013-09-19T18:24:36.028Z</time>
      </trkpt>
      <trkpt lat="48.88867" lon="2.31581">
        <ele>92</ele>
        <time>2013-09-19T18:24:38.036Z</time>
      </trkpt>
      <trkpt lat="48.88864" lon="2.31578">
        <ele>91.7</ele>
        <time>2013-09-19T18:24:39.022Z</time>
      </trkpt>
      <trkpt lat="48.88857" lon="2.31572">
        <ele>94.3</ele>
        <time>2013-09-19T18:24:42.061Z</time>
      </trkpt>
      <trkpt lat="48.88855" lon="2.31571">
        <ele>97</ele>
        <time>2013-09-19T18:24:43.070Z</time>
      </trkpt>
      <trkpt lat="48.88848" lon="2.31564">
        <ele>98.1</ele>
        <time>2013-09-19T18:24:46.847Z</time>
      </trkpt>
      <trkpt lat="48.88845" lon="2.31562">
        <ele>96.8</ele>
        <time>2013-09-19T18:24:47.119Z</time>
      </trkpt>
      <trkpt lat="48.8884" lon="2.31556">
        <ele>98.8</ele>
        <time>2013-09-19T18:24:49.056Z</time>
      </trkpt>
      <trkpt lat="48.88838" lon="2.31553">
        <ele>99.4</ele>
        <time>2013-09-19T18:24:50.022Z</time>
      </trkpt>
      <trkpt lat="48.88832" lon="2.31548">
        <ele>99.9</ele>
        <time>2013-09-19T18:24:52.109Z</time>
      </trkpt>
      <trkpt lat="48.88829" lon="2.31546">
        <ele>101</ele>
        <time>2013-09-19T18:24:53.034Z</time>
      </trkpt>
      <trkpt lat="48.88823" lon="2.31541">
        <ele>99.8</ele>
        <time>2013-09-19T18:24:55.024Z</time>
      </trkpt>
      <trkpt lat="48.8882" lon="2.31538">
        <ele>99.7</ele>
        <time>2013-09-19T18:24:56.021Z</time>
      </trkpt>
      <trkpt lat="48.88814" lon="2.31531">
        <ele>98</ele>
        <time>2013-09-19T18:24:58.047Z</time>
      </trkpt>
      <trkpt lat="48.88811" lon="2.31527">
        <ele>98.3</ele>
        <time>2013-09-19T18:24:59.040Z</time>
      </trkpt>
      <trkpt lat="48.88804" lon="2.31521">
        <ele>98.4</ele>
        <time>2013-09-19T18:25:01.945Z</time>
      </trkpt>
      <trkpt lat="48.88799" lon="2.31517">
        <ele>97.7</ele>
        <time>2013-09-19T18:25:02.231Z</time>
      </trkpt>
      <trkpt lat="48.88792" lon="2.3151">
        <ele>96.4</ele>
        <time>2013-09-19T18:25:04.024Z</time>
      </trkpt>
      <trkpt lat="48.88789" lon="2.31504">
        <ele>95.7</ele>
        <time>2013-09-19T18:25:05.169Z</time>
      </trkpt>
      <trkpt lat="48.88783" lon="2.31494">
        <ele>96.1</ele>
        <time>2013-09-19T18:25:07.045Z</time>
      </trkpt>
      <trkpt lat="48.8878" lon="2.31489">
        <ele>94</ele>
        <time>2013-09-19T18:25:08.033Z</time>
      </trkpt>
      <trkpt lat="48.88775" lon="2.3148">
        <ele>94.3</ele>
        <time>2013-09-19T18:25:10.029Z</time>
      </trkpt>
      <trkpt lat="48.88772" lon="2.31476">
        <ele>94.8</ele>
        <time>2013-09-19T18:25:11.033Z</time>
      </trkpt>
      <trkpt lat="48.88766" lon="2.31468">
        <ele>95.6</ele>
        <time>2013-09-19T18:25:13.025Z</time>
      </trkpt>
      <trkpt lat="48.88763" lon="2.31464">
        <ele>95.1</ele>
        <time>2013-09-19T18:25:14.038Z</time>
      </trkpt>
      <trkpt lat="48.88758" lon="2.31456">
        <ele>95.7</ele>
        <time>2013-09-19T18:25:16.032Z</time>
      </trkpt>
      <trkpt lat="48.88755" lon="2.31453">
        <ele>95.8</ele>
        <time>2013-09-19T18:25:17.041Z</time>
      </trkpt>
      <trkpt lat="48.88749" lon="2.31443">
        <ele>95.3</ele>
        <time>2013-09-19T18:25:20.026Z</time>
      </trkpt>
      <trkpt lat="48.88748" lon="2.3144">
        <ele>94.8</ele>
        <time>2013-09-19T18:25:21.025Z</time>
      </trkpt>
      <trkpt lat="48.88741" lon="2.3143">
        <ele>96.4</ele>
        <time>2013-09-19T18:25:28.041Z</time>
      </trkpt>
      <trkpt lat="48.88741" lon="2.3143">
        <ele>97</ele>
        <time>2013-09-19T18:25:29.043Z</time>
      </trkpt>
      <trkpt lat="48.88743" lon="2.31426">
        <ele>95.8</ele>
        <time>2013-09-19T18:25:41.044Z</time>
      </trkpt>
      <trkpt lat="48.88743" lon="2.31425">
        <ele>95.8</ele>
        <time>2013-09-19T18:25:42.037Z</time>
      </trkpt>
      <trkpt lat="48.88743" lon="2.31425">
        <ele>96.2</ele>
        <time>2013-09-19T18:25:49.175Z</time>
      </trkpt>
      <trkpt lat="48.88743" lon="2.31424">
        <ele>96.8</ele>
        <time>2013-09-19T18:25:50.181Z</time>
      </trkpt>
      <trkpt lat="48.8874" lon="2.31415">
        <ele>94.2</ele>
        <time>2013-09-19T18:25:53.058Z</time>
      </trkpt>
      <trkpt lat="48.88738" lon="2.31411">
        <ele>94</ele>
        <time>2013-09-19T18:25:54.042Z</time>
      </trkpt>
      <trkpt lat="48.88736" lon="2.31403">
        <ele>96.6</ele>
        <time>2013-09-19T18:25:56.034Z</time>
      </trkpt>
      <trkpt lat="48.88734" lon="2.31399">
        <ele>95.7</ele>
        <time>2013-09-19T18:25:57.057Z</time>
      </trkpt>
      <trkpt lat="48.8873" lon="2.31389">
        <ele>92.4</ele>
        <time>2013-09-19T18:25:59.029Z</time>
      </trkpt>
      <trkpt lat="48.88728" lon="2.31383">
        <ele>91.9</ele>
        <time>2013-09-19T18:26:00.087Z</time>
      </trkpt>
      <trkpt lat="48.88724" lon="2.31373">
        <ele>91.4</ele>
        <time>2013-09-19T18:26:02.089Z</time>
      </trkpt>
      <trkpt lat="48.88722" lon="2.31367">
        <ele>92.1</ele>
        <time>2013-09-19T18:26:03.030Z</time>
      </trkpt>
      <trkpt lat="48.88718" lon="2.31357">
        <ele>93</ele>
        <time>2013-09-19T18:26:05.081Z</time>
      </trkpt>
      <trkpt lat="48.88717" lon="2.31352">
        <ele>94.3</ele>
        <time>2013-09-19T18:26:06.030Z</time>
      </trkpt>
      <trkpt lat="48.88715" lon="2.31343">
        <ele>94</ele>
        <time>2013-09-19T18:26:08.035Z</time>
      </trkpt>
      <trkpt lat="48.88715" lon="2.31338">
        <ele>92.9</ele>
        <time>2013-09-19T18:26:09.036Z</time>
      </trkpt>
      <trkpt lat="48.88713" lon="2.31329">
        <ele>91.8</ele>
        <time>2013-09-19T18:26:11.118Z</time>
      </trkpt>
      <trkpt lat="48.88711" lon="2.31323">
        <ele>91.4</ele>
        <time>2013-09-19T18:26:12.216Z</time>
      </trkpt>
      <trkpt lat="48.88707" lon="2.31313">
        <ele>89.9</ele>
        <time>2013-09-19T18:26:14.085Z</time>
      </trkpt>
      <trkpt lat="48.88705" lon="2.31308">
        <ele>91</ele>
        <time>2013-09-19T18:26:15.154Z</time>
      </trkpt>
      <trkpt lat="48.88702" lon="2.31302">
        <ele>98.4</ele>
        <time>2013-09-19T18:26:21.073Z</time>
      </trkpt>
      <trkpt lat="48.88703" lon="2.31303">
        <ele>99.3</ele>
        <time>2013-09-19T18:26:22.072Z</time>
      </trkpt>
      <trkpt lat="48.88704" lon="2.31304">
        <ele>100.2</ele>
        <time>2013-09-19T18:26:23.071Z</time>
      </trkpt>
      <trkpt lat="48.88705" lon="2.31305">
        <ele>100.6</ele>
        <time>2013-09-19T18:26:27.039Z</time>
      </trkpt>
      <trkpt lat="48.88705" lon="2.31304">
        <ele>101.1</ele>
        <time>2013-09-19T18:26:28.040Z</time>
      </trkpt>
      <trkpt lat="48.88705" lon="2.31303">
        <ele>101.8</ele>
        <time>2013-09-19T18:26:29.062Z</time>
      </trkpt>
      <trkpt lat="48.88703" lon="2.31289">
        <ele>101.1</ele>
        <time>2013-09-19T18:26:32.140Z</time>
      </trkpt>
      <trkpt lat="48.88702" lon="2.31282">
        <ele>100.9</ele>
        <time>2013-09-19T18:26:33.040Z</time>
      </trkpt>
      <trkpt lat="48.88701" lon="2.31275">
        <ele>101.9</ele>
        <time>2013-09-19T18:26:34.042Z</time>
      </trkpt>
      <trkpt lat="48.88701" lon="2.31267">
        <ele>103.1</ele>
        <time>2013-09-19T18:26:35.051Z</time>
      </trkpt>
      <trkpt lat="48.88701" lon="2.3126">
        <ele>104.5</ele>
        <time>2013-09-19T18:26:36.026Z</time>
      </trkpt>
      <trkpt lat="48.88701" lon="2.31252">
        <ele>105.4</ele>
        <time>2013-09-19T18:26:37.091Z</time>
      </trkpt>
      <trkpt lat="48.88702" lon="2.31245">
        <ele>104.3</ele>
        <time>2013-09-19T18:26:38.052Z</time>
      </trkpt>
      <trkpt lat="48.88703" lon="2.31239">
        <ele>103.6</ele>
        <time>2013-09-19T18:26:39.048Z</time>
      </trkpt>
      <trkpt lat="48.88707" lon="2.31227">
        <ele>103.7</ele>
        <time>2013-09-19T18:26:41.862Z</time>
      </trkpt>
      <trkpt lat="48.88709" lon="2.31221">
        <ele>103.9</ele>
        <time>2013-09-19T18:26:42.203Z</time>
      </trkpt>
      <trkpt lat="48.88709" lon="2.31209">
        <ele>106</ele>
        <time>2013-09-19T18:26:45.116Z</time>
      </trkpt>
      <trkpt lat="48.88707" lon="2.31205">
        <ele>106.8</ele>
        <time>2013-09-19T18:26:46.067Z</time>
      </trkpt>
      <trkpt lat="48.887" lon="2.31199">
        <ele>110.9</ele>
        <time>2013-09-19T18:26:48.043Z</time>
      </trkpt>
      <trkpt lat="48.88697" lon="2.31195">
        <ele>111.3</ele>
        <time>2013-09-19T18:26:49.149Z</time>
      </trkpt>
      <trkpt lat="48.88689" lon="2.31188">
        <ele>112.2</ele>
        <time>2013-09-19T18:26:51.149Z</time>
      </trkpt>
      <trkpt lat="48.88686" lon="2.31185">
        <ele>112.8</ele>
        <time>2013-09-19T18:26:52.152Z</time>
      </trkpt>
      <trkpt lat="48.8868" lon="2.31178">
        <ele>115.6</ele>
        <time>2013-09-19T18:26:54.137Z</time>
      </trkpt>
      <trkpt lat="48.88677" lon="2.31175">
        <ele>115.3</ele>
        <time>2013-09-19T18:26:55.050Z</time>
      </trkpt>
      <trkpt lat="48.88671" lon="2.31168">
        <ele>114.1</ele>
        <time>2013-09-19T18:26:57.146Z</time>
      </trkpt>
      <trkpt lat="48.88668" lon="2.31164">
        <ele>114.3</ele>
        <time>2013-09-19T18:26:58.246Z</time>
      </trkpt>
      <trkpt lat="48.88662" lon="2.31157">
        <ele>102.7</ele>
        <time>2013-09-19T18:27:01.149Z</time>
      </trkpt>
      <trkpt lat="48.8866" lon="2.31155">
        <ele>103.4</ele>
        <time>2013-09-19T18:27:02.085Z</time>
      </trkpt>
      <trkpt lat="48.88655" lon="2.31146">
        <ele>104.2</ele>
        <time>2013-09-19T18:27:07.175Z</time>
      </trkpt>
      <trkpt lat="48.88651" lon="2.31141">
        <ele>102.2</ele>
        <time>2013-09-19T18:27:08.037Z</time>
      </trkpt>
      <trkpt lat="48.88645" lon="2.31132">
        <ele>102.6</ele>
        <time>2013-09-19T18:27:11.046Z</time>
      </trkpt>
      <trkpt lat="48.88643" lon="2.31128">
        <ele>102.7</ele>
        <time>2013-09-19T18:27:12.214Z</time>
      </trkpt>
      <trkpt lat="48.88639" lon="2.3112">
        <ele>102.8</ele>
        <time>2013-09-19T18:27:14.127Z</time>
      </trkpt>
      <trkpt lat="48.88637" lon="2.31116">
        <ele>103.5</ele>
        <time>2013-09-19T18:27:15.038Z</time>
      </trkpt>
      <trkpt lat="48.88632" lon="2.31107">
        <ele>105.4</ele>
        <time>2013-09-19T18:27:21.090Z</time>
      </trkpt>
      <trkpt lat="48.88631" lon="2.31106">
        <ele>105.6</ele>
        <time>2013-09-19T18:27:22.088Z</time>
      </trkpt>
      <trkpt lat="48.88625" lon="2.31097">
        <ele>107.8</ele>
        <time>2013-09-19T18:27:27.143Z</time>
      </trkpt>
      <trkpt lat="48.88624" lon="2.31094">
        <ele>108.7</ele>
        <time>2013-09-19T18:27:28.047Z</time>
      </trkpt>
      <trkpt lat="48.88619" lon="2.31084">
        <ele>107.8</ele>
        <time>2013-09-19T18:27:32.179Z</time>
      </trkpt>
      <trkpt lat="48.88617" lon="2.31082">
        <ele>106.6</ele>
        <time>2013-09-19T18:27:33.153Z</time>
      </trkpt>
      <trkpt lat="48.8861" lon="2.31077">
        <ele>106.2</ele>
        <time>2013-09-19T18:27:36.064Z</time>
      </trkpt>
      <trkpt lat="48.88608" lon="2.31075">
        <ele>104.6</ele>
        <time>2013-09-19T18:27:37.160Z</time>
      </trkpt>
      <trkpt lat="48.886" lon="2.3107">
        <ele>106.5</ele>
        <time>2013-09-19T18:27:40.134Z</time>
      </trkpt>
      <trkpt lat="48.88597" lon="2.31067">
        <ele>107.1</ele>
        <time>2013-09-19T18:27:41.102Z</time>
      </trkpt>
      <trkpt lat="48.88593" lon="2.31061">
        <ele>105.9</ele>
        <time>2013-09-19T18:27:43.047Z</time>
      </trkpt>
      <trkpt lat="48.8859" lon="2.31056">
        <ele>105.1</ele>
        <time>2013-09-19T18:27:44.150Z</time>
      </trkpt>
      <trkpt lat="48.88587" lon="2.31051">
        <ele>102.6</ele>
        <time>2013-09-19T18:27:45.048Z</time>
      </trkpt>
      <trkpt lat="48.88584" lon="2.31044">
        <ele>103.1</ele>
        <time>2013-09-19T18:27:46.160Z</time>
      </trkpt>
      <trkpt lat="48.88582" lon="2.31038">
        <ele>103.7</ele>
        <time>2013-09-19T18:27:47.095Z</time>
      </trkpt>
      <trkpt lat="48.88579" lon="2.31032">
        <ele>100.5</ele>
        <time>2013-09-19T18:27:48.160Z</time>
      </trkpt>
      <trkpt lat="48.88574" lon="2.31023">
        <ele>100.2</ele>
        <time>2013-09-19T18:27:50.080Z</time>
      </trkpt>
      <trkpt lat="48.88571" lon="2.31021">
        <ele>99.2</ele>
        <time>2013-09-19T18:27:51.176Z</time>
      </trkpt>
      <trkpt lat="48.88564" lon="2.31017">
        <ele>98.5</ele>
        <time>2013-09-19T18:27:54.053Z</time>
      </trkpt>
      <trkpt lat="48.88562" lon="2.31017">
        <ele>98.2</ele>
        <time>2013-09-19T18:27:55.054Z</time>
      </trkpt>
      <trkpt lat="48.88554" lon="2.31023">
        <ele>97.5</ele>
        <time>2013-09-19T18:27:58.038Z</time>
      </trkpt>
      <trkpt lat="48.88552" lon="2.31025">
        <ele>97.5</ele>
        <time>2013-09-19T18:27:59.042Z</time>
      </trkpt>
      <trkpt lat="48.88546" lon="2.31032">
        <ele>96.7</ele>
        <time>2013-09-19T18:28:03.110Z</time>
      </trkpt>
      <trkpt lat="48.88545" lon="2.31034">
        <ele>97.9</ele>
        <time>2013-09-19T18:28:04.154Z</time>
      </trkpt>
      <trkpt lat="48.8854" lon="2.31043">
        <ele>100.1</ele>
        <time>2013-09-19T18:28:08.114Z</time>
      </trkpt>
      <trkpt lat="48.88539" lon="2.31046">
        <ele>100.1</ele>
        <time>2013-09-19T18:28:09.170Z</time>
      </trkpt>
      <trkpt lat="48.88536" lon="2.31058">
        <ele>99.4</ele>
        <time>2013-09-19T18:28:14.163Z</time>
      </trkpt>
      <trkpt lat="48.88534" lon="2.3106">
        <ele>99.8</ele>
        <time>2013-09-19T18:28:15.056Z</time>
      </trkpt>
      <trkpt lat="48.88528" lon="2.31065">
        <ele>99.3</ele>
        <time>2013-09-19T18:28:18.169Z</time>
      </trkpt>
      <trkpt lat="48.88526" lon="2.31067">
        <ele>99.1</ele>
        <time>2013-09-19T18:28:19.124Z</time>
      </trkpt>
      <trkpt lat="48.88521" lon="2.31076">
        <ele>96.9</ele>
        <time>2013-09-19T18:28:22.086Z</time>
      </trkpt>
      <trkpt lat="48.8852" lon="2.31081">
        <ele>96.8</ele>
        <time>2013-09-19T18:28:23.239Z</time>
      </trkpt>
      <trkpt lat="48.88518" lon="2.31091">
        <ele>95.7</ele>
        <time>2013-09-19T18:28:25.155Z</time>
      </trkpt>
      <trkpt lat="48.88518" lon="2.31095">
        <ele>96.4</ele>
        <time>2013-09-19T18:28:26.058Z</time>
      </trkpt>
      <trkpt lat="48.88516" lon="2.31094">
        <ele>93.9</ele>
        <time>2013-09-19T18:28:37.091Z</time>
      </trkpt>
      <trkpt lat="48.88516" lon="2.31094">
        <ele>93.8</ele>
        <time>2013-09-19T18:28:38.053Z</time>
      </trkpt>
      <trkpt lat="48.88516" lon="2.31094">
        <ele>93.6</ele>
        <time>2013-09-19T18:28:39.052Z</time>
      </trkpt>
      <trkpt lat="48.88515" lon="2.31094">
        <ele>100.1</ele>
        <time>2013-09-19T18:28:40.077Z</time>
      </trkpt>
      <trkpt lat="48.8851" lon="2.31097">
        <ele>99.8</ele>
        <time>2013-09-19T18:28:42.051Z</time>
      </trkpt>
      <trkpt lat="48.88506" lon="2.311">
        <ele>99.4</ele>
        <time>2013-09-19T18:28:43.178Z</time>
      </trkpt>
      <trkpt lat="48.88499" lon="2.31106">
        <ele>96.5</ele>
        <time>2013-09-19T18:28:45.117Z</time>
      </trkpt>
      <trkpt lat="48.88495" lon="2.31108">
        <ele>96.1</ele>
        <time>2013-09-19T18:28:46.188Z</time>
      </trkpt>
      <trkpt lat="48.88488" lon="2.31113">
        <ele>97.8</ele>
        <time>2013-09-19T18:28:48.077Z</time>
      </trkpt>
      <trkpt lat="48.88484" lon="2.31116">
        <ele>98.2</ele>
        <time>2013-09-19T18:28:49.055Z</time>
      </trkpt>
      <trkpt lat="48.88476" lon="2.31123">
        <ele>99.8</ele>
        <time>2013-09-19T18:28:52.017Z</time>
      </trkpt>
      <trkpt lat="48.88473" lon="2.31127">
        <ele>99.6</ele>
        <time>2013-09-19T18:28:52.092Z</time>
      </trkpt>
      <trkpt lat="48.88469" lon="2.31132">
        <ele>99.4</ele>
        <time>2013-09-19T18:28:53.047Z</time>
      </trkpt>
      <trkpt lat="48.88466" lon="2.31136">
        <ele>99.4</ele>
        <time>2013-09-19T18:28:54.057Z</time>
      </trkpt>
      <trkpt lat="48.88463" lon="2.31142">
        <ele>99.3</ele>
        <time>2013-09-19T18:28:55.046Z</time>
      </trkpt>
      <trkpt lat="48.8846" lon="2.31147">
        <ele>99.6</ele>
        <time>2013-09-19T18:28:56.063Z</time>
      </trkpt>
      <trkpt lat="48.88454" lon="2.31157">
        <ele>101</ele>
        <time>2013-09-19T18:28:58.045Z</time>
      </trkpt>
      <trkpt lat="48.88451" lon="2.31162">
        <ele>101.1</ele>
        <time>2013-09-19T18:28:59.044Z</time>
      </trkpt>
      <trkpt lat="48.88446" lon="2.31169">
        <ele>102.2</ele>
        <time>2013-09-19T18:29:01.053Z</time>
      </trkpt>
      <trkpt lat="48.88443" lon="2.31172">
        <ele>102.6</ele>
        <time>2013-09-19T18:29:02.086Z</time>
      </trkpt>
      <trkpt lat="48.88437" lon="2.31181">
        <ele>102.4</ele>
        <time>2013-09-19T18:29:05.082Z</time>
      </trkpt>
      <trkpt lat="48.88436" lon="2.31185">
        <ele>103.1</ele>
        <time>2013-09-19T18:29:06.060Z</time>
      </trkpt>
      <trkpt lat="48.8843" lon="2.31195">
        <ele>102.9</ele>
        <time>2013-09-19T18:29:09.055Z</time>
      </trkpt>
      <trkpt lat="48.88428" lon="2.31198">
        <ele>100.7</ele>
        <time>2013-09-19T18:29:10.055Z</time>
      </trkpt>
      <trkpt lat="48.88421" lon="2.31205">
        <ele>100.7</ele>
        <time>2013-09-19T18:29:12.046Z</time>
      </trkpt>
      <trkpt lat="48.88418" lon="2.31209">
        <ele>100.3</ele>
        <time>2013-09-19T18:29:13.055Z</time>
      </trkpt>
      <trkpt lat="48.88411" lon="2.31216">
        <ele>99.6</ele>
        <time>2013-09-19T18:29:15.055Z</time>
      </trkpt>
      <trkpt lat="48.88407" lon="2.31219">
        <ele>97.1</ele>
        <time>2013-09-19T18:29:16.040Z</time>
      </trkpt>
      <trkpt lat="48.884" lon="2.31223">
        <ele>95.7</ele>
        <time>2013-09-19T18:29:18.581Z</time>
      </trkpt>
      <trkpt lat="48.88396" lon="2.31225">
        <ele>95</ele>
        <time>2013-09-19T18:29:19.040Z</time>
      </trkpt>
      <trkpt lat="48.88389" lon="2.31231">
        <ele>93.7</ele>
        <time>2013-09-19T18:29:21.047Z</time>
      </trkpt>
      <trkpt lat="48.88386" lon="2.31234">
        <ele>92.9</ele>
        <time>2013-09-19T18:29:22.073Z</time>
      </trkpt>
      <trkpt lat="48.88379" lon="2.3124">
        <ele>94.5</ele>
        <time>2013-09-19T18:29:24.040Z</time>
      </trkpt>
      <trkpt lat="48.88376" lon="2.31244">
        <ele>94.3</ele>
        <time>2013-09-19T18:29:25.082Z</time>
      </trkpt>
      <trkpt lat="48.8837" lon="2.31253">
        <ele>96.1</ele>
        <time>2013-09-19T18:29:27.150Z</time>
      </trkpt>
      <trkpt lat="48.88367" lon="2.31258">
        <ele>96</ele>
        <time>2013-09-19T18:29:28.058Z</time>
      </trkpt>
      <trkpt lat="48.88362" lon="2.31268">
        <ele>96.4</ele>
        <time>2013-09-19T18:29:30.056Z</time>
      </trkpt>
      <trkpt lat="48.88359" lon="2.31272">
        <ele>95.2</ele>
        <time>2013-09-19T18:29:31.153Z</time>
      </trkpt>
      <trkpt lat="48.88352" lon="2.31279">
        <ele>94.1</ele>
        <time>2013-09-19T18:29:33.129Z</time>
      </trkpt>
      <trkpt lat="48.88349" lon="2.31282">
        <ele>94.5</ele>
        <time>2013-09-19T18:29:34.144Z</time>
      </trkpt>
      <trkpt lat="48.88342" lon="2.31288">
        <ele>91.2</ele>
        <time>2013-09-19T18:29:37.082Z</time>
      </trkpt>
      <trkpt lat="48.8834" lon="2.31288">
        <ele>92.2</ele>
        <time>2013-09-19T18:29:38.166Z</time>
      </trkpt>
      <trkpt lat="48.88332" lon="2.31283">
        <ele>93.8</ele>
        <time>2013-09-19T18:29:42.153Z</time>
      </trkpt>
      <trkpt lat="48.8833" lon="2.31281">
        <ele>95.2</ele>
        <time>2013-09-19T18:29:43.194Z</time>
      </trkpt>
      <trkpt lat="48.88325" lon="2.31277">
        <ele>98.7</ele>
        <time>2013-09-19T18:29:46.942Z</time>
      </trkpt>
      <trkpt lat="48.88322" lon="2.31275">
        <ele>99.6</ele>
        <time>2013-09-19T18:29:47.210Z</time>
      </trkpt>
      <trkpt lat="48.88316" lon="2.3127">
        <ele>103.6</ele>
        <time>2013-09-19T18:29:49.120Z</time>
      </trkpt>
      <trkpt lat="48.88313" lon="2.31267">
        <ele>105.9</ele>
        <time>2013-09-19T18:29:50.177Z</time>
      </trkpt>
      <trkpt lat="48.88305" lon="2.31261">
        <ele>104.2</ele>
        <time>2013-09-19T18:29:52.222Z</time>
      </trkpt>
      <trkpt lat="48.88301" lon="2.31258">
        <ele>105.3</ele>
        <time>2013-09-19T18:29:53.063Z</time>
      </trkpt>
      <trkpt lat="48.88297" lon="2.31255">
        <ele>106.5</ele>
        <time>2013-09-19T18:29:54.196Z</time>
      </trkpt>
      <trkpt lat="48.88293" lon="2.31251">
        <ele>108.3</ele>
        <time>2013-09-19T18:29:55.091Z</time>
      </trkpt>
      <trkpt lat="48.88289" lon="2.31247">
        <ele>105.7</ele>
        <time>2013-09-19T18:29:56.169Z</time>
      </trkpt>
      <trkpt lat="48.88285" lon="2.31243">
        <ele>108.9</ele>
        <time>2013-09-19T18:29:57.183Z</time>
      </trkpt>
      <trkpt lat="48.88281" lon="2.31239">
        <ele>109.5</ele>
        <time>2013-09-19T18:29:58.086Z</time>
      </trkpt>
      <trkpt lat="48.88277" lon="2.31235">
        <ele>109.5</ele>
        <time>2013-09-19T18:29:59.187Z</time>
      </trkpt>
      <trkpt lat="48.8827" lon="2.31227">
        <ele>108.6</ele>
        <time>2013-09-19T18:30:01.179Z</time>
      </trkpt>
      <trkpt lat="48.88267" lon="2.31224">
        <ele>107.6</ele>
        <time>2013-09-19T18:30:02.125Z</time>
      </trkpt>
      <trkpt lat="48.8826" lon="2.31217">
        <ele>106.7</ele>
        <time>2013-09-19T18:30:04.147Z</time>
      </trkpt>
      <trkpt lat="48.88258" lon="2.31215">
        <ele>106.8</ele>
        <time>2013-09-19T18:30:05.124Z</time>
      </trkpt>
      <trkpt lat="48.8825" lon="2.31209">
        <ele>105.4</ele>
        <time>2013-09-19T18:30:08.179Z</time>
      </trkpt>
      <trkpt lat="48.88248" lon="2.31207">
        <ele>106.3</ele>
        <time>2013-09-19T18:30:09.061Z</time>
      </trkpt>
      <trkpt lat="48.88241" lon="2.31202">
        <ele>106.7</ele>
        <time>2013-09-19T18:30:12.268Z</time>
      </trkpt>
      <trkpt lat="48.88239" lon="2.312">
        <ele>105</ele>
        <time>2013-09-19T18:30:13.173Z</time>
      </trkpt>
      <trkpt lat="48.88232" lon="2.31194">
        <ele>98.6</ele>
        <time>2013-09-19T18:30:16.083Z</time>
      </trkpt>
      <trkpt lat="48.88229" lon="2.31191">
        <ele>98.8</ele>
        <time>2013-09-19T18:30:17.195Z</time>
      </trkpt>
      <trkpt lat="48.88223" lon="2.31184">
        <ele>98.5</ele>
        <time>2013-09-19T18:30:19.199Z</time>
      </trkpt>
      <trkpt lat="48.8822" lon="2.3118">
        <ele>98</ele>
        <time>2013-09-19T18:30:20.222Z</time>
      </trkpt>
      <trkpt lat="48.88214" lon="2.31172">
        <ele>98.6</ele>
        <time>2013-09-19T18:30:22.414Z</time>
      </trkpt>
      <trkpt lat="48.88211" lon="2.31169">
        <ele>97.3</ele>
        <time>2013-09-19T18:30:23.124Z</time>
      </trkpt>
      <trkpt lat="48.88204" lon="2.31163">
        <ele>97.3</ele>
        <time>2013-09-19T18:30:25.064Z</time>
      </trkpt>
      <trkpt lat="48.88201" lon="2.31159">
        <ele>97.8</ele>
        <time>2013-09-19T18:30:26.197Z</time>
      </trkpt>
      <trkpt lat="48.88195" lon="2.3115">
        <ele>95.7</ele>
        <time>2013-09-19T18:30:31.064Z</time>
      </trkpt>
      <trkpt lat="48.88195" lon="2.31149">
        <ele>97.7</ele>
        <time>2013-09-19T18:30:32.068Z</time>
      </trkpt>
      <trkpt lat="48.88189" lon="2.31143">
        <ele>99.4</ele>
        <time>2013-09-19T18:30:36.067Z</time>
      </trkpt>
      <trkpt lat="48.88186" lon="2.31141">
        <ele>97.8</ele>
        <time>2013-09-19T18:30:37.189Z</time>
      </trkpt>
      <trkpt lat="48.88179" lon="2.31135">
        <ele>98.4</ele>
        <time>2013-09-19T18:30:39.061Z</time>
      </trkpt>
      <trkpt lat="48.88175" lon="2.3113">
        <ele>99.2</ele>
        <time>2013-09-19T18:30:40.190Z</time>
      </trkpt>
      <trkpt lat="48.88172" lon="2.31126">
        <ele>99.4</ele>
        <time>2013-09-19T18:30:41.060Z</time>
      </trkpt>
      <trkpt lat="48.88168" lon="2.3112">
        <ele>99.6</ele>
        <time>2013-09-19T18:30:42.190Z</time>
      </trkpt>
      <trkpt lat="48.88165" lon="2.31115">
        <ele>100.3</ele>
        <time>2013-09-19T18:30:43.164Z</time>
      </trkpt>
      <trkpt lat="48.88161" lon="2.3111">
        <ele>100.6</ele>
        <time>2013-09-19T18:30:44.161Z</time>
      </trkpt>
      <trkpt lat="48.88158" lon="2.31105">
        <ele>100.8</ele>
        <time>2013-09-19T18:30:45.164Z</time>
      </trkpt>
      <trkpt lat="48.88154" lon="2.311">
        <ele>99.8</ele>
        <time>2013-09-19T18:30:46.101Z</time>
      </trkpt>
      <trkpt lat="48.88148" lon="2.31091">
        <ele>98.5</ele>
        <time>2013-09-19T18:30:48.062Z</time>
      </trkpt>
      <trkpt lat="48.88144" lon="2.31086">
        <ele>98.5</ele>
        <time>2013-09-19T18:30:49.176Z</time>
      </trkpt>
      <trkpt lat="48.8814" lon="2.31083">
        <ele>99</ele>
        <time>2013-09-19T18:30:50.069Z</time>
      </trkpt>
      <trkpt lat="48.88136" lon="2.31079">
        <ele>98.6</ele>
        <time>2013-09-19T18:30:51.168Z</time>
      </trkpt>
      <trkpt lat="48.88129" lon="2.31072">
        <ele>99.4</ele>
        <time>2013-09-19T18:30:53.165Z</time>
      </trkpt>
      <trkpt lat="48.88125" lon="2.31069">
        <ele>100.5</ele>
        <time>2013-09-19T18:30:54.198Z</time>
      </trkpt>
      <trkpt lat="48.88121" lon="2.31064">
        <ele>101.8</ele>
        <time>2013-09-19T18:30:55.053Z</time>
      </trkpt>
      <trkpt lat="48.88117" lon="2.31059">
        <ele>100.4</ele>
        <time>2013-09-19T18:30:56.166Z</time>
      </trkpt>
      <trkpt lat="48.88114" lon="2.31053">
        <ele>101.9</ele>
        <time>2013-09-19T18:30:57.133Z</time>
      </trkpt>
      <trkpt lat="48.88111" lon="2.31048">
        <ele>102.3</ele>
        <time>2013-09-19T18:30:58.167Z</time>
      </trkpt>
      <trkpt lat="48.88108" lon="2.31043">
        <ele>103.6</ele>
        <time>2013-09-19T18:30:59.120Z</time>
      </trkpt>
      <trkpt lat="48.88104" lon="2.31038">
        <ele>104.2</ele>
        <time>2013-09-19T18:31:00.175Z</time>
      </trkpt>
      <trkpt lat="48.88098" lon="2.31028">
        <ele>104.2</ele>
        <time>2013-09-19T18:31:02.083Z</time>
      </trkpt>
      <trkpt lat="48.88094" lon="2.31022">
        <ele>104.2</ele>
        <time>2013-09-19T18:31:03.170Z</time>
      </trkpt>
      <trkpt lat="48.8809" lon="2.31016">
        <ele>102.2</ele>
        <time>2013-09-19T18:31:04.087Z</time>
      </trkpt>
      <trkpt lat="48.88086" lon="2.31009">
        <ele>101.7</ele>
        <time>2013-09-19T18:31:05.074Z</time>
      </trkpt>
      <trkpt lat="48.88082" lon="2.31004">
        <ele>101.1</ele>
        <time>2013-09-19T18:31:06.049Z</time>
      </trkpt>
      <trkpt lat="48.88078" lon="2.30999">
        <ele>100.4</ele>
        <time>2013-09-19T18:31:07.077Z</time>
      </trkpt>
      <trkpt lat="48.88075" lon="2.30994">
        <ele>99.6</ele>
        <time>2013-09-19T18:31:08.055Z</time>
      </trkpt>
      <trkpt lat="48.88071" lon="2.30989">
        <ele>100.1</ele>
        <time>2013-09-19T18:31:09.056Z</time>
      </trkpt>
      <trkpt lat="48.88065" lon="2.30983">
        <ele>98.9</ele>
        <time>2013-09-19T18:31:11.054Z</time>
      </trkpt>
      <trkpt lat="48.88064" lon="2.3098">
        <ele>100.4</ele>
        <time>2013-09-19T18:31:12.052Z</time>
      </trkpt>
      <trkpt lat="48.88061" lon="2.30968">
        <ele>102.1</ele>
        <time>2013-09-19T18:31:15.058Z</time>
      </trkpt>
      <trkpt lat="48.88061" lon="2.30962">
        <ele>100</ele>
        <time>2013-09-19T18:31:16.054Z</time>
      </trkpt>
      <trkpt lat="48.88061" lon="2.30948">
        <ele>98.5</ele>
        <time>2013-09-19T18:31:18.167Z</time>
      </trkpt>
      <trkpt lat="48.8806" lon="2.30942">
        <ele>98.3</ele>
        <time>2013-09-19T18:31:19.159Z</time>
      </trkpt>
      <trkpt lat="48.88059" lon="2.30929">
        <ele>97.6</ele>
        <time>2013-09-19T18:31:21.085Z</time>
      </trkpt>
      <trkpt lat="48.88059" lon="2.30922">
        <ele>97.5</ele>
        <time>2013-09-19T18:31:22.230Z</time>
      </trkpt>
      <trkpt lat="48.88057" lon="2.3091">
        <ele>96.9</ele>
        <time>2013-09-19T18:31:24.083Z</time>
      </trkpt>
      <trkpt lat="48.88056" lon="2.30904">
        <ele>97.2</ele>
        <time>2013-09-19T18:31:25.066Z</time>
      </trkpt>
      <trkpt lat="48.88054" lon="2.30898">
        <ele>97.1</ele>
        <time>2013-09-19T18:31:26.054Z</time>
      </trkpt>
      <trkpt lat="48.88053" lon="2.30891">
        <ele>96.1</ele>
        <time>2013-09-19T18:31:27.092Z</time>
      </trkpt>
      <trkpt lat="48.88049" lon="2.3088">
        <ele>94.8</ele>
        <time>2013-09-19T18:31:29.061Z</time>
      </trkpt>
      <trkpt lat="48.88047" lon="2.30874">
        <ele>93.4</ele>
        <time>2013-09-19T18:31:30.064Z</time>
      </trkpt>
      <trkpt lat="48.88047" lon="2.30864">
        <ele>91.2</ele>
        <time>2013-09-19T18:31:32.176Z</time>
      </trkpt>
      <trkpt lat="48.88048" lon="2.30859">
        <ele>93.2</ele>
        <time>2013-09-19T18:31:33.210Z</time>
      </trkpt>
      <trkpt lat="48.88052" lon="2.30849">
        <ele>93.7</ele>
        <time>2013-09-19T18:31:35.145Z</time>
      </trkpt>
      <trkpt lat="48.88055" lon="2.30843">
        <ele>93.8</ele>
        <time>2013-09-19T18:31:36.218Z</time>
      </trkpt>
      <trkpt lat="48.88058" lon="2.30836">
        <ele>93.8</ele>
        <time>2013-09-19T18:31:37.117Z</time>
      </trkpt>
      <trkpt lat="48.88062" lon="2.30828">
        <ele>95.3</ele>
        <time>2013-09-19T18:31:38.201Z</time>
      </trkpt>
      <trkpt lat="48.88065" lon="2.3082">
        <ele>95.6</ele>
        <time>2013-09-19T18:31:39.072Z</time>
      </trkpt>
      <trkpt lat="48.88069" lon="2.30811">
        <ele>95.1</ele>
        <time>2013-09-19T18:31:40.192Z</time>
      </trkpt>
      <trkpt lat="48.88072" lon="2.30805">
        <ele>95.4</ele>
        <time>2013-09-19T18:31:41.833Z</time>
      </trkpt>
      <trkpt lat="48.88075" lon="2.30799">
        <ele>95.5</ele>
        <time>2013-09-19T18:31:42.197Z</time>
      </trkpt>
      <trkpt lat="48.88079" lon="2.30794">
        <ele>95.3</ele>
        <time>2013-09-19T18:31:43.121Z</time>
      </trkpt>
      <trkpt lat="48.88083" lon="2.30788">
        <ele>95.2</ele>
        <time>2013-09-19T18:31:44.131Z</time>
      </trkpt>
      <trkpt lat="48.88086" lon="2.30782">
        <ele>94.8</ele>
        <time>2013-09-19T18:31:45.148Z</time>
      </trkpt>
      <trkpt lat="48.8809" lon="2.30776">
        <ele>94.4</ele>
        <time>2013-09-19T18:31:46.067Z</time>
      </trkpt>
      <trkpt lat="48.88094" lon="2.30769">
        <ele>93.8</ele>
        <time>2013-09-19T18:31:47.171Z</time>
      </trkpt>
      <trkpt lat="48.88097" lon="2.30762">
        <ele>93.5</ele>
        <time>2013-09-19T18:31:48.074Z</time>
      </trkpt>
      <trkpt lat="48.881" lon="2.30754">
        <ele>93.5</ele>
        <time>2013-09-19T18:31:49.164Z</time>
      </trkpt>
      <trkpt lat="48.88102" lon="2.30748">
        <ele>93.4</ele>
        <time>2013-09-19T18:31:50.070Z</time>
      </trkpt>
      <trkpt lat="48.88104" lon="2.30741">
        <ele>93.1</ele>
        <time>2013-09-19T18:31:51.057Z</time>
      </trkpt>
      <trkpt lat="48.88105" lon="2.30732">
        <ele>92.2</ele>
        <time>2013-09-19T18:31:52.147Z</time>
      </trkpt>
      <trkpt lat="48.88107" lon="2.30724">
        <ele>92.2</ele>
        <time>2013-09-19T18:31:53.064Z</time>
      </trkpt>
      <trkpt lat="48.88108" lon="2.30716">
        <ele>92.4</ele>
        <time>2013-09-19T18:31:54.067Z</time>
      </trkpt>
      <trkpt lat="48.88111" lon="2.30708">
        <ele>92.6</ele>
        <time>2013-09-19T18:31:55.060Z</time>
      </trkpt>
      <trkpt lat="48.88114" lon="2.30701">
        <ele>92.8</ele>
        <time>2013-09-19T18:31:56.067Z</time>
      </trkpt>
      <trkpt lat="48.88118" lon="2.30692">
        <ele>92.5</ele>
        <time>2013-09-19T18:31:58.061Z</time>
      </trkpt>
      <trkpt lat="48.8812" lon="2.30689">
        <ele>92.4</ele>
        <time>2013-09-19T18:31:59.067Z</time>
      </trkpt>
      <trkpt lat="48.8812" lon="2.30677">
        <ele>91.5</ele>
        <time>2013-09-19T18:32:02.102Z</time>
      </trkpt>
      <trkpt lat="48.88119" lon="2.30674">
        <ele>92.1</ele>
        <time>2013-09-19T18:32:03.065Z</time>
      </trkpt>
      <trkpt lat="48.88114" lon="2.30665">
        <ele>94.1</ele>
        <time>2013-09-19T18:32:06.069Z</time>
      </trkpt>
      <trkpt lat="48.88111" lon="2.30662">
        <ele>94</ele>
        <time>2013-09-19T18:32:07.083Z</time>
      </trkpt>
      <trkpt lat="48.88106" lon="2.30653">
        <ele>95.7</ele>
        <time>2013-09-19T18:32:10.068Z</time>
      </trkpt>
      <trkpt lat="48.88104" lon="2.30649">
        <ele>96.6</ele>
        <time>2013-09-19T18:32:11.068Z</time>
      </trkpt>
      <trkpt lat="48.88101" lon="2.30638">
        <ele>98</ele>
        <time>2013-09-19T18:32:14.068Z</time>
      </trkpt>
      <trkpt lat="48.88099" lon="2.30635">
        <ele>98.1</ele>
        <time>2013-09-19T18:32:15.062Z</time>
      </trkpt>
      <trkpt lat="48.88094" lon="2.30624">
        <ele>97.7</ele>
        <time>2013-09-19T18:32:18.079Z</time>
      </trkpt>
      <trkpt lat="48.88091" lon="2.3062">
        <ele>97.4</ele>
        <time>2013-09-19T18:32:19.072Z</time>
      </trkpt>
      <trkpt lat="48.88088" lon="2.30616">
        <ele>97.5</ele>
        <time>2013-09-19T18:32:20.070Z</time>
      </trkpt>
      <trkpt lat="48.88084" lon="2.30611">
        <ele>98.4</ele>
        <time>2013-09-19T18:32:21.062Z</time>
      </trkpt>
      <trkpt lat="48.88078" lon="2.30603">
        <ele>99.1</ele>
        <time>2013-09-19T18:32:22.070Z</time>
      </trkpt>
      <trkpt lat="48.88075" lon="2.30596">
        <ele>99.9</ele>
        <time>2013-09-19T18:32:23.076Z</time>
      </trkpt>
      <trkpt lat="48.88071" lon="2.30589">
        <ele>100.6</ele>
        <time>2013-09-19T18:32:24.073Z</time>
      </trkpt>
      <trkpt lat="48.88069" lon="2.30583">
        <ele>101</ele>
        <time>2013-09-19T18:32:25.060Z</time>
      </trkpt>
      <trkpt lat="48.88065" lon="2.30575">
        <ele>102.7</ele>
        <time>2013-09-19T18:32:27.084Z</time>
      </trkpt>
      <trkpt lat="48.88063" lon="2.30571">
        <ele>103.6</ele>
        <time>2013-09-19T18:32:28.067Z</time>
      </trkpt>
      <trkpt lat="48.88057" lon="2.30565">
        <ele>103.3</ele>
        <time>2013-09-19T18:32:30.071Z</time>
      </trkpt>
      <trkpt lat="48.88054" lon="2.3056">
        <ele>104.7</ele>
        <time>2013-09-19T18:32:31.064Z</time>
      </trkpt>
      <trkpt lat="48.88049" lon="2.30549">
        <ele>107.9</ele>
        <time>2013-09-19T18:32:33.066Z</time>
      </trkpt>
      <trkpt lat="48.88046" lon="2.30544">
        <ele>108.1</ele>
        <time>2013-09-19T18:32:34.070Z</time>
      </trkpt>
      <trkpt lat="48.88039" lon="2.30535">
        <ele>108.3</ele>
        <time>2013-09-19T18:32:36.071Z</time>
      </trkpt>
      <trkpt lat="48.88035" lon="2.30531">
        <ele>108.4</ele>
        <time>2013-09-19T18:32:37.098Z</time>
      </trkpt>
      <trkpt lat="48.88028" lon="2.30525">
        <ele>107.9</ele>
        <time>2013-09-19T18:32:39.078Z</time>
      </trkpt>
      <trkpt lat="48.88025" lon="2.3052">
        <ele>107.4</ele>
        <time>2013-09-19T18:32:40.067Z</time>
      </trkpt>
      <trkpt lat="48.88019" lon="2.30511">
        <ele>107.1</ele>
        <time>2013-09-19T18:32:42.098Z</time>
      </trkpt>
      <trkpt lat="48.88017" lon="2.30506">
        <ele>107</ele>
        <time>2013-09-19T18:32:43.066Z</time>
      </trkpt>
      <trkpt lat="48.88013" lon="2.30497">
        <ele>108.2</ele>
        <time>2013-09-19T18:32:45.064Z</time>
      </trkpt>
      <trkpt lat="48.88012" lon="2.30493">
        <ele>106.7</ele>
        <time>2013-09-19T18:32:46.073Z</time>
      </trkpt>
      <trkpt lat="48.88008" lon="2.30482">
        <ele>106.4</ele>
        <time>2013-09-19T18:32:49.185Z</time>
      </trkpt>
      <trkpt lat="48.88006" lon="2.3048">
        <ele>105.1</ele>
        <time>2013-09-19T18:32:50.072Z</time>
      </trkpt>
      <trkpt lat="48.88001" lon="2.30474">
        <ele>105.8</ele>
        <time>2013-09-19T18:32:52.115Z</time>
      </trkpt>
      <trkpt lat="48.87999" lon="2.3047">
        <ele>105.8</ele>
        <time>2013-09-19T18:32:53.271Z</time>
      </trkpt>
      <trkpt lat="48.87997" lon="2.30462">
        <ele>108.6</ele>
        <time>2013-09-19T18:32:55.080Z</time>
      </trkpt>
      <trkpt lat="48.87995" lon="2.30457">
        <ele>110</ele>
        <time>2013-09-19T18:32:56.205Z</time>
      </trkpt>
      <trkpt lat="48.8799" lon="2.30445">
        <ele>115.8</ele>
        <time>2013-09-19T18:32:58.063Z</time>
      </trkpt>
      <trkpt lat="48.87987" lon="2.3044">
        <ele>116.5</ele>
        <time>2013-09-19T18:32:59.087Z</time>
      </trkpt>
      <trkpt lat="48.87984" lon="2.30435">
        <ele>117.5</ele>
        <time>2013-09-19T18:33:00.072Z</time>
      </trkpt>
      <trkpt lat="48.8798" lon="2.3043">
        <ele>117.9</ele>
        <time>2013-09-19T18:33:01.065Z</time>
      </trkpt>
      <trkpt lat="48.87975" lon="2.3042">
        <ele>119.3</ele>
        <time>2013-09-19T18:33:03.066Z</time>
      </trkpt>
      <trkpt lat="48.87972" lon="2.30414">
        <ele>116.6</ele>
        <time>2013-09-19T18:33:04.079Z</time>
      </trkpt>
      <trkpt lat="48.8797" lon="2.30408">
        <ele>116.5</ele>
        <time>2013-09-19T18:33:05.097Z</time>
      </trkpt>
      <trkpt lat="48.87969" lon="2.30402">
        <ele>116.4</ele>
        <time>2013-09-19T18:33:06.094Z</time>
      </trkpt>
      <trkpt lat="48.87967" lon="2.30395">
        <ele>116.7</ele>
        <time>2013-09-19T18:33:07.154Z</time>
      </trkpt>
      <trkpt lat="48.87965" lon="2.30389">
        <ele>115.5</ele>
        <time>2013-09-19T18:33:08.073Z</time>
      </trkpt>
      <trkpt lat="48.87963" lon="2.30382">
        <ele>114.5</ele>
        <time>2013-09-19T18:33:09.204Z</time>
      </trkpt>
      <trkpt lat="48.8796" lon="2.30377">
        <ele>113.4</ele>
        <time>2013-09-19T18:33:10.134Z</time>
      </trkpt>
      <trkpt lat="48.87957" lon="2.30371">
        <ele>111.3</ele>
        <time>2013-09-19T18:33:11.079Z</time>
      </trkpt>
      <trkpt lat="48.87954" lon="2.30365">
        <ele>108.1</ele>
        <time>2013-09-19T18:33:12.265Z</time>
      </trkpt>
      <trkpt lat="48.87948" lon="2.30357">
        <ele>108.6</ele>
        <time>2013-09-19T18:33:14.062Z</time>
      </trkpt>
      <trkpt lat="48.87945" lon="2.30353">
        <ele>108.9</ele>
        <time>2013-09-19T18:33:15.069Z</time>
      </trkpt>
      <trkpt lat="48.87938" lon="2.30345">
        <ele>107.9</ele>
        <time>2013-09-19T18:33:18.081Z</time>
      </trkpt>
      <trkpt lat="48.87937" lon="2.30343">
        <ele>110.1</ele>
        <time>2013-09-19T18:33:19.081Z</time>
      </trkpt>
      <trkpt lat="48.87939" lon="2.30331">
        <ele>106.2</ele>
        <time>2013-09-19T18:33:24.075Z</time>
      </trkpt>
      <trkpt lat="48.87939" lon="2.30329">
        <ele>106.6</ele>
        <time>2013-09-19T18:33:25.092Z</time>
      </trkpt>
      <trkpt lat="48.8794" lon="2.30319">
        <ele>101.5</ele>
        <time>2013-09-19T18:33:35.074Z</time>
      </trkpt>
      <trkpt lat="48.8794" lon="2.30319">
        <ele>101.5</ele>
        <time>2013-09-19T18:33:36.071Z</time>
      </trkpt>
      <trkpt lat="48.87939" lon="2.30319">
        <ele>101.6</ele>
        <time>2013-09-19T18:33:49.077Z</time>
      </trkpt>
      <trkpt lat="48.87937" lon="2.30317">
        <ele>102.4</ele>
        <time>2013-09-19T18:33:50.125Z</time>
      </trkpt>
      <trkpt lat="48.87932" lon="2.30311">
        <ele>104.6</ele>
        <time>2013-09-19T18:33:52.073Z</time>
      </trkpt>
      <trkpt lat="48.87929" lon="2.30308">
        <ele>103.6</ele>
        <time>2013-09-19T18:33:53.092Z</time>
      </trkpt>
      <trkpt lat="48.87923" lon="2.30299">
        <ele>104.9</ele>
        <time>2013-09-19T18:33:55.070Z</time>
      </trkpt>
      <trkpt lat="48.8792" lon="2.30294">
        <ele>104.4</ele>
        <time>2013-09-19T18:33:56.076Z</time>
      </trkpt>
      <trkpt lat="48.87915" lon="2.30284">
        <ele>104.7</ele>
        <time>2013-09-19T18:33:58.088Z</time>
      </trkpt>
      <trkpt lat="48.87913" lon="2.30277">
        <ele>104.8</ele>
        <time>2013-09-19T18:33:59.165Z</time>
      </trkpt>
      <trkpt lat="48.8791" lon="2.30265">
        <ele>105.1</ele>
        <time>2013-09-19T18:34:01.104Z</time>
      </trkpt>
      <trkpt lat="48.87908" lon="2.30258">
        <ele>106.4</ele>
        <time>2013-09-19T18:34:02.289Z</time>
      </trkpt>
      <trkpt lat="48.87905" lon="2.30246">
        <ele>107.7</ele>
        <time>2013-09-19T18:34:04.222Z</time>
      </trkpt>
      <trkpt lat="48.87903" lon="2.3024">
        <ele>108.2</ele>
        <time>2013-09-19T18:34:05.086Z</time>
      </trkpt>
      <trkpt lat="48.879" lon="2.30228">
        <ele>109.5</ele>
        <time>2013-09-19T18:34:07.285Z</time>
      </trkpt>
      <trkpt lat="48.87898" lon="2.30224">
        <ele>112.2</ele>
        <time>2013-09-19T18:34:08.135Z</time>
      </trkpt>
      <trkpt lat="48.87894" lon="2.30214">
        <ele>109.6</ele>
        <time>2013-09-19T18:34:10.077Z</time>
      </trkpt>
      <trkpt lat="48.87892" lon="2.30208">
        <ele>107.6</ele>
        <time>2013-09-19T18:34:11.197Z</time>
      </trkpt>
      <trkpt lat="48.87891" lon="2.30202">
        <ele>106.2</ele>
        <time>2013-09-19T18:34:12.139Z</time>
      </trkpt>
      <trkpt lat="48.87889" lon="2.30195">
        <ele>105.8</ele>
        <time>2013-09-19T18:34:13.240Z</time>
      </trkpt>
      <trkpt lat="48.87888" lon="2.30188">
        <ele>106.3</ele>
        <time>2013-09-19T18:34:14.166Z</time>
      </trkpt>
      <trkpt lat="48.87886" lon="2.30181">
        <ele>105.5</ele>
        <time>2013-09-19T18:34:15.188Z</time>
      </trkpt>
      <trkpt lat="48.87885" lon="2.30173">
        <ele>106</ele>
        <time>2013-09-19T18:34:16.207Z</time>
      </trkpt>
      <trkpt lat="48.87883" lon="2.30166">
        <ele>105.1</ele>
        <time>2013-09-19T18:34:17.202Z</time>
      </trkpt>
      <trkpt lat="48.8788" lon="2.3016">
        <ele>105.9</ele>
        <time>2013-09-19T18:34:18.244Z</time>
      </trkpt>
      <trkpt lat="48.87879" lon="2.30154">
        <ele>106</ele>
        <time>2013-09-19T18:34:19.087Z</time>
      </trkpt>
      <trkpt lat="48.87877" lon="2.30146">
        <ele>107.5</ele>
        <time>2013-09-19T18:34:20.215Z</time>
      </trkpt>
      <trkpt lat="48.87875" lon="2.3014">
        <ele>108</ele>
        <time>2013-09-19T18:34:21.081Z</time>
      </trkpt>
      <trkpt lat="48.87874" lon="2.30133">
        <ele>107.5</ele>
        <time>2013-09-19T18:34:22.272Z</time>
      </trkpt>
      <trkpt lat="48.87873" lon="2.30126">
        <ele>105.1</ele>
        <time>2013-09-19T18:34:23.237Z</time>
      </trkpt>
      <trkpt lat="48.87873" lon="2.3012">
        <ele>100.5</ele>
        <time>2013-09-19T18:34:24.139Z</time>
      </trkpt>
      <trkpt lat="48.87872" lon="2.30112">
        <ele>100.5</ele>
        <time>2013-09-19T18:34:25.233Z</time>
      </trkpt>
      <trkpt lat="48.87872" lon="2.30106">
        <ele>101.3</ele>
        <time>2013-09-19T18:34:26.089Z</time>
      </trkpt>
      <trkpt lat="48.87871" lon="2.30098">
        <ele>101.3</ele>
        <time>2013-09-19T18:34:27.331Z</time>
      </trkpt>
      <trkpt lat="48.87869" lon="2.30085">
        <ele>100.4</ele>
        <time>2013-09-19T18:34:29.222Z</time>
      </trkpt>
      <trkpt lat="48.87867" lon="2.30079">
        <ele>99.3</ele>
        <time>2013-09-19T18:34:30.164Z</time>
      </trkpt>
      <trkpt lat="48.87865" lon="2.30073">
        <ele>99.4</ele>
        <time>2013-09-19T18:34:31.174Z</time>
      </trkpt>
      <trkpt lat="48.87863" lon="2.30067">
        <ele>99.2</ele>
        <time>2013-09-19T18:34:32.248Z</time>
      </trkpt>
      <trkpt lat="48.87859" lon="2.30055">
        <ele>100</ele>
        <time>2013-09-19T18:34:34.230Z</time>
      </trkpt>
      <trkpt lat="48.87858" lon="2.3005">
        <ele>101</ele>
        <time>2013-09-19T18:34:35.087Z</time>
      </trkpt>
      <trkpt lat="48.87855" lon="2.30039">
        <ele>102.4</ele>
        <time>2013-09-19T18:34:37.124Z</time>
      </trkpt>
      <trkpt lat="48.87853" lon="2.30033">
        <ele>103.1</ele>
        <time>2013-09-19T18:34:38.210Z</time>
      </trkpt>
      <trkpt lat="48.87849" lon="2.30022">
        <ele>103.8</ele>
        <time>2013-09-19T18:34:40.146Z</time>
      </trkpt>
      <trkpt lat="48.87847" lon="2.30015">
        <ele>103.9</ele>
        <time>2013-09-19T18:34:41.226Z</time>
      </trkpt>
      <trkpt lat="48.87845" lon="2.30008">
        <ele>105.6</ele>
        <time>2013-09-19T18:34:42.137Z</time>
      </trkpt>
      <trkpt lat="48.87844" lon="2.30001">
        <ele>105.6</ele>
        <time>2013-09-19T18:34:43.077Z</time>
      </trkpt>
      <trkpt lat="48.87842" lon="2.29994">
        <ele>106.4</ele>
        <time>2013-09-19T18:34:44.112Z</time>
      </trkpt>
      <trkpt lat="48.87841" lon="2.29987">
        <ele>107.2</ele>
        <time>2013-09-19T18:34:45.079Z</time>
      </trkpt>
      <trkpt lat="48.8784" lon="2.2998">
        <ele>107.2</ele>
        <time>2013-09-19T18:34:46.093Z</time>
      </trkpt>
      <trkpt lat="48.87839" lon="2.29973">
        <ele>107</ele>
        <time>2013-09-19T18:34:47.127Z</time>
      </trkpt>
      <trkpt lat="48.87838" lon="2.29967">
        <ele>106.9</ele>
        <time>2013-09-19T18:34:48.118Z</time>
      </trkpt>
      <trkpt lat="48.87836" lon="2.29959">
        <ele>107.2</ele>
        <time>2013-09-19T18:34:49.135Z</time>
      </trkpt>
      <trkpt lat="48.87835" lon="2.29952">
        <ele>105.7</ele>
        <time>2013-09-19T18:34:50.089Z</time>
      </trkpt>
      <trkpt lat="48.87834" lon="2.29944">
        <ele>105.7</ele>
        <time>2013-09-19T18:34:51.088Z</time>
      </trkpt>
      <trkpt lat="48.87833" lon="2.29936">
        <ele>105</ele>
        <time>2013-09-19T18:34:52.244Z</time>
      </trkpt>
      <trkpt lat="48.87831" lon="2.2993">
        <ele>104.9</ele>
        <time>2013-09-19T18:34:53.115Z</time>
      </trkpt>
      <trkpt lat="48.87829" lon="2.29919">
        <ele>105.8</ele>
        <time>2013-09-19T18:34:55.210Z</time>
      </trkpt>
      <trkpt lat="48.87828" lon="2.29913">
        <ele>104.6</ele>
        <time>2013-09-19T18:34:56.146Z</time>
      </trkpt>
      <trkpt lat="48.87828" lon="2.299">
        <ele>100.5</ele>
        <time>2013-09-19T18:34:58.088Z</time>
      </trkpt>
      <trkpt lat="48.87827" lon="2.29893">
        <ele>97.5</ele>
        <time>2013-09-19T18:34:59.221Z</time>
      </trkpt>
      <trkpt lat="48.87828" lon="2.2988">
        <ele>96</ele>
        <time>2013-09-19T18:35:01.738Z</time>
      </trkpt>
      <trkpt lat="48.87829" lon="2.29878">
        <ele>94.9</ele>
        <time>2013-09-19T18:35:02.197Z</time>
      </trkpt>
      <trkpt lat="48.87833" lon="2.29867">
        <ele>93.1</ele>
        <time>2013-09-19T18:35:10.213Z</time>
      </trkpt>
      <trkpt lat="48.87834" lon="2.29864">
        <ele>92.4</ele>
        <time>2013-09-19T18:35:11.189Z</time>
      </trkpt>
      <trkpt lat="48.87838" lon="2.29856">
        <ele>92.6</ele>
        <time>2013-09-19T18:35:14.086Z</time>
      </trkpt>
      <trkpt lat="48.8784" lon="2.29853">
        <ele>91.2</ele>
        <time>2013-09-19T18:35:15.079Z</time>
      </trkpt>
      <trkpt lat="48.87841" lon="2.29848">
        <ele>89.5</ele>
        <time>2013-09-19T18:35:24.080Z</time>
      </trkpt>
      <trkpt lat="48.87841" lon="2.29848">
        <ele>89.8</ele>
        <time>2013-09-19T18:35:25.088Z</time>
      </trkpt>
      <trkpt lat="48.87841" lon="2.29846">
        <ele>90.9</ele>
        <time>2013-09-19T18:35:26.079Z</time>
      </trkpt>
      <trkpt lat="48.87841" lon="2.29836">
        <ele>94</ele>
        <time>2013-09-19T18:35:29.097Z</time>
      </trkpt>
      <trkpt lat="48.87841" lon="2.29831">
        <ele>95</ele>
        <time>2013-09-19T18:35:30.081Z</time>
      </trkpt>
      <trkpt lat="48.87839" lon="2.29822">
        <ele>98.3</ele>
        <time>2013-09-19T18:35:32.092Z</time>
      </trkpt>
      <trkpt lat="48.87838" lon="2.29818">
        <ele>99.1</ele>
        <time>2013-09-19T18:35:33.080Z</time>
      </trkpt>
      <trkpt lat="48.87834" lon="2.29806">
        <ele>102.4</ele>
        <time>2013-09-19T18:35:36.825Z</time>
      </trkpt>
      <trkpt lat="48.87833" lon="2.29802">
        <ele>104</ele>
        <time>2013-09-19T18:35:37.137Z</time>
      </trkpt>
      <trkpt lat="48.87827" lon="2.29793">
        <ele>104.3</ele>
        <time>2013-09-19T18:35:40.081Z</time>
      </trkpt>
      <trkpt lat="48.87825" lon="2.29791">
        <ele>104.3</ele>
        <time>2013-09-19T18:35:41.211Z</time>
      </trkpt>
      <trkpt lat="48.87818" lon="2.29783">
        <ele>103</ele>
        <time>2013-09-19T18:35:44.086Z</time>
      </trkpt>
      <trkpt lat="48.87816" lon="2.2978">
        <ele>102.3</ele>
        <time>2013-09-19T18:35:45.208Z</time>
      </trkpt>
      <trkpt lat="48.87809" lon="2.29776">
        <ele>102.3</ele>
        <time>2013-09-19T18:35:48.145Z</time>
      </trkpt>
      <trkpt lat="48.87806" lon="2.29775">
        <ele>102.7</ele>
        <time>2013-09-19T18:35:49.161Z</time>
      </trkpt>
      <trkpt lat="48.87798" lon="2.29775">
        <ele>103.6</ele>
        <time>2013-09-19T18:35:53.092Z</time>
      </trkpt>
      <trkpt lat="48.87797" lon="2.29776">
        <ele>101.1</ele>
        <time>2013-09-19T18:35:54.081Z</time>
      </trkpt>
      <trkpt lat="48.87799" lon="2.29777">
        <ele>96.1</ele>
        <time>2013-09-19T18:36:05.093Z</time>
      </trkpt>
      <trkpt lat="48.87799" lon="2.29777">
        <ele>96.2</ele>
        <time>2013-09-19T18:36:06.130Z</time>
      </trkpt>
      <trkpt lat="48.87798" lon="2.29777">
        <ele>95.5</ele>
        <time>2013-09-19T18:36:07.110Z</time>
      </trkpt>
      <trkpt lat="48.87797" lon="2.29777">
        <ele>95.5</ele>
        <time>2013-09-19T18:36:08.090Z</time>
      </trkpt>
      <trkpt lat="48.87788" lon="2.29777">
        <ele>97</ele>
        <time>2013-09-19T18:36:12.096Z</time>
      </trkpt>
      <trkpt lat="48.87785" lon="2.29777">
        <ele>97.3</ele>
        <time>2013-09-19T18:36:13.093Z</time>
      </trkpt>
      <trkpt lat="48.87776" lon="2.29778">
        <ele>97</ele>
        <time>2013-09-19T18:36:16.084Z</time>
      </trkpt>
      <trkpt lat="48.87773" lon="2.29778">
        <ele>96.6</ele>
        <time>2013-09-19T18:36:17.098Z</time>
      </trkpt>
      <trkpt lat="48.87766" lon="2.29775">
        <ele>102.2</ele>
        <time>2013-09-19T18:36:20.091Z</time>
      </trkpt>
      <trkpt lat="48.87764" lon="2.29774">
        <ele>102.7</ele>
        <time>2013-09-19T18:36:21.220Z</time>
      </trkpt>
      <trkpt lat="48.87757" lon="2.29771">
        <ele>103.9</ele>
        <time>2013-09-19T18:36:25.172Z</time>
      </trkpt>
      <trkpt lat="48.87754" lon="2.29771">
        <ele>104.3</ele>
        <time>2013-09-19T18:36:26.253Z</time>
      </trkpt>
      <trkpt lat="48.87747" lon="2.29776">
        <ele>104.9</ele>
        <time>2013-09-19T18:36:29.094Z</time>
      </trkpt>
      <trkpt lat="48.87743" lon="2.29778">
        <ele>104.3</ele>
        <time>2013-09-19T18:36:30.255Z</time>
      </trkpt>
      <trkpt lat="48.87736" lon="2.2978">
        <ele>101.7</ele>
        <time>2013-09-19T18:36:32.257Z</time>
      </trkpt>
      <trkpt lat="48.87734" lon="2.29779">
        <ele>101</ele>
        <time>2013-09-19T18:36:33.090Z</time>
      </trkpt>
      <trkpt lat="48.87727" lon="2.29774">
        <ele>99.5</ele>
        <time>2013-09-19T18:36:36.832Z</time>
      </trkpt>
      <trkpt lat="48.87725" lon="2.29772">
        <ele>98.8</ele>
        <time>2013-09-19T18:36:37.132Z</time>
      </trkpt>
      <trkpt lat="48.8772" lon="2.29761">
        <ele>96.6</ele>
        <time>2013-09-19T18:36:43.228Z</time>
      </trkpt>
      <trkpt lat="48.87719" lon="2.2976">
        <ele>97.2</ele>
        <time>2013-09-19T18:36:44.230Z</time>
      </trkpt>
      <trkpt lat="48.87711" lon="2.29755">
        <ele>93</ele>
        <time>2013-09-19T18:36:48.085Z</time>
      </trkpt>
      <trkpt lat="48.87708" lon="2.29755">
        <ele>92.9</ele>
        <time>2013-09-19T18:36:49.085Z</time>
      </trkpt>
      <trkpt lat="48.87701" lon="2.29753">
        <ele>92.7</ele>
        <time>2013-09-19T18:36:51.919Z</time>
      </trkpt>
      <trkpt lat="48.87698" lon="2.29753">
        <ele>93.4</ele>
        <time>2013-09-19T18:36:52.143Z</time>
      </trkpt>
      <trkpt lat="48.87692" lon="2.29751">
        <ele>95.3</ele>
        <time>2013-09-19T18:36:54.089Z</time>
      </trkpt>
      <trkpt lat="48.87688" lon="2.29749">
        <ele>94.6</ele>
        <time>2013-09-19T18:36:55.086Z</time>
      </trkpt>
      <trkpt lat="48.87681" lon="2.29744">
        <ele>97.1</ele>
        <time>2013-09-19T18:36:57.117Z</time>
      </trkpt>
      <trkpt lat="48.87677" lon="2.2974">
        <ele>98.8</ele>
        <time>2013-09-19T18:36:58.095Z</time>
      </trkpt>
      <trkpt lat="48.87669" lon="2.29734">
        <ele>102.6</ele>
        <time>2013-09-19T18:37:00.268Z</time>
      </trkpt>
      <trkpt lat="48.87666" lon="2.29732">
        <ele>104.8</ele>
        <time>2013-09-19T18:37:01.157Z</time>
      </trkpt>
      <trkpt lat="48.87658" lon="2.29727">
        <ele>104.1</ele>
        <time>2013-09-19T18:37:03.113Z</time>
      </trkpt>
      <trkpt lat="48.87654" lon="2.29725">
        <ele>104.3</ele>
        <time>2013-09-19T18:37:04.254Z</time>
      </trkpt>
      <trkpt lat="48.87646" lon="2.29722">
        <ele>105.3</ele>
        <time>2013-09-19T18:37:06.221Z</time>
      </trkpt>
      <trkpt lat="48.87644" lon="2.29721">
        <ele>105</ele>
        <time>2013-09-19T18:37:07.180Z</time>
      </trkpt>
      <trkpt lat="48.87635" lon="2.29716">
        <ele>102.4</ele>
        <time>2013-09-19T18:37:11.084Z</time>
      </trkpt>
      <trkpt lat="48.87633" lon="2.29715">
        <ele>102.9</ele>
        <time>2013-09-19T18:37:12.132Z</time>
      </trkpt>
      <trkpt lat="48.87627" lon="2.2971">
        <ele>101.4</ele>
        <time>2013-09-19T18:37:16.087Z</time>
      </trkpt>
      <trkpt lat="48.87625" lon="2.29709">
        <ele>98.6</ele>
        <time>2013-09-19T18:37:17.093Z</time>
      </trkpt>
      <trkpt lat="48.87618" lon="2.29705">
        <ele>98.4</ele>
        <time>2013-09-19T18:37:20.094Z</time>
      </trkpt>
      <trkpt lat="48.87615" lon="2.29703">
        <ele>99.6</ele>
        <time>2013-09-19T18:37:21.096Z</time>
      </trkpt>
      <trkpt lat="48.87609" lon="2.297">
        <ele>100.8</ele>
        <time>2013-09-19T18:37:23.076Z</time>
      </trkpt>
      <trkpt lat="48.87606" lon="2.29698">
        <ele>100.3</ele>
        <time>2013-09-19T18:37:24.091Z</time>
      </trkpt>
      <trkpt lat="48.87599" lon="2.2969">
        <ele>99.5</ele>
        <time>2013-09-19T18:37:27.394Z</time>
      </trkpt>
      <trkpt lat="48.87597" lon="2.29686">
        <ele>99.3</ele>
        <time>2013-09-19T18:37:28.091Z</time>
      </trkpt>
      <trkpt lat="48.87589" lon="2.2968">
        <ele>101.4</ele>
        <time>2013-09-19T18:37:31.090Z</time>
      </trkpt>
      <trkpt lat="48.87587" lon="2.29679">
        <ele>101.4</ele>
        <time>2013-09-19T18:37:32.099Z</time>
      </trkpt>
      <trkpt lat="48.87579" lon="2.29678">
        <ele>97.8</ele>
        <time>2013-09-19T18:37:35.104Z</time>
      </trkpt>
      <trkpt lat="48.87576" lon="2.29676">
        <ele>97.5</ele>
        <time>2013-09-19T18:37:36.231Z</time>
      </trkpt>
      <trkpt lat="48.8757" lon="2.29673">
        <ele>99.2</ele>
        <time>2013-09-19T18:37:39.165Z</time>
      </trkpt>
      <trkpt lat="48.87567" lon="2.29672">
        <ele>100.3</ele>
        <time>2013-09-19T18:37:40.201Z</time>
      </trkpt>
      <trkpt lat="48.87559" lon="2.29671">
        <ele>101.6</ele>
        <time>2013-09-19T18:37:44.105Z</time>
      </trkpt>
      <trkpt lat="48.87557" lon="2.29669">
        <ele>101.8</ele>
        <time>2013-09-19T18:37:45.208Z</time>
      </trkpt>
      <trkpt lat="48.87551" lon="2.29663">
        <ele>101.6</ele>
        <time>2013-09-19T18:37:48.236Z</time>
      </trkpt>
      <trkpt lat="48.87549" lon="2.2966">
        <ele>100.9</ele>
        <time>2013-09-19T18:37:49.170Z</time>
      </trkpt>
      <trkpt lat="48.87544" lon="2.2965">
        <ele>98.6</ele>
        <time>2013-09-19T18:37:52.269Z</time>
      </trkpt>
      <trkpt lat="48.87542" lon="2.29647">
        <ele>99.6</ele>
        <time>2013-09-19T18:37:53.099Z</time>
      </trkpt>
      <trkpt lat="48.87536" lon="2.29638">
        <ele>98.8</ele>
        <time>2013-09-19T18:37:57.241Z</time>
      </trkpt>
      <trkpt lat="48.87535" lon="2.29636">
        <ele>98</ele>
        <time>2013-09-19T18:37:58.135Z</time>
      </trkpt>
      <trkpt lat="48.87529" lon="2.29626">
        <ele>99.4</ele>
        <time>2013-09-19T18:38:02.181Z</time>
      </trkpt>
      <trkpt lat="48.87527" lon="2.29622">
        <ele>100.5</ele>
        <time>2013-09-19T18:38:03.230Z</time>
      </trkpt>
      <trkpt lat="48.8752" lon="2.29616">
        <ele>100</ele>
        <time>2013-09-19T18:38:06.295Z</time>
      </trkpt>
      <trkpt lat="48.87518" lon="2.29615">
        <ele>101</ele>
        <time>2013-09-19T18:38:07.134Z</time>
      </trkpt>
      <trkpt lat="48.8751" lon="2.29609">
        <ele>99.7</ele>
        <time>2013-09-19T18:38:10.103Z</time>
      </trkpt>
      <trkpt lat="48.87508" lon="2.29607">
        <ele>100.1</ele>
        <time>2013-09-19T18:38:11.114Z</time>
      </trkpt>
      <trkpt lat="48.87501" lon="2.29601">
        <ele>101.6</ele>
        <time>2013-09-19T18:38:14.110Z</time>
      </trkpt>
      <trkpt lat="48.87499" lon="2.296">
        <ele>101.5</ele>
        <time>2013-09-19T18:38:15.086Z</time>
      </trkpt>
      <trkpt lat="48.87491" lon="2.29598">
        <ele>103.7</ele>
        <time>2013-09-19T18:38:21.127Z</time>
      </trkpt>
      <trkpt lat="48.8749" lon="2.29597">
        <ele>103.8</ele>
        <time>2013-09-19T18:38:22.161Z</time>
      </trkpt>
      <trkpt lat="48.87484" lon="2.29586">
        <ele>103.8</ele>
        <time>2013-09-19T18:38:28.107Z</time>
      </trkpt>
      <trkpt lat="48.87483" lon="2.29584">
        <ele>100.8</ele>
        <time>2013-09-19T18:38:29.095Z</time>
      </trkpt>
      <trkpt lat="48.8748" lon="2.29573">
        <ele>100</ele>
        <time>2013-09-19T18:38:32.142Z</time>
      </trkpt>
      <trkpt lat="48.87481" lon="2.29569">
        <ele>99.5</ele>
        <time>2013-09-19T18:38:33.096Z</time>
      </trkpt>
      <trkpt lat="48.87482" lon="2.29557">
        <ele>102</ele>
        <time>2013-09-19T18:38:36.834Z</time>
      </trkpt>
      <trkpt lat="48.87482" lon="2.29553">
        <ele>103.3</ele>
        <time>2013-09-19T18:38:37.199Z</time>
      </trkpt>
      <trkpt lat="48.87482" lon="2.29542">
        <ele>105.2</ele>
        <time>2013-09-19T18:38:40.097Z</time>
      </trkpt>
      <trkpt lat="48.87482" lon="2.29539">
        <ele>105.2</ele>
        <time>2013-09-19T18:38:41.223Z</time>
      </trkpt>
      <trkpt lat="48.87483" lon="2.29527">
        <ele>104.6</ele>
        <time>2013-09-19T18:38:46.107Z</time>
      </trkpt>
      <trkpt lat="48.87484" lon="2.29525">
        <ele>104.4</ele>
        <time>2013-09-19T18:38:47.197Z</time>
      </trkpt>
      <trkpt lat="48.87489" lon="2.29515">
        <ele>103</ele>
        <time>2013-09-19T18:38:58.113Z</time>
      </trkpt>
      <trkpt lat="48.87489" lon="2.29514">
        <ele>102.9</ele>
        <time>2013-09-19T18:38:59.235Z</time>
      </trkpt>
      <trkpt lat="48.87484" lon="2.29503">
        <ele>105.5</ele>
        <time>2013-09-19T18:39:13.227Z</time>
      </trkpt>
      <trkpt lat="48.87484" lon="2.29499">
        <ele>106.2</ele>
        <time>2013-09-19T18:39:14.111Z</time>
      </trkpt>
      <trkpt lat="48.87482" lon="2.29489">
        <ele>108.4</ele>
        <time>2013-09-19T18:39:16.180Z</time>
      </trkpt>
      <trkpt lat="48.87481" lon="2.29483">
        <ele>108.7</ele>
        <time>2013-09-19T18:39:17.195Z</time>
      </trkpt>
      <trkpt lat="48.87479" lon="2.29472">
        <ele>110.8</ele>
        <time>2013-09-19T18:39:19.135Z</time>
      </trkpt>
      <trkpt lat="48.87477" lon="2.29466">
        <ele>111.5</ele>
        <time>2013-09-19T18:39:20.252Z</time>
      </trkpt>
      <trkpt lat="48.87474" lon="2.29454">
        <ele>111.9</ele>
        <time>2013-09-19T18:39:22.386Z</time>
      </trkpt>
      <trkpt lat="48.87473" lon="2.2945">
        <ele>111.8</ele>
        <time>2013-09-19T18:39:23.117Z</time>
      </trkpt>
      <trkpt lat="48.8747" lon="2.2944">
        <ele>110.9</ele>
        <time>2013-09-19T18:39:25.245Z</time>
      </trkpt>
      <trkpt lat="48.87468" lon="2.29436">
        <ele>110.8</ele>
        <time>2013-09-19T18:39:26.181Z</time>
      </trkpt>
      <trkpt lat="48.87465" lon="2.29427">
        <ele>112.9</ele>
        <time>2013-09-19T18:39:28.108Z</time>
      </trkpt>
      <trkpt lat="48.87463" lon="2.29423">
        <ele>112.2</ele>
        <time>2013-09-19T18:39:29.254Z</time>
      </trkpt>
      <trkpt lat="48.87458" lon="2.29413">
        <ele>111</ele>
        <time>2013-09-19T18:39:32.245Z</time>
      </trkpt>
      <trkpt lat="48.87456" lon="2.2941">
        <ele>111.8</ele>
        <time>2013-09-19T18:39:33.205Z</time>
      </trkpt>
      <trkpt lat="48.8745" lon="2.29403">
        <ele>111.6</ele>
        <time>2013-09-19T18:39:36.838Z</time>
      </trkpt>
      <trkpt lat="48.87448" lon="2.29401">
        <ele>111.1</ele>
        <time>2013-09-19T18:39:37.127Z</time>
      </trkpt>
      <trkpt lat="48.87444" lon="2.29391">
        <ele>106.9</ele>
        <time>2013-09-19T18:39:40.131Z</time>
      </trkpt>
      <trkpt lat="48.87442" lon="2.29387">
        <ele>106.6</ele>
        <time>2013-09-19T18:39:41.101Z</time>
      </trkpt>
      <trkpt lat="48.87437" lon="2.29376">
        <ele>105.9</ele>
        <time>2013-09-19T18:39:44.101Z</time>
      </trkpt>
      <trkpt lat="48.87436" lon="2.29374">
        <ele>105.4</ele>
        <time>2013-09-19T18:39:45.105Z</time>
      </trkpt>
      <trkpt lat="48.87428" lon="2.29369">
        <ele>103</ele>
        <time>2013-09-19T18:39:54.255Z</time>
      </trkpt>
      <trkpt lat="48.87425" lon="2.29367">
        <ele>103.8</ele>
        <time>2013-09-19T18:39:55.111Z</time>
      </trkpt>
      <trkpt lat="48.87418" lon="2.29363">
        <ele>103.1</ele>
        <time>2013-09-19T18:39:58.177Z</time>
      </trkpt>
      <trkpt lat="48.87415" lon="2.29361">
        <ele>103.4</ele>
        <time>2013-09-19T18:39:59.262Z</time>
      </trkpt>
      <trkpt lat="48.87408" lon="2.29355">
        <ele>104</ele>
        <time>2013-09-19T18:40:03.302Z</time>
      </trkpt>
      <trkpt lat="48.87407" lon="2.29354">
        <ele>104.9</ele>
        <time>2013-09-19T18:40:04.152Z</time>
      </trkpt>
      <trkpt lat="48.87398" lon="2.29354">
        <ele>108.3</ele>
        <time>2013-09-19T18:40:09.103Z</time>
      </trkpt>
      <trkpt lat="48.87395" lon="2.29355">
        <ele>107.6</ele>
        <time>2013-09-19T18:40:10.742Z</time>
      </trkpt>
      <trkpt lat="48.87388" lon="2.29356">
        <ele>108.9</ele>
        <time>2013-09-19T18:40:14.183Z</time>
      </trkpt>
      <trkpt lat="48.87385" lon="2.29356">
        <ele>109.5</ele>
        <time>2013-09-19T18:40:15.270Z</time>
      </trkpt>
      <trkpt lat="48.87378" lon="2.2935">
        <ele>106.9</ele>
        <time>2013-09-19T18:40:19.263Z</time>
      </trkpt>
      <trkpt lat="48.87377" lon="2.29347">
        <ele>105.6</ele>
        <time>2013-09-19T18:40:20.107Z</time>
      </trkpt>
      <trkpt lat="48.87375" lon="2.29334">
        <ele>104.7</ele>
        <time>2013-09-19T18:40:22.443Z</time>
      </trkpt>
      <trkpt lat="48.87375" lon="2.29327">
        <ele>105.5</ele>
        <time>2013-09-19T18:40:23.147Z</time>
      </trkpt>
      <trkpt lat="48.87375" lon="2.29315">
        <ele>104.1</ele>
        <time>2013-09-19T18:40:25.125Z</time>
      </trkpt>
      <trkpt lat="48.87374" lon="2.29308">
        <ele>104.2</ele>
        <time>2013-09-19T18:40:26.281Z</time>
      </trkpt>
      <trkpt lat="48.87374" lon="2.29297">
        <ele>104.1</ele>
        <time>2013-09-19T18:40:28.237Z</time>
      </trkpt>
      <trkpt lat="48.87373" lon="2.29292">
        <ele>104.8</ele>
        <time>2013-09-19T18:40:29.264Z</time>
      </trkpt>
      <trkpt lat="48.87372" lon="2.29281">
        <ele>106.5</ele>
        <time>2013-09-19T18:40:31.259Z</time>
      </trkpt>
      <trkpt lat="48.87371" lon="2.29277">
        <ele>106.4</ele>
        <time>2013-09-19T18:40:32.108Z</time>
      </trkpt>
      <trkpt lat="48.87368" lon="2.29266">
        <ele>105.9</ele>
        <time>2013-09-19T18:40:36.824Z</time>
      </trkpt>
      <trkpt lat="48.87367" lon="2.29262">
        <ele>104.2</ele>
        <time>2013-09-19T18:40:37.208Z</time>
      </trkpt>
      <trkpt lat="48.87367" lon="2.29252">
        <ele>102.6</ele>
        <time>2013-09-19T18:40:39.141Z</time>
      </trkpt>
      <trkpt lat="48.87367" lon="2.29246">
        <ele>102.3</ele>
        <time>2013-09-19T18:40:40.261Z</time>
      </trkpt>
      <trkpt lat="48.87366" lon="2.29233">
        <ele>104.2</ele>
        <time>2013-09-19T18:40:43.116Z</time>
      </trkpt>
      <trkpt lat="48.87365" lon="2.29229">
        <ele>105</ele>
        <time>2013-09-19T18:40:44.240Z</time>
      </trkpt>
      <trkpt lat="48.87365" lon="2.29218">
        <ele>106.1</ele>
        <time>2013-09-19T18:40:47.261Z</time>
      </trkpt>
      <trkpt lat="48.87366" lon="2.29214">
        <ele>105.9</ele>
        <time>2013-09-19T18:40:48.146Z</time>
      </trkpt>
      <trkpt lat="48.87368" lon="2.29204">
        <ele>103.7</ele>
        <time>2013-09-19T18:40:51.922Z</time>
      </trkpt>
      <trkpt lat="48.87369" lon="2.292">
        <ele>103.7</ele>
        <time>2013-09-19T18:40:52.186Z</time>
      </trkpt>
      <trkpt lat="48.8737" lon="2.29188">
        <ele>104.3</ele>
        <time>2013-09-19T18:40:56.944Z</time>
      </trkpt>
      <trkpt lat="48.87371" lon="2.29185">
        <ele>104.5</ele>
        <time>2013-09-19T18:40:57.140Z</time>
      </trkpt>
      <trkpt lat="48.87374" lon="2.29174">
        <ele>104.1</ele>
        <time>2013-09-19T18:41:00.211Z</time>
      </trkpt>
      <trkpt lat="48.87376" lon="2.29169">
        <ele>105.2</ele>
        <time>2013-09-19T18:41:01.258Z</time>
      </trkpt>
      <trkpt lat="48.87377" lon="2.29163">
        <ele>103.8</ele>
        <time>2013-09-19T18:41:02.206Z</time>
      </trkpt>
      <trkpt lat="48.87379" lon="2.29156">
        <ele>102.9</ele>
        <time>2013-09-19T18:41:03.119Z</time>
      </trkpt>
      <trkpt lat="48.87381" lon="2.29149">
        <ele>101.1</ele>
        <time>2013-09-19T18:41:04.114Z</time>
      </trkpt>
      <trkpt lat="48.87383" lon="2.29143">
        <ele>101</ele>
        <time>2013-09-19T18:41:05.103Z</time>
      </trkpt>
      <trkpt lat="48.87385" lon="2.29136">
        <ele>101.6</ele>
        <time>2013-09-19T18:41:06.116Z</time>
      </trkpt>
      <trkpt lat="48.87387" lon="2.2913">
        <ele>101.1</ele>
        <time>2013-09-19T18:41:07.104Z</time>
      </trkpt>
      <trkpt lat="48.87388" lon="2.29123">
        <ele>101</ele>
        <time>2013-09-19T18:41:08.148Z</time>
      </trkpt>
      <trkpt lat="48.8739" lon="2.29116">
        <ele>101.7</ele>
        <time>2013-09-19T18:41:09.112Z</time>
      </trkpt>
      <trkpt lat="48.8739" lon="2.29107">
        <ele>102.4</ele>
        <time>2013-09-19T18:41:10.117Z</time>
      </trkpt>
      <trkpt lat="48.87389" lon="2.29099">
        <ele>102.4</ele>
        <time>2013-09-19T18:41:11.104Z</time>
      </trkpt>
      <trkpt lat="48.87389" lon="2.29091">
        <ele>102.9</ele>
        <time>2013-09-19T18:41:12.148Z</time>
      </trkpt>
      <trkpt lat="48.87387" lon="2.29083">
        <ele>105.3</ele>
        <time>2013-09-19T18:41:13.117Z</time>
      </trkpt>
      <trkpt lat="48.87385" lon="2.29075">
        <ele>105.8</ele>
        <time>2013-09-19T18:41:14.117Z</time>
      </trkpt>
      <trkpt lat="48.87384" lon="2.29066">
        <ele>106.2</ele>
        <time>2013-09-19T18:41:15.111Z</time>
      </trkpt>
      <trkpt lat="48.87383" lon="2.29058">
        <ele>107</ele>
        <time>2013-09-19T18:41:16.111Z</time>
      </trkpt>
      <trkpt lat="48.87381" lon="2.29049">
        <ele>106.8</ele>
        <time>2013-09-19T18:41:17.116Z</time>
      </trkpt>
      <trkpt lat="48.87381" lon="2.2904">
        <ele>106.6</ele>
        <time>2013-09-19T18:41:18.119Z</time>
      </trkpt>
      <trkpt lat="48.87379" lon="2.29032">
        <ele>106.8</ele>
        <time>2013-09-19T18:41:19.122Z</time>
      </trkpt>
      <trkpt lat="48.87378" lon="2.29023">
        <ele>104.7</ele>
        <time>2013-09-19T18:41:20.161Z</time>
      </trkpt>
      <trkpt lat="48.87378" lon="2.29015">
        <ele>104.2</ele>
        <time>2013-09-19T18:41:21.113Z</time>
      </trkpt>
      <trkpt lat="48.87377" lon="2.29007">
        <ele>104.5</ele>
        <time>2013-09-19T18:41:22.141Z</time>
      </trkpt>
      <trkpt lat="48.87376" lon="2.29001">
        <ele>104.4</ele>
        <time>2013-09-19T18:41:23.234Z</time>
      </trkpt>
      <trkpt lat="48.87375" lon="2.28995">
        <ele>102.9</ele>
        <time>2013-09-19T18:41:24.213Z</time>
      </trkpt>
      <trkpt lat="48.87375" lon="2.28988">
        <ele>102.7</ele>
        <time>2013-09-19T18:41:25.193Z</time>
      </trkpt>
      <trkpt lat="48.87374" lon="2.28981">
        <ele>102.3</ele>
        <time>2013-09-19T18:41:26.257Z</time>
      </trkpt>
      <trkpt lat="48.87374" lon="2.28973">
        <ele>101.6</ele>
        <time>2013-09-19T18:41:27.140Z</time>
      </trkpt>
      <trkpt lat="48.87374" lon="2.28964">
        <ele>100.8</ele>
        <time>2013-09-19T18:41:28.262Z</time>
      </trkpt>
      <trkpt lat="48.87372" lon="2.28956">
        <ele>99.2</ele>
        <time>2013-09-19T18:41:29.111Z</time>
      </trkpt>
      <trkpt lat="48.87371" lon="2.28947">
        <ele>99.3</ele>
        <time>2013-09-19T18:41:30.248Z</time>
      </trkpt>
      <trkpt lat="48.87369" lon="2.2894">
        <ele>99.4</ele>
        <time>2013-09-19T18:41:31.116Z</time>
      </trkpt>
      <trkpt lat="48.87368" lon="2.28931">
        <ele>98.6</ele>
        <time>2013-09-19T18:41:32.120Z</time>
      </trkpt>
      <trkpt lat="48.87368" lon="2.28921">
        <ele>97.9</ele>
        <time>2013-09-19T18:41:33.117Z</time>
      </trkpt>
      <trkpt lat="48.87367" lon="2.28912">
        <ele>96.5</ele>
        <time>2013-09-19T18:41:34.126Z</time>
      </trkpt>
      <trkpt lat="48.87366" lon="2.28904">
        <ele>96.2</ele>
        <time>2013-09-19T18:41:35.112Z</time>
      </trkpt>
      <trkpt lat="48.87366" lon="2.28895">
        <ele>94.8</ele>
        <time>2013-09-19T18:41:36.229Z</time>
      </trkpt>
      <trkpt lat="48.87365" lon="2.28888">
        <ele>94.9</ele>
        <time>2013-09-19T18:41:37.113Z</time>
      </trkpt>
      <trkpt lat="48.87363" lon="2.2888">
        <ele>94.4</ele>
        <time>2013-09-19T18:41:38.106Z</time>
      </trkpt>
      <trkpt lat="48.87362" lon="2.28874">
        <ele>96.5</ele>
        <time>2013-09-19T18:41:39.112Z</time>
      </trkpt>
      <trkpt lat="48.8736" lon="2.28867">
        <ele>96.3</ele>
        <time>2013-09-19T18:41:40.128Z</time>
      </trkpt>
      <trkpt lat="48.8736" lon="2.28859">
        <ele>96.2</ele>
        <time>2013-09-19T18:41:41.200Z</time>
      </trkpt>
      <trkpt lat="48.8736" lon="2.28852">
        <ele>96.5</ele>
        <time>2013-09-19T18:41:42.251Z</time>
      </trkpt>
      <trkpt lat="48.87359" lon="2.28845">
        <ele>96.1</ele>
        <time>2013-09-19T18:41:43.140Z</time>
      </trkpt>
      <trkpt lat="48.8736" lon="2.28836">
        <ele>95.2</ele>
        <time>2013-09-19T18:41:44.291Z</time>
      </trkpt>
      <trkpt lat="48.8736" lon="2.28829">
        <ele>94.8</ele>
        <time>2013-09-19T18:41:45.199Z</time>
      </trkpt>
      <trkpt lat="48.8736" lon="2.28821">
        <ele>95.2</ele>
        <time>2013-09-19T18:41:46.244Z</time>
      </trkpt>
      <trkpt lat="48.87358" lon="2.28813">
        <ele>94.7</ele>
        <time>2013-09-19T18:41:47.200Z</time>
      </trkpt>
      <trkpt lat="48.87357" lon="2.28803">
        <ele>92.6</ele>
        <time>2013-09-19T18:41:48.261Z</time>
      </trkpt>
      <trkpt lat="48.87356" lon="2.28795">
        <ele>92.9</ele>
        <time>2013-09-19T18:41:49.218Z</time>
      </trkpt>
      <trkpt lat="48.87355" lon="2.28788">
        <ele>93.8</ele>
        <time>2013-09-19T18:41:50.161Z</time>
      </trkpt>
      <trkpt lat="48.87354" lon="2.2878">
        <ele>95.3</ele>
        <time>2013-09-19T18:41:51.232Z</time>
      </trkpt>
      <trkpt lat="48.87354" lon="2.28772">
        <ele>95.5</ele>
        <time>2013-09-19T18:41:52.122Z</time>
      </trkpt>
      <trkpt lat="48.87353" lon="2.28765">
        <ele>95.7</ele>
        <time>2013-09-19T18:41:53.250Z</time>
      </trkpt>
      <trkpt lat="48.8735" lon="2.28753">
        <ele>95.3</ele>
        <time>2013-09-19T18:41:55.134Z</time>
      </trkpt>
      <trkpt lat="48.8735" lon="2.28746">
        <ele>95.3</ele>
        <time>2013-09-19T18:41:56.108Z</time>
      </trkpt>
      <trkpt lat="48.87347" lon="2.28734">
        <ele>95.8</ele>
        <time>2013-09-19T18:41:58.109Z</time>
      </trkpt>
      <trkpt lat="48.87346" lon="2.28727">
        <ele>96.5</ele>
        <time>2013-09-19T18:41:59.114Z</time>
      </trkpt>
      <trkpt lat="48.87344" lon="2.28717">
        <ele>98.3</ele>
        <time>2013-09-19T18:42:01.107Z</time>
      </trkpt>
      <trkpt lat="48.87343" lon="2.28711">
        <ele>98.8</ele>
        <time>2013-09-19T18:42:02.200Z</time>
      </trkpt>
      <trkpt lat="48.87343" lon="2.28702">
        <ele>98.2</ele>
        <time>2013-09-19T18:42:03.155Z</time>
      </trkpt>
      <trkpt lat="48.87342" lon="2.28695">
        <ele>99.1</ele>
        <time>2013-09-19T18:42:04.129Z</time>
      </trkpt>
      <trkpt lat="48.8734" lon="2.28682">
        <ele>100.2</ele>
        <time>2013-09-19T18:42:06.143Z</time>
      </trkpt>
      <trkpt lat="48.87339" lon="2.28676">
        <ele>100.2</ele>
        <time>2013-09-19T18:42:07.175Z</time>
      </trkpt>
      <trkpt lat="48.87339" lon="2.28668">
        <ele>99.3</ele>
        <time>2013-09-19T18:42:08.120Z</time>
      </trkpt>
      <trkpt lat="48.87339" lon="2.2866">
        <ele>97.1</ele>
        <time>2013-09-19T18:42:09.123Z</time>
      </trkpt>
      <trkpt lat="48.87338" lon="2.28651">
        <ele>95.8</ele>
        <time>2013-09-19T18:42:10.118Z</time>
      </trkpt>
      <trkpt lat="48.87338" lon="2.28643">
        <ele>95.8</ele>
        <time>2013-09-19T18:42:11.116Z</time>
      </trkpt>
      <trkpt lat="48.87337" lon="2.2863">
        <ele>97.1</ele>
        <time>2013-09-19T18:42:13.170Z</time>
      </trkpt>
      <trkpt lat="48.87336" lon="2.28623">
        <ele>96.7</ele>
        <time>2013-09-19T18:42:14.114Z</time>
      </trkpt>
      <trkpt lat="48.87336" lon="2.2861">
        <ele>97.1</ele>
        <time>2013-09-19T18:42:16.125Z</time>
      </trkpt>
      <trkpt lat="48.87335" lon="2.28602">
        <ele>96.5</ele>
        <time>2013-09-19T18:42:17.168Z</time>
      </trkpt>
      <trkpt lat="48.87331" lon="2.2859">
        <ele>97.1</ele>
        <time>2013-09-19T18:42:19.114Z</time>
      </trkpt>
      <trkpt lat="48.87329" lon="2.28583">
        <ele>97.5</ele>
        <time>2013-09-19T18:42:20.124Z</time>
      </trkpt>
      <trkpt lat="48.87328" lon="2.28577">
        <ele>97.4</ele>
        <time>2013-09-19T18:42:21.177Z</time>
      </trkpt>
      <trkpt lat="48.87328" lon="2.28568">
        <ele>96.4</ele>
        <time>2013-09-19T18:42:22.158Z</time>
      </trkpt>
      <trkpt lat="48.87329" lon="2.2856">
        <ele>96.7</ele>
        <time>2013-09-19T18:42:23.119Z</time>
      </trkpt>
      <trkpt lat="48.87329" lon="2.28551">
        <ele>96.7</ele>
        <time>2013-09-19T18:42:24.109Z</time>
      </trkpt>
      <trkpt lat="48.87328" lon="2.28544">
        <ele>95.7</ele>
        <time>2013-09-19T18:42:25.119Z</time>
      </trkpt>
      <trkpt lat="48.87327" lon="2.28537">
        <ele>95.1</ele>
        <time>2013-09-19T18:42:26.112Z</time>
      </trkpt>
      <trkpt lat="48.87326" lon="2.28525">
        <ele>95.1</ele>
        <time>2013-09-19T18:42:28.117Z</time>
      </trkpt>
      <trkpt lat="48.87326" lon="2.2852">
        <ele>94.8</ele>
        <time>2013-09-19T18:42:29.146Z</time>
      </trkpt>
      <trkpt lat="48.87324" lon="2.28511">
        <ele>95</ele>
        <time>2013-09-19T18:42:31.187Z</time>
      </trkpt>
      <trkpt lat="48.87324" lon="2.28506">
        <ele>95.7</ele>
        <time>2013-09-19T18:42:32.125Z</time>
      </trkpt>
      <trkpt lat="48.8732" lon="2.28494">
        <ele>98.3</ele>
        <time>2013-09-19T18:42:38.107Z</time>
      </trkpt>
      <trkpt lat="48.87319" lon="2.28492">
        <ele>98.6</ele>
        <time>2013-09-19T18:42:39.117Z</time>
      </trkpt>
      <trkpt lat="48.87313" lon="2.28484">
        <ele>96.2</ele>
        <time>2013-09-19T18:42:44.120Z</time>
      </trkpt>
      <trkpt lat="48.87312" lon="2.28483">
        <ele>97.9</ele>
        <time>2013-09-19T18:42:45.165Z</time>
      </trkpt>
      <trkpt lat="48.87309" lon="2.28481">
        <ele>97.6</ele>
        <time>2013-09-19T18:42:49.136Z</time>
      </trkpt>
      <trkpt lat="48.87309" lon="2.28481">
        <ele>97.6</ele>
        <time>2013-09-19T18:42:50.179Z</time>
      </trkpt>
      <trkpt lat="48.8731" lon="2.28481">
        <ele>97.2</ele>
        <time>2013-09-19T18:42:51.136Z</time>
      </trkpt>
      <trkpt lat="48.8731" lon="2.28481">
        <ele>97.6</ele>
        <time>2013-09-19T18:42:54.151Z</time>
      </trkpt>
      <trkpt lat="48.8731" lon="2.28481">
        <ele>97.4</ele>
        <time>2013-09-19T18:42:55.268Z</time>
      </trkpt>
      <trkpt lat="48.8731" lon="2.28481">
        <ele>97.7</ele>
        <time>2013-09-19T18:43:44.131Z</time>
      </trkpt>
      <trkpt lat="48.87309" lon="2.28481">
        <ele>97.3</ele>
        <time>2013-09-19T18:43:45.266Z</time>
      </trkpt>
      <trkpt lat="48.87302" lon="2.28476">
        <ele>99.7</ele>
        <time>2013-09-19T18:43:52.261Z</time>
      </trkpt>
      <trkpt lat="48.873" lon="2.28476">
        <ele>100.1</ele>
        <time>2013-09-19T18:43:53.180Z</time>
      </trkpt>
      <trkpt lat="48.87293" lon="2.28478">
        <ele>100.3</ele>
        <time>2013-09-19T18:43:56.989Z</time>
      </trkpt>
      <trkpt lat="48.87291" lon="2.28478">
        <ele>100.5</ele>
        <time>2013-09-19T18:43:57.283Z</time>
      </trkpt>
      <trkpt lat="48.87285" lon="2.28471">
        <ele>98</ele>
        <time>2013-09-19T18:44:02.005Z</time>
      </trkpt>
      <trkpt lat="48.87283" lon="2.28467">
        <ele>98.5</ele>
        <time>2013-09-19T18:44:02.278Z</time>
      </trkpt>
      <trkpt lat="48.87281" lon="2.28454">
        <ele>98.5</ele>
        <time>2013-09-19T18:44:05.141Z</time>
      </trkpt>
      <trkpt lat="48.87281" lon="2.28449">
        <ele>98.5</ele>
        <time>2013-09-19T18:44:06.286Z</time>
      </trkpt>
      <trkpt lat="48.87279" lon="2.28437">
        <ele>96.8</ele>
        <time>2013-09-19T18:44:10.238Z</time>
      </trkpt>
      <trkpt lat="48.87278" lon="2.28436">
        <ele>95.7</ele>
        <time>2013-09-19T18:44:11.267Z</time>
      </trkpt>
      <trkpt lat="48.87277" lon="2.28439">
        <ele>95.2</ele>
        <time>2013-09-19T18:44:17.071Z</time>
      </trkpt>
      <trkpt lat="48.87277" lon="2.28439">
        <ele>95.3</ele>
        <time>2013-09-19T18:44:17.259Z</time>
      </trkpt>
      <trkpt lat="48.87277" lon="2.2844">
        <ele>96.2</ele>
        <time>2013-09-19T18:44:32.161Z</time>
      </trkpt>
      <trkpt lat="48.87276" lon="2.2844">
        <ele>95.9</ele>
        <time>2013-09-19T18:44:33.254Z</time>
      </trkpt>
      <trkpt lat="48.87268" lon="2.28442">
        <ele>95.1</ele>
        <time>2013-09-19T18:44:37.144Z</time>
      </trkpt>
      <trkpt lat="48.87265" lon="2.28443">
        <ele>95.4</ele>
        <time>2013-09-19T18:44:38.292Z</time>
      </trkpt>
      <trkpt lat="48.87258" lon="2.28445">
        <ele>96.1</ele>
        <time>2013-09-19T18:44:41.881Z</time>
      </trkpt>
      <trkpt lat="48.87255" lon="2.28446">
        <ele>96.4</ele>
        <time>2013-09-19T18:44:42.295Z</time>
      </trkpt>
      <trkpt lat="48.87248" lon="2.28448">
        <ele>93.7</ele>
        <time>2013-09-19T18:44:45.296Z</time>
      </trkpt>
      <trkpt lat="48.87246" lon="2.28449">
        <ele>93.4</ele>
        <time>2013-09-19T18:44:46.136Z</time>
      </trkpt>
      <trkpt lat="48.87237" lon="2.28451">
        <ele>93.4</ele>
        <time>2013-09-19T18:44:50.217Z</time>
      </trkpt>
      <trkpt lat="48.87235" lon="2.28451">
        <ele>93.9</ele>
        <time>2013-09-19T18:44:51.193Z</time>
      </trkpt>
      <trkpt lat="48.87228" lon="2.28446">
        <ele>98.5</ele>
        <time>2013-09-19T18:44:57.209Z</time>
      </trkpt>
      <trkpt lat="48.87225" lon="2.28443">
        <ele>99.2</ele>
        <time>2013-09-19T18:44:57.292Z</time>
      </trkpt>
      <trkpt lat="48.8722" lon="2.28438">
        <ele>98.9</ele>
        <time>2013-09-19T18:44:59.256Z</time>
      </trkpt>
      <trkpt lat="48.87218" lon="2.28435">
        <ele>98.9</ele>
        <time>2013-09-19T18:45:00.166Z</time>
      </trkpt>
      <trkpt lat="48.87212" lon="2.28431">
        <ele>99.9</ele>
        <time>2013-09-19T18:45:02.143Z</time>
      </trkpt>
      <trkpt lat="48.87209" lon="2.28429">
        <ele>100.4</ele>
        <time>2013-09-19T18:45:03.141Z</time>
      </trkpt>
      <trkpt lat="48.87204" lon="2.28425">
        <ele>100.3</ele>
        <time>2013-09-19T18:45:05.127Z</time>
      </trkpt>
      <trkpt lat="48.87201" lon="2.28423">
        <ele>100.7</ele>
        <time>2013-09-19T18:45:06.143Z</time>
      </trkpt>
      <trkpt lat="48.87195" lon="2.28419">
        <ele>101.3</ele>
        <time>2013-09-19T18:45:08.138Z</time>
      </trkpt>
      <trkpt lat="48.87192" lon="2.28418">
        <ele>101.1</ele>
        <time>2013-09-19T18:45:09.158Z</time>
      </trkpt>
      <trkpt lat="48.87186" lon="2.28416">
        <ele>101.3</ele>
        <time>2013-09-19T18:45:11.194Z</time>
      </trkpt>
      <trkpt lat="48.87182" lon="2.28415">
        <ele>100.9</ele>
        <time>2013-09-19T18:45:12.304Z</time>
      </trkpt>
      <trkpt lat="48.87175" lon="2.28411">
        <ele>102.8</ele>
        <time>2013-09-19T18:45:14.134Z</time>
      </trkpt>
      <trkpt lat="48.87172" lon="2.28408">
        <ele>102.7</ele>
        <time>2013-09-19T18:45:15.147Z</time>
      </trkpt>
      <trkpt lat="48.87165" lon="2.28401">
        <ele>104</ele>
        <time>2013-09-19T18:45:17.135Z</time>
      </trkpt>
      <trkpt lat="48.87161" lon="2.28399">
        <ele>104</ele>
        <time>2013-09-19T18:45:18.126Z</time>
      </trkpt>
      <trkpt lat="48.87155" lon="2.28395">
        <ele>103.9</ele>
        <time>2013-09-19T18:45:19.131Z</time>
      </trkpt>
      <trkpt lat="48.8715" lon="2.28393">
        <ele>104.5</ele>
        <time>2013-09-19T18:45:20.161Z</time>
      </trkpt>
      <trkpt lat="48.87145" lon="2.28387">
        <ele>104.9</ele>
        <time>2013-09-19T18:45:22.122Z</time>
      </trkpt>
      <trkpt lat="48.87142" lon="2.28383">
        <ele>104.9</ele>
        <time>2013-09-19T18:45:23.123Z</time>
      </trkpt>
      <trkpt lat="48.8714" lon="2.28382">
        <ele>105</ele>
        <time>2013-09-19T18:45:24.130Z</time>
      </trkpt>
      <trkpt lat="48.87133" lon="2.28382">
        <ele>104.8</ele>
        <time>2013-09-19T18:45:25.129Z</time>
      </trkpt>
      <trkpt lat="48.87128" lon="2.2838">
        <ele>104.9</ele>
        <time>2013-09-19T18:45:26.148Z</time>
      </trkpt>
      <trkpt lat="48.87125" lon="2.28376">
        <ele>105.4</ele>
        <time>2013-09-19T18:45:27.139Z</time>
      </trkpt>
      <trkpt lat="48.87119" lon="2.28368">
        <ele>106.2</ele>
        <time>2013-09-19T18:45:29.147Z</time>
      </trkpt>
      <trkpt lat="48.87114" lon="2.28367">
        <ele>105.6</ele>
        <time>2013-09-19T18:45:30.129Z</time>
      </trkpt>
      <trkpt lat="48.87107" lon="2.28368">
        <ele>104.9</ele>
        <time>2013-09-19T18:45:32.139Z</time>
      </trkpt>
      <trkpt lat="48.87105" lon="2.28369">
        <ele>105.1</ele>
        <time>2013-09-19T18:45:33.156Z</time>
      </trkpt>
      <trkpt lat="48.87098" lon="2.28363">
        <ele>105.1</ele>
        <time>2013-09-19T18:45:36.131Z</time>
      </trkpt>
      <trkpt lat="48.87095" lon="2.28359">
        <ele>105.1</ele>
        <time>2013-09-19T18:45:37.169Z</time>
      </trkpt>
      <trkpt lat="48.87091" lon="2.28349">
        <ele>105.6</ele>
        <time>2013-09-19T18:45:39.130Z</time>
      </trkpt>
      <trkpt lat="48.87089" lon="2.28344">
        <ele>105.6</ele>
        <time>2013-09-19T18:45:40.144Z</time>
      </trkpt>
      <trkpt lat="48.87084" lon="2.28334">
        <ele>105.8</ele>
        <time>2013-09-19T18:45:42.183Z</time>
      </trkpt>
      <trkpt lat="48.87082" lon="2.28331">
        <ele>105.8</ele>
        <time>2013-09-19T18:45:43.138Z</time>
      </trkpt>
      <trkpt lat="48.87077" lon="2.28324">
        <ele>104.8</ele>
        <time>2013-09-19T18:45:45.177Z</time>
      </trkpt>
      <trkpt lat="48.87074" lon="2.2832">
        <ele>105.1</ele>
        <time>2013-09-19T18:45:46.133Z</time>
      </trkpt>
      <trkpt lat="48.87068" lon="2.28313">
        <ele>106.6</ele>
        <time>2013-09-19T18:45:48.163Z</time>
      </trkpt>
      <trkpt lat="48.87066" lon="2.2831">
        <ele>106.7</ele>
        <time>2013-09-19T18:45:49.129Z</time>
      </trkpt>
      <trkpt lat="48.87059" lon="2.28303">
        <ele>106.2</ele>
        <time>2013-09-19T18:45:51.129Z</time>
      </trkpt>
      <trkpt lat="48.87056" lon="2.283">
        <ele>106.4</ele>
        <time>2013-09-19T18:45:52.130Z</time>
      </trkpt>
      <trkpt lat="48.87047" lon="2.28294">
        <ele>106.7</ele>
        <time>2013-09-19T18:45:54.193Z</time>
      </trkpt>
      <trkpt lat="48.87044" lon="2.28292">
        <ele>106.7</ele>
        <time>2013-09-19T18:45:55.142Z</time>
      </trkpt>
      <trkpt lat="48.87036" lon="2.28287">
        <ele>108.5</ele>
        <time>2013-09-19T18:45:58.151Z</time>
      </trkpt>
      <trkpt lat="48.87034" lon="2.28287">
        <ele>109.3</ele>
        <time>2013-09-19T18:45:59.134Z</time>
      </trkpt>
      <trkpt lat="48.87027" lon="2.28285">
        <ele>111.9</ele>
        <time>2013-09-19T18:46:04.139Z</time>
      </trkpt>
      <trkpt lat="48.87025" lon="2.28283">
        <ele>112.7</ele>
        <time>2013-09-19T18:46:05.214Z</time>
      </trkpt>
      <trkpt lat="48.8702" lon="2.28277">
        <ele>113.3</ele>
        <time>2013-09-19T18:46:08.163Z</time>
      </trkpt>
      <trkpt lat="48.87018" lon="2.28275">
        <ele>113</ele>
        <time>2013-09-19T18:46:09.140Z</time>
      </trkpt>
      <trkpt lat="48.87012" lon="2.28273">
        <ele>112.1</ele>
        <time>2013-09-19T18:46:11.147Z</time>
      </trkpt>
      <trkpt lat="48.87009" lon="2.28271">
        <ele>112.6</ele>
        <time>2013-09-19T18:46:12.150Z</time>
      </trkpt>
      <trkpt lat="48.87004" lon="2.2827">
        <ele>113.7</ele>
        <time>2013-09-19T18:46:13.158Z</time>
      </trkpt>
      <trkpt lat="48.86999" lon="2.28267">
        <ele>112.2</ele>
        <time>2013-09-19T18:46:14.139Z</time>
      </trkpt>
      <trkpt lat="48.86994" lon="2.28264">
        <ele>112.5</ele>
        <time>2013-09-19T18:46:15.143Z</time>
      </trkpt>
      <trkpt lat="48.86989" lon="2.28261">
        <ele>112.7</ele>
        <time>2013-09-19T18:46:16.143Z</time>
      </trkpt>
      <trkpt lat="48.8698" lon="2.28257">
        <ele>112.1</ele>
        <time>2013-09-19T18:46:17.182Z</time>
      </trkpt>
      <trkpt lat="48.86974" lon="2.28254">
        <ele>113.1</ele>
        <time>2013-09-19T18:46:18.135Z</time>
      </trkpt>
      <trkpt lat="48.86969" lon="2.2825">
        <ele>112.5</ele>
        <time>2013-09-19T18:46:19.143Z</time>
      </trkpt>
      <trkpt lat="48.86964" lon="2.28247">
        <ele>114.2</ele>
        <time>2013-09-19T18:46:20.136Z</time>
      </trkpt>
      <trkpt lat="48.8696" lon="2.28242">
        <ele>112</ele>
        <time>2013-09-19T18:46:21.225Z</time>
      </trkpt>
      <trkpt lat="48.86957" lon="2.28238">
        <ele>111.6</ele>
        <time>2013-09-19T18:46:22.156Z</time>
      </trkpt>
      <trkpt lat="48.8695" lon="2.28232">
        <ele>114.4</ele>
        <time>2013-09-19T18:46:24.143Z</time>
      </trkpt>
      <trkpt lat="48.86946" lon="2.2823">
        <ele>114.7</ele>
        <time>2013-09-19T18:46:25.143Z</time>
      </trkpt>
      <trkpt lat="48.86939" lon="2.28226">
        <ele>115.7</ele>
        <time>2013-09-19T18:46:27.166Z</time>
      </trkpt>
      <trkpt lat="48.86936" lon="2.28223">
        <ele>115.9</ele>
        <time>2013-09-19T18:46:28.136Z</time>
      </trkpt>
      <trkpt lat="48.86929" lon="2.28215">
        <ele>117.7</ele>
        <time>2013-09-19T18:46:31.150Z</time>
      </trkpt>
      <trkpt lat="48.86927" lon="2.28212">
        <ele>118.5</ele>
        <time>2013-09-19T18:46:32.186Z</time>
      </trkpt>
      <trkpt lat="48.86922" lon="2.28207">
        <ele>118.4</ele>
        <time>2013-09-19T18:46:34.142Z</time>
      </trkpt>
      <trkpt lat="48.86919" lon="2.28203">
        <ele>117.9</ele>
        <time>2013-09-19T18:46:35.137Z</time>
      </trkpt>
      <trkpt lat="48.86913" lon="2.28196">
        <ele>117.4</ele>
        <time>2013-09-19T18:46:37.211Z</time>
      </trkpt>
      <trkpt lat="48.8691" lon="2.28194">
        <ele>118</ele>
        <time>2013-09-19T18:46:38.145Z</time>
      </trkpt>
      <trkpt lat="48.86903" lon="2.28188">
        <ele>118</ele>
        <time>2013-09-19T18:46:40.153Z</time>
      </trkpt>
      <trkpt lat="48.86899" lon="2.28186">
        <ele>118.2</ele>
        <time>2013-09-19T18:46:41.147Z</time>
      </trkpt>
      <trkpt lat="48.86892" lon="2.28183">
        <ele>117.7</ele>
        <time>2013-09-19T18:46:43.137Z</time>
      </trkpt>
      <trkpt lat="48.86888" lon="2.28182">
        <ele>117.8</ele>
        <time>2013-09-19T18:46:44.139Z</time>
      </trkpt>
      <trkpt lat="48.86884" lon="2.28181">
        <ele>117.9</ele>
        <time>2013-09-19T18:46:45.140Z</time>
      </trkpt>
      <trkpt lat="48.86879" lon="2.2818">
        <ele>117.1</ele>
        <time>2013-09-19T18:46:46.204Z</time>
      </trkpt>
      <trkpt lat="48.86874" lon="2.28179">
        <ele>116.8</ele>
        <time>2013-09-19T18:46:47.224Z</time>
      </trkpt>
      <trkpt lat="48.8687" lon="2.28178">
        <ele>116.5</ele>
        <time>2013-09-19T18:46:48.136Z</time>
      </trkpt>
      <trkpt lat="48.86865" lon="2.28176">
        <ele>116.9</ele>
        <time>2013-09-19T18:46:49.143Z</time>
      </trkpt>
      <trkpt lat="48.86861" lon="2.28175">
        <ele>117</ele>
        <time>2013-09-19T18:46:50.143Z</time>
      </trkpt>
      <trkpt lat="48.86856" lon="2.28173">
        <ele>116.9</ele>
        <time>2013-09-19T18:46:51.152Z</time>
      </trkpt>
      <trkpt lat="48.86852" lon="2.28171">
        <ele>117.4</ele>
        <time>2013-09-19T18:46:52.154Z</time>
      </trkpt>
      <trkpt lat="48.86848" lon="2.28167">
        <ele>117.6</ele>
        <time>2013-09-19T18:46:53.145Z</time>
      </trkpt>
      <trkpt lat="48.86844" lon="2.28162">
        <ele>118</ele>
        <time>2013-09-19T18:46:54.143Z</time>
      </trkpt>
      <trkpt lat="48.8684" lon="2.28156">
        <ele>118.6</ele>
        <time>2013-09-19T18:46:55.147Z</time>
      </trkpt>
      <trkpt lat="48.86836" lon="2.28151">
        <ele>120.7</ele>
        <time>2013-09-19T18:46:56.143Z</time>
      </trkpt>
      <trkpt lat="48.8683" lon="2.28145">
        <ele>119.7</ele>
        <time>2013-09-19T18:46:57.184Z</time>
      </trkpt>
      <trkpt lat="48.86826" lon="2.28142">
        <ele>119.3</ele>
        <time>2013-09-19T18:46:58.137Z</time>
      </trkpt>
      <trkpt lat="48.86821" lon="2.28138">
        <ele>118.6</ele>
        <time>2013-09-19T18:46:59.147Z</time>
      </trkpt>
      <trkpt lat="48.86817" lon="2.28136">
        <ele>117.6</ele>
        <time>2013-09-19T18:47:00.159Z</time>
      </trkpt>
      <trkpt lat="48.86809" lon="2.28132">
        <ele>116.3</ele>
        <time>2013-09-19T18:47:03.137Z</time>
      </trkpt>
      <trkpt lat="48.86806" lon="2.28131">
        <ele>115.3</ele>
        <time>2013-09-19T18:47:04.140Z</time>
      </trkpt>
      <trkpt lat="48.86797" lon="2.28133">
        <ele>115.9</ele>
        <time>2013-09-19T18:47:08.147Z</time>
      </trkpt>
      <trkpt lat="48.86795" lon="2.28134">
        <ele>116.6</ele>
        <time>2013-09-19T18:47:09.147Z</time>
      </trkpt>
      <trkpt lat="48.8679" lon="2.28122">
        <ele>122.1</ele>
        <time>2013-09-19T18:47:24.146Z</time>
      </trkpt>
      <trkpt lat="48.8679" lon="2.28122">
        <ele>122.8</ele>
        <time>2013-09-19T18:47:25.141Z</time>
      </trkpt>
      <trkpt lat="48.8679" lon="2.28121">
        <ele>123.7</ele>
        <time>2013-09-19T18:47:30.136Z</time>
      </trkpt>
      <trkpt lat="48.8679" lon="2.2812">
        <ele>124.1</ele>
        <time>2013-09-19T18:47:31.218Z</time>
      </trkpt>
      <trkpt lat="48.86789" lon="2.2812">
        <ele>125.1</ele>
        <time>2013-09-19T18:47:53.143Z</time>
      </trkpt>
      <trkpt lat="48.86788" lon="2.28119">
        <ele>125.2</ele>
        <time>2013-09-19T18:47:54.141Z</time>
      </trkpt>
      <trkpt lat="48.86783" lon="2.28112">
        <ele>122.8</ele>
        <time>2013-09-19T18:47:57.138Z</time>
      </trkpt>
      <trkpt lat="48.8678" lon="2.28109">
        <ele>122.4</ele>
        <time>2013-09-19T18:47:58.144Z</time>
      </trkpt>
      <trkpt lat="48.86776" lon="2.28105">
        <ele>121.7</ele>
        <time>2013-09-19T18:47:59.143Z</time>
      </trkpt>
      <trkpt lat="48.86771" lon="2.28102">
        <ele>121.5</ele>
        <time>2013-09-19T18:48:00.162Z</time>
      </trkpt>
      <trkpt lat="48.86765" lon="2.28099">
        <ele>121.3</ele>
        <time>2013-09-19T18:48:01.149Z</time>
      </trkpt>
      <trkpt lat="48.86759" lon="2.28096">
        <ele>121.3</ele>
        <time>2013-09-19T18:48:02.190Z</time>
      </trkpt>
      <trkpt lat="48.86754" lon="2.28093">
        <ele>120.1</ele>
        <time>2013-09-19T18:48:03.144Z</time>
      </trkpt>
      <trkpt lat="48.86748" lon="2.2809">
        <ele>118.8</ele>
        <time>2013-09-19T18:48:04.151Z</time>
      </trkpt>
      <trkpt lat="48.86743" lon="2.28087">
        <ele>118</ele>
        <time>2013-09-19T18:48:05.142Z</time>
      </trkpt>
      <trkpt lat="48.86737" lon="2.28085">
        <ele>117.2</ele>
        <time>2013-09-19T18:48:06.160Z</time>
      </trkpt>
      <trkpt lat="48.86733" lon="2.28083">
        <ele>119.6</ele>
        <time>2013-09-19T18:48:07.188Z</time>
      </trkpt>
      <trkpt lat="48.86728" lon="2.2808">
        <ele>120.8</ele>
        <time>2013-09-19T18:48:08.145Z</time>
      </trkpt>
      <trkpt lat="48.86723" lon="2.28077">
        <ele>120.4</ele>
        <time>2013-09-19T18:48:09.147Z</time>
      </trkpt>
      <trkpt lat="48.86719" lon="2.28074">
        <ele>120.2</ele>
        <time>2013-09-19T18:48:10.153Z</time>
      </trkpt>
      <trkpt lat="48.86715" lon="2.28071">
        <ele>120.9</ele>
        <time>2013-09-19T18:48:11.162Z</time>
      </trkpt>
      <trkpt lat="48.86711" lon="2.28068">
        <ele>120.3</ele>
        <time>2013-09-19T18:48:12.199Z</time>
      </trkpt>
      <trkpt lat="48.86703" lon="2.28063">
        <ele>120.6</ele>
        <time>2013-09-19T18:48:14.143Z</time>
      </trkpt>
      <trkpt lat="48.86699" lon="2.28061">
        <ele>120.4</ele>
        <time>2013-09-19T18:48:15.153Z</time>
      </trkpt>
      <trkpt lat="48.86692" lon="2.28057">
        <ele>120.9</ele>
        <time>2013-09-19T18:48:17.291Z</time>
      </trkpt>
      <trkpt lat="48.86688" lon="2.28055">
        <ele>121.5</ele>
        <time>2013-09-19T18:48:18.151Z</time>
      </trkpt>
      <trkpt lat="48.86682" lon="2.2805">
        <ele>120.3</ele>
        <time>2013-09-19T18:48:20.144Z</time>
      </trkpt>
      <trkpt lat="48.86679" lon="2.28048">
        <ele>120.4</ele>
        <time>2013-09-19T18:48:21.145Z</time>
      </trkpt>
      <trkpt lat="48.86673" lon="2.28044">
        <ele>121</ele>
        <time>2013-09-19T18:48:23.166Z</time>
      </trkpt>
      <trkpt lat="48.8667" lon="2.28042">
        <ele>120.4</ele>
        <time>2013-09-19T18:48:24.182Z</time>
      </trkpt>
      <trkpt lat="48.86664" lon="2.28039">
        <ele>120.9</ele>
        <time>2013-09-19T18:48:26.143Z</time>
      </trkpt>
      <trkpt lat="48.86661" lon="2.28037">
        <ele>122</ele>
        <time>2013-09-19T18:48:27.146Z</time>
      </trkpt>
      <trkpt lat="48.86654" lon="2.2803">
        <ele>120.9</ele>
        <time>2013-09-19T18:48:30.157Z</time>
      </trkpt>
      <trkpt lat="48.86651" lon="2.28027">
        <ele>120</ele>
        <time>2013-09-19T18:48:31.153Z</time>
      </trkpt>
      <trkpt lat="48.86647" lon="2.2802">
        <ele>119.3</ele>
        <time>2013-09-19T18:48:33.153Z</time>
      </trkpt>
      <trkpt lat="48.86644" lon="2.28016">
        <ele>119.2</ele>
        <time>2013-09-19T18:48:34.156Z</time>
      </trkpt>
      <trkpt lat="48.86638" lon="2.28008">
        <ele>119.4</ele>
        <time>2013-09-19T18:48:36.153Z</time>
      </trkpt>
      <trkpt lat="48.86635" lon="2.28004">
        <ele>119.1</ele>
        <time>2013-09-19T18:48:37.177Z</time>
      </trkpt>
      <trkpt lat="48.86627" lon="2.27998">
        <ele>118.3</ele>
        <time>2013-09-19T18:48:39.145Z</time>
      </trkpt>
      <trkpt lat="48.86622" lon="2.27996">
        <ele>118.5</ele>
        <time>2013-09-19T18:48:40.145Z</time>
      </trkpt>
      <trkpt lat="48.86618" lon="2.27994">
        <ele>117.3</ele>
        <time>2013-09-19T18:48:41.145Z</time>
      </trkpt>
      <trkpt lat="48.86613" lon="2.27992">
        <ele>116.8</ele>
        <time>2013-09-19T18:48:42.194Z</time>
      </trkpt>
      <trkpt lat="48.86609" lon="2.27991">
        <ele>117.5</ele>
        <time>2013-09-19T18:48:43.152Z</time>
      </trkpt>
      <trkpt lat="48.86604" lon="2.27988">
        <ele>117.7</ele>
        <time>2013-09-19T18:48:44.148Z</time>
      </trkpt>
      <trkpt lat="48.86599" lon="2.27986">
        <ele>117.5</ele>
        <time>2013-09-19T18:48:45.230Z</time>
      </trkpt>
      <trkpt lat="48.86595" lon="2.27983">
        <ele>117.3</ele>
        <time>2013-09-19T18:48:46.144Z</time>
      </trkpt>
      <trkpt lat="48.86591" lon="2.2798">
        <ele>116</ele>
        <time>2013-09-19T18:48:47.157Z</time>
      </trkpt>
      <trkpt lat="48.86588" lon="2.27976">
        <ele>116.3</ele>
        <time>2013-09-19T18:48:48.157Z</time>
      </trkpt>
      <trkpt lat="48.86584" lon="2.27971">
        <ele>114.7</ele>
        <time>2013-09-19T18:48:49.147Z</time>
      </trkpt>
      <trkpt lat="48.86579" lon="2.27968">
        <ele>115</ele>
        <time>2013-09-19T18:48:50.147Z</time>
      </trkpt>
      <trkpt lat="48.86574" lon="2.27963">
        <ele>115.9</ele>
        <time>2013-09-19T18:48:51.160Z</time>
      </trkpt>
      <trkpt lat="48.8657" lon="2.2796">
        <ele>115.4</ele>
        <time>2013-09-19T18:48:52.200Z</time>
      </trkpt>
      <trkpt lat="48.86566" lon="2.27955">
        <ele>115.4</ele>
        <time>2013-09-19T18:48:53.165Z</time>
      </trkpt>
      <trkpt lat="48.86562" lon="2.27951">
        <ele>115</ele>
        <time>2013-09-19T18:48:54.154Z</time>
      </trkpt>
      <trkpt lat="48.86558" lon="2.27947">
        <ele>116.5</ele>
        <time>2013-09-19T18:48:55.146Z</time>
      </trkpt>
      <trkpt lat="48.86554" lon="2.27942">
        <ele>116</ele>
        <time>2013-09-19T18:48:56.156Z</time>
      </trkpt>
      <trkpt lat="48.8655" lon="2.27937">
        <ele>115.5</ele>
        <time>2013-09-19T18:48:57.212Z</time>
      </trkpt>
      <trkpt lat="48.86547" lon="2.27931">
        <ele>118.8</ele>
        <time>2013-09-19T18:48:58.148Z</time>
      </trkpt>
      <trkpt lat="48.86543" lon="2.27925">
        <ele>118.6</ele>
        <time>2013-09-19T18:48:59.147Z</time>
      </trkpt>
      <trkpt lat="48.86539" lon="2.2792">
        <ele>118.4</ele>
        <time>2013-09-19T18:49:00.178Z</time>
      </trkpt>
      <trkpt lat="48.86535" lon="2.27916">
        <ele>118.6</ele>
        <time>2013-09-19T18:49:01.155Z</time>
      </trkpt>
      <trkpt lat="48.86531" lon="2.27913">
        <ele>118.1</ele>
        <time>2013-09-19T18:49:02.147Z</time>
      </trkpt>
      <trkpt lat="48.86526" lon="2.27909">
        <ele>117.4</ele>
        <time>2013-09-19T18:49:03.147Z</time>
      </trkpt>
      <trkpt lat="48.86523" lon="2.27905">
        <ele>116.8</ele>
        <time>2013-09-19T18:49:04.147Z</time>
      </trkpt>
      <trkpt lat="48.86517" lon="2.27896">
        <ele>116.2</ele>
        <time>2013-09-19T18:49:06.159Z</time>
      </trkpt>
      <trkpt lat="48.86513" lon="2.27893">
        <ele>115.9</ele>
        <time>2013-09-19T18:49:07.213Z</time>
      </trkpt>
      <trkpt lat="48.86507" lon="2.27886">
        <ele>111.9</ele>
        <time>2013-09-19T18:49:09.147Z</time>
      </trkpt>
      <trkpt lat="48.86505" lon="2.27882">
        <ele>112</ele>
        <time>2013-09-19T18:49:10.152Z</time>
      </trkpt>
      <trkpt lat="48.86499" lon="2.27875">
        <ele>107.8</ele>
        <time>2013-09-19T18:49:12.155Z</time>
      </trkpt>
      <trkpt lat="48.86495" lon="2.27871">
        <ele>106.8</ele>
        <time>2013-09-19T18:49:13.150Z</time>
      </trkpt>
      <trkpt lat="48.86488" lon="2.27864">
        <ele>106.7</ele>
        <time>2013-09-19T18:49:15.155Z</time>
      </trkpt>
      <trkpt lat="48.86484" lon="2.2786">
        <ele>105.4</ele>
        <time>2013-09-19T18:49:16.149Z</time>
      </trkpt>
      <trkpt lat="48.86477" lon="2.27852">
        <ele>105.4</ele>
        <time>2013-09-19T18:49:18.168Z</time>
      </trkpt>
      <trkpt lat="48.86473" lon="2.27848">
        <ele>105.4</ele>
        <time>2013-09-19T18:49:19.149Z</time>
      </trkpt>
      <trkpt lat="48.86466" lon="2.27841">
        <ele>105.3</ele>
        <time>2013-09-19T18:49:21.166Z</time>
      </trkpt>
      <trkpt lat="48.86463" lon="2.27835">
        <ele>105.9</ele>
        <time>2013-09-19T18:49:22.193Z</time>
      </trkpt>
      <trkpt lat="48.86458" lon="2.27827">
        <ele>105.4</ele>
        <time>2013-09-19T18:49:24.159Z</time>
      </trkpt>
      <trkpt lat="48.86454" lon="2.27824">
        <ele>105.6</ele>
        <time>2013-09-19T18:49:25.156Z</time>
      </trkpt>
      <trkpt lat="48.86448" lon="2.27816">
        <ele>108.8</ele>
        <time>2013-09-19T18:49:27.174Z</time>
      </trkpt>
      <trkpt lat="48.86446" lon="2.27812">
        <ele>109.7</ele>
        <time>2013-09-19T18:49:28.150Z</time>
      </trkpt>
      <trkpt lat="48.86441" lon="2.27805">
        <ele>108.5</ele>
        <time>2013-09-19T18:49:30.158Z</time>
      </trkpt>
      <trkpt lat="48.86438" lon="2.27801">
        <ele>109.2</ele>
        <time>2013-09-19T18:49:31.150Z</time>
      </trkpt>
      <trkpt lat="48.86432" lon="2.27793">
        <ele>111.4</ele>
        <time>2013-09-19T18:49:33.148Z</time>
      </trkpt>
      <trkpt lat="48.86429" lon="2.2779">
        <ele>111.2</ele>
        <time>2013-09-19T18:49:34.148Z</time>
      </trkpt>
      <trkpt lat="48.86422" lon="2.27787">
        <ele>110.8</ele>
        <time>2013-09-19T18:49:37.149Z</time>
      </trkpt>
      <trkpt lat="48.8642" lon="2.27787">
        <ele>112.1</ele>
        <time>2013-09-19T18:49:38.159Z</time>
      </trkpt>
      <trkpt lat="48.86411" lon="2.27787">
        <ele>112.8</ele>
        <time>2013-09-19T18:49:42.173Z</time>
      </trkpt>
      <trkpt lat="48.8641" lon="2.27786">
        <ele>113</ele>
        <time>2013-09-19T18:49:43.151Z</time>
      </trkpt>
      <trkpt lat="48.8641" lon="2.27773">
        <ele>111.8</ele>
        <time>2013-09-19T18:49:56.158Z</time>
      </trkpt>
      <trkpt lat="48.86408" lon="2.27772">
        <ele>111.1</ele>
        <time>2013-09-19T18:49:57.220Z</time>
      </trkpt>
      <trkpt lat="48.86401" lon="2.27767">
        <ele>112.9</ele>
        <time>2013-09-19T18:50:00.164Z</time>
      </trkpt>
      <trkpt lat="48.86398" lon="2.27765">
        <ele>114.4</ele>
        <time>2013-09-19T18:50:01.149Z</time>
      </trkpt>
      <trkpt lat="48.86394" lon="2.27753">
        <ele>110.8</ele>
        <time>2013-09-19T18:50:05.170Z</time>
      </trkpt>
      <trkpt lat="48.86393" lon="2.2775">
        <ele>110</ele>
        <time>2013-09-19T18:50:06.170Z</time>
      </trkpt>
      <trkpt lat="48.86388" lon="2.27739">
        <ele>108.2</ele>
        <time>2013-09-19T18:50:11.172Z</time>
      </trkpt>
      <trkpt lat="48.86387" lon="2.27737">
        <ele>108.1</ele>
        <time>2013-09-19T18:50:12.239Z</time>
      </trkpt>
      <trkpt lat="48.8638" lon="2.2773">
        <ele>106.8</ele>
        <time>2013-09-19T18:50:15.171Z</time>
      </trkpt>
      <trkpt lat="48.86377" lon="2.27727">
        <ele>107.2</ele>
        <time>2013-09-19T18:50:16.161Z</time>
      </trkpt>
      <trkpt lat="48.86372" lon="2.27723">
        <ele>106.9</ele>
        <time>2013-09-19T18:50:17.189Z</time>
      </trkpt>
      <trkpt lat="48.86369" lon="2.27718">
        <ele>106.5</ele>
        <time>2013-09-19T18:50:18.154Z</time>
      </trkpt>
      <trkpt lat="48.86365" lon="2.27713">
        <ele>106.5</ele>
        <time>2013-09-19T18:50:19.427Z</time>
      </trkpt>
      <trkpt lat="48.86362" lon="2.27708">
        <ele>107.3</ele>
        <time>2013-09-19T18:50:20.153Z</time>
      </trkpt>
      <trkpt lat="48.86358" lon="2.27697">
        <ele>108.8</ele>
        <time>2013-09-19T18:50:22.168Z</time>
      </trkpt>
      <trkpt lat="48.86357" lon="2.27693">
        <ele>108.8</ele>
        <time>2013-09-19T18:50:23.163Z</time>
      </trkpt>
      <trkpt lat="48.86355" lon="2.2768">
        <ele>109.1</ele>
        <time>2013-09-19T18:50:26.152Z</time>
      </trkpt>
      <trkpt lat="48.86352" lon="2.27677">
        <ele>110.4</ele>
        <time>2013-09-19T18:50:27.206Z</time>
      </trkpt>
      <trkpt lat="48.86345" lon="2.27671">
        <ele>111.5</ele>
        <time>2013-09-19T18:50:29.158Z</time>
      </trkpt>
      <trkpt lat="48.86341" lon="2.27668">
        <ele>112</ele>
        <time>2013-09-19T18:50:30.154Z</time>
      </trkpt>
      <trkpt lat="48.86337" lon="2.27666">
        <ele>111.3</ele>
        <time>2013-09-19T18:50:31.193Z</time>
      </trkpt>
      <trkpt lat="48.86332" lon="2.27664">
        <ele>109.9</ele>
        <time>2013-09-19T18:50:32.201Z</time>
      </trkpt>
      <trkpt lat="48.86328" lon="2.27662">
        <ele>109.2</ele>
        <time>2013-09-19T18:50:33.171Z</time>
      </trkpt>
      <trkpt lat="48.86323" lon="2.2766">
        <ele>107.8</ele>
        <time>2013-09-19T18:50:34.159Z</time>
      </trkpt>
      <trkpt lat="48.86318" lon="2.27657">
        <ele>107.4</ele>
        <time>2013-09-19T18:50:35.180Z</time>
      </trkpt>
      <trkpt lat="48.86313" lon="2.27655">
        <ele>107.5</ele>
        <time>2013-09-19T18:50:36.150Z</time>
      </trkpt>
      <trkpt lat="48.86308" lon="2.27654">
        <ele>107.3</ele>
        <time>2013-09-19T18:50:37.164Z</time>
      </trkpt>
      <trkpt lat="48.86303" lon="2.27652">
        <ele>107.5</ele>
        <time>2013-09-19T18:50:38.180Z</time>
      </trkpt>
      <trkpt lat="48.86295" lon="2.27652">
        <ele>107.3</ele>
        <time>2013-09-19T18:50:40.172Z</time>
      </trkpt>
      <trkpt lat="48.86293" lon="2.27652">
        <ele>106.9</ele>
        <time>2013-09-19T18:50:41.167Z</time>
      </trkpt>
      <trkpt lat="48.86284" lon="2.2765">
        <ele>107.9</ele>
        <time>2013-09-19T18:50:45.195Z</time>
      </trkpt>
      <trkpt lat="48.86283" lon="2.27648">
        <ele>108.3</ele>
        <time>2013-09-19T18:50:46.157Z</time>
      </trkpt>
      <trkpt lat="48.8628" lon="2.2764">
        <ele>106.2</ele>
        <time>2013-09-19T18:50:48.163Z</time>
      </trkpt>
      <trkpt lat="48.86279" lon="2.27635">
        <ele>105.8</ele>
        <time>2013-09-19T18:50:49.164Z</time>
      </trkpt>
      <trkpt lat="48.8628" lon="2.27622">
        <ele>106.4</ele>
        <time>2013-09-19T18:50:51.154Z</time>
      </trkpt>
      <trkpt lat="48.86281" lon="2.27616">
        <ele>105.1</ele>
        <time>2013-09-19T18:50:52.152Z</time>
      </trkpt>
      <trkpt lat="48.86284" lon="2.27603">
        <ele>106.4</ele>
        <time>2013-09-19T18:50:54.157Z</time>
      </trkpt>
      <trkpt lat="48.86285" lon="2.27597">
        <ele>105.8</ele>
        <time>2013-09-19T18:50:55.154Z</time>
      </trkpt>
      <trkpt lat="48.86288" lon="2.27585">
        <ele>107.2</ele>
        <time>2013-09-19T18:50:58.133Z</time>
      </trkpt>
      <trkpt lat="48.8629" lon="2.27579">
        <ele>107.1</ele>
        <time>2013-09-19T18:50:58.194Z</time>
      </trkpt>
      <trkpt lat="48.86293" lon="2.27568">
        <ele>107.6</ele>
        <time>2013-09-19T18:51:00.196Z</time>
      </trkpt>
      <trkpt lat="48.86294" lon="2.27562">
        <ele>107.9</ele>
        <time>2013-09-19T18:51:01.173Z</time>
      </trkpt>
      <trkpt lat="48.86297" lon="2.27551">
        <ele>108</ele>
        <time>2013-09-19T18:51:03.157Z</time>
      </trkpt>
      <trkpt lat="48.86298" lon="2.27545">
        <ele>108.4</ele>
        <time>2013-09-19T18:51:04.175Z</time>
      </trkpt>
      <trkpt lat="48.86302" lon="2.27537">
        <ele>108</ele>
        <time>2013-09-19T18:51:06.157Z</time>
      </trkpt>
      <trkpt lat="48.86305" lon="2.27533">
        <ele>108.6</ele>
        <time>2013-09-19T18:51:07.218Z</time>
      </trkpt>
      <trkpt lat="48.8631" lon="2.27527">
        <ele>109.5</ele>
        <time>2013-09-19T18:51:09.157Z</time>
      </trkpt>
      <trkpt lat="48.86312" lon="2.27523">
        <ele>109.5</ele>
        <time>2013-09-19T18:51:10.158Z</time>
      </trkpt>
      <trkpt lat="48.86317" lon="2.27515">
        <ele>109.9</ele>
        <time>2013-09-19T18:51:12.217Z</time>
      </trkpt>
      <trkpt lat="48.8632" lon="2.2751">
        <ele>110.2</ele>
        <time>2013-09-19T18:51:13.160Z</time>
      </trkpt>
      <trkpt lat="48.86322" lon="2.27504">
        <ele>110.5</ele>
        <time>2013-09-19T18:51:14.164Z</time>
      </trkpt>
      <trkpt lat="48.86322" lon="2.27492">
        <ele>109.8</ele>
        <time>2013-09-19T18:51:15.186Z</time>
      </trkpt>
      <trkpt lat="48.86324" lon="2.27481">
        <ele>109.6</ele>
        <time>2013-09-19T18:51:16.167Z</time>
      </trkpt>
      <trkpt lat="48.86328" lon="2.27474">
        <ele>109.4</ele>
        <time>2013-09-19T18:51:17.205Z</time>
      </trkpt>
      <trkpt lat="48.8633" lon="2.27468">
        <ele>109.7</ele>
        <time>2013-09-19T18:51:18.157Z</time>
      </trkpt>
      <trkpt lat="48.86333" lon="2.27463">
        <ele>109.6</ele>
        <time>2013-09-19T18:51:19.164Z</time>
      </trkpt>
      <trkpt lat="48.86336" lon="2.27458">
        <ele>109.9</ele>
        <time>2013-09-19T18:51:20.177Z</time>
      </trkpt>
      <trkpt lat="48.86339" lon="2.27453">
        <ele>109.4</ele>
        <time>2013-09-19T18:51:21.157Z</time>
      </trkpt>
      <trkpt lat="48.86342" lon="2.27447">
        <ele>110.1</ele>
        <time>2013-09-19T18:51:22.223Z</time>
      </trkpt>
      <trkpt lat="48.86347" lon="2.27443">
        <ele>109.6</ele>
        <time>2013-09-19T18:51:23.165Z</time>
      </trkpt>
      <trkpt lat="48.8635" lon="2.27432">
        <ele>108.7</ele>
        <time>2013-09-19T18:51:25.163Z</time>
      </trkpt>
      <trkpt lat="48.86353" lon="2.27428">
        <ele>108.9</ele>
        <time>2013-09-19T18:51:26.165Z</time>
      </trkpt>
      <trkpt lat="48.86355" lon="2.27419">
        <ele>108.6</ele>
        <time>2013-09-19T18:51:28.158Z</time>
      </trkpt>
      <trkpt lat="48.86356" lon="2.27414">
        <ele>108.7</ele>
        <time>2013-09-19T18:51:29.167Z</time>
      </trkpt>
      <trkpt lat="48.86357" lon="2.27403">
        <ele>106.9</ele>
        <time>2013-09-19T18:51:31.166Z</time>
      </trkpt>
      <trkpt lat="48.86358" lon="2.27397">
        <ele>107.3</ele>
        <time>2013-09-19T18:51:32.218Z</time>
      </trkpt>
      <trkpt lat="48.8636" lon="2.27386">
        <ele>107.7</ele>
        <time>2013-09-19T18:51:34.160Z</time>
      </trkpt>
      <trkpt lat="48.86361" lon="2.2738">
        <ele>108.2</ele>
        <time>2013-09-19T18:51:35.170Z</time>
      </trkpt>
      <trkpt lat="48.86362" lon="2.27368">
        <ele>108</ele>
        <time>2013-09-19T18:51:37.199Z</time>
      </trkpt>
      <trkpt lat="48.86363" lon="2.27362">
        <ele>107</ele>
        <time>2013-09-19T18:51:38.158Z</time>
      </trkpt>
      <trkpt lat="48.86362" lon="2.27355">
        <ele>106.2</ele>
        <time>2013-09-19T18:51:39.165Z</time>
      </trkpt>
      <trkpt lat="48.86361" lon="2.27348">
        <ele>105.1</ele>
        <time>2013-09-19T18:51:40.167Z</time>
      </trkpt>
      <trkpt lat="48.86358" lon="2.27338">
        <ele>104</ele>
        <time>2013-09-19T18:51:41.893Z</time>
      </trkpt>
      <trkpt lat="48.86355" lon="2.2733">
        <ele>105.2</ele>
        <time>2013-09-19T18:51:42.172Z</time>
      </trkpt>
      <trkpt lat="48.86353" lon="2.27322">
        <ele>105.5</ele>
        <time>2013-09-19T18:51:43.170Z</time>
      </trkpt>
      <trkpt lat="48.86353" lon="2.27316">
        <ele>106.2</ele>
        <time>2013-09-19T18:51:44.159Z</time>
      </trkpt>
      <trkpt lat="48.86355" lon="2.2731">
        <ele>105.2</ele>
        <time>2013-09-19T18:51:45.159Z</time>
      </trkpt>
      <trkpt lat="48.8636" lon="2.27306">
        <ele>105.9</ele>
        <time>2013-09-19T18:51:46.167Z</time>
      </trkpt>
      <trkpt lat="48.86366" lon="2.27302">
        <ele>105.3</ele>
        <time>2013-09-19T18:51:47.191Z</time>
      </trkpt>
      <trkpt lat="48.86371" lon="2.27297">
        <ele>105.3</ele>
        <time>2013-09-19T18:51:48.169Z</time>
      </trkpt>
      <trkpt lat="48.86374" lon="2.2729">
        <ele>106.3</ele>
        <time>2013-09-19T18:51:49.162Z</time>
      </trkpt>
      <trkpt lat="48.86376" lon="2.27285">
        <ele>106.2</ele>
        <time>2013-09-19T18:51:50.170Z</time>
      </trkpt>
      <trkpt lat="48.8638" lon="2.27276">
        <ele>105.8</ele>
        <time>2013-09-19T18:51:52.158Z</time>
      </trkpt>
      <trkpt lat="48.86382" lon="2.27272">
        <ele>107</ele>
        <time>2013-09-19T18:51:53.219Z</time>
      </trkpt>
      <trkpt lat="48.86383" lon="2.27262">
        <ele>107.1</ele>
        <time>2013-09-19T18:51:55.167Z</time>
      </trkpt>
      <trkpt lat="48.86381" lon="2.27257">
        <ele>106.6</ele>
        <time>2013-09-19T18:51:56.187Z</time>
      </trkpt>
      <trkpt lat="48.86387" lon="2.27247">
        <ele>111.3</ele>
        <time>2013-09-19T18:52:02.242Z</time>
      </trkpt>
      <trkpt lat="48.86387" lon="2.27247">
        <ele>111.2</ele>
        <time>2013-09-19T18:52:03.178Z</time>
      </trkpt>
      <trkpt lat="48.86386" lon="2.27245">
        <ele>112.3</ele>
        <time>2013-09-19T18:52:08.170Z</time>
      </trkpt>
      <trkpt lat="48.86386" lon="2.27245">
        <ele>112.7</ele>
        <time>2013-09-19T18:52:09.186Z</time>
      </trkpt>
      <trkpt lat="48.86386" lon="2.27246">
        <ele>112.3</ele>
        <time>2013-09-19T18:52:11.175Z</time>
      </trkpt>
      <trkpt lat="48.86387" lon="2.27247">
        <ele>112.5</ele>
        <time>2013-09-19T18:52:12.194Z</time>
      </trkpt>
      <trkpt lat="48.8638" lon="2.27242">
        <ele>113.6</ele>
        <time>2013-09-19T18:52:38.233Z</time>
      </trkpt>
      <trkpt lat="48.86377" lon="2.27242">
        <ele>113.3</ele>
        <time>2013-09-19T18:52:39.212Z</time>
      </trkpt>
      <trkpt lat="48.86377" lon="2.27247">
        <ele>114.4</ele>
        <time>2013-09-19T18:52:52.005Z</time>
      </trkpt>
      <trkpt lat="48.86377" lon="2.27247">
        <ele>114.9</ele>
        <time>2013-09-19T18:52:52.286Z</time>
      </trkpt>
      <trkpt lat="48.86376" lon="2.27245">
        <ele>117.9</ele>
        <time>2013-09-19T18:53:07.217Z</time>
      </trkpt>
      <trkpt lat="48.86376" lon="2.27245">
        <ele>118.2</ele>
        <time>2013-09-19T18:53:08.224Z</time>
      </trkpt>
      <trkpt lat="48.86374" lon="2.27242">
        <ele>121.8</ele>
        <time>2013-09-19T18:53:18.263Z</time>
      </trkpt>
      <trkpt lat="48.86374" lon="2.27242">
        <ele>121.8</ele>
        <time>2013-09-19T18:53:19.217Z</time>
      </trkpt>
      <trkpt lat="48.86376" lon="2.27242">
        <ele>120.5</ele>
        <time>2013-09-19T18:55:26.181Z</time>
      </trkpt>
      <trkpt lat="48.86376" lon="2.27243">
        <ele>121.6</ele>
        <time>2013-09-19T18:55:27.173Z</time>
      </trkpt>
      <trkpt lat="48.86379" lon="2.27253">
        <ele>120.9</ele>
        <time>2013-09-19T18:55:30.178Z</time>
      </trkpt>
      <trkpt lat="48.86381" lon="2.27257">
        <ele>120.4</ele>
        <time>2013-09-19T18:55:31.174Z</time>
      </trkpt>
      <trkpt lat="48.86385" lon="2.27269">
        <ele>122.1</ele>
        <time>2013-09-19T18:55:34.177Z</time>
      </trkpt>
      <trkpt lat="48.86386" lon="2.27272">
        <ele>122.3</ele>
        <time>2013-09-19T18:55:35.193Z</time>
      </trkpt>
      <trkpt lat="48.86391" lon="2.2728">
        <ele>123.5</ele>
        <time>2013-09-19T18:55:38.185Z</time>
      </trkpt>
      <trkpt lat="48.86392" lon="2.27283">
        <ele>123.6</ele>
        <time>2013-09-19T18:55:39.177Z</time>
      </trkpt>
      <trkpt lat="48.864" lon="2.2729">
        <ele>123.3</ele>
        <time>2013-09-19T18:55:42.328Z</time>
      </trkpt>
      <trkpt lat="48.86402" lon="2.27293">
        <ele>123.5</ele>
        <time>2013-09-19T18:55:43.234Z</time>
      </trkpt>
      <trkpt lat="48.86404" lon="2.27305">
        <ele>123.2</ele>
        <time>2013-09-19T18:55:46.275Z</time>
      </trkpt>
      <trkpt lat="48.86404" lon="2.27309">
        <ele>122.7</ele>
        <time>2013-09-19T18:55:47.187Z</time>
      </trkpt>
      <trkpt lat="48.86405" lon="2.2732">
        <ele>122.9</ele>
        <time>2013-09-19T18:55:50.196Z</time>
      </trkpt>
      <trkpt lat="48.86405" lon="2.27325">
        <ele>120.6</ele>
        <time>2013-09-19T18:55:51.181Z</time>
      </trkpt>
      <trkpt lat="48.86407" lon="2.27334">
        <ele>125.5</ele>
        <time>2013-09-19T18:55:53.186Z</time>
      </trkpt>
      <trkpt lat="48.86409" lon="2.27339">
        <ele>125.5</ele>
        <time>2013-09-19T18:55:54.178Z</time>
      </trkpt>
      <trkpt lat="48.86412" lon="2.27352">
        <ele>126.9</ele>
        <time>2013-09-19T18:55:57.301Z</time>
      </trkpt>
      <trkpt lat="48.86413" lon="2.27355">
        <ele>127.7</ele>
        <time>2013-09-19T18:55:58.341Z</time>
      </trkpt>
      <trkpt lat="48.86415" lon="2.27364">
        <ele>130.8</ele>
        <time>2013-09-19T18:56:00.241Z</time>
      </trkpt>
      <trkpt lat="48.86416" lon="2.27368">
        <ele>131</ele>
        <time>2013-09-19T18:56:01.193Z</time>
      </trkpt>
      <trkpt lat="48.86419" lon="2.27379">
        <ele>132.4</ele>
        <time>2013-09-19T18:56:03.195Z</time>
      </trkpt>
      <trkpt lat="48.8642" lon="2.27386">
        <ele>130.1</ele>
        <time>2013-09-19T18:56:04.182Z</time>
      </trkpt>
      <trkpt lat="48.86422" lon="2.27392">
        <ele>130.2</ele>
        <time>2013-09-19T18:56:05.206Z</time>
      </trkpt>
      <trkpt lat="48.86424" lon="2.27399">
        <ele>129.7</ele>
        <time>2013-09-19T18:56:06.190Z</time>
      </trkpt>
      <trkpt lat="48.86425" lon="2.27406">
        <ele>130.5</ele>
        <time>2013-09-19T18:56:07.186Z</time>
      </trkpt>
      <trkpt lat="48.86427" lon="2.27413">
        <ele>130.4</ele>
        <time>2013-09-19T18:56:08.181Z</time>
      </trkpt>
      <trkpt lat="48.86429" lon="2.2742">
        <ele>130.6</ele>
        <time>2013-09-19T18:56:09.185Z</time>
      </trkpt>
      <trkpt lat="48.8643" lon="2.27427">
        <ele>130.4</ele>
        <time>2013-09-19T18:56:10.181Z</time>
      </trkpt>
      <trkpt lat="48.86431" lon="2.27438">
        <ele>128.8</ele>
        <time>2013-09-19T18:56:12.178Z</time>
      </trkpt>
      <trkpt lat="48.86431" lon="2.27444">
        <ele>129.4</ele>
        <time>2013-09-19T18:56:13.182Z</time>
      </trkpt>
      <trkpt lat="48.86433" lon="2.27453">
        <ele>128.6</ele>
        <time>2013-09-19T18:56:15.230Z</time>
      </trkpt>
      <trkpt lat="48.86433" lon="2.27458">
        <ele>128.7</ele>
        <time>2013-09-19T18:56:16.330Z</time>
      </trkpt>
      <trkpt lat="48.86433" lon="2.2747">
        <ele>127.6</ele>
        <time>2013-09-19T18:56:19.214Z</time>
      </trkpt>
      <trkpt lat="48.86431" lon="2.27474">
        <ele>126.4</ele>
        <time>2013-09-19T18:56:20.344Z</time>
      </trkpt>
      <trkpt lat="48.86429" lon="2.27486">
        <ele>134.6</ele>
        <time>2013-09-19T18:56:24.201Z</time>
      </trkpt>
      <trkpt lat="48.86429" lon="2.27489">
        <ele>135.1</ele>
        <time>2013-09-19T18:56:25.318Z</time>
      </trkpt>
      <trkpt lat="48.86432" lon="2.27499">
        <ele>137.3</ele>
        <time>2013-09-19T18:56:28.263Z</time>
      </trkpt>
      <trkpt lat="48.86432" lon="2.27503">
        <ele>137.7</ele>
        <time>2013-09-19T18:56:29.311Z</time>
      </trkpt>
      <trkpt lat="48.86432" lon="2.27515">
        <ele>138.7</ele>
        <time>2013-09-19T18:56:32.466Z</time>
      </trkpt>
      <trkpt lat="48.86431" lon="2.2752">
        <ele>139.8</ele>
        <time>2013-09-19T18:56:33.195Z</time>
      </trkpt>
      <trkpt lat="48.86429" lon="2.27531">
        <ele>139.8</ele>
        <time>2013-09-19T18:56:35.187Z</time>
      </trkpt>
      <trkpt lat="48.86429" lon="2.27537">
        <ele>140.2</ele>
        <time>2013-09-19T18:56:36.181Z</time>
      </trkpt>
      <trkpt lat="48.86429" lon="2.27547">
        <ele>141.7</ele>
        <time>2013-09-19T18:56:38.182Z</time>
      </trkpt>
      <trkpt lat="48.86429" lon="2.27552">
        <ele>143.5</ele>
        <time>2013-09-19T18:56:39.183Z</time>
      </trkpt>
      <trkpt lat="48.8643" lon="2.27564">
        <ele>146.8</ele>
        <time>2013-09-19T18:56:42.218Z</time>
      </trkpt>
      <trkpt lat="48.86431" lon="2.27568">
        <ele>146.7</ele>
        <time>2013-09-19T18:56:43.275Z</time>
      </trkpt>
      <trkpt lat="48.86429" lon="2.27579">
        <ele>144.2</ele>
        <time>2013-09-19T18:56:46.947Z</time>
      </trkpt>
      <trkpt lat="48.86429" lon="2.27583">
        <ele>144.1</ele>
        <time>2013-09-19T18:56:47.272Z</time>
      </trkpt>
      <trkpt lat="48.86425" lon="2.27591">
        <ele>142.6</ele>
        <time>2013-09-19T18:56:49.200Z</time>
      </trkpt>
      <trkpt lat="48.86423" lon="2.27595">
        <ele>141.1</ele>
        <time>2013-09-19T18:56:50.347Z</time>
      </trkpt>
      <trkpt lat="48.86421" lon="2.27604">
        <ele>138.9</ele>
        <time>2013-09-19T18:56:52.328Z</time>
      </trkpt>
      <trkpt lat="48.8642" lon="2.27608">
        <ele>138.4</ele>
        <time>2013-09-19T18:56:53.328Z</time>
      </trkpt>
      <trkpt lat="48.8642" lon="2.27618">
        <ele>139.7</ele>
        <time>2013-09-19T18:56:55.351Z</time>
      </trkpt>
      <trkpt lat="48.86421" lon="2.27622">
        <ele>141.6</ele>
        <time>2013-09-19T18:56:56.224Z</time>
      </trkpt>
      <trkpt lat="48.86422" lon="2.27632">
        <ele>142.8</ele>
        <time>2013-09-19T18:56:58.196Z</time>
      </trkpt>
      <trkpt lat="48.86422" lon="2.27638">
        <ele>142.7</ele>
        <time>2013-09-19T18:56:59.356Z</time>
      </trkpt>
      <trkpt lat="48.86421" lon="2.27647">
        <ele>139.5</ele>
        <time>2013-09-19T18:57:02.184Z</time>
      </trkpt>
      <trkpt lat="48.86421" lon="2.27652">
        <ele>137.8</ele>
        <time>2013-09-19T18:57:02.367Z</time>
      </trkpt>
      <trkpt lat="48.86422" lon="2.27662">
        <ele>137.7</ele>
        <time>2013-09-19T18:57:04.352Z</time>
      </trkpt>
      <trkpt lat="48.86422" lon="2.27666">
        <ele>137.3</ele>
        <time>2013-09-19T18:57:05.212Z</time>
      </trkpt>
      <trkpt lat="48.86421" lon="2.27675">
        <ele>135.4</ele>
        <time>2013-09-19T18:57:07.249Z</time>
      </trkpt>
      <trkpt lat="48.86419" lon="2.2768">
        <ele>137.7</ele>
        <time>2013-09-19T18:57:08.331Z</time>
      </trkpt>
      <trkpt lat="48.86416" lon="2.27688">
        <ele>133</ele>
        <time>2013-09-19T18:57:10.293Z</time>
      </trkpt>
      <trkpt lat="48.86413" lon="2.27693">
        <ele>129.6</ele>
        <time>2013-09-19T18:57:11.321Z</time>
      </trkpt>
      <trkpt lat="48.86409" lon="2.27703">
        <ele>124.2</ele>
        <time>2013-09-19T18:57:14.207Z</time>
      </trkpt>
      <trkpt lat="48.86408" lon="2.27706">
        <ele>120.8</ele>
        <time>2013-09-19T18:57:15.331Z</time>
      </trkpt>
      <trkpt lat="48.864" lon="2.27711">
        <ele>112.7</ele>
        <time>2013-09-19T18:57:29.196Z</time>
      </trkpt>
      <trkpt lat="48.86398" lon="2.27711">
        <ele>112.4</ele>
        <time>2013-09-19T18:57:30.223Z</time>
      </trkpt>
      <trkpt lat="48.86391" lon="2.27708">
        <ele>112.1</ele>
        <time>2013-09-19T18:57:33.219Z</time>
      </trkpt>
      <trkpt lat="48.86388" lon="2.27707">
        <ele>111.5</ele>
        <time>2013-09-19T18:57:34.223Z</time>
      </trkpt>
      <trkpt lat="48.86379" lon="2.27702">
        <ele>112.5</ele>
        <time>2013-09-19T18:57:37.344Z</time>
      </trkpt>
      <trkpt lat="48.86376" lon="2.27701">
        <ele>112.6</ele>
        <time>2013-09-19T18:57:38.245Z</time>
      </trkpt>
      <trkpt lat="48.8637" lon="2.27699">
        <ele>112.5</ele>
        <time>2013-09-19T18:57:40.320Z</time>
      </trkpt>
      <trkpt lat="48.86367" lon="2.27698">
        <ele>113.3</ele>
        <time>2013-09-19T18:57:41.236Z</time>
      </trkpt>
      <trkpt lat="48.8636" lon="2.27695">
        <ele>113.5</ele>
        <time>2013-09-19T18:57:43.194Z</time>
      </trkpt>
      <trkpt lat="48.86357" lon="2.27693">
        <ele>113.6</ele>
        <time>2013-09-19T18:57:44.325Z</time>
      </trkpt>
      <trkpt lat="48.86351" lon="2.27688">
        <ele>112.4</ele>
        <time>2013-09-19T18:57:46.912Z</time>
      </trkpt>
      <trkpt lat="48.86348" lon="2.27685">
        <ele>111.8</ele>
        <time>2013-09-19T18:57:47.284Z</time>
      </trkpt>
      <trkpt lat="48.8634" lon="2.2768">
        <ele>110.9</ele>
        <time>2013-09-19T18:57:49.335Z</time>
      </trkpt>
      <trkpt lat="48.86337" lon="2.27678">
        <ele>110.8</ele>
        <time>2013-09-19T18:57:50.207Z</time>
      </trkpt>
      <trkpt lat="48.86331" lon="2.27673">
        <ele>110.6</ele>
        <time>2013-09-19T18:57:52.219Z</time>
      </trkpt>
      <trkpt lat="48.86328" lon="2.2767">
        <ele>110.3</ele>
        <time>2013-09-19T18:57:53.327Z</time>
      </trkpt>
      <trkpt lat="48.86323" lon="2.27664">
        <ele>110.3</ele>
        <time>2013-09-19T18:57:55.303Z</time>
      </trkpt>
      <trkpt lat="48.8632" lon="2.27662">
        <ele>110</ele>
        <time>2013-09-19T18:57:56.351Z</time>
      </trkpt>
      <trkpt lat="48.86313" lon="2.27657">
        <ele>111.2</ele>
        <time>2013-09-19T18:57:58.368Z</time>
      </trkpt>
      <trkpt lat="48.86309" lon="2.27654">
        <ele>112.4</ele>
        <time>2013-09-19T18:57:59.207Z</time>
      </trkpt>
      <trkpt lat="48.86301" lon="2.2765">
        <ele>112.4</ele>
        <time>2013-09-19T18:58:02.046Z</time>
      </trkpt>
      <trkpt lat="48.86296" lon="2.27648">
        <ele>112.9</ele>
        <time>2013-09-19T18:58:02.390Z</time>
      </trkpt>
      <trkpt lat="48.86289" lon="2.27645">
        <ele>113.7</ele>
        <time>2013-09-19T18:58:04.278Z</time>
      </trkpt>
      <trkpt lat="48.86286" lon="2.27645">
        <ele>110.4</ele>
        <time>2013-09-19T18:58:05.334Z</time>
      </trkpt>
      <trkpt lat="48.86284" lon="2.27647">
        <ele>110.6</ele>
        <time>2013-09-19T18:58:09.179Z</time>
      </trkpt>
      <trkpt lat="48.86285" lon="2.27647">
        <ele>110.7</ele>
        <time>2013-09-19T18:58:15.136Z</time>
      </trkpt>
      <trkpt lat="48.86286" lon="2.27647">
        <ele>110.6</ele>
        <time>2013-09-19T18:58:16.209Z</time>
      </trkpt>
      <trkpt lat="48.86287" lon="2.27645">
        <ele>110.4</ele>
        <time>2013-09-19T18:58:21.220Z</time>
      </trkpt>
      <trkpt lat="48.86287" lon="2.27645">
        <ele>110.6</ele>
        <time>2013-09-19T18:58:22.209Z</time>
      </trkpt>
      <trkpt lat="48.86286" lon="2.27644">
        <ele>109.2</ele>
        <time>2013-09-19T18:58:31.208Z</time>
      </trkpt>
      <trkpt lat="48.86286" lon="2.27644">
        <ele>109.6</ele>
        <time>2013-09-19T18:58:32.300Z</time>
      </trkpt>
      <trkpt lat="48.86285" lon="2.27642">
        <ele>106.1</ele>
        <time>2013-09-19T18:58:37.196Z</time>
      </trkpt>
      <trkpt lat="48.86285" lon="2.27642">
        <ele>106.2</ele>
        <time>2013-09-19T18:58:38.229Z</time>
      </trkpt>
      <trkpt lat="48.86285" lon="2.27641">
        <ele>105.9</ele>
        <time>2013-09-19T18:58:59.319Z</time>
      </trkpt>
      <trkpt lat="48.86284" lon="2.27641">
        <ele>105.6</ele>
        <time>2013-09-19T18:59:00.395Z</time>
      </trkpt>
      <trkpt lat="48.86277" lon="2.27637">
        <ele>106.8</ele>
        <time>2013-09-19T18:59:04.410Z</time>
      </trkpt>
      <trkpt lat="48.86275" lon="2.27636">
        <ele>106.8</ele>
        <time>2013-09-19T18:59:05.207Z</time>
      </trkpt>
      <trkpt lat="48.86267" lon="2.27634">
        <ele>108.1</ele>
        <time>2013-09-19T18:59:07.391Z</time>
      </trkpt>
      <trkpt lat="48.86264" lon="2.27632">
        <ele>107.8</ele>
        <time>2013-09-19T18:59:08.288Z</time>
      </trkpt>
      <trkpt lat="48.86256" lon="2.27628">
        <ele>103.7</ele>
        <time>2013-09-19T18:59:10.221Z</time>
      </trkpt>
      <trkpt lat="48.86252" lon="2.27625">
        <ele>103.4</ele>
        <time>2013-09-19T18:59:11.392Z</time>
      </trkpt>
      <trkpt lat="48.86246" lon="2.27622">
        <ele>103.7</ele>
        <time>2013-09-19T18:59:13.350Z</time>
      </trkpt>
      <trkpt lat="48.86242" lon="2.2762">
        <ele>103.7</ele>
        <time>2013-09-19T18:59:14.295Z</time>
      </trkpt>
      <trkpt lat="48.86235" lon="2.27617">
        <ele>100.5</ele>
        <time>2013-09-19T18:59:17.107Z</time>
      </trkpt>
      <trkpt lat="48.86232" lon="2.27615">
        <ele>100.6</ele>
        <time>2013-09-19T18:59:17.259Z</time>
      </trkpt>
      <trkpt lat="48.86224" lon="2.2761">
        <ele>101</ele>
        <time>2013-09-19T18:59:19.202Z</time>
      </trkpt>
      <trkpt lat="48.86221" lon="2.27608">
        <ele>101.6</ele>
        <time>2013-09-19T18:59:20.207Z</time>
      </trkpt>
      <trkpt lat="48.86213" lon="2.27603">
        <ele>102.8</ele>
        <time>2013-09-19T18:59:22.244Z</time>
      </trkpt>
      <trkpt lat="48.8621" lon="2.276">
        <ele>103.1</ele>
        <time>2013-09-19T18:59:23.200Z</time>
      </trkpt>
      <trkpt lat="48.86203" lon="2.27597">
        <ele>103.7</ele>
        <time>2013-09-19T18:59:25.212Z</time>
      </trkpt>
      <trkpt lat="48.862" lon="2.27597">
        <ele>104.4</ele>
        <time>2013-09-19T18:59:26.206Z</time>
      </trkpt>
      <trkpt lat="48.86193" lon="2.27588">
        <ele>103.5</ele>
        <time>2013-09-19T18:59:36.991Z</time>
      </trkpt>
      <trkpt lat="48.86193" lon="2.27587">
        <ele>103</ele>
        <time>2013-09-19T18:59:37.364Z</time>
      </trkpt>
      <trkpt lat="48.86186" lon="2.27579">
        <ele>108.4</ele>
        <time>2013-09-19T18:59:44.336Z</time>
      </trkpt>
      <trkpt lat="48.86184" lon="2.27578">
        <ele>107.6</ele>
        <time>2013-09-19T18:59:45.263Z</time>
      </trkpt>
      <trkpt lat="48.86176" lon="2.27578">
        <ele>107.8</ele>
        <time>2013-09-19T18:59:48.279Z</time>
      </trkpt>
      <trkpt lat="48.86173" lon="2.27578">
        <ele>109.4</ele>
        <time>2013-09-19T18:59:49.407Z</time>
      </trkpt>
      <trkpt lat="48.86165" lon="2.27577">
        <ele>106.6</ele>
        <time>2013-09-19T18:59:52.279Z</time>
      </trkpt>
      <trkpt lat="48.86163" lon="2.27576">
        <ele>106.5</ele>
        <time>2013-09-19T18:59:53.374Z</time>
      </trkpt>
      <trkpt lat="48.8616" lon="2.27569">
        <ele>109.2</ele>
        <time>2013-09-19T19:00:01.241Z</time>
      </trkpt>
      <trkpt lat="48.8616" lon="2.27568">
        <ele>109.5</ele>
        <time>2013-09-19T19:00:02.342Z</time>
      </trkpt>
      <trkpt lat="48.86159" lon="2.27569">
        <ele>109.5</ele>
        <time>2013-09-19T19:00:07.384Z</time>
      </trkpt>
      <trkpt lat="48.86159" lon="2.27569">
        <ele>109.5</ele>
        <time>2013-09-19T19:00:08.225Z</time>
      </trkpt>
      <trkpt lat="48.8615" lon="2.27569">
        <ele>109.6</ele>
        <time>2013-09-19T19:00:15.211Z</time>
      </trkpt>
      <trkpt lat="48.8615" lon="2.27569">
        <ele>110.2</ele>
        <time>2013-09-19T19:00:16.371Z</time>
      </trkpt>
      <trkpt lat="48.86149" lon="2.27569">
        <ele>110.7</ele>
        <time>2013-09-19T19:00:19.328Z</time>
      </trkpt>
      <trkpt lat="48.8615" lon="2.27569">
        <ele>110.7</ele>
        <time>2013-09-19T19:00:20.298Z</time>
      </trkpt>
      <trkpt lat="48.86149" lon="2.27569">
        <ele>110.1</ele>
        <time>2013-09-19T19:00:25.364Z</time>
      </trkpt>
      <trkpt lat="48.86149" lon="2.2757">
        <ele>111</ele>
        <time>2013-09-19T19:00:26.314Z</time>
      </trkpt>
      <trkpt lat="48.86142" lon="2.27566">
        <ele>112.6</ele>
        <time>2013-09-19T19:00:31.212Z</time>
      </trkpt>
      <trkpt lat="48.8614" lon="2.27565">
        <ele>112.6</ele>
        <time>2013-09-19T19:00:32.396Z</time>
      </trkpt>
      <trkpt lat="48.86133" lon="2.27559">
        <ele>112</ele>
        <time>2013-09-19T19:00:35.383Z</time>
      </trkpt>
      <trkpt lat="48.8613" lon="2.27558">
        <ele>112.8</ele>
        <time>2013-09-19T19:00:36.316Z</time>
      </trkpt>
      <trkpt lat="48.86124" lon="2.27554">
        <ele>113</ele>
        <time>2013-09-19T19:00:38.257Z</time>
      </trkpt>
      <trkpt lat="48.8612" lon="2.27552">
        <ele>113.3</ele>
        <time>2013-09-19T19:00:39.381Z</time>
      </trkpt>
      <trkpt lat="48.86112" lon="2.27547">
        <ele>115.7</ele>
        <time>2013-09-19T19:00:41.920Z</time>
      </trkpt>
      <trkpt lat="48.86109" lon="2.27544">
        <ele>115</ele>
        <time>2013-09-19T19:00:42.353Z</time>
      </trkpt>
      <trkpt lat="48.86102" lon="2.2754">
        <ele>116.1</ele>
        <time>2013-09-19T19:00:44.399Z</time>
      </trkpt>
      <trkpt lat="48.86099" lon="2.27538">
        <ele>117.2</ele>
        <time>2013-09-19T19:00:45.253Z</time>
      </trkpt>
      <trkpt lat="48.8609" lon="2.27534">
        <ele>117.3</ele>
        <time>2013-09-19T19:00:47.218Z</time>
      </trkpt>
      <trkpt lat="48.86085" lon="2.27532">
        <ele>117.6</ele>
        <time>2013-09-19T19:00:48.431Z</time>
      </trkpt>
      <trkpt lat="48.86081" lon="2.2753">
        <ele>117.2</ele>
        <time>2013-09-19T19:00:49.218Z</time>
      </trkpt>
      <trkpt lat="48.86076" lon="2.27528">
        <ele>117</ele>
        <time>2013-09-19T19:00:50.342Z</time>
      </trkpt>
      <trkpt lat="48.86071" lon="2.27525">
        <ele>117</ele>
        <time>2013-09-19T19:00:51.974Z</time>
      </trkpt>
      <trkpt lat="48.86067" lon="2.27523">
        <ele>117.2</ele>
        <time>2013-09-19T19:00:52.295Z</time>
      </trkpt>
      <trkpt lat="48.86062" lon="2.27521">
        <ele>117.2</ele>
        <time>2013-09-19T19:00:53.344Z</time>
      </trkpt>
      <trkpt lat="48.86058" lon="2.27519">
        <ele>116.5</ele>
        <time>2013-09-19T19:00:54.222Z</time>
      </trkpt>
      <trkpt lat="48.86053" lon="2.27517">
        <ele>117</ele>
        <time>2013-09-19T19:00:55.343Z</time>
      </trkpt>
      <trkpt lat="48.86049" lon="2.27515">
        <ele>117</ele>
        <time>2013-09-19T19:00:56.230Z</time>
      </trkpt>
      <trkpt lat="48.86041" lon="2.27511">
        <ele>117.7</ele>
        <time>2013-09-19T19:00:58.254Z</time>
      </trkpt>
      <trkpt lat="48.86037" lon="2.2751">
        <ele>117.3</ele>
        <time>2013-09-19T19:00:59.360Z</time>
      </trkpt>
      <trkpt lat="48.86029" lon="2.2751">
        <ele>117.5</ele>
        <time>2013-09-19T19:01:02.035Z</time>
      </trkpt>
      <trkpt lat="48.86024" lon="2.27511">
        <ele>118.1</ele>
        <time>2013-09-19T19:01:02.390Z</time>
      </trkpt>
      <trkpt lat="48.86017" lon="2.27513">
        <ele>119.1</ele>
        <time>2013-09-19T19:01:04.430Z</time>
      </trkpt>
      <trkpt lat="48.86014" lon="2.27515">
        <ele>118.3</ele>
        <time>2013-09-19T19:01:05.216Z</time>
      </trkpt>
      <trkpt lat="48.86007" lon="2.27518">
        <ele>123.1</ele>
        <time>2013-09-19T19:01:07.414Z</time>
      </trkpt>
      <trkpt lat="48.86004" lon="2.2752">
        <ele>125.7</ele>
        <time>2013-09-19T19:01:08.287Z</time>
      </trkpt>
      <trkpt lat="48.85998" lon="2.27525">
        <ele>127</ele>
        <time>2013-09-19T19:01:10.242Z</time>
      </trkpt>
      <trkpt lat="48.85994" lon="2.27526">
        <ele>127.5</ele>
        <time>2013-09-19T19:01:11.374Z</time>
      </trkpt>
      <trkpt lat="48.85987" lon="2.27528">
        <ele>128</ele>
        <time>2013-09-19T19:01:13.209Z</time>
      </trkpt>
      <trkpt lat="48.85982" lon="2.27528">
        <ele>128.4</ele>
        <time>2013-09-19T19:01:14.261Z</time>
      </trkpt>
      <trkpt lat="48.85974" lon="2.2753">
        <ele>128.8</ele>
        <time>2013-09-19T19:01:16.227Z</time>
      </trkpt>
      <trkpt lat="48.8597" lon="2.2753">
        <ele>128.6</ele>
        <time>2013-09-19T19:01:17.267Z</time>
      </trkpt>
      <trkpt lat="48.85963" lon="2.2753">
        <ele>129.1</ele>
        <time>2013-09-19T19:01:19.214Z</time>
      </trkpt>
      <trkpt lat="48.8596" lon="2.27529">
        <ele>129.8</ele>
        <time>2013-09-19T19:01:20.207Z</time>
      </trkpt>
      <trkpt lat="48.85953" lon="2.27526">
        <ele>130.9</ele>
        <time>2013-09-19T19:01:22.290Z</time>
      </trkpt>
      <trkpt lat="48.8595" lon="2.27524">
        <ele>130.4</ele>
        <time>2013-09-19T19:01:23.220Z</time>
      </trkpt>
      <trkpt lat="48.85943" lon="2.27521">
        <ele>130</ele>
        <time>2013-09-19T19:01:25.210Z</time>
      </trkpt>
      <trkpt lat="48.85939" lon="2.27521">
        <ele>130.5</ele>
        <time>2013-09-19T19:01:26.216Z</time>
      </trkpt>
      <trkpt lat="48.85931" lon="2.27521">
        <ele>130.8</ele>
        <time>2013-09-19T19:01:28.219Z</time>
      </trkpt>
      <trkpt lat="48.85926" lon="2.27521">
        <ele>131.1</ele>
        <time>2013-09-19T19:01:29.211Z</time>
      </trkpt>
      <trkpt lat="48.85918" lon="2.27521">
        <ele>130.8</ele>
        <time>2013-09-19T19:01:31.218Z</time>
      </trkpt>
      <trkpt lat="48.85913" lon="2.2752">
        <ele>130.1</ele>
        <time>2013-09-19T19:01:32.261Z</time>
      </trkpt>
      <trkpt lat="48.85905" lon="2.27519">
        <ele>129.5</ele>
        <time>2013-09-19T19:01:34.217Z</time>
      </trkpt>
      <trkpt lat="48.85901" lon="2.27518">
        <ele>130.3</ele>
        <time>2013-09-19T19:01:35.210Z</time>
      </trkpt>
      <trkpt lat="48.85893" lon="2.27516">
        <ele>130.4</ele>
        <time>2013-09-19T19:01:37.210Z</time>
      </trkpt>
      <trkpt lat="48.85889" lon="2.27515">
        <ele>131.2</ele>
        <time>2013-09-19T19:01:38.210Z</time>
      </trkpt>
      <trkpt lat="48.85881" lon="2.27513">
        <ele>130.5</ele>
        <time>2013-09-19T19:01:40.212Z</time>
      </trkpt>
      <trkpt lat="48.85877" lon="2.27512">
        <ele>131.9</ele>
        <time>2013-09-19T19:01:41.211Z</time>
      </trkpt>
      <trkpt lat="48.85869" lon="2.27511">
        <ele>132.9</ele>
        <time>2013-09-19T19:01:43.224Z</time>
      </trkpt>
      <trkpt lat="48.85865" lon="2.2751">
        <ele>132.5</ele>
        <time>2013-09-19T19:01:44.210Z</time>
      </trkpt>
      <trkpt lat="48.85859" lon="2.27508">
        <ele>133.3</ele>
        <time>2013-09-19T19:01:46.237Z</time>
      </trkpt>
      <trkpt lat="48.85855" lon="2.27507">
        <ele>133.6</ele>
        <time>2013-09-19T19:01:47.250Z</time>
      </trkpt>
      <trkpt lat="48.85849" lon="2.27505">
        <ele>134.5</ele>
        <time>2013-09-19T19:01:49.226Z</time>
      </trkpt>
      <trkpt lat="48.85847" lon="2.27504">
        <ele>135.3</ele>
        <time>2013-09-19T19:01:50.215Z</time>
      </trkpt>
      <trkpt lat="48.85839" lon="2.27502">
        <ele>135.7</ele>
        <time>2013-09-19T19:01:54.210Z</time>
      </trkpt>
      <trkpt lat="48.85837" lon="2.27502">
        <ele>135</ele>
        <time>2013-09-19T19:01:55.227Z</time>
      </trkpt>
      <trkpt lat="48.85831" lon="2.27508">
        <ele>122.3</ele>
        <time>2013-09-19T19:01:59.210Z</time>
      </trkpt>
      <trkpt lat="48.85829" lon="2.27509">
        <ele>120.1</ele>
        <time>2013-09-19T19:02:00.236Z</time>
      </trkpt>
      <trkpt lat="48.85821" lon="2.27507">
        <ele>115.5</ele>
        <time>2013-09-19T19:02:06.235Z</time>
      </trkpt>
      <trkpt lat="48.8582" lon="2.27507">
        <ele>115.2</ele>
        <time>2013-09-19T19:02:07.302Z</time>
      </trkpt>
      <trkpt lat="48.85825" lon="2.27504">
        <ele>116.3</ele>
        <time>2013-09-19T19:02:18.253Z</time>
      </trkpt>
      <trkpt lat="48.85825" lon="2.27504">
        <ele>116.2</ele>
        <time>2013-09-19T19:02:19.314Z</time>
      </trkpt>
      <trkpt lat="48.85824" lon="2.27504">
        <ele>116.6</ele>
        <time>2013-09-19T19:02:22.366Z</time>
      </trkpt>
      <trkpt lat="48.85824" lon="2.27504">
        <ele>115.8</ele>
        <time>2013-09-19T19:02:23.219Z</time>
      </trkpt>
      <trkpt lat="48.85817" lon="2.27503">
        <ele>112.6</ele>
        <time>2013-09-19T19:02:26.373Z</time>
      </trkpt>
      <trkpt lat="48.85814" lon="2.27502">
        <ele>112.9</ele>
        <time>2013-09-19T19:02:27.342Z</time>
      </trkpt>
      <trkpt lat="48.85808" lon="2.27501">
        <ele>114.3</ele>
        <time>2013-09-19T19:02:29.276Z</time>
      </trkpt>
      <trkpt lat="48.85803" lon="2.275">
        <ele>114.3</ele>
        <time>2013-09-19T19:02:30.232Z</time>
      </trkpt>
      <trkpt lat="48.85799" lon="2.27499">
        <ele>114.1</ele>
        <time>2013-09-19T19:02:31.217Z</time>
      </trkpt>
      <trkpt lat="48.85794" lon="2.27498">
        <ele>114.4</ele>
        <time>2013-09-19T19:02:32.219Z</time>
      </trkpt>
      <trkpt lat="48.85786" lon="2.27496">
        <ele>115.1</ele>
        <time>2013-09-19T19:02:34.267Z</time>
      </trkpt>
      <trkpt lat="48.85782" lon="2.27495">
        <ele>115.5</ele>
        <time>2013-09-19T19:02:35.335Z</time>
      </trkpt>
      <trkpt lat="48.85775" lon="2.27493">
        <ele>114.5</ele>
        <time>2013-09-19T19:02:37.275Z</time>
      </trkpt>
      <trkpt lat="48.85772" lon="2.27492">
        <ele>114.7</ele>
        <time>2013-09-19T19:02:38.244Z</time>
      </trkpt>
      <trkpt lat="48.85765" lon="2.27489">
        <ele>113.4</ele>
        <time>2013-09-19T19:02:40.246Z</time>
      </trkpt>
      <trkpt lat="48.85761" lon="2.27489">
        <ele>114.3</ele>
        <time>2013-09-19T19:02:41.223Z</time>
      </trkpt>
      <trkpt lat="48.85754" lon="2.27487">
        <ele>117.4</ele>
        <time>2013-09-19T19:02:43.336Z</time>
      </trkpt>
      <trkpt lat="48.8575" lon="2.27487">
        <ele>118.1</ele>
        <time>2013-09-19T19:02:44.303Z</time>
      </trkpt>
      <trkpt lat="48.85742" lon="2.27486">
        <ele>120.2</ele>
        <time>2013-09-19T19:02:46.921Z</time>
      </trkpt>
      <trkpt lat="48.85737" lon="2.27486">
        <ele>121.7</ele>
        <time>2013-09-19T19:02:47.273Z</time>
      </trkpt>
      <trkpt lat="48.85732" lon="2.27486">
        <ele>121.3</ele>
        <time>2013-09-19T19:02:48.215Z</time>
      </trkpt>
      <trkpt lat="48.85725" lon="2.27486">
        <ele>121</ele>
        <time>2013-09-19T19:02:49.240Z</time>
      </trkpt>
      <trkpt lat="48.85719" lon="2.27485">
        <ele>122.8</ele>
        <time>2013-09-19T19:02:50.296Z</time>
      </trkpt>
      <trkpt lat="48.85713" lon="2.27485">
        <ele>124.7</ele>
        <time>2013-09-19T19:02:51.333Z</time>
      </trkpt>
      <trkpt lat="48.85705" lon="2.27487">
        <ele>126</ele>
        <time>2013-09-19T19:02:53.218Z</time>
      </trkpt>
      <trkpt lat="48.85702" lon="2.27487">
        <ele>126.1</ele>
        <time>2013-09-19T19:02:54.224Z</time>
      </trkpt>
      <trkpt lat="48.85697" lon="2.27487">
        <ele>124.8</ele>
        <time>2013-09-19T19:02:55.299Z</time>
      </trkpt>
      <trkpt lat="48.85692" lon="2.27487">
        <ele>127.8</ele>
        <time>2013-09-19T19:02:56.214Z</time>
      </trkpt>
      <trkpt lat="48.85683" lon="2.27487">
        <ele>122.7</ele>
        <time>2013-09-19T19:02:58.217Z</time>
      </trkpt>
      <trkpt lat="48.8568" lon="2.27487">
        <ele>123</ele>
        <time>2013-09-19T19:02:59.215Z</time>
      </trkpt>
      <trkpt lat="48.85672" lon="2.27483">
        <ele>123.6</ele>
        <time>2013-09-19T19:03:02.262Z</time>
      </trkpt>
      <trkpt lat="48.85671" lon="2.27478">
        <ele>122.6</ele>
        <time>2013-09-19T19:03:03.225Z</time>
      </trkpt>
      <trkpt lat="48.85663" lon="2.27473">
        <ele>121.7</ele>
        <time>2013-09-19T19:03:07.165Z</time>
      </trkpt>
      <trkpt lat="48.85659" lon="2.27473">
        <ele>122.2</ele>
        <time>2013-09-19T19:03:07.273Z</time>
      </trkpt>
      <trkpt lat="48.85652" lon="2.27473">
        <ele>123</ele>
        <time>2013-09-19T19:03:09.217Z</time>
      </trkpt>
      <trkpt lat="48.85648" lon="2.27473">
        <ele>120.7</ele>
        <time>2013-09-19T19:03:10.216Z</time>
      </trkpt>
      <trkpt lat="48.85645" lon="2.27474">
        <ele>121.3</ele>
        <time>2013-09-19T19:03:12.236Z</time>
      </trkpt>
      <trkpt lat="48.85639" lon="2.27476">
        <ele>123.1</ele>
        <time>2013-09-19T19:03:13.214Z</time>
      </trkpt>
      <trkpt lat="48.85632" lon="2.27478">
        <ele>122.1</ele>
        <time>2013-09-19T19:03:15.218Z</time>
      </trkpt>
      <trkpt lat="48.85629" lon="2.27479">
        <ele>121.7</ele>
        <time>2013-09-19T19:03:16.211Z</time>
      </trkpt>
      <trkpt lat="48.85622" lon="2.27483">
        <ele>122</ele>
        <time>2013-09-19T19:03:18.236Z</time>
      </trkpt>
      <trkpt lat="48.85619" lon="2.27486">
        <ele>122.8</ele>
        <time>2013-09-19T19:03:19.414Z</time>
      </trkpt>
      <trkpt lat="48.85613" lon="2.27491">
        <ele>122.3</ele>
        <time>2013-09-19T19:03:21.360Z</time>
      </trkpt>
      <trkpt lat="48.8561" lon="2.27495">
        <ele>121</ele>
        <time>2013-09-19T19:03:22.424Z</time>
      </trkpt>
      <trkpt lat="48.85607" lon="2.27503">
        <ele>119.7</ele>
        <time>2013-09-19T19:03:24.220Z</time>
      </trkpt>
      <trkpt lat="48.85605" lon="2.27507">
        <ele>119.1</ele>
        <time>2013-09-19T19:03:25.228Z</time>
      </trkpt>
      <trkpt lat="48.85598" lon="2.27513">
        <ele>116.4</ele>
        <time>2013-09-19T19:03:28.218Z</time>
      </trkpt>
      <trkpt lat="48.85595" lon="2.27515">
        <ele>115.7</ele>
        <time>2013-09-19T19:03:29.217Z</time>
      </trkpt>
      <trkpt lat="48.85588" lon="2.27517">
        <ele>113.9</ele>
        <time>2013-09-19T19:03:31.218Z</time>
      </trkpt>
      <trkpt lat="48.85583" lon="2.27518">
        <ele>114.8</ele>
        <time>2013-09-19T19:03:32.314Z</time>
      </trkpt>
      <trkpt lat="48.85579" lon="2.27518">
        <ele>115.1</ele>
        <time>2013-09-19T19:03:33.373Z</time>
      </trkpt>
      <trkpt lat="48.85574" lon="2.27519">
        <ele>115.7</ele>
        <time>2013-09-19T19:03:34.220Z</time>
      </trkpt>
      <trkpt lat="48.85569" lon="2.2752">
        <ele>116.2</ele>
        <time>2013-09-19T19:03:35.351Z</time>
      </trkpt>
      <trkpt lat="48.85564" lon="2.27523">
        <ele>110.8</ele>
        <time>2013-09-19T19:03:36.225Z</time>
      </trkpt>
      <trkpt lat="48.8556" lon="2.27527">
        <ele>108.7</ele>
        <time>2013-09-19T19:03:37.353Z</time>
      </trkpt>
      <trkpt lat="48.85557" lon="2.27532">
        <ele>107.6</ele>
        <time>2013-09-19T19:03:38.380Z</time>
      </trkpt>
      <trkpt lat="48.85554" lon="2.27537">
        <ele>106.2</ele>
        <time>2013-09-19T19:03:39.230Z</time>
      </trkpt>
      <trkpt lat="48.85548" lon="2.27545">
        <ele>105.9</ele>
        <time>2013-09-19T19:03:40.346Z</time>
      </trkpt>
      <trkpt lat="48.85542" lon="2.27552">
        <ele>105.6</ele>
        <time>2013-09-19T19:03:41.217Z</time>
      </trkpt>
      <trkpt lat="48.85534" lon="2.27559">
        <ele>104.4</ele>
        <time>2013-09-19T19:03:42.248Z</time>
      </trkpt>
      <trkpt lat="48.85525" lon="2.27561">
        <ele>103.5</ele>
        <time>2013-09-19T19:03:43.227Z</time>
      </trkpt>
      <trkpt lat="48.85516" lon="2.27562">
        <ele>103.9</ele>
        <time>2013-09-19T19:03:44.235Z</time>
      </trkpt>
      <trkpt lat="48.85506" lon="2.27559">
        <ele>105.7</ele>
        <time>2013-09-19T19:03:45.222Z</time>
      </trkpt>
      <trkpt lat="48.85496" lon="2.27557">
        <ele>105.3</ele>
        <time>2013-09-19T19:03:46.228Z</time>
      </trkpt>
      <trkpt lat="48.85487" lon="2.27554">
        <ele>105.6</ele>
        <time>2013-09-19T19:03:47.240Z</time>
      </trkpt>
      <trkpt lat="48.85479" lon="2.27553">
        <ele>106.1</ele>
        <time>2013-09-19T19:03:48.227Z</time>
      </trkpt>
      <trkpt lat="48.85471" lon="2.27552">
        <ele>107.7</ele>
        <time>2013-09-19T19:03:49.221Z</time>
      </trkpt>
      <trkpt lat="48.85464" lon="2.27552">
        <ele>107.5</ele>
        <time>2013-09-19T19:03:50.252Z</time>
      </trkpt>
      <trkpt lat="48.85458" lon="2.27553">
        <ele>106.7</ele>
        <time>2013-09-19T19:03:51.236Z</time>
      </trkpt>
      <trkpt lat="48.85451" lon="2.27552">
        <ele>106.8</ele>
        <time>2013-09-19T19:03:52.316Z</time>
      </trkpt>
      <trkpt lat="48.85445" lon="2.27551">
        <ele>106.7</ele>
        <time>2013-09-19T19:03:53.365Z</time>
      </trkpt>
      <trkpt lat="48.8544" lon="2.2755">
        <ele>107.7</ele>
        <time>2013-09-19T19:03:54.374Z</time>
      </trkpt>
      <trkpt lat="48.85436" lon="2.2755">
        <ele>107.6</ele>
        <time>2013-09-19T19:03:55.311Z</time>
      </trkpt>
      <trkpt lat="48.85429" lon="2.2755">
        <ele>106.5</ele>
        <time>2013-09-19T19:03:57.276Z</time>
      </trkpt>
      <trkpt lat="48.85426" lon="2.2755">
        <ele>105.7</ele>
        <time>2013-09-19T19:03:58.229Z</time>
      </trkpt>
      <trkpt lat="48.8542" lon="2.27548">
        <ele>108.5</ele>
        <time>2013-09-19T19:04:02.260Z</time>
      </trkpt>
      <trkpt lat="48.85417" lon="2.27548">
        <ele>109</ele>
        <time>2013-09-19T19:04:03.230Z</time>
      </trkpt>
      <trkpt lat="48.85409" lon="2.2755">
        <ele>109.9</ele>
        <time>2013-09-19T19:04:05.227Z</time>
      </trkpt>
      <trkpt lat="48.85404" lon="2.27551">
        <ele>110.8</ele>
        <time>2013-09-19T19:04:06.277Z</time>
      </trkpt>
      <trkpt lat="48.85398" lon="2.27552">
        <ele>111.3</ele>
        <time>2013-09-19T19:04:07.235Z</time>
      </trkpt>
      <trkpt lat="48.85392" lon="2.27554">
        <ele>111.2</ele>
        <time>2013-09-19T19:04:08.223Z</time>
      </trkpt>
      <trkpt lat="48.85386" lon="2.27557">
        <ele>111.5</ele>
        <time>2013-09-19T19:04:09.263Z</time>
      </trkpt>
      <trkpt lat="48.85381" lon="2.27559">
        <ele>111.4</ele>
        <time>2013-09-19T19:04:10.221Z</time>
      </trkpt>
      <trkpt lat="48.85376" lon="2.27561">
        <ele>111.2</ele>
        <time>2013-09-19T19:04:11.238Z</time>
      </trkpt>
      <trkpt lat="48.85371" lon="2.27564">
        <ele>111.4</ele>
        <time>2013-09-19T19:04:12.270Z</time>
      </trkpt>
      <trkpt lat="48.85366" lon="2.27567">
        <ele>111.5</ele>
        <time>2013-09-19T19:04:13.249Z</time>
      </trkpt>
      <trkpt lat="48.8536" lon="2.2757">
        <ele>111.9</ele>
        <time>2013-09-19T19:04:14.382Z</time>
      </trkpt>
      <trkpt lat="48.85355" lon="2.27571">
        <ele>112.9</ele>
        <time>2013-09-19T19:04:15.231Z</time>
      </trkpt>
      <trkpt lat="48.85348" lon="2.27574">
        <ele>112.9</ele>
        <time>2013-09-19T19:04:16.382Z</time>
      </trkpt>
      <trkpt lat="48.85341" lon="2.27575">
        <ele>113.2</ele>
        <time>2013-09-19T19:04:17.319Z</time>
      </trkpt>
      <trkpt lat="48.85333" lon="2.27577">
        <ele>113.4</ele>
        <time>2013-09-19T19:04:18.327Z</time>
      </trkpt>
      <trkpt lat="48.85324" lon="2.27579">
        <ele>114</ele>
        <time>2013-09-19T19:04:19.390Z</time>
      </trkpt>
      <trkpt lat="48.85316" lon="2.27579">
        <ele>113.5</ele>
        <time>2013-09-19T19:04:20.281Z</time>
      </trkpt>
      <trkpt lat="48.85307" lon="2.27578">
        <ele>114.1</ele>
        <time>2013-09-19T19:04:21.384Z</time>
      </trkpt>
      <trkpt lat="48.853" lon="2.27577">
        <ele>114</ele>
        <time>2013-09-19T19:04:22.235Z</time>
      </trkpt>
      <trkpt lat="48.85293" lon="2.27577">
        <ele>114.5</ele>
        <time>2013-09-19T19:04:23.417Z</time>
      </trkpt>
      <trkpt lat="48.85294" lon="2.27576">
        <ele>115.8</ele>
        <time>2013-09-19T19:04:44.244Z</time>
      </trkpt>
      <trkpt lat="48.85294" lon="2.27576">
        <ele>115.4</ele>
        <time>2013-09-19T19:04:45.454Z</time>
      </trkpt>
      <trkpt lat="48.85294" lon="2.27576">
        <ele>114.6</ele>
        <time>2013-09-19T19:04:46.985Z</time>
      </trkpt>
      <trkpt lat="48.85293" lon="2.27577">
        <ele>115.5</ele>
        <time>2013-09-19T19:04:47.345Z</time>
      </trkpt>
      <trkpt lat="48.85285" lon="2.27581">
        <ele>115.6</ele>
        <time>2013-09-19T19:04:52.010Z</time>
      </trkpt>
      <trkpt lat="48.85282" lon="2.27582">
        <ele>113</ele>
        <time>2013-09-19T19:04:52.464Z</time>
      </trkpt>
      <trkpt lat="48.85274" lon="2.27583">
        <ele>112.6</ele>
        <time>2013-09-19T19:04:55.416Z</time>
      </trkpt>
      <trkpt lat="48.85272" lon="2.27582">
        <ele>112.9</ele>
        <time>2013-09-19T19:04:56.310Z</time>
      </trkpt>
      <trkpt lat="48.85268" lon="2.27572">
        <ele>114.8</ele>
        <time>2013-09-19T19:04:59.407Z</time>
      </trkpt>
      <trkpt lat="48.85266" lon="2.27569">
        <ele>114</ele>
        <time>2013-09-19T19:05:00.293Z</time>
      </trkpt>
      <trkpt lat="48.85262" lon="2.27562">
        <ele>112.8</ele>
        <time>2013-09-19T19:05:02.370Z</time>
      </trkpt>
      <trkpt lat="48.8526" lon="2.27557">
        <ele>112.4</ele>
        <time>2013-09-19T19:05:03.338Z</time>
      </trkpt>
      <trkpt lat="48.85257" lon="2.27551">
        <ele>110.9</ele>
        <time>2013-09-19T19:05:04.403Z</time>
      </trkpt>
      <trkpt lat="48.85255" lon="2.27545">
        <ele>109.6</ele>
        <time>2013-09-19T19:05:05.256Z</time>
      </trkpt>
      <trkpt lat="48.8525" lon="2.27534">
        <ele>108.1</ele>
        <time>2013-09-19T19:05:07.246Z</time>
      </trkpt>
      <trkpt lat="48.85248" lon="2.27528">
        <ele>108</ele>
        <time>2013-09-19T19:05:08.396Z</time>
      </trkpt>
      <trkpt lat="48.85244" lon="2.2752">
        <ele>107.8</ele>
        <time>2013-09-19T19:05:10.227Z</time>
      </trkpt>
      <trkpt lat="48.85241" lon="2.27515">
        <ele>108.7</ele>
        <time>2013-09-19T19:05:11.226Z</time>
      </trkpt>
      <trkpt lat="48.85236" lon="2.27507">
        <ele>108.4</ele>
        <time>2013-09-19T19:05:13.235Z</time>
      </trkpt>
      <trkpt lat="48.85233" lon="2.27502">
        <ele>107.7</ele>
        <time>2013-09-19T19:05:14.234Z</time>
      </trkpt>
      <trkpt lat="48.85228" lon="2.27495">
        <ele>107.5</ele>
        <time>2013-09-19T19:05:15.227Z</time>
      </trkpt>
      <trkpt lat="48.85223" lon="2.27488">
        <ele>106.1</ele>
        <time>2013-09-19T19:05:16.235Z</time>
      </trkpt>
      <trkpt lat="48.85219" lon="2.27482">
        <ele>105.3</ele>
        <time>2013-09-19T19:05:17.273Z</time>
      </trkpt>
      <trkpt lat="48.85214" lon="2.27477">
        <ele>103.5</ele>
        <time>2013-09-19T19:05:18.234Z</time>
      </trkpt>
      <trkpt lat="48.85211" lon="2.27471">
        <ele>103.7</ele>
        <time>2013-09-19T19:05:19.235Z</time>
      </trkpt>
      <trkpt lat="48.85208" lon="2.27465">
        <ele>103.6</ele>
        <time>2013-09-19T19:05:20.253Z</time>
      </trkpt>
      <trkpt lat="48.85202" lon="2.27455">
        <ele>104.5</ele>
        <time>2013-09-19T19:05:22.320Z</time>
      </trkpt>
      <trkpt lat="48.852" lon="2.27449">
        <ele>104</ele>
        <time>2013-09-19T19:05:23.247Z</time>
      </trkpt>
      <trkpt lat="48.85194" lon="2.27439">
        <ele>104.8</ele>
        <time>2013-09-19T19:05:25.228Z</time>
      </trkpt>
      <trkpt lat="48.85191" lon="2.27434">
        <ele>105.4</ele>
        <time>2013-09-19T19:05:26.237Z</time>
      </trkpt>
      <trkpt lat="48.8519" lon="2.27427">
        <ele>101.8</ele>
        <time>2013-09-19T19:05:27.276Z</time>
      </trkpt>
      <trkpt lat="48.85189" lon="2.27421">
        <ele>100.8</ele>
        <time>2013-09-19T19:05:28.241Z</time>
      </trkpt>
      <trkpt lat="48.85186" lon="2.27411">
        <ele>101.1</ele>
        <time>2013-09-19T19:05:30.236Z</time>
      </trkpt>
      <trkpt lat="48.85185" lon="2.27406">
        <ele>100.9</ele>
        <time>2013-09-19T19:05:31.228Z</time>
      </trkpt>
      <trkpt lat="48.85185" lon="2.27395">
        <ele>100.8</ele>
        <time>2013-09-19T19:05:33.236Z</time>
      </trkpt>
      <trkpt lat="48.85185" lon="2.2739">
        <ele>100.9</ele>
        <time>2013-09-19T19:05:34.227Z</time>
      </trkpt>
      <trkpt lat="48.8519" lon="2.2738">
        <ele>102.5</ele>
        <time>2013-09-19T19:05:36.896Z</time>
      </trkpt>
      <trkpt lat="48.85193" lon="2.27375">
        <ele>100.6</ele>
        <time>2013-09-19T19:05:37.249Z</time>
      </trkpt>
      <trkpt lat="48.85197" lon="2.27371">
        <ele>99.3</ele>
        <time>2013-09-19T19:05:38.226Z</time>
      </trkpt>
      <trkpt lat="48.852" lon="2.27365">
        <ele>98.5</ele>
        <time>2013-09-19T19:05:39.239Z</time>
      </trkpt>
      <trkpt lat="48.85203" lon="2.2736">
        <ele>97.8</ele>
        <time>2013-09-19T19:05:40.230Z</time>
      </trkpt>
      <trkpt lat="48.85206" lon="2.27355">
        <ele>98.3</ele>
        <time>2013-09-19T19:05:41.229Z</time>
      </trkpt>
      <trkpt lat="48.85212" lon="2.27344">
        <ele>96.7</ele>
        <time>2013-09-19T19:05:43.235Z</time>
      </trkpt>
      <trkpt lat="48.85214" lon="2.27338">
        <ele>96.4</ele>
        <time>2013-09-19T19:05:44.236Z</time>
      </trkpt>
      <trkpt lat="48.85219" lon="2.27327">
        <ele>96.1</ele>
        <time>2013-09-19T19:05:46.935Z</time>
      </trkpt>
      <trkpt lat="48.85222" lon="2.27322">
        <ele>97.1</ele>
        <time>2013-09-19T19:05:47.252Z</time>
      </trkpt>
      <trkpt lat="48.85227" lon="2.27313">
        <ele>96.6</ele>
        <time>2013-09-19T19:05:49.410Z</time>
      </trkpt>
      <trkpt lat="48.85229" lon="2.27309">
        <ele>96.9</ele>
        <time>2013-09-19T19:05:50.235Z</time>
      </trkpt>
      <trkpt lat="48.85234" lon="2.27299">
        <ele>96.4</ele>
        <time>2013-09-19T19:05:52.248Z</time>
      </trkpt>
      <trkpt lat="48.85236" lon="2.27295">
        <ele>96.8</ele>
        <time>2013-09-19T19:05:53.364Z</time>
      </trkpt>
      <trkpt lat="48.85241" lon="2.27287">
        <ele>96.8</ele>
        <time>2013-09-19T19:05:55.250Z</time>
      </trkpt>
      <trkpt lat="48.85244" lon="2.27282">
        <ele>95.3</ele>
        <time>2013-09-19T19:05:56.243Z</time>
      </trkpt>
      <trkpt lat="48.85249" lon="2.27274">
        <ele>94.9</ele>
        <time>2013-09-19T19:05:58.240Z</time>
      </trkpt>
      <trkpt lat="48.85252" lon="2.2727">
        <ele>95.2</ele>
        <time>2013-09-19T19:05:59.236Z</time>
      </trkpt>
      <trkpt lat="48.85258" lon="2.27262">
        <ele>93.9</ele>
        <time>2013-09-19T19:06:02.010Z</time>
      </trkpt>
      <trkpt lat="48.85261" lon="2.27258">
        <ele>94</ele>
        <time>2013-09-19T19:06:02.475Z</time>
      </trkpt>
      <trkpt lat="48.85265" lon="2.27249">
        <ele>93.5</ele>
        <time>2013-09-19T19:06:04.446Z</time>
      </trkpt>
      <trkpt lat="48.85267" lon="2.27245">
        <ele>93.1</ele>
        <time>2013-09-19T19:06:05.262Z</time>
      </trkpt>
      <trkpt lat="48.85271" lon="2.27237">
        <ele>93.1</ele>
        <time>2013-09-19T19:06:07.354Z</time>
      </trkpt>
      <trkpt lat="48.85274" lon="2.27232">
        <ele>93.1</ele>
        <time>2013-09-19T19:06:08.395Z</time>
      </trkpt>
      <trkpt lat="48.85278" lon="2.27224">
        <ele>90.3</ele>
        <time>2013-09-19T19:06:10.393Z</time>
      </trkpt>
      <trkpt lat="48.8528" lon="2.2722">
        <ele>89.9</ele>
        <time>2013-09-19T19:06:11.246Z</time>
      </trkpt>
      <trkpt lat="48.85285" lon="2.27212">
        <ele>89.5</ele>
        <time>2013-09-19T19:06:13.240Z</time>
      </trkpt>
      <trkpt lat="48.85287" lon="2.27208">
        <ele>88.5</ele>
        <time>2013-09-19T19:06:14.260Z</time>
      </trkpt>
      <trkpt lat="48.85293" lon="2.272">
        <ele>87</ele>
        <time>2013-09-19T19:06:17.104Z</time>
      </trkpt>
      <trkpt lat="48.85295" lon="2.27197">
        <ele>87.5</ele>
        <time>2013-09-19T19:06:17.243Z</time>
      </trkpt>
      <trkpt lat="48.85303" lon="2.27192">
        <ele>87.9</ele>
        <time>2013-09-19T19:06:22.287Z</time>
      </trkpt>
      <trkpt lat="48.85305" lon="2.27193">
        <ele>89.2</ele>
        <time>2013-09-19T19:06:23.240Z</time>
      </trkpt>
      <trkpt lat="48.85313" lon="2.27197">
        <ele>93.4</ele>
        <time>2013-09-19T19:06:26.241Z</time>
      </trkpt>
      <trkpt lat="48.85316" lon="2.27198">
        <ele>94.5</ele>
        <time>2013-09-19T19:06:27.227Z</time>
      </trkpt>
      <trkpt lat="48.85323" lon="2.272">
        <ele>97.9</ele>
        <time>2013-09-19T19:06:30.243Z</time>
      </trkpt>
      <trkpt lat="48.85326" lon="2.27199">
        <ele>98.7</ele>
        <time>2013-09-19T19:06:31.254Z</time>
      </trkpt>
      <trkpt lat="48.85334" lon="2.27197">
        <ele>103.5</ele>
        <time>2013-09-19T19:06:35.239Z</time>
      </trkpt>
      <trkpt lat="48.85335" lon="2.27197">
        <ele>104.6</ele>
        <time>2013-09-19T19:06:36.246Z</time>
      </trkpt>
      <trkpt lat="48.85342" lon="2.272">
        <ele>105.6</ele>
        <time>2013-09-19T19:06:39.242Z</time>
      </trkpt>
      <trkpt lat="48.85345" lon="2.27202">
        <ele>105.1</ele>
        <time>2013-09-19T19:06:40.252Z</time>
      </trkpt>
      <trkpt lat="48.8535" lon="2.27207">
        <ele>97.6</ele>
        <time>2013-09-19T19:06:42.820Z</time>
      </trkpt>
      <trkpt lat="48.85354" lon="2.27209">
        <ele>96.5</ele>
        <time>2013-09-19T19:06:43.240Z</time>
      </trkpt>
      <trkpt lat="48.8536" lon="2.27213">
        <ele>96.4</ele>
        <time>2013-09-19T19:06:45.232Z</time>
      </trkpt>
      <trkpt lat="48.85362" lon="2.27215">
        <ele>98</ele>
        <time>2013-09-19T19:06:46.241Z</time>
      </trkpt>
      <trkpt lat="48.85368" lon="2.27222">
        <ele>102.8</ele>
        <time>2013-09-19T19:06:50.458Z</time>
      </trkpt>
      <trkpt lat="48.85368" lon="2.27225">
        <ele>105.6</ele>
        <time>2013-09-19T19:06:51.250Z</time>
      </trkpt>
      <trkpt lat="48.8537" lon="2.27236">
        <ele>107.9</ele>
        <time>2013-09-19T19:06:53.260Z</time>
      </trkpt>
      <trkpt lat="48.8537" lon="2.27243">
        <ele>109.1</ele>
        <time>2013-09-19T19:06:54.387Z</time>
      </trkpt>
      <trkpt lat="48.8537" lon="2.27256">
        <ele>109.7</ele>
        <time>2013-09-19T19:06:57.012Z</time>
      </trkpt>
      <trkpt lat="48.8537" lon="2.27264">
        <ele>111</ele>
        <time>2013-09-19T19:06:57.424Z</time>
      </trkpt>
      <trkpt lat="48.8537" lon="2.2727">
        <ele>111.7</ele>
        <time>2013-09-19T19:06:58.267Z</time>
      </trkpt>
      <trkpt lat="48.8537" lon="2.27278">
        <ele>111.9</ele>
        <time>2013-09-19T19:06:59.385Z</time>
      </trkpt>
      <trkpt lat="48.85369" lon="2.27287">
        <ele>112.1</ele>
        <time>2013-09-19T19:07:00.299Z</time>
      </trkpt>
      <trkpt lat="48.85369" lon="2.27297">
        <ele>112.5</ele>
        <time>2013-09-19T19:07:01.410Z</time>
      </trkpt>
      <trkpt lat="48.85369" lon="2.27306">
        <ele>111.8</ele>
        <time>2013-09-19T19:07:02.409Z</time>
      </trkpt>
      <trkpt lat="48.85368" lon="2.27315">
        <ele>111.9</ele>
        <time>2013-09-19T19:07:03.370Z</time>
      </trkpt>
      <trkpt lat="48.85368" lon="2.27324">
        <ele>111.7</ele>
        <time>2013-09-19T19:07:04.364Z</time>
      </trkpt>
      <trkpt lat="48.85367" lon="2.27332">
        <ele>112</ele>
        <time>2013-09-19T19:07:05.324Z</time>
      </trkpt>
      <trkpt lat="48.85365" lon="2.27341">
        <ele>112.3</ele>
        <time>2013-09-19T19:07:07.052Z</time>
      </trkpt>
      <trkpt lat="48.85364" lon="2.27349">
        <ele>112</ele>
        <time>2013-09-19T19:07:07.284Z</time>
      </trkpt>
      <trkpt lat="48.85363" lon="2.27358">
        <ele>111.5</ele>
        <time>2013-09-19T19:07:08.410Z</time>
      </trkpt>
      <trkpt lat="48.85361" lon="2.27365">
        <ele>111</ele>
        <time>2013-09-19T19:07:09.250Z</time>
      </trkpt>
      <trkpt lat="48.85357" lon="2.27372">
        <ele>110.4</ele>
        <time>2013-09-19T19:07:10.422Z</time>
      </trkpt>
      <trkpt lat="48.85353" lon="2.27378">
        <ele>109</ele>
        <time>2013-09-19T19:07:11.434Z</time>
      </trkpt>
      <trkpt lat="48.8535" lon="2.27385">
        <ele>109.9</ele>
        <time>2013-09-19T19:07:12.372Z</time>
      </trkpt>
      <trkpt lat="48.85348" lon="2.27391">
        <ele>109.4</ele>
        <time>2013-09-19T19:07:13.387Z</time>
      </trkpt>
      <trkpt lat="48.85342" lon="2.27401">
        <ele>108.5</ele>
        <time>2013-09-19T19:07:15.422Z</time>
      </trkpt>
      <trkpt lat="48.85339" lon="2.27406">
        <ele>108.6</ele>
        <time>2013-09-19T19:07:16.244Z</time>
      </trkpt>
      <trkpt lat="48.85336" lon="2.27412">
        <ele>108.8</ele>
        <time>2013-09-19T19:07:17.452Z</time>
      </trkpt>
      <trkpt lat="48.85334" lon="2.27418">
        <ele>109</ele>
        <time>2013-09-19T19:07:18.322Z</time>
      </trkpt>
      <trkpt lat="48.85329" lon="2.2743">
        <ele>108.5</ele>
        <time>2013-09-19T19:07:20.267Z</time>
      </trkpt>
      <trkpt lat="48.8533" lon="2.2744">
        <ele>106.4</ele>
        <time>2013-09-19T19:07:21.293Z</time>
      </trkpt>
      <trkpt lat="48.85331" lon="2.27451">
        <ele>107.1</ele>
        <time>2013-09-19T19:07:22.420Z</time>
      </trkpt>
      <trkpt lat="48.85329" lon="2.2746">
        <ele>107.2</ele>
        <time>2013-09-19T19:07:23.240Z</time>
      </trkpt>
      <trkpt lat="48.85328" lon="2.2747">
        <ele>107.2</ele>
        <time>2013-09-19T19:07:24.262Z</time>
      </trkpt>
      <trkpt lat="48.85328" lon="2.27483">
        <ele>107</ele>
        <time>2013-09-19T19:07:25.237Z</time>
      </trkpt>
      <trkpt lat="48.85328" lon="2.27492">
        <ele>106.3</ele>
        <time>2013-09-19T19:07:26.243Z</time>
      </trkpt>
      <trkpt lat="48.85328" lon="2.27501">
        <ele>106.2</ele>
        <time>2013-09-19T19:07:27.300Z</time>
      </trkpt>
      <trkpt lat="48.85329" lon="2.27508">
        <ele>106.2</ele>
        <time>2013-09-19T19:07:28.232Z</time>
      </trkpt>
      <trkpt lat="48.85327" lon="2.27514">
        <ele>105.8</ele>
        <time>2013-09-19T19:07:29.245Z</time>
      </trkpt>
      <trkpt lat="48.85324" lon="2.27519">
        <ele>105.9</ele>
        <time>2013-09-19T19:07:30.237Z</time>
      </trkpt>
      <trkpt lat="48.8532" lon="2.27524">
        <ele>104.1</ele>
        <time>2013-09-19T19:07:31.243Z</time>
      </trkpt>
      <trkpt lat="48.85313" lon="2.27531">
        <ele>104.6</ele>
        <time>2013-09-19T19:07:39.237Z</time>
      </trkpt>
      <trkpt lat="48.85313" lon="2.27534">
        <ele>105.5</ele>
        <time>2013-09-19T19:07:40.413Z</time>
      </trkpt>
      <trkpt lat="48.85311" lon="2.27543">
        <ele>103.9</ele>
        <time>2013-09-19T19:07:43.357Z</time>
      </trkpt>
      <trkpt lat="48.85311" lon="2.27547">
        <ele>102.2</ele>
        <time>2013-09-19T19:07:44.320Z</time>
      </trkpt>
      <trkpt lat="48.8531" lon="2.27558">
        <ele>97.3</ele>
        <time>2013-09-19T19:07:47.343Z</time>
      </trkpt>
      <trkpt lat="48.85311" lon="2.27561">
        <ele>97.5</ele>
        <time>2013-09-19T19:07:48.257Z</time>
      </trkpt>
      <trkpt lat="48.85306" lon="2.2757">
        <ele>89.3</ele>
        <time>2013-09-19T19:08:07.383Z</time>
      </trkpt>
      <trkpt lat="48.85306" lon="2.2757">
        <ele>89.3</ele>
        <time>2013-09-19T19:08:08.427Z</time>
      </trkpt>
      <trkpt lat="48.85305" lon="2.2757">
        <ele>89.9</ele>
        <time>2013-09-19T19:08:24.321Z</time>
      </trkpt>
      <trkpt lat="48.85305" lon="2.27571">
        <ele>89.5</ele>
        <time>2013-09-19T19:08:25.392Z</time>
      </trkpt>
      <trkpt lat="48.85299" lon="2.27581">
        <ele>89</ele>
        <time>2013-09-19T19:08:30.400Z</time>
      </trkpt>
      <trkpt lat="48.85299" lon="2.27584">
        <ele>90.3</ele>
        <time>2013-09-19T19:08:31.347Z</time>
      </trkpt>
      <trkpt lat="48.85298" lon="2.27597">
        <ele>89.2</ele>
        <time>2013-09-19T19:08:36.889Z</time>
      </trkpt>
      <trkpt lat="48.85297" lon="2.27598">
        <ele>89.4</ele>
        <time>2013-09-19T19:08:37.334Z</time>
      </trkpt>
      <trkpt lat="48.853" lon="2.2761">
        <ele>84</ele>
        <time>2013-09-19T19:08:44.259Z</time>
      </trkpt>
      <trkpt lat="48.85302" lon="2.27613">
        <ele>84.5</ele>
        <time>2013-09-19T19:08:45.425Z</time>
      </trkpt>
      <trkpt lat="48.85306" lon="2.27622">
        <ele>84.3</ele>
        <time>2013-09-19T19:08:47.355Z</time>
      </trkpt>
      <trkpt lat="48.85309" lon="2.27626">
        <ele>86</ele>
        <time>2013-09-19T19:08:48.467Z</time>
      </trkpt>
      <trkpt lat="48.85313" lon="2.27633">
        <ele>86.1</ele>
        <time>2013-09-19T19:08:50.452Z</time>
      </trkpt>
      <trkpt lat="48.85315" lon="2.27636">
        <ele>86.6</ele>
        <time>2013-09-19T19:08:51.259Z</time>
      </trkpt>
      <trkpt lat="48.8532" lon="2.27642">
        <ele>86.6</ele>
        <time>2013-09-19T19:08:53.331Z</time>
      </trkpt>
      <trkpt lat="48.85323" lon="2.27646">
        <ele>86.4</ele>
        <time>2013-09-19T19:08:54.393Z</time>
      </trkpt>
      <trkpt lat="48.85329" lon="2.27653">
        <ele>87.6</ele>
        <time>2013-09-19T19:08:57.036Z</time>
      </trkpt>
      <trkpt lat="48.85332" lon="2.27657">
        <ele>87.4</ele>
        <time>2013-09-19T19:08:57.452Z</time>
      </trkpt>
      <trkpt lat="48.85337" lon="2.27666">
        <ele>87.9</ele>
        <time>2013-09-19T19:08:59.507Z</time>
      </trkpt>
      <trkpt lat="48.85339" lon="2.2767">
        <ele>87.6</ele>
        <time>2013-09-19T19:09:00.299Z</time>
      </trkpt>
      <trkpt lat="48.85344" lon="2.27678">
        <ele>88.9</ele>
        <time>2013-09-19T19:09:02.434Z</time>
      </trkpt>
      <trkpt lat="48.85345" lon="2.27682">
        <ele>87.6</ele>
        <time>2013-09-19T19:09:03.363Z</time>
      </trkpt>
      <trkpt lat="48.85349" lon="2.2769">
        <ele>87.8</ele>
        <time>2013-09-19T19:09:05.307Z</time>
      </trkpt>
      <trkpt lat="48.85351" lon="2.27693">
        <ele>87.6</ele>
        <time>2013-09-19T19:09:06.452Z</time>
      </trkpt>
      <trkpt lat="48.85357" lon="2.277">
        <ele>94.2</ele>
        <time>2013-09-19T19:09:09.296Z</time>
      </trkpt>
      <trkpt lat="48.85358" lon="2.27702">
        <ele>95.3</ele>
        <time>2013-09-19T19:09:10.253Z</time>
      </trkpt>
      <trkpt lat="48.85363" lon="2.27711">
        <ele>96.2</ele>
        <time>2013-09-19T19:09:14.297Z</time>
      </trkpt>
      <trkpt lat="48.85364" lon="2.27713">
        <ele>95.6</ele>
        <time>2013-09-19T19:09:15.243Z</time>
      </trkpt>
      <trkpt lat="48.85369" lon="2.27721">
        <ele>98.9</ele>
        <time>2013-09-19T19:09:18.256Z</time>
      </trkpt>
      <trkpt lat="48.85371" lon="2.27724">
        <ele>99.8</ele>
        <time>2013-09-19T19:09:19.252Z</time>
      </trkpt>
      <trkpt lat="48.85376" lon="2.27733">
        <ele>100.7</ele>
        <time>2013-09-19T19:09:22.329Z</time>
      </trkpt>
      <trkpt lat="48.85377" lon="2.27736">
        <ele>102.9</ele>
        <time>2013-09-19T19:09:23.278Z</time>
      </trkpt>
      <trkpt lat="48.85381" lon="2.27745">
        <ele>108.7</ele>
        <time>2013-09-19T19:09:27.143Z</time>
      </trkpt>
      <trkpt lat="48.85383" lon="2.27748">
        <ele>109.4</ele>
        <time>2013-09-19T19:09:27.404Z</time>
      </trkpt>
      <trkpt lat="48.85389" lon="2.27756">
        <ele>105.4</ele>
        <time>2013-09-19T19:09:30.271Z</time>
      </trkpt>
      <trkpt lat="48.85391" lon="2.27759">
        <ele>103.2</ele>
        <time>2013-09-19T19:09:31.308Z</time>
      </trkpt>
      <trkpt lat="48.85397" lon="2.27769">
        <ele>100.8</ele>
        <time>2013-09-19T19:09:34.390Z</time>
      </trkpt>
      <trkpt lat="48.85398" lon="2.27772">
        <ele>100.2</ele>
        <time>2013-09-19T19:09:35.360Z</time>
      </trkpt>
      <trkpt lat="48.85401" lon="2.27784">
        <ele>100.7</ele>
        <time>2013-09-19T19:09:38.262Z</time>
      </trkpt>
      <trkpt lat="48.85401" lon="2.27788">
        <ele>100.3</ele>
        <time>2013-09-19T19:09:39.254Z</time>
      </trkpt>
      <trkpt lat="48.85404" lon="2.278">
        <ele>100.7</ele>
        <time>2013-09-19T19:09:43.332Z</time>
      </trkpt>
      <trkpt lat="48.85405" lon="2.27802">
        <ele>98.9</ele>
        <time>2013-09-19T19:09:44.296Z</time>
      </trkpt>
      <trkpt lat="48.85411" lon="2.2781">
        <ele>94.6</ele>
        <time>2013-09-19T19:09:48.259Z</time>
      </trkpt>
      <trkpt lat="48.85412" lon="2.27812">
        <ele>91.3</ele>
        <time>2013-09-19T19:09:49.409Z</time>
      </trkpt>
      <trkpt lat="48.8542" lon="2.27819">
        <ele>86.8</ele>
        <time>2013-09-19T19:09:57.106Z</time>
      </trkpt>
      <trkpt lat="48.85421" lon="2.27819">
        <ele>86.8</ele>
        <time>2013-09-19T19:09:57.357Z</time>
      </trkpt>
      <trkpt lat="48.85428" lon="2.27818">
        <ele>90.1</ele>
        <time>2013-09-19T19:10:11.257Z</time>
      </trkpt>
      <trkpt lat="48.8543" lon="2.27815">
        <ele>90.1</ele>
        <time>2013-09-19T19:10:12.441Z</time>
      </trkpt>
      <trkpt lat="48.85434" lon="2.27807">
        <ele>89</ele>
        <time>2013-09-19T19:10:14.379Z</time>
      </trkpt>
      <trkpt lat="48.85437" lon="2.27802">
        <ele>88.7</ele>
        <time>2013-09-19T19:10:15.369Z</time>
      </trkpt>
      <trkpt lat="48.85441" lon="2.27793">
        <ele>89.1</ele>
        <time>2013-09-19T19:10:17.388Z</time>
      </trkpt>
      <trkpt lat="48.85443" lon="2.27789">
        <ele>89.3</ele>
        <time>2013-09-19T19:10:18.369Z</time>
      </trkpt>
      <trkpt lat="48.85448" lon="2.2778">
        <ele>90.7</ele>
        <time>2013-09-19T19:10:20.375Z</time>
      </trkpt>
      <trkpt lat="48.8545" lon="2.27776">
        <ele>90.9</ele>
        <time>2013-09-19T19:10:21.263Z</time>
      </trkpt>
      <trkpt lat="48.85455" lon="2.27768">
        <ele>91.2</ele>
        <time>2013-09-19T19:10:23.257Z</time>
      </trkpt>
      <trkpt lat="48.85458" lon="2.27764">
        <ele>91.4</ele>
        <time>2013-09-19T19:10:24.250Z</time>
      </trkpt>
      <trkpt lat="48.85463" lon="2.27757">
        <ele>90.7</ele>
        <time>2013-09-19T19:10:26.258Z</time>
      </trkpt>
      <trkpt lat="48.85466" lon="2.27753">
        <ele>92.2</ele>
        <time>2013-09-19T19:10:27.254Z</time>
      </trkpt>
      <trkpt lat="48.85473" lon="2.27746">
        <ele>96.7</ele>
        <time>2013-09-19T19:10:29.260Z</time>
      </trkpt>
      <trkpt lat="48.85476" lon="2.27743">
        <ele>96.8</ele>
        <time>2013-09-19T19:10:30.276Z</time>
      </trkpt>
      <trkpt lat="48.85482" lon="2.27735">
        <ele>99.2</ele>
        <time>2013-09-19T19:10:32.251Z</time>
      </trkpt>
      <trkpt lat="48.85486" lon="2.27731">
        <ele>99.1</ele>
        <time>2013-09-19T19:10:33.276Z</time>
      </trkpt>
      <trkpt lat="48.85492" lon="2.27723">
        <ele>99.8</ele>
        <time>2013-09-19T19:10:35.260Z</time>
      </trkpt>
      <trkpt lat="48.85495" lon="2.27718">
        <ele>101</ele>
        <time>2013-09-19T19:10:36.250Z</time>
      </trkpt>
      <trkpt lat="48.85501" lon="2.27711">
        <ele>104</ele>
        <time>2013-09-19T19:10:38.253Z</time>
      </trkpt>
      <trkpt lat="48.85504" lon="2.27707">
        <ele>107.4</ele>
        <time>2013-09-19T19:10:39.268Z</time>
      </trkpt>
      <trkpt lat="48.85509" lon="2.27699">
        <ele>110.2</ele>
        <time>2013-09-19T19:10:41.387Z</time>
      </trkpt>
      <trkpt lat="48.85511" lon="2.27695">
        <ele>110.1</ele>
        <time>2013-09-19T19:10:42.371Z</time>
      </trkpt>
      <trkpt lat="48.85516" lon="2.27686">
        <ele>110.7</ele>
        <time>2013-09-19T19:10:44.303Z</time>
      </trkpt>
      <trkpt lat="48.85518" lon="2.27682">
        <ele>112.1</ele>
        <time>2013-09-19T19:10:45.392Z</time>
      </trkpt>
      <trkpt lat="48.85523" lon="2.27673">
        <ele>113.1</ele>
        <time>2013-09-19T19:10:47.452Z</time>
      </trkpt>
      <trkpt lat="48.85525" lon="2.2767">
        <ele>112.6</ele>
        <time>2013-09-19T19:10:48.261Z</time>
      </trkpt>
      <trkpt lat="48.85533" lon="2.27663">
        <ele>113.6</ele>
        <time>2013-09-19T19:10:52.003Z</time>
      </trkpt>
      <trkpt lat="48.85534" lon="2.27662">
        <ele>111</ele>
        <time>2013-09-19T19:10:52.464Z</time>
      </trkpt>
      <trkpt lat="48.85539" lon="2.27671">
        <ele>109.5</ele>
        <time>2013-09-19T19:10:56.264Z</time>
      </trkpt>
      <trkpt lat="48.8554" lon="2.27676">
        <ele>109.9</ele>
        <time>2013-09-19T19:10:57.293Z</time>
      </trkpt>
      <trkpt lat="48.85545" lon="2.27686">
        <ele>110</ele>
        <time>2013-09-19T19:10:59.262Z</time>
      </trkpt>
      <trkpt lat="48.85547" lon="2.27691">
        <ele>110.3</ele>
        <time>2013-09-19T19:11:00.371Z</time>
      </trkpt>
      <trkpt lat="48.85553" lon="2.277">
        <ele>109.6</ele>
        <time>2013-09-19T19:11:02.309Z</time>
      </trkpt>
      <trkpt lat="48.85556" lon="2.27705">
        <ele>109.4</ele>
        <time>2013-09-19T19:11:03.271Z</time>
      </trkpt>
      <trkpt lat="48.85559" lon="2.2771">
        <ele>109.4</ele>
        <time>2013-09-19T19:11:04.268Z</time>
      </trkpt>
      <trkpt lat="48.85563" lon="2.27714">
        <ele>109.5</ele>
        <time>2013-09-19T19:11:05.452Z</time>
      </trkpt>
      <trkpt lat="48.85569" lon="2.27723">
        <ele>108.4</ele>
        <time>2013-09-19T19:11:07.433Z</time>
      </trkpt>
      <trkpt lat="48.85572" lon="2.27727">
        <ele>108</ele>
        <time>2013-09-19T19:11:08.382Z</time>
      </trkpt>
      <trkpt lat="48.85578" lon="2.27735">
        <ele>108.6</ele>
        <time>2013-09-19T19:11:10.442Z</time>
      </trkpt>
      <trkpt lat="48.8558" lon="2.27738">
        <ele>107.8</ele>
        <time>2013-09-19T19:11:11.270Z</time>
      </trkpt>
      <trkpt lat="48.85586" lon="2.27745">
        <ele>109.9</ele>
        <time>2013-09-19T19:11:13.364Z</time>
      </trkpt>
      <trkpt lat="48.85589" lon="2.27748">
        <ele>109.9</ele>
        <time>2013-09-19T19:11:14.372Z</time>
      </trkpt>
      <trkpt lat="48.85595" lon="2.27753">
        <ele>107.8</ele>
        <time>2013-09-19T19:11:17.143Z</time>
      </trkpt>
      <trkpt lat="48.85598" lon="2.27756">
        <ele>107.8</ele>
        <time>2013-09-19T19:11:17.468Z</time>
      </trkpt>
      <trkpt lat="48.85603" lon="2.27761">
        <ele>106.6</ele>
        <time>2013-09-19T19:11:19.417Z</time>
      </trkpt>
      <trkpt lat="48.85605" lon="2.27764">
        <ele>108.7</ele>
        <time>2013-09-19T19:11:20.304Z</time>
      </trkpt>
      <trkpt lat="48.8561" lon="2.2777">
        <ele>110</ele>
        <time>2013-09-19T19:11:22.470Z</time>
      </trkpt>
      <trkpt lat="48.85612" lon="2.27773">
        <ele>110.6</ele>
        <time>2013-09-19T19:11:23.327Z</time>
      </trkpt>
      <trkpt lat="48.85619" lon="2.27781">
        <ele>110</ele>
        <time>2013-09-19T19:11:28.441Z</time>
      </trkpt>
      <trkpt lat="48.85619" lon="2.27781">
        <ele>109.8</ele>
        <time>2013-09-19T19:11:29.373Z</time>
      </trkpt>
      <trkpt lat="48.85626" lon="2.27785">
        <ele>111.6</ele>
        <time>2013-09-19T19:11:37.449Z</time>
      </trkpt>
      <trkpt lat="48.85628" lon="2.27787">
        <ele>112.2</ele>
        <time>2013-09-19T19:11:38.255Z</time>
      </trkpt>
      <trkpt lat="48.85634" lon="2.27793">
        <ele>112.7</ele>
        <time>2013-09-19T19:11:40.293Z</time>
      </trkpt>
      <trkpt lat="48.85637" lon="2.27796">
        <ele>112.6</ele>
        <time>2013-09-19T19:11:41.272Z</time>
      </trkpt>
      <trkpt lat="48.85643" lon="2.27803">
        <ele>112.8</ele>
        <time>2013-09-19T19:11:43.257Z</time>
      </trkpt>
      <trkpt lat="48.85645" lon="2.27808">
        <ele>112.9</ele>
        <time>2013-09-19T19:11:44.261Z</time>
      </trkpt>
      <trkpt lat="48.85651" lon="2.27815">
        <ele>112.5</ele>
        <time>2013-09-19T19:11:46.264Z</time>
      </trkpt>
      <trkpt lat="48.85654" lon="2.27818">
        <ele>111.6</ele>
        <time>2013-09-19T19:11:47.274Z</time>
      </trkpt>
      <trkpt lat="48.8566" lon="2.27824">
        <ele>111.1</ele>
        <time>2013-09-19T19:11:49.263Z</time>
      </trkpt>
      <trkpt lat="48.85662" lon="2.27828">
        <ele>111.5</ele>
        <time>2013-09-19T19:11:50.266Z</time>
      </trkpt>
      <trkpt lat="48.85668" lon="2.27835">
        <ele>112</ele>
        <time>2013-09-19T19:11:52.255Z</time>
      </trkpt>
      <trkpt lat="48.8567" lon="2.2784">
        <ele>112.5</ele>
        <time>2013-09-19T19:11:53.282Z</time>
      </trkpt>
      <trkpt lat="48.85675" lon="2.2785">
        <ele>113.9</ele>
        <time>2013-09-19T19:11:55.322Z</time>
      </trkpt>
      <trkpt lat="48.85677" lon="2.27855">
        <ele>114.7</ele>
        <time>2013-09-19T19:11:56.266Z</time>
      </trkpt>
      <trkpt lat="48.85682" lon="2.27866">
        <ele>116.1</ele>
        <time>2013-09-19T19:11:58.393Z</time>
      </trkpt>
      <trkpt lat="48.85684" lon="2.2787">
        <ele>115.4</ele>
        <time>2013-09-19T19:11:59.270Z</time>
      </trkpt>
      <trkpt lat="48.85689" lon="2.2788">
        <ele>116.5</ele>
        <time>2013-09-19T19:12:01.267Z</time>
      </trkpt>
      <trkpt lat="48.85691" lon="2.27885">
        <ele>116.2</ele>
        <time>2013-09-19T19:12:02.314Z</time>
      </trkpt>
      <trkpt lat="48.85692" lon="2.27897">
        <ele>118</ele>
        <time>2013-09-19T19:12:05.267Z</time>
      </trkpt>
      <trkpt lat="48.85691" lon="2.279">
        <ele>118.4</ele>
        <time>2013-09-19T19:12:06.259Z</time>
      </trkpt>
      <trkpt lat="48.85687" lon="2.27907">
        <ele>120.1</ele>
        <time>2013-09-19T19:12:08.264Z</time>
      </trkpt>
      <trkpt lat="48.85685" lon="2.27911">
        <ele>119.7</ele>
        <time>2013-09-19T19:12:09.267Z</time>
      </trkpt>
      <trkpt lat="48.85681" lon="2.27921">
        <ele>118.4</ele>
        <time>2013-09-19T19:12:11.252Z</time>
      </trkpt>
      <trkpt lat="48.8568" lon="2.27928">
        <ele>118.2</ele>
        <time>2013-09-19T19:12:12.407Z</time>
      </trkpt>
      <trkpt lat="48.8568" lon="2.27941">
        <ele>117.1</ele>
        <time>2013-09-19T19:12:14.267Z</time>
      </trkpt>
      <trkpt lat="48.85683" lon="2.27951">
        <ele>118.5</ele>
        <time>2013-09-19T19:12:15.279Z</time>
      </trkpt>
      <trkpt lat="48.85686" lon="2.2796">
        <ele>118.5</ele>
        <time>2013-09-19T19:12:16.259Z</time>
      </trkpt>
      <trkpt lat="48.85689" lon="2.27968">
        <ele>118.4</ele>
        <time>2013-09-19T19:12:17.365Z</time>
      </trkpt>
      <trkpt lat="48.8569" lon="2.27974">
        <ele>118</ele>
        <time>2013-09-19T19:12:18.260Z</time>
      </trkpt>
      <trkpt lat="48.85692" lon="2.27981">
        <ele>117.7</ele>
        <time>2013-09-19T19:12:19.303Z</time>
      </trkpt>
      <trkpt lat="48.85693" lon="2.27993">
        <ele>116.9</ele>
        <time>2013-09-19T19:12:21.275Z</time>
      </trkpt>
      <trkpt lat="48.85693" lon="2.27999">
        <ele>116.2</ele>
        <time>2013-09-19T19:12:22.363Z</time>
      </trkpt>
      <trkpt lat="48.85684" lon="2.28">
        <ele>118.2</ele>
        <time>2013-09-19T19:12:24.318Z</time>
      </trkpt>
      <trkpt lat="48.8568" lon="2.28001">
        <ele>118</ele>
        <time>2013-09-19T19:12:25.346Z</time>
      </trkpt>
      <trkpt lat="48.85671" lon="2.28002">
        <ele>121.2</ele>
        <time>2013-09-19T19:12:29.261Z</time>
      </trkpt>
      <trkpt lat="48.8567" lon="2.28002">
        <ele>121.2</ele>
        <time>2013-09-19T19:12:30.268Z</time>
      </trkpt>
      <trkpt lat="48.85673" lon="2.28013">
        <ele>120.6</ele>
        <time>2013-09-19T19:12:40.262Z</time>
      </trkpt>
      <trkpt lat="48.85674" lon="2.28016">
        <ele>120.9</ele>
        <time>2013-09-19T19:12:41.263Z</time>
      </trkpt>
      <trkpt lat="48.8568" lon="2.28023">
        <ele>125.7</ele>
        <time>2013-09-19T19:12:45.355Z</time>
      </trkpt>
      <trkpt lat="48.85682" lon="2.28024">
        <ele>125.8</ele>
        <time>2013-09-19T19:12:46.446Z</time>
      </trkpt>
      <trkpt lat="48.85687" lon="2.28035">
        <ele>133</ele>
        <time>2013-09-19T19:12:55.270Z</time>
      </trkpt>
      <trkpt lat="48.85687" lon="2.28038">
        <ele>132.7</ele>
        <time>2013-09-19T19:12:56.271Z</time>
      </trkpt>
      <trkpt lat="48.85688" lon="2.28049">
        <ele>129.6</ele>
        <time>2013-09-19T19:13:01.280Z</time>
      </trkpt>
      <trkpt lat="48.85688" lon="2.28054">
        <ele>131.1</ele>
        <time>2013-09-19T19:13:02.467Z</time>
      </trkpt>
      <trkpt lat="48.85687" lon="2.28068">
        <ele>136</ele>
        <time>2013-09-19T19:13:06.400Z</time>
      </trkpt>
      <trkpt lat="48.85686" lon="2.2807">
        <ele>136.3</ele>
        <time>2013-09-19T19:13:07.370Z</time>
      </trkpt>
      <trkpt lat="48.85682" lon="2.28079">
        <ele>135</ele>
        <time>2013-09-19T19:13:10.346Z</time>
      </trkpt>
      <trkpt lat="48.85679" lon="2.28083">
        <ele>135.5</ele>
        <time>2013-09-19T19:13:11.399Z</time>
      </trkpt>
      <trkpt lat="48.85673" lon="2.28089">
        <ele>135.1</ele>
        <time>2013-09-19T19:13:13.280Z</time>
      </trkpt>
      <trkpt lat="48.8567" lon="2.28092">
        <ele>134.6</ele>
        <time>2013-09-19T19:13:14.279Z</time>
      </trkpt>
      <trkpt lat="48.85664" lon="2.28097">
        <ele>133.6</ele>
        <time>2013-09-19T19:13:16.272Z</time>
      </trkpt>
      <trkpt lat="48.85662" lon="2.281">
        <ele>133.8</ele>
        <time>2013-09-19T19:13:17.312Z</time>
      </trkpt>
      <trkpt lat="48.85656" lon="2.2811">
        <ele>134.3</ele>
        <time>2013-09-19T19:13:20.264Z</time>
      </trkpt>
      <trkpt lat="48.85655" lon="2.28113">
        <ele>133</ele>
        <time>2013-09-19T19:13:21.270Z</time>
      </trkpt>
      <trkpt lat="48.85651" lon="2.28124">
        <ele>132.4</ele>
        <time>2013-09-19T19:13:24.288Z</time>
      </trkpt>
      <trkpt lat="48.85649" lon="2.28128">
        <ele>134.4</ele>
        <time>2013-09-19T19:13:25.401Z</time>
      </trkpt>
      <trkpt lat="48.85645" lon="2.28138">
        <ele>132.7</ele>
        <time>2013-09-19T19:13:28.274Z</time>
      </trkpt>
      <trkpt lat="48.85643" lon="2.28142">
        <ele>132.2</ele>
        <time>2013-09-19T19:13:29.463Z</time>
      </trkpt>
      <trkpt lat="48.85641" lon="2.28154">
        <ele>131.4</ele>
        <time>2013-09-19T19:13:32.338Z</time>
      </trkpt>
      <trkpt lat="48.8564" lon="2.28157">
        <ele>131.6</ele>
        <time>2013-09-19T19:13:33.370Z</time>
      </trkpt>
      <trkpt lat="48.85638" lon="2.28169">
        <ele>136.2</ele>
        <time>2013-09-19T19:13:44.267Z</time>
      </trkpt>
      <trkpt lat="48.85638" lon="2.28171">
        <ele>136.8</ele>
        <time>2013-09-19T19:13:45.279Z</time>
      </trkpt>
      <trkpt lat="48.85642" lon="2.28181">
        <ele>137.1</ele>
        <time>2013-09-19T19:13:50.272Z</time>
      </trkpt>
      <trkpt lat="48.85643" lon="2.28183">
        <ele>137.2</ele>
        <time>2013-09-19T19:13:51.264Z</time>
      </trkpt>
      <trkpt lat="48.85648" lon="2.28192">
        <ele>137.1</ele>
        <time>2013-09-19T19:13:55.269Z</time>
      </trkpt>
      <trkpt lat="48.85648" lon="2.28195">
        <ele>136.8</ele>
        <time>2013-09-19T19:13:56.282Z</time>
      </trkpt>
      <trkpt lat="48.85656" lon="2.28192">
        <ele>132.4</ele>
        <time>2013-09-19T19:14:01.375Z</time>
      </trkpt>
      <trkpt lat="48.85657" lon="2.28189">
        <ele>132.2</ele>
        <time>2013-09-19T19:14:02.333Z</time>
      </trkpt>
      <trkpt lat="48.85662" lon="2.2818">
        <ele>133.5</ele>
        <time>2013-09-19T19:14:06.365Z</time>
      </trkpt>
      <trkpt lat="48.85664" lon="2.28177">
        <ele>133.8</ele>
        <time>2013-09-19T19:14:07.292Z</time>
      </trkpt>
      <trkpt lat="48.85669" lon="2.28173">
        <ele>133.9</ele>
        <time>2013-09-19T19:14:09.267Z</time>
      </trkpt>
      <trkpt lat="48.85672" lon="2.28171">
        <ele>135</ele>
        <time>2013-09-19T19:14:10.283Z</time>
      </trkpt>
      <trkpt lat="48.85679" lon="2.28164">
        <ele>135</ele>
        <time>2013-09-19T19:14:12.291Z</time>
      </trkpt>
      <trkpt lat="48.85682" lon="2.2816">
        <ele>135.5</ele>
        <time>2013-09-19T19:14:13.270Z</time>
      </trkpt>
      <trkpt lat="48.85688" lon="2.2815">
        <ele>135.2</ele>
        <time>2013-09-19T19:14:15.273Z</time>
      </trkpt>
      <trkpt lat="48.85691" lon="2.28145">
        <ele>135.2</ele>
        <time>2013-09-19T19:14:16.299Z</time>
      </trkpt>
      <trkpt lat="48.85695" lon="2.28137">
        <ele>136</ele>
        <time>2013-09-19T19:14:18.276Z</time>
      </trkpt>
      <trkpt lat="48.85696" lon="2.28133">
        <ele>136.6</ele>
        <time>2013-09-19T19:14:19.282Z</time>
      </trkpt>
      <trkpt lat="48.85697" lon="2.28122">
        <ele>135.8</ele>
        <time>2013-09-19T19:14:22.330Z</time>
      </trkpt>
      <trkpt lat="48.85698" lon="2.28119">
        <ele>135.6</ele>
        <time>2013-09-19T19:14:23.269Z</time>
      </trkpt>
      <trkpt lat="48.85699" lon="2.28106">
        <ele>137.8</ele>
        <time>2013-09-19T19:14:29.265Z</time>
      </trkpt>
      <trkpt lat="48.85698" lon="2.28105">
        <ele>137.6</ele>
        <time>2013-09-19T19:14:30.265Z</time>
      </trkpt>
      <trkpt lat="48.85693" lon="2.28097">
        <ele>133.5</ele>
        <time>2013-09-19T19:14:34.276Z</time>
      </trkpt>
      <trkpt lat="48.85692" lon="2.28093">
        <ele>131.8</ele>
        <time>2013-09-19T19:14:35.279Z</time>
      </trkpt>
      <trkpt lat="48.85688" lon="2.28081">
        <ele>131.7</ele>
        <time>2013-09-19T19:14:38.335Z</time>
      </trkpt>
      <trkpt lat="48.85688" lon="2.28077">
        <ele>132</ele>
        <time>2013-09-19T19:14:39.326Z</time>
      </trkpt>
      <trkpt lat="48.85683" lon="2.28068">
        <ele>129.2</ele>
        <time>2013-09-19T19:14:42.308Z</time>
      </trkpt>
      <trkpt lat="48.85681" lon="2.28067">
        <ele>128.7</ele>
        <time>2013-09-19T19:14:43.310Z</time>
      </trkpt>
      <trkpt lat="48.85674" lon="2.28068">
        <ele>124.4</ele>
        <time>2013-09-19T19:14:46.295Z</time>
      </trkpt>
      <trkpt lat="48.85671" lon="2.2807">
        <ele>122</ele>
        <time>2013-09-19T19:14:47.279Z</time>
      </trkpt>
      <trkpt lat="48.85665" lon="2.28074">
        <ele>122.1</ele>
        <time>2013-09-19T19:14:49.270Z</time>
      </trkpt>
      <trkpt lat="48.85662" lon="2.28076">
        <ele>122.7</ele>
        <time>2013-09-19T19:14:50.277Z</time>
      </trkpt>
      <trkpt lat="48.85655" lon="2.28083">
        <ele>121.5</ele>
        <time>2013-09-19T19:14:53.370Z</time>
      </trkpt>
      <trkpt lat="48.85653" lon="2.28086">
        <ele>121.2</ele>
        <time>2013-09-19T19:14:54.280Z</time>
      </trkpt>
      <trkpt lat="48.85648" lon="2.28094">
        <ele>120.8</ele>
        <time>2013-09-19T19:14:57.268Z</time>
      </trkpt>
      <trkpt lat="48.85647" lon="2.28097">
        <ele>119</ele>
        <time>2013-09-19T19:14:58.272Z</time>
      </trkpt>
      <trkpt lat="48.85641" lon="2.28104">
        <ele>114.2</ele>
        <time>2013-09-19T19:15:02.383Z</time>
      </trkpt>
      <trkpt lat="48.85639" lon="2.28106">
        <ele>117.1</ele>
        <time>2013-09-19T19:15:02.436Z</time>
      </trkpt>
      <trkpt lat="48.85633" lon="2.28116">
        <ele>114.9</ele>
        <time>2013-09-19T19:15:07.403Z</time>
      </trkpt>
      <trkpt lat="48.85633" lon="2.28118">
        <ele>115.5</ele>
        <time>2013-09-19T19:15:08.350Z</time>
      </trkpt>
      <trkpt lat="48.85627" lon="2.28128">
        <ele>117.9</ele>
        <time>2013-09-19T19:15:13.280Z</time>
      </trkpt>
      <trkpt lat="48.85625" lon="2.2813">
        <ele>117.6</ele>
        <time>2013-09-19T19:15:14.400Z</time>
      </trkpt>
      <trkpt lat="48.85628" lon="2.28142">
        <ele>121.8</ele>
        <time>2013-09-19T19:15:18.346Z</time>
      </trkpt>
      <trkpt lat="48.8563" lon="2.28147">
        <ele>121</ele>
        <time>2013-09-19T19:15:19.383Z</time>
      </trkpt>
      <trkpt lat="48.85633" lon="2.28158">
        <ele>121.5</ele>
        <time>2013-09-19T19:15:22.333Z</time>
      </trkpt>
      <trkpt lat="48.85634" lon="2.28159">
        <ele>122</ele>
        <time>2013-09-19T19:15:23.435Z</time>
      </trkpt>
      <trkpt lat="48.85639" lon="2.28169">
        <ele>120.5</ele>
        <time>2013-09-19T19:15:35.409Z</time>
      </trkpt>
      <trkpt lat="48.85641" lon="2.28173">
        <ele>120</ele>
        <time>2013-09-19T19:15:36.283Z</time>
      </trkpt>
      <trkpt lat="48.85646" lon="2.28181">
        <ele>118.2</ele>
        <time>2013-09-19T19:15:38.296Z</time>
      </trkpt>
      <trkpt lat="48.85649" lon="2.28186">
        <ele>117.3</ele>
        <time>2013-09-19T19:15:39.418Z</time>
      </trkpt>
      <trkpt lat="48.85653" lon="2.28193">
        <ele>116.1</ele>
        <time>2013-09-19T19:15:41.905Z</time>
      </trkpt>
      <trkpt lat="48.85655" lon="2.28197">
        <ele>116</ele>
        <time>2013-09-19T19:15:42.505Z</time>
      </trkpt>
      <trkpt lat="48.85661" lon="2.28205">
        <ele>112.4</ele>
        <time>2013-09-19T19:15:46.989Z</time>
      </trkpt>
      <trkpt lat="48.85663" lon="2.28206">
        <ele>112.1</ele>
        <time>2013-09-19T19:15:47.348Z</time>
      </trkpt>
      <trkpt lat="48.85672" lon="2.28211">
        <ele>110.8</ele>
        <time>2013-09-19T19:15:50.333Z</time>
      </trkpt>
      <trkpt lat="48.85675" lon="2.28213">
        <ele>109.2</ele>
        <time>2013-09-19T19:15:51.380Z</time>
      </trkpt>
      <trkpt lat="48.8568" lon="2.28219">
        <ele>109.7</ele>
        <time>2013-09-19T19:15:53.395Z</time>
      </trkpt>
      <trkpt lat="48.85682" lon="2.28223">
        <ele>108.6</ele>
        <time>2013-09-19T19:15:54.287Z</time>
      </trkpt>
      <trkpt lat="48.8569" lon="2.28229">
        <ele>108.2</ele>
        <time>2013-09-19T19:16:01.317Z</time>
      </trkpt>
      <trkpt lat="48.85691" lon="2.28228">
        <ele>109.1</ele>
        <time>2013-09-19T19:16:02.334Z</time>
      </trkpt>
      <trkpt lat="48.85696" lon="2.28225">
        <ele>109.9</ele>
        <time>2013-09-19T19:16:04.273Z</time>
      </trkpt>
      <trkpt lat="48.857" lon="2.28223">
        <ele>109.8</ele>
        <time>2013-09-19T19:16:05.285Z</time>
      </trkpt>
      <trkpt lat="48.85707" lon="2.28217">
        <ele>112.7</ele>
        <time>2013-09-19T19:16:07.294Z</time>
      </trkpt>
      <trkpt lat="48.8571" lon="2.28214">
        <ele>112.3</ele>
        <time>2013-09-19T19:16:08.296Z</time>
      </trkpt>
      <trkpt lat="48.85714" lon="2.2821">
        <ele>112.3</ele>
        <time>2013-09-19T19:16:09.285Z</time>
      </trkpt>
      <trkpt lat="48.85717" lon="2.28206">
        <ele>112.5</ele>
        <time>2013-09-19T19:16:10.382Z</time>
      </trkpt>
      <trkpt lat="48.85724" lon="2.28198">
        <ele>112.5</ele>
        <time>2013-09-19T19:16:12.357Z</time>
      </trkpt>
      <trkpt lat="48.85728" lon="2.28195">
        <ele>112.4</ele>
        <time>2013-09-19T19:16:13.392Z</time>
      </trkpt>
      <trkpt lat="48.85735" lon="2.2819">
        <ele>112.2</ele>
        <time>2013-09-19T19:16:15.292Z</time>
      </trkpt>
      <trkpt lat="48.85738" lon="2.28187">
        <ele>112.4</ele>
        <time>2013-09-19T19:16:16.372Z</time>
      </trkpt>
      <trkpt lat="48.85745" lon="2.28184">
        <ele>112.9</ele>
        <time>2013-09-19T19:16:18.412Z</time>
      </trkpt>
      <trkpt lat="48.85748" lon="2.28182">
        <ele>113.2</ele>
        <time>2013-09-19T19:16:19.311Z</time>
      </trkpt>
      <trkpt lat="48.85755" lon="2.28174">
        <ele>120.6</ele>
        <time>2013-09-19T19:16:22.330Z</time>
      </trkpt>
      <trkpt lat="48.85757" lon="2.28172">
        <ele>121</ele>
        <time>2013-09-19T19:16:23.292Z</time>
      </trkpt>
      <trkpt lat="48.85764" lon="2.28164">
        <ele>125.2</ele>
        <time>2013-09-19T19:16:27.199Z</time>
      </trkpt>
      <trkpt lat="48.85767" lon="2.28161">
        <ele>126.4</ele>
        <time>2013-09-19T19:16:27.412Z</time>
      </trkpt>
      <trkpt lat="48.85774" lon="2.28154">
        <ele>127.8</ele>
        <time>2013-09-19T19:16:30.434Z</time>
      </trkpt>
      <trkpt lat="48.85776" lon="2.28152">
        <ele>130.7</ele>
        <time>2013-09-19T19:16:31.310Z</time>
      </trkpt>
      <trkpt lat="48.85782" lon="2.28148">
        <ele>127.1</ele>
        <time>2013-09-19T19:16:37.440Z</time>
      </trkpt>
      <trkpt lat="48.85784" lon="2.28135">
        <ele>123.1</ele>
        <time>2013-09-19T19:16:38.293Z</time>
      </trkpt>
      <trkpt lat="48.85787" lon="2.28127">
        <ele>121.9</ele>
        <time>2013-09-19T19:16:39.483Z</time>
      </trkpt>
      <trkpt lat="48.85788" lon="2.28123">
        <ele>121.2</ele>
        <time>2013-09-19T19:16:40.322Z</time>
      </trkpt>
      <trkpt lat="48.85796" lon="2.28129">
        <ele>120.9</ele>
        <time>2013-09-19T19:16:44.304Z</time>
      </trkpt>
      <trkpt lat="48.85797" lon="2.28133">
        <ele>120.8</ele>
        <time>2013-09-19T19:16:45.287Z</time>
      </trkpt>
      <trkpt lat="48.85801" lon="2.28144">
        <ele>121.9</ele>
        <time>2013-09-19T19:16:48.287Z</time>
      </trkpt>
      <trkpt lat="48.85802" lon="2.28148">
        <ele>121.8</ele>
        <time>2013-09-19T19:16:49.287Z</time>
      </trkpt>
      <trkpt lat="48.85806" lon="2.28159">
        <ele>125.3</ele>
        <time>2013-09-19T19:16:53.016Z</time>
      </trkpt>
      <trkpt lat="48.85808" lon="2.28162">
        <ele>128.2</ele>
        <time>2013-09-19T19:16:53.279Z</time>
      </trkpt>
      <trkpt lat="48.85813" lon="2.28172">
        <ele>130.6</ele>
        <time>2013-09-19T19:16:57.003Z</time>
      </trkpt>
      <trkpt lat="48.85815" lon="2.28176">
        <ele>130.7</ele>
        <time>2013-09-19T19:16:57.285Z</time>
      </trkpt>
      <trkpt lat="48.85819" lon="2.28187">
        <ele>129.5</ele>
        <time>2013-09-19T19:17:00.335Z</time>
      </trkpt>
      <trkpt lat="48.8582" lon="2.28191">
        <ele>128.6</ele>
        <time>2013-09-19T19:17:01.298Z</time>
      </trkpt>
      <trkpt lat="48.85822" lon="2.282">
        <ele>128.2</ele>
        <time>2013-09-19T19:17:03.280Z</time>
      </trkpt>
      <trkpt lat="48.85823" lon="2.28204">
        <ele>127.8</ele>
        <time>2013-09-19T19:17:04.289Z</time>
      </trkpt>
      <trkpt lat="48.85826" lon="2.28216">
        <ele>126.7</ele>
        <time>2013-09-19T19:17:07.329Z</time>
      </trkpt>
      <trkpt lat="48.85827" lon="2.2822">
        <ele>126.1</ele>
        <time>2013-09-19T19:17:08.296Z</time>
      </trkpt>
      <trkpt lat="48.85831" lon="2.2823">
        <ele>126</ele>
        <time>2013-09-19T19:17:11.291Z</time>
      </trkpt>
      <trkpt lat="48.85833" lon="2.28233">
        <ele>126.2</ele>
        <time>2013-09-19T19:17:12.278Z</time>
      </trkpt>
      <trkpt lat="48.85839" lon="2.28241">
        <ele>124.9</ele>
        <time>2013-09-19T19:17:14.300Z</time>
      </trkpt>
      <trkpt lat="48.85842" lon="2.28246">
        <ele>124.6</ele>
        <time>2013-09-19T19:17:15.291Z</time>
      </trkpt>
      <trkpt lat="48.85845" lon="2.28251">
        <ele>124.2</ele>
        <time>2013-09-19T19:17:16.282Z</time>
      </trkpt>
      <trkpt lat="48.85849" lon="2.28255">
        <ele>123.5</ele>
        <time>2013-09-19T19:17:17.282Z</time>
      </trkpt>
      <trkpt lat="48.85853" lon="2.28265">
        <ele>124.1</ele>
        <time>2013-09-19T19:17:19.299Z</time>
      </trkpt>
      <trkpt lat="48.85854" lon="2.28269">
        <ele>123.9</ele>
        <time>2013-09-19T19:17:20.288Z</time>
      </trkpt>
      <trkpt lat="48.85854" lon="2.2828">
        <ele>125.4</ele>
        <time>2013-09-19T19:17:22.282Z</time>
      </trkpt>
      <trkpt lat="48.85854" lon="2.28285">
        <ele>125.4</ele>
        <time>2013-09-19T19:17:23.380Z</time>
      </trkpt>
      <trkpt lat="48.85855" lon="2.28299">
        <ele>126.2</ele>
        <time>2013-09-19T19:17:26.278Z</time>
      </trkpt>
      <trkpt lat="48.85856" lon="2.28303">
        <ele>126.4</ele>
        <time>2013-09-19T19:17:27.291Z</time>
      </trkpt>
      <trkpt lat="48.85859" lon="2.28314">
        <ele>125.6</ele>
        <time>2013-09-19T19:17:30.288Z</time>
      </trkpt>
      <trkpt lat="48.8586" lon="2.28319">
        <ele>125.4</ele>
        <time>2013-09-19T19:17:31.279Z</time>
      </trkpt>
      <trkpt lat="48.85861" lon="2.28329">
        <ele>124.3</ele>
        <time>2013-09-19T19:17:33.292Z</time>
      </trkpt>
      <trkpt lat="48.85861" lon="2.28334">
        <ele>122.9</ele>
        <time>2013-09-19T19:17:34.411Z</time>
      </trkpt>
      <trkpt lat="48.85861" lon="2.28344">
        <ele>124.9</ele>
        <time>2013-09-19T19:17:36.367Z</time>
      </trkpt>
      <trkpt lat="48.85862" lon="2.28349">
        <ele>123.8</ele>
        <time>2013-09-19T19:17:37.322Z</time>
      </trkpt>
      <trkpt lat="48.85864" lon="2.28358">
        <ele>122.7</ele>
        <time>2013-09-19T19:17:39.419Z</time>
      </trkpt>
      <trkpt lat="48.85866" lon="2.28362">
        <ele>121.4</ele>
        <time>2013-09-19T19:17:40.341Z</time>
      </trkpt>
      <trkpt lat="48.85871" lon="2.2837">
        <ele>120.5</ele>
        <time>2013-09-19T19:17:42.294Z</time>
      </trkpt>
      <trkpt lat="48.85873" lon="2.28375">
        <ele>119.9</ele>
        <time>2013-09-19T19:17:43.477Z</time>
      </trkpt>
      <trkpt lat="48.85875" lon="2.28384">
        <ele>119.9</ele>
        <time>2013-09-19T19:17:45.484Z</time>
      </trkpt>
      <trkpt lat="48.85875" lon="2.28388">
        <ele>119.2</ele>
        <time>2013-09-19T19:17:46.292Z</time>
      </trkpt>
      <trkpt lat="48.85875" lon="2.28401">
        <ele>118.2</ele>
        <time>2013-09-19T19:17:49.326Z</time>
      </trkpt>
      <trkpt lat="48.85874" lon="2.28405">
        <ele>117.8</ele>
        <time>2013-09-19T19:17:50.286Z</time>
      </trkpt>
      <trkpt lat="48.85872" lon="2.28416">
        <ele>119</ele>
        <time>2013-09-19T19:17:53.292Z</time>
      </trkpt>
      <trkpt lat="48.85869" lon="2.28418">
        <ele>118.4</ele>
        <time>2013-09-19T19:17:54.293Z</time>
      </trkpt>
      <trkpt lat="48.85862" lon="2.28423">
        <ele>116.8</ele>
        <time>2013-09-19T19:17:56.291Z</time>
      </trkpt>
      <trkpt lat="48.8586" lon="2.28425">
        <ele>116.7</ele>
        <time>2013-09-19T19:17:57.302Z</time>
      </trkpt>
      <trkpt lat="48.85853" lon="2.28426">
        <ele>112.8</ele>
        <time>2013-09-19T19:17:59.390Z</time>
      </trkpt>
      <trkpt lat="48.85851" lon="2.28426">
        <ele>113</ele>
        <time>2013-09-19T19:18:00.319Z</time>
      </trkpt>
      <trkpt lat="48.85843" lon="2.28425">
        <ele>111.5</ele>
        <time>2013-09-19T19:18:15.296Z</time>
      </trkpt>
      <trkpt lat="48.85843" lon="2.28425">
        <ele>111.6</ele>
        <time>2013-09-19T19:18:16.287Z</time>
      </trkpt>
      <trkpt lat="48.85844" lon="2.28425">
        <ele>115.2</ele>
        <time>2013-09-19T19:18:35.290Z</time>
      </trkpt>
      <trkpt lat="48.85845" lon="2.28425">
        <ele>116.6</ele>
        <time>2013-09-19T19:18:36.279Z</time>
      </trkpt>
      <trkpt lat="48.85853" lon="2.28427">
        <ele>119.8</ele>
        <time>2013-09-19T19:18:41.290Z</time>
      </trkpt>
      <trkpt lat="48.85855" lon="2.28429">
        <ele>120.8</ele>
        <time>2013-09-19T19:18:42.287Z</time>
      </trkpt>
      <trkpt lat="48.85861" lon="2.28433">
        <ele>122.7</ele>
        <time>2013-09-19T19:18:44.299Z</time>
      </trkpt>
      <trkpt lat="48.85864" lon="2.28436">
        <ele>124.4</ele>
        <time>2013-09-19T19:18:45.296Z</time>
      </trkpt>
      <trkpt lat="48.85871" lon="2.28442">
        <ele>121.4</ele>
        <time>2013-09-19T19:18:48.297Z</time>
      </trkpt>
      <trkpt lat="48.85874" lon="2.28444">
        <ele>119.6</ele>
        <time>2013-09-19T19:18:49.426Z</time>
      </trkpt>
      <trkpt lat="48.85879" lon="2.28452">
        <ele>119.2</ele>
        <time>2013-09-19T19:18:53.316Z</time>
      </trkpt>
      <trkpt lat="48.8588" lon="2.28454">
        <ele>118.5</ele>
        <time>2013-09-19T19:18:54.449Z</time>
      </trkpt>
      <trkpt lat="48.85889" lon="2.28451">
        <ele>115.3</ele>
        <time>2013-09-19T19:19:00.307Z</time>
      </trkpt>
      <trkpt lat="48.85891" lon="2.2845">
        <ele>115.2</ele>
        <time>2013-09-19T19:19:01.288Z</time>
      </trkpt>
      <trkpt lat="48.85898" lon="2.28448">
        <ele>116.3</ele>
        <time>2013-09-19T19:19:04.289Z</time>
      </trkpt>
      <trkpt lat="48.859" lon="2.28446">
        <ele>116.3</ele>
        <time>2013-09-19T19:19:05.300Z</time>
      </trkpt>
      <trkpt lat="48.85907" lon="2.28449">
        <ele>114.2</ele>
        <time>2013-09-19T19:19:16.318Z</time>
      </trkpt>
      <trkpt lat="48.8591" lon="2.2845">
        <ele>115.4</ele>
        <time>2013-09-19T19:19:17.307Z</time>
      </trkpt>
      <trkpt lat="48.85918" lon="2.28449">
        <ele>116.9</ele>
        <time>2013-09-19T19:19:19.436Z</time>
      </trkpt>
      <trkpt lat="48.85921" lon="2.28449">
        <ele>117.4</ele>
        <time>2013-09-19T19:19:20.307Z</time>
      </trkpt>
      <trkpt lat="48.85928" lon="2.28448">
        <ele>120.3</ele>
        <time>2013-09-19T19:19:22.483Z</time>
      </trkpt>
      <trkpt lat="48.8593" lon="2.28447">
        <ele>120</ele>
        <time>2013-09-19T19:19:23.387Z</time>
      </trkpt>
      <trkpt lat="48.85937" lon="2.28446">
        <ele>117.9</ele>
        <time>2013-09-19T19:19:25.314Z</time>
      </trkpt>
      <trkpt lat="48.85942" lon="2.28445">
        <ele>119</ele>
        <time>2013-09-19T19:19:26.412Z</time>
      </trkpt>
      <trkpt lat="48.8595" lon="2.28444">
        <ele>120.9</ele>
        <time>2013-09-19T19:19:28.463Z</time>
      </trkpt>
      <trkpt lat="48.85953" lon="2.28444">
        <ele>122.1</ele>
        <time>2013-09-19T19:19:29.316Z</time>
      </trkpt>
      <trkpt lat="48.85961" lon="2.28443">
        <ele>123</ele>
        <time>2013-09-19T19:19:31.390Z</time>
      </trkpt>
      <trkpt lat="48.85965" lon="2.28443">
        <ele>122.9</ele>
        <time>2013-09-19T19:19:32.427Z</time>
      </trkpt>
      <trkpt lat="48.85972" lon="2.28442">
        <ele>123.2</ele>
        <time>2013-09-19T19:19:34.319Z</time>
      </trkpt>
      <trkpt lat="48.85976" lon="2.28442">
        <ele>123.9</ele>
        <time>2013-09-19T19:19:35.417Z</time>
      </trkpt>
      <trkpt lat="48.85984" lon="2.28442">
        <ele>125</ele>
        <time>2013-09-19T19:19:37.430Z</time>
      </trkpt>
      <trkpt lat="48.85987" lon="2.28442">
        <ele>125.1</ele>
        <time>2013-09-19T19:19:38.350Z</time>
      </trkpt>
      <trkpt lat="48.85995" lon="2.2844">
        <ele>125.5</ele>
        <time>2013-09-19T19:19:40.438Z</time>
      </trkpt>
      <trkpt lat="48.85998" lon="2.28439">
        <ele>126</ele>
        <time>2013-09-19T19:19:41.318Z</time>
      </trkpt>
      <trkpt lat="48.86004" lon="2.28436">
        <ele>127.5</ele>
        <time>2013-09-19T19:19:43.311Z</time>
      </trkpt>
      <trkpt lat="48.86007" lon="2.28434">
        <ele>126.1</ele>
        <time>2013-09-19T19:19:44.465Z</time>
      </trkpt>
      <trkpt lat="48.86014" lon="2.28437">
        <ele>122.9</ele>
        <time>2013-09-19T19:19:47.292Z</time>
      </trkpt>
      <trkpt lat="48.86016" lon="2.2844">
        <ele>124</ele>
        <time>2013-09-19T19:19:48.360Z</time>
      </trkpt>
      <trkpt lat="48.86021" lon="2.28446">
        <ele>126.6</ele>
        <time>2013-09-19T19:19:50.311Z</time>
      </trkpt>
      <trkpt lat="48.86023" lon="2.28449">
        <ele>123.3</ele>
        <time>2013-09-19T19:19:51.444Z</time>
      </trkpt>
      <trkpt lat="48.86029" lon="2.28458">
        <ele>124.8</ele>
        <time>2013-09-19T19:19:54.303Z</time>
      </trkpt>
      <trkpt lat="48.86031" lon="2.28462">
        <ele>126.5</ele>
        <time>2013-09-19T19:19:55.299Z</time>
      </trkpt>
      <trkpt lat="48.86035" lon="2.28469">
        <ele>126.8</ele>
        <time>2013-09-19T19:19:57.339Z</time>
      </trkpt>
      <trkpt lat="48.86037" lon="2.28472">
        <ele>128.7</ele>
        <time>2013-09-19T19:19:58.301Z</time>
      </trkpt>
      <trkpt lat="48.86043" lon="2.28479">
        <ele>126.7</ele>
        <time>2013-09-19T19:20:00.374Z</time>
      </trkpt>
      <trkpt lat="48.86045" lon="2.28482">
        <ele>126.9</ele>
        <time>2013-09-19T19:20:01.319Z</time>
      </trkpt>
      <trkpt lat="48.86051" lon="2.2849">
        <ele>126.7</ele>
        <time>2013-09-19T19:20:03.430Z</time>
      </trkpt>
      <trkpt lat="48.86055" lon="2.28494">
        <ele>124.9</ele>
        <time>2013-09-19T19:20:04.361Z</time>
      </trkpt>
      <trkpt lat="48.86058" lon="2.28499">
        <ele>125</ele>
        <time>2013-09-19T19:20:05.304Z</time>
      </trkpt>
      <trkpt lat="48.86062" lon="2.28505">
        <ele>125.1</ele>
        <time>2013-09-19T19:20:06.310Z</time>
      </trkpt>
      <trkpt lat="48.86066" lon="2.28512">
        <ele>124.4</ele>
        <time>2013-09-19T19:20:07.472Z</time>
      </trkpt>
      <trkpt lat="48.86069" lon="2.28517">
        <ele>123.8</ele>
        <time>2013-09-19T19:20:08.320Z</time>
      </trkpt>
      <trkpt lat="48.86074" lon="2.28527">
        <ele>123.3</ele>
        <time>2013-09-19T19:20:10.288Z</time>
      </trkpt>
      <trkpt lat="48.86076" lon="2.28532">
        <ele>125</ele>
        <time>2013-09-19T19:20:11.288Z</time>
      </trkpt>
      <trkpt lat="48.86081" lon="2.2854">
        <ele>126.7</ele>
        <time>2013-09-19T19:20:13.287Z</time>
      </trkpt>
      <trkpt lat="48.86083" lon="2.28544">
        <ele>127.8</ele>
        <time>2013-09-19T19:20:14.312Z</time>
      </trkpt>
      <trkpt lat="48.86088" lon="2.28552">
        <ele>127.5</ele>
        <time>2013-09-19T19:20:16.298Z</time>
      </trkpt>
      <trkpt lat="48.8609" lon="2.28555">
        <ele>127.3</ele>
        <time>2013-09-19T19:20:17.380Z</time>
      </trkpt>
      <trkpt lat="48.86096" lon="2.28561">
        <ele>134.2</ele>
        <time>2013-09-19T19:20:20.360Z</time>
      </trkpt>
      <trkpt lat="48.86098" lon="2.28563">
        <ele>138.1</ele>
        <time>2013-09-19T19:20:21.442Z</time>
      </trkpt>
      <trkpt lat="48.86104" lon="2.28571">
        <ele>140.4</ele>
        <time>2013-09-19T19:20:24.304Z</time>
      </trkpt>
      <trkpt lat="48.86106" lon="2.28575">
        <ele>140.1</ele>
        <time>2013-09-19T19:20:25.425Z</time>
      </trkpt>
      <trkpt lat="48.86111" lon="2.28582">
        <ele>140</ele>
        <time>2013-09-19T19:20:27.378Z</time>
      </trkpt>
      <trkpt lat="48.86113" lon="2.28586">
        <ele>140.2</ele>
        <time>2013-09-19T19:20:28.442Z</time>
      </trkpt>
      <trkpt lat="48.86119" lon="2.28594">
        <ele>137.5</ele>
        <time>2013-09-19T19:20:30.440Z</time>
      </trkpt>
      <trkpt lat="48.86122" lon="2.28598">
        <ele>137.6</ele>
        <time>2013-09-19T19:20:31.306Z</time>
      </trkpt>
      <trkpt lat="48.86128" lon="2.28606">
        <ele>137.7</ele>
        <time>2013-09-19T19:20:33.362Z</time>
      </trkpt>
      <trkpt lat="48.8613" lon="2.2861">
        <ele>135.7</ele>
        <time>2013-09-19T19:20:34.394Z</time>
      </trkpt>
      <trkpt lat="48.86134" lon="2.2862">
        <ele>135.1</ele>
        <time>2013-09-19T19:20:37.419Z</time>
      </trkpt>
      <trkpt lat="48.86135" lon="2.28622">
        <ele>134.8</ele>
        <time>2013-09-19T19:20:38.304Z</time>
      </trkpt>
      <trkpt lat="48.86141" lon="2.28631">
        <ele>133.5</ele>
        <time>2013-09-19T19:20:52.395Z</time>
      </trkpt>
      <trkpt lat="48.86141" lon="2.28631">
        <ele>133.4</ele>
        <time>2013-09-19T19:20:53.483Z</time>
      </trkpt>
      <trkpt lat="48.86141" lon="2.28631">
        <ele>133.7</ele>
        <time>2013-09-19T19:21:01.316Z</time>
      </trkpt>
      <trkpt lat="48.86142" lon="2.2863">
        <ele>133.8</ele>
        <time>2013-09-19T19:21:02.496Z</time>
      </trkpt>
      <trkpt lat="48.8615" lon="2.2863">
        <ele>129.4</ele>
        <time>2013-09-19T19:21:07.450Z</time>
      </trkpt>
      <trkpt lat="48.86151" lon="2.2863">
        <ele>129.7</ele>
        <time>2013-09-19T19:21:08.359Z</time>
      </trkpt>
      <trkpt lat="48.86158" lon="2.28627">
        <ele>127.9</ele>
        <time>2013-09-19T19:21:11.429Z</time>
      </trkpt>
      <trkpt lat="48.8616" lon="2.28626">
        <ele>123.9</ele>
        <time>2013-09-19T19:21:12.304Z</time>
      </trkpt>
      <trkpt lat="48.86168" lon="2.28618">
        <ele>118</ele>
        <time>2013-09-19T19:21:15.409Z</time>
      </trkpt>
      <trkpt lat="48.8617" lon="2.28616">
        <ele>116.6</ele>
        <time>2013-09-19T19:21:16.304Z</time>
      </trkpt>
      <trkpt lat="48.86176" lon="2.28607">
        <ele>116.7</ele>
        <time>2013-09-19T19:21:20.318Z</time>
      </trkpt>
      <trkpt lat="48.86178" lon="2.28608">
        <ele>116.4</ele>
        <time>2013-09-19T19:21:21.299Z</time>
      </trkpt>
      <trkpt lat="48.86182" lon="2.28619">
        <ele>117.1</ele>
        <time>2013-09-19T19:21:25.302Z</time>
      </trkpt>
      <trkpt lat="48.86183" lon="2.28622">
        <ele>116.9</ele>
        <time>2013-09-19T19:21:26.341Z</time>
      </trkpt>
      <trkpt lat="48.86188" lon="2.28633">
        <ele>121.1</ele>
        <time>2013-09-19T19:21:30.311Z</time>
      </trkpt>
      <trkpt lat="48.86189" lon="2.28636">
        <ele>121.3</ele>
        <time>2013-09-19T19:21:31.343Z</time>
      </trkpt>
      <trkpt lat="48.86193" lon="2.28646">
        <ele>120.6</ele>
        <time>2013-09-19T19:21:35.312Z</time>
      </trkpt>
      <trkpt lat="48.86193" lon="2.28648">
        <ele>120</ele>
        <time>2013-09-19T19:21:36.322Z</time>
      </trkpt>
      <trkpt lat="48.86192" lon="2.28662">
        <ele>119.9</ele>
        <time>2013-09-19T19:21:40.318Z</time>
      </trkpt>
      <trkpt lat="48.86193" lon="2.28665">
        <ele>119.8</ele>
        <time>2013-09-19T19:21:41.317Z</time>
      </trkpt>
      <trkpt lat="48.86195" lon="2.28676">
        <ele>118.1</ele>
        <time>2013-09-19T19:21:44.312Z</time>
      </trkpt>
      <trkpt lat="48.86195" lon="2.28679">
        <ele>117.5</ele>
        <time>2013-09-19T19:21:45.328Z</time>
      </trkpt>
      <trkpt lat="48.86202" lon="2.28685">
        <ele>117.4</ele>
        <time>2013-09-19T19:21:49.312Z</time>
      </trkpt>
      <trkpt lat="48.86204" lon="2.28686">
        <ele>115.4</ele>
        <time>2013-09-19T19:21:50.318Z</time>
      </trkpt>
      <trkpt lat="48.8621" lon="2.28693">
        <ele>111.4</ele>
        <time>2013-09-19T19:21:54.305Z</time>
      </trkpt>
      <trkpt lat="48.86212" lon="2.28695">
        <ele>110</ele>
        <time>2013-09-19T19:21:55.317Z</time>
      </trkpt>
      <trkpt lat="48.86217" lon="2.28704">
        <ele>110.2</ele>
        <time>2013-09-19T19:21:57.386Z</time>
      </trkpt>
      <trkpt lat="48.86221" lon="2.28709">
        <ele>110.4</ele>
        <time>2013-09-19T19:21:58.311Z</time>
      </trkpt>
      <trkpt lat="48.86224" lon="2.28715">
        <ele>111.1</ele>
        <time>2013-09-19T19:21:59.313Z</time>
      </trkpt>
      <trkpt lat="48.86228" lon="2.2872">
        <ele>112.2</ele>
        <time>2013-09-19T19:22:00.368Z</time>
      </trkpt>
      <trkpt lat="48.86232" lon="2.28726">
        <ele>112.4</ele>
        <time>2013-09-19T19:22:01.359Z</time>
      </trkpt>
      <trkpt lat="48.86235" lon="2.28731">
        <ele>112.9</ele>
        <time>2013-09-19T19:22:02.307Z</time>
      </trkpt>
      <trkpt lat="48.86241" lon="2.28741">
        <ele>113.2</ele>
        <time>2013-09-19T19:22:04.314Z</time>
      </trkpt>
      <trkpt lat="48.86243" lon="2.28745">
        <ele>113</ele>
        <time>2013-09-19T19:22:05.313Z</time>
      </trkpt>
      <trkpt lat="48.86248" lon="2.28753">
        <ele>114</ele>
        <time>2013-09-19T19:22:07.335Z</time>
      </trkpt>
      <trkpt lat="48.86249" lon="2.28757">
        <ele>113.4</ele>
        <time>2013-09-19T19:22:08.324Z</time>
      </trkpt>
      <trkpt lat="48.86254" lon="2.28768">
        <ele>115.1</ele>
        <time>2013-09-19T19:22:11.354Z</time>
      </trkpt>
      <trkpt lat="48.86256" lon="2.28771">
        <ele>115</ele>
        <time>2013-09-19T19:22:12.336Z</time>
      </trkpt>
      <trkpt lat="48.86261" lon="2.28779">
        <ele>119.9</ele>
        <time>2013-09-19T19:22:15.313Z</time>
      </trkpt>
      <trkpt lat="48.86263" lon="2.28781">
        <ele>120.1</ele>
        <time>2013-09-19T19:22:16.314Z</time>
      </trkpt>
      <trkpt lat="48.8626" lon="2.28782">
        <ele>118.8</ele>
        <time>2013-09-19T19:22:22.499Z</time>
      </trkpt>
      <trkpt lat="48.8626" lon="2.28783">
        <ele>118.9</ele>
        <time>2013-09-19T19:22:23.305Z</time>
      </trkpt>
      <trkpt lat="48.86261" lon="2.28783">
        <ele>119.2</ele>
        <time>2013-09-19T19:22:24.305Z</time>
      </trkpt>
      <trkpt lat="48.86261" lon="2.28783">
        <ele>119</ele>
        <time>2013-09-19T19:22:25.317Z</time>
      </trkpt>
      <trkpt lat="48.86261" lon="2.28783">
        <ele>119</ele>
        <time>2013-09-19T19:22:26.313Z</time>
      </trkpt>
      <trkpt lat="48.86261" lon="2.28784">
        <ele>119.7</ele>
        <time>2013-09-19T19:22:30.311Z</time>
      </trkpt>
      <trkpt lat="48.86261" lon="2.28784">
        <ele>120.6</ele>
        <time>2013-09-19T19:22:31.322Z</time>
      </trkpt>
      <trkpt lat="48.86254" lon="2.28793">
        <ele>121</ele>
        <time>2013-09-19T19:22:41.307Z</time>
      </trkpt>
      <trkpt lat="48.86254" lon="2.28795">
        <ele>121.6</ele>
        <time>2013-09-19T19:22:42.483Z</time>
      </trkpt>
      <trkpt lat="48.86246" lon="2.28801">
        <ele>125.7</ele>
        <time>2013-09-19T19:22:48.341Z</time>
      </trkpt>
      <trkpt lat="48.86244" lon="2.28804">
        <ele>125.3</ele>
        <time>2013-09-19T19:22:49.469Z</time>
      </trkpt>
      <trkpt lat="48.86239" lon="2.28812">
        <ele>125.4</ele>
        <time>2013-09-19T19:22:52.390Z</time>
      </trkpt>
      <trkpt lat="48.86238" lon="2.28814">
        <ele>125.7</ele>
        <time>2013-09-19T19:22:53.435Z</time>
      </trkpt>
      <trkpt lat="48.86232" lon="2.28824">
        <ele>129.2</ele>
        <time>2013-09-19T19:22:57.325Z</time>
      </trkpt>
      <trkpt lat="48.8623" lon="2.28827">
        <ele>129.1</ele>
        <time>2013-09-19T19:22:58.501Z</time>
      </trkpt>
      <trkpt lat="48.86224" lon="2.28833">
        <ele>129.1</ele>
        <time>2013-09-19T19:23:02.390Z</time>
      </trkpt>
      <trkpt lat="48.86222" lon="2.28835">
        <ele>129.7</ele>
        <time>2013-09-19T19:23:03.501Z</time>
      </trkpt>
      <trkpt lat="48.86225" lon="2.28832">
        <ele>121.2</ele>
        <time>2013-09-19T19:23:15.326Z</time>
      </trkpt>
      <trkpt lat="48.86225" lon="2.28832">
        <ele>121</ele>
        <time>2013-09-19T19:23:16.465Z</time>
      </trkpt>
      <trkpt lat="48.86224" lon="2.28831">
        <ele>120</ele>
        <time>2013-09-19T19:24:20.311Z</time>
      </trkpt>
      <trkpt lat="48.86224" lon="2.28831">
        <ele>119.9</ele>
        <time>2013-09-19T19:24:21.324Z</time>
      </trkpt>
      <trkpt lat="48.86223" lon="2.2883">
        <ele>119.6</ele>
        <time>2013-09-19T19:24:25.319Z</time>
      </trkpt>
      <trkpt lat="48.86223" lon="2.2883">
        <ele>119.9</ele>
        <time>2013-09-19T19:24:26.315Z</time>
      </trkpt>
      <trkpt lat="48.86223" lon="2.28829">
        <ele>120</ele>
        <time>2013-09-19T19:26:37.326Z</time>
      </trkpt>
      <trkpt lat="48.86223" lon="2.28828">
        <ele>120.1</ele>
        <time>2013-09-19T19:26:38.325Z</time>
      </trkpt>
      <trkpt lat="48.86228" lon="2.2882">
        <ele>121.3</ele>
        <time>2013-09-19T19:26:43.340Z</time>
      </trkpt>
      <trkpt lat="48.86229" lon="2.28817">
        <ele>121.6</ele>
        <time>2013-09-19T19:26:44.332Z</time>
      </trkpt>
      <trkpt lat="48.86234" lon="2.28808">
        <ele>121.7</ele>
        <time>2013-09-19T19:26:48.331Z</time>
      </trkpt>
      <trkpt lat="48.86235" lon="2.28806">
        <ele>121.9</ele>
        <time>2013-09-19T19:26:49.327Z</time>
      </trkpt>
      <trkpt lat="48.86241" lon="2.28799">
        <ele>121.5</ele>
        <time>2013-09-19T19:26:53.331Z</time>
      </trkpt>
      <trkpt lat="48.86242" lon="2.28797">
        <ele>120.4</ele>
        <time>2013-09-19T19:26:54.330Z</time>
      </trkpt>
      <trkpt lat="48.8625" lon="2.28797">
        <ele>115.5</ele>
        <time>2013-09-19T19:26:58.331Z</time>
      </trkpt>
      <trkpt lat="48.86252" lon="2.28797">
        <ele>115.4</ele>
        <time>2013-09-19T19:26:59.323Z</time>
      </trkpt>
      <trkpt lat="48.8626" lon="2.288">
        <ele>109</ele>
        <time>2013-09-19T19:27:07.127Z</time>
      </trkpt>
      <trkpt lat="48.8626" lon="2.288">
        <ele>109.1</ele>
        <time>2013-09-19T19:27:07.332Z</time>
      </trkpt>
      <trkpt lat="48.86268" lon="2.28807">
        <ele>108.6</ele>
        <time>2013-09-19T19:27:15.337Z</time>
      </trkpt>
      <trkpt lat="48.86269" lon="2.28806">
        <ele>108.8</ele>
        <time>2013-09-19T19:27:16.347Z</time>
      </trkpt>
      <trkpt lat="48.86278" lon="2.28805">
        <ele>109.5</ele>
        <time>2013-09-19T19:27:21.333Z</time>
      </trkpt>
      <trkpt lat="48.8628" lon="2.28805">
        <ele>109.1</ele>
        <time>2013-09-19T19:27:22.333Z</time>
      </trkpt>
      <trkpt lat="48.86287" lon="2.2881">
        <ele>110.4</ele>
        <time>2013-09-19T19:27:26.338Z</time>
      </trkpt>
      <trkpt lat="48.86289" lon="2.28813">
        <ele>108.9</ele>
        <time>2013-09-19T19:27:27.349Z</time>
      </trkpt>
      <trkpt lat="48.86293" lon="2.28822">
        <ele>109.2</ele>
        <time>2013-09-19T19:27:30.333Z</time>
      </trkpt>
      <trkpt lat="48.86295" lon="2.28825">
        <ele>109.5</ele>
        <time>2013-09-19T19:27:31.345Z</time>
      </trkpt>
      <trkpt lat="48.86301" lon="2.28833">
        <ele>111.8</ele>
        <time>2013-09-19T19:27:35.334Z</time>
      </trkpt>
      <trkpt lat="48.86303" lon="2.28834">
        <ele>112.2</ele>
        <time>2013-09-19T19:27:36.334Z</time>
      </trkpt>
      <trkpt lat="48.8631" lon="2.28833">
        <ele>112.3</ele>
        <time>2013-09-19T19:27:39.363Z</time>
      </trkpt>
      <trkpt lat="48.86313" lon="2.28834">
        <ele>112.2</ele>
        <time>2013-09-19T19:27:40.342Z</time>
      </trkpt>
      <trkpt lat="48.8632" lon="2.28841">
        <ele>113.3</ele>
        <time>2013-09-19T19:27:43.327Z</time>
      </trkpt>
      <trkpt lat="48.86322" lon="2.28846">
        <ele>113.5</ele>
        <time>2013-09-19T19:27:44.331Z</time>
      </trkpt>
      <trkpt lat="48.86325" lon="2.28858">
        <ele>112.6</ele>
        <time>2013-09-19T19:27:46.920Z</time>
      </trkpt>
      <trkpt lat="48.86327" lon="2.28863">
        <ele>113.3</ele>
        <time>2013-09-19T19:27:47.328Z</time>
      </trkpt>
      <trkpt lat="48.86331" lon="2.28874">
        <ele>113</ele>
        <time>2013-09-19T19:27:49.327Z</time>
      </trkpt>
      <trkpt lat="48.86333" lon="2.28881">
        <ele>112.7</ele>
        <time>2013-09-19T19:27:50.327Z</time>
      </trkpt>
      <trkpt lat="48.86335" lon="2.28888">
        <ele>111.5</ele>
        <time>2013-09-19T19:27:51.952Z</time>
      </trkpt>
      <trkpt lat="48.86337" lon="2.28895">
        <ele>110.6</ele>
        <time>2013-09-19T19:27:52.331Z</time>
      </trkpt>
      <trkpt lat="48.86339" lon="2.28902">
        <ele>110.4</ele>
        <time>2013-09-19T19:27:53.405Z</time>
      </trkpt>
      <trkpt lat="48.86342" lon="2.28912">
        <ele>111.3</ele>
        <time>2013-09-19T19:27:54.387Z</time>
      </trkpt>
      <trkpt lat="48.86345" lon="2.28921">
        <ele>111.5</ele>
        <time>2013-09-19T19:27:55.375Z</time>
      </trkpt>
      <trkpt lat="48.86348" lon="2.2893">
        <ele>111.2</ele>
        <time>2013-09-19T19:27:56.344Z</time>
      </trkpt>
      <trkpt lat="48.8635" lon="2.28937">
        <ele>111.1</ele>
        <time>2013-09-19T19:27:57.335Z</time>
      </trkpt>
      <trkpt lat="48.86351" lon="2.28944">
        <ele>111</ele>
        <time>2013-09-19T19:27:58.328Z</time>
      </trkpt>
      <trkpt lat="48.86354" lon="2.28949">
        <ele>111.3</ele>
        <time>2013-09-19T19:27:59.330Z</time>
      </trkpt>
      <trkpt lat="48.86358" lon="2.28955">
        <ele>111.7</ele>
        <time>2013-09-19T19:28:00.335Z</time>
      </trkpt>
      <trkpt lat="48.86362" lon="2.28962">
        <ele>111.5</ele>
        <time>2013-09-19T19:28:02.019Z</time>
      </trkpt>
      <trkpt lat="48.86366" lon="2.28969">
        <ele>111.7</ele>
        <time>2013-09-19T19:28:02.331Z</time>
      </trkpt>
      <trkpt lat="48.8637" lon="2.28977">
        <ele>110.4</ele>
        <time>2013-09-19T19:28:03.465Z</time>
      </trkpt>
      <trkpt lat="48.86373" lon="2.28983">
        <ele>110.9</ele>
        <time>2013-09-19T19:28:04.332Z</time>
      </trkpt>
      <trkpt lat="48.86376" lon="2.28991">
        <ele>110.4</ele>
        <time>2013-09-19T19:28:05.342Z</time>
      </trkpt>
      <trkpt lat="48.86377" lon="2.28999">
        <ele>110.1</ele>
        <time>2013-09-19T19:28:06.396Z</time>
      </trkpt>
      <trkpt lat="48.8638" lon="2.2901">
        <ele>110.5</ele>
        <time>2013-09-19T19:28:08.388Z</time>
      </trkpt>
      <trkpt lat="48.86383" lon="2.29016">
        <ele>109.7</ele>
        <time>2013-09-19T19:28:09.570Z</time>
      </trkpt>
      <trkpt lat="48.86385" lon="2.29028">
        <ele>108.7</ele>
        <time>2013-09-19T19:28:12.073Z</time>
      </trkpt>
      <trkpt lat="48.86386" lon="2.29033">
        <ele>109</ele>
        <time>2013-09-19T19:28:12.528Z</time>
      </trkpt>
      <trkpt lat="48.86388" lon="2.29043">
        <ele>110</ele>
        <time>2013-09-19T19:28:14.557Z</time>
      </trkpt>
      <trkpt lat="48.86389" lon="2.29047">
        <ele>109.7</ele>
        <time>2013-09-19T19:28:15.381Z</time>
      </trkpt>
      <trkpt lat="48.86392" lon="2.29057">
        <ele>108.3</ele>
        <time>2013-09-19T19:28:17.403Z</time>
      </trkpt>
      <trkpt lat="48.86394" lon="2.29062">
        <ele>109.2</ele>
        <time>2013-09-19T19:28:18.539Z</time>
      </trkpt>
      <trkpt lat="48.86398" lon="2.29073">
        <ele>112.5</ele>
        <time>2013-09-19T19:28:20.350Z</time>
      </trkpt>
      <trkpt lat="48.864" lon="2.29079">
        <ele>112.6</ele>
        <time>2013-09-19T19:28:21.342Z</time>
      </trkpt>
      <trkpt lat="48.86401" lon="2.29088">
        <ele>111.8</ele>
        <time>2013-09-19T19:28:22.329Z</time>
      </trkpt>
      <trkpt lat="48.86402" lon="2.29097">
        <ele>111.3</ele>
        <time>2013-09-19T19:28:23.341Z</time>
      </trkpt>
      <trkpt lat="48.86404" lon="2.29106">
        <ele>112.5</ele>
        <time>2013-09-19T19:28:24.336Z</time>
      </trkpt>
      <trkpt lat="48.86406" lon="2.29113">
        <ele>112.6</ele>
        <time>2013-09-19T19:28:25.352Z</time>
      </trkpt>
      <trkpt lat="48.86409" lon="2.2912">
        <ele>112.9</ele>
        <time>2013-09-19T19:28:27.143Z</time>
      </trkpt>
      <trkpt lat="48.86411" lon="2.29127">
        <ele>112</ele>
        <time>2013-09-19T19:28:27.394Z</time>
      </trkpt>
      <trkpt lat="48.86414" lon="2.29134">
        <ele>112.4</ele>
        <time>2013-09-19T19:28:28.391Z</time>
      </trkpt>
      <trkpt lat="48.86417" lon="2.2914">
        <ele>112.4</ele>
        <time>2013-09-19T19:28:29.398Z</time>
      </trkpt>
      <trkpt lat="48.86421" lon="2.29147">
        <ele>112.2</ele>
        <time>2013-09-19T19:28:30.407Z</time>
      </trkpt>
      <trkpt lat="48.86424" lon="2.29154">
        <ele>112.7</ele>
        <time>2013-09-19T19:28:31.367Z</time>
      </trkpt>
      <trkpt lat="48.86428" lon="2.29161">
        <ele>113.3</ele>
        <time>2013-09-19T19:28:32.404Z</time>
      </trkpt>
      <trkpt lat="48.86432" lon="2.29169">
        <ele>113.4</ele>
        <time>2013-09-19T19:28:33.345Z</time>
      </trkpt>
      <trkpt lat="48.86435" lon="2.29177">
        <ele>112.4</ele>
        <time>2013-09-19T19:28:34.364Z</time>
      </trkpt>
      <trkpt lat="48.86437" lon="2.29186">
        <ele>112.6</ele>
        <time>2013-09-19T19:28:35.474Z</time>
      </trkpt>
      <trkpt lat="48.8644" lon="2.29194">
        <ele>112.4</ele>
        <time>2013-09-19T19:28:36.910Z</time>
      </trkpt>
      <trkpt lat="48.86443" lon="2.29201">
        <ele>111.8</ele>
        <time>2013-09-19T19:28:37.440Z</time>
      </trkpt>
      <trkpt lat="48.86446" lon="2.29208">
        <ele>112.6</ele>
        <time>2013-09-19T19:28:38.420Z</time>
      </trkpt>
      <trkpt lat="48.8645" lon="2.29217">
        <ele>112.6</ele>
        <time>2013-09-19T19:28:39.382Z</time>
      </trkpt>
      <trkpt lat="48.86454" lon="2.29225">
        <ele>111.8</ele>
        <time>2013-09-19T19:28:40.344Z</time>
      </trkpt>
      <trkpt lat="48.86456" lon="2.29233">
        <ele>111.3</ele>
        <time>2013-09-19T19:28:41.331Z</time>
      </trkpt>
      <trkpt lat="48.86457" lon="2.29242">
        <ele>111.9</ele>
        <time>2013-09-19T19:28:42.392Z</time>
      </trkpt>
      <trkpt lat="48.86457" lon="2.29251">
        <ele>111.8</ele>
        <time>2013-09-19T19:28:43.336Z</time>
      </trkpt>
      <trkpt lat="48.86455" lon="2.29262">
        <ele>107.9</ele>
        <time>2013-09-19T19:28:44.346Z</time>
      </trkpt>
      <trkpt lat="48.86451" lon="2.29272">
        <ele>106.2</ele>
        <time>2013-09-19T19:28:45.334Z</time>
      </trkpt>
      <trkpt lat="48.86449" lon="2.29281">
        <ele>105.7</ele>
        <time>2013-09-19T19:28:46.971Z</time>
      </trkpt>
      <trkpt lat="48.86449" lon="2.29287">
        <ele>105.5</ele>
        <time>2013-09-19T19:28:47.369Z</time>
      </trkpt>
      <trkpt lat="48.8645" lon="2.29299">
        <ele>106.9</ele>
        <time>2013-09-19T19:28:49.369Z</time>
      </trkpt>
      <trkpt lat="48.86452" lon="2.29305">
        <ele>106.8</ele>
        <time>2013-09-19T19:28:50.349Z</time>
      </trkpt>
      <trkpt lat="48.86455" lon="2.29313">
        <ele>107.3</ele>
        <time>2013-09-19T19:28:52.474Z</time>
      </trkpt>
      <trkpt lat="48.86456" lon="2.29317">
        <ele>107.2</ele>
        <time>2013-09-19T19:28:53.570Z</time>
      </trkpt>
      <trkpt lat="48.86459" lon="2.2933">
        <ele>106.2</ele>
        <time>2013-09-19T19:28:57.239Z</time>
      </trkpt>
      <trkpt lat="48.8646" lon="2.29332">
        <ele>106.9</ele>
        <time>2013-09-19T19:28:57.576Z</time>
      </trkpt>
      <trkpt lat="48.86464" lon="2.29342">
        <ele>107.6</ele>
        <time>2013-09-19T19:29:00.554Z</time>
      </trkpt>
      <trkpt lat="48.86465" lon="2.29345">
        <ele>108</ele>
        <time>2013-09-19T19:29:01.450Z</time>
      </trkpt>
      <trkpt lat="48.86467" lon="2.29356">
        <ele>109</ele>
        <time>2013-09-19T19:29:03.337Z</time>
      </trkpt>
      <trkpt lat="48.86468" lon="2.29362">
        <ele>109</ele>
        <time>2013-09-19T19:29:04.433Z</time>
      </trkpt>
      <trkpt lat="48.8647" lon="2.29374">
        <ele>108.7</ele>
        <time>2013-09-19T19:29:06.345Z</time>
      </trkpt>
      <trkpt lat="48.86472" lon="2.29381">
        <ele>108.5</ele>
        <time>2013-09-19T19:29:07.608Z</time>
      </trkpt>
      <trkpt lat="48.86475" lon="2.29392">
        <ele>107.4</ele>
        <time>2013-09-19T19:29:09.434Z</time>
      </trkpt>
      <trkpt lat="48.86477" lon="2.29398">
        <ele>107.3</ele>
        <time>2013-09-19T19:29:10.349Z</time>
      </trkpt>
      <trkpt lat="48.8648" lon="2.29409">
        <ele>109</ele>
        <time>2013-09-19T19:29:12.476Z</time>
      </trkpt>
      <trkpt lat="48.86482" lon="2.29415">
        <ele>109.3</ele>
        <time>2013-09-19T19:29:13.382Z</time>
      </trkpt>
      <trkpt lat="48.86484" lon="2.29427">
        <ele>108.6</ele>
        <time>2013-09-19T19:29:15.380Z</time>
      </trkpt>
      <trkpt lat="48.86486" lon="2.29432">
        <ele>108.3</ele>
        <time>2013-09-19T19:29:16.345Z</time>
      </trkpt>
      <trkpt lat="48.86486" lon="2.29441">
        <ele>109.6</ele>
        <time>2013-09-19T19:29:17.499Z</time>
      </trkpt>
      <trkpt lat="48.86486" lon="2.29449">
        <ele>108.9</ele>
        <time>2013-09-19T19:29:18.470Z</time>
      </trkpt>
      <trkpt lat="48.86487" lon="2.29456">
        <ele>109.2</ele>
        <time>2013-09-19T19:29:19.577Z</time>
      </trkpt>
      <trkpt lat="48.86487" lon="2.29463">
        <ele>110.6</ele>
        <time>2013-09-19T19:29:20.414Z</time>
      </trkpt>
      <trkpt lat="48.86488" lon="2.29471">
        <ele>111.9</ele>
        <time>2013-09-19T19:29:21.570Z</time>
      </trkpt>
      <trkpt lat="48.86488" lon="2.29479">
        <ele>110.7</ele>
        <time>2013-09-19T19:29:22.353Z</time>
      </trkpt>
      <trkpt lat="48.86489" lon="2.29488">
        <ele>112</ele>
        <time>2013-09-19T19:29:23.380Z</time>
      </trkpt>
      <trkpt lat="48.86491" lon="2.29496">
        <ele>114.1</ele>
        <time>2013-09-19T19:29:24.386Z</time>
      </trkpt>
      <trkpt lat="48.86493" lon="2.29505">
        <ele>116</ele>
        <time>2013-09-19T19:29:25.516Z</time>
      </trkpt>
      <trkpt lat="48.86495" lon="2.29514">
        <ele>118</ele>
        <time>2013-09-19T19:29:26.552Z</time>
      </trkpt>
      <trkpt lat="48.86497" lon="2.29521">
        <ele>118.3</ele>
        <time>2013-09-19T19:29:27.577Z</time>
      </trkpt>
      <trkpt lat="48.86499" lon="2.29531">
        <ele>119.7</ele>
        <time>2013-09-19T19:29:28.569Z</time>
      </trkpt>
      <trkpt lat="48.865" lon="2.29539">
        <ele>120.2</ele>
        <time>2013-09-19T19:29:29.380Z</time>
      </trkpt>
      <trkpt lat="48.86501" lon="2.2955">
        <ele>117.9</ele>
        <time>2013-09-19T19:29:30.556Z</time>
      </trkpt>
      <trkpt lat="48.865" lon="2.2956">
        <ele>116.2</ele>
        <time>2013-09-19T19:29:31.342Z</time>
      </trkpt>
      <trkpt lat="48.865" lon="2.29572">
        <ele>115.7</ele>
        <time>2013-09-19T19:29:32.615Z</time>
      </trkpt>
      <trkpt lat="48.86499" lon="2.2958">
        <ele>115.2</ele>
        <time>2013-09-19T19:29:33.347Z</time>
      </trkpt>
      <trkpt lat="48.86499" lon="2.29591">
        <ele>114.7</ele>
        <time>2013-09-19T19:29:34.363Z</time>
      </trkpt>
      <trkpt lat="48.86499" lon="2.29601">
        <ele>114.3</ele>
        <time>2013-09-19T19:29:35.339Z</time>
      </trkpt>
      <trkpt lat="48.86498" lon="2.2961">
        <ele>113.5</ele>
        <time>2013-09-19T19:29:36.353Z</time>
      </trkpt>
      <trkpt lat="48.86498" lon="2.29618">
        <ele>111.3</ele>
        <time>2013-09-19T19:29:37.340Z</time>
      </trkpt>
      <trkpt lat="48.86498" lon="2.29627">
        <ele>110.3</ele>
        <time>2013-09-19T19:29:38.346Z</time>
      </trkpt>
      <trkpt lat="48.86498" lon="2.29637">
        <ele>110</ele>
        <time>2013-09-19T19:29:39.355Z</time>
      </trkpt>
      <trkpt lat="48.86499" lon="2.29646">
        <ele>109.3</ele>
        <time>2013-09-19T19:29:40.351Z</time>
      </trkpt>
      <trkpt lat="48.865" lon="2.29656">
        <ele>109.2</ele>
        <time>2013-09-19T19:29:41.350Z</time>
      </trkpt>
      <trkpt lat="48.86501" lon="2.29666">
        <ele>108.2</ele>
        <time>2013-09-19T19:29:42.351Z</time>
      </trkpt>
      <trkpt lat="48.86501" lon="2.29676">
        <ele>108.6</ele>
        <time>2013-09-19T19:29:43.342Z</time>
      </trkpt>
      <trkpt lat="48.86501" lon="2.29686">
        <ele>109.1</ele>
        <time>2013-09-19T19:29:44.351Z</time>
      </trkpt>
      <trkpt lat="48.86501" lon="2.29696">
        <ele>109.8</ele>
        <time>2013-09-19T19:29:45.339Z</time>
      </trkpt>
      <trkpt lat="48.865" lon="2.29706">
        <ele>109</ele>
        <time>2013-09-19T19:29:46.376Z</time>
      </trkpt>
      <trkpt lat="48.86501" lon="2.29715">
        <ele>109.3</ele>
        <time>2013-09-19T19:29:47.341Z</time>
      </trkpt>
      <trkpt lat="48.86501" lon="2.29724">
        <ele>109.8</ele>
        <time>2013-09-19T19:29:48.349Z</time>
      </trkpt>
      <trkpt lat="48.86502" lon="2.29734">
        <ele>109.9</ele>
        <time>2013-09-19T19:29:49.351Z</time>
      </trkpt>
      <trkpt lat="48.86503" lon="2.29743">
        <ele>110.1</ele>
        <time>2013-09-19T19:29:50.468Z</time>
      </trkpt>
      <trkpt lat="48.86504" lon="2.29752">
        <ele>109.7</ele>
        <time>2013-09-19T19:29:51.517Z</time>
      </trkpt>
      <trkpt lat="48.86505" lon="2.29761">
        <ele>109.8</ele>
        <time>2013-09-19T19:29:52.415Z</time>
      </trkpt>
      <trkpt lat="48.86506" lon="2.2977">
        <ele>109.9</ele>
        <time>2013-09-19T19:29:53.343Z</time>
      </trkpt>
      <trkpt lat="48.86506" lon="2.29781">
        <ele>109.4</ele>
        <time>2013-09-19T19:29:54.356Z</time>
      </trkpt>
      <trkpt lat="48.86508" lon="2.29792">
        <ele>110.4</ele>
        <time>2013-09-19T19:29:55.566Z</time>
      </trkpt>
      <trkpt lat="48.86509" lon="2.29801">
        <ele>110.3</ele>
        <time>2013-09-19T19:29:56.356Z</time>
      </trkpt>
      <trkpt lat="48.8651" lon="2.29812">
        <ele>111.4</ele>
        <time>2013-09-19T19:29:57.501Z</time>
      </trkpt>
      <trkpt lat="48.86512" lon="2.29822">
        <ele>111.5</ele>
        <time>2013-09-19T19:29:58.536Z</time>
      </trkpt>
      <trkpt lat="48.86513" lon="2.2983">
        <ele>112.3</ele>
        <time>2013-09-19T19:29:59.444Z</time>
      </trkpt>
      <trkpt lat="48.86514" lon="2.2984">
        <ele>112.5</ele>
        <time>2013-09-19T19:30:00.582Z</time>
      </trkpt>
      <trkpt lat="48.86515" lon="2.29848">
        <ele>113.5</ele>
        <time>2013-09-19T19:30:02.138Z</time>
      </trkpt>
      <trkpt lat="48.86516" lon="2.29858">
        <ele>113.7</ele>
        <time>2013-09-19T19:30:02.589Z</time>
      </trkpt>
      <trkpt lat="48.86517" lon="2.29865">
        <ele>113.7</ele>
        <time>2013-09-19T19:30:03.368Z</time>
      </trkpt>
      <trkpt lat="48.86518" lon="2.29875">
        <ele>111.8</ele>
        <time>2013-09-19T19:30:04.351Z</time>
      </trkpt>
      <trkpt lat="48.86519" lon="2.29886">
        <ele>109.9</ele>
        <time>2013-09-19T19:30:05.349Z</time>
      </trkpt>
      <trkpt lat="48.86519" lon="2.29897">
        <ele>108.9</ele>
        <time>2013-09-19T19:30:06.356Z</time>
      </trkpt>
      <trkpt lat="48.86518" lon="2.29908">
        <ele>108.5</ele>
        <time>2013-09-19T19:30:07.596Z</time>
      </trkpt>
      <trkpt lat="48.86518" lon="2.29914">
        <ele>108.5</ele>
        <time>2013-09-19T19:30:08.432Z</time>
      </trkpt>
      <trkpt lat="48.86519" lon="2.29925">
        <ele>106.2</ele>
        <time>2013-09-19T19:30:10.364Z</time>
      </trkpt>
      <trkpt lat="48.86518" lon="2.29931">
        <ele>106.7</ele>
        <time>2013-09-19T19:30:11.364Z</time>
      </trkpt>
      <trkpt lat="48.86517" lon="2.29945">
        <ele>107.1</ele>
        <time>2013-09-19T19:30:13.359Z</time>
      </trkpt>
      <trkpt lat="48.86517" lon="2.2995">
        <ele>107.7</ele>
        <time>2013-09-19T19:30:14.352Z</time>
      </trkpt>
      <trkpt lat="48.86518" lon="2.29964">
        <ele>105.8</ele>
        <time>2013-09-19T19:30:17.405Z</time>
      </trkpt>
      <trkpt lat="48.86517" lon="2.29967">
        <ele>104.6</ele>
        <time>2013-09-19T19:30:18.361Z</time>
      </trkpt>
      <trkpt lat="48.86516" lon="2.29977">
        <ele>103.1</ele>
        <time>2013-09-19T19:30:30.352Z</time>
      </trkpt>
      <trkpt lat="48.86516" lon="2.29977">
        <ele>103.1</ele>
        <time>2013-09-19T19:30:31.398Z</time>
      </trkpt>
      <trkpt lat="48.86515" lon="2.29977">
        <ele>102.5</ele>
        <time>2013-09-19T19:30:34.362Z</time>
      </trkpt>
      <trkpt lat="48.86515" lon="2.29977">
        <ele>102.4</ele>
        <time>2013-09-19T19:30:35.356Z</time>
      </trkpt>
      <trkpt lat="48.86514" lon="2.29976">
        <ele>102.6</ele>
        <time>2013-09-19T19:30:39.352Z</time>
      </trkpt>
      <trkpt lat="48.86514" lon="2.29976">
        <ele>102.7</ele>
        <time>2013-09-19T19:30:40.362Z</time>
      </trkpt>
      <trkpt lat="48.86513" lon="2.29976">
        <ele>103.1</ele>
        <time>2013-09-19T19:31:06.540Z</time>
      </trkpt>
      <trkpt lat="48.86513" lon="2.29977">
        <ele>103.3</ele>
        <time>2013-09-19T19:31:07.363Z</time>
      </trkpt>
      <trkpt lat="48.8651" lon="2.29987">
        <ele>103.2</ele>
        <time>2013-09-19T19:31:11.507Z</time>
      </trkpt>
      <trkpt lat="48.86509" lon="2.2999">
        <ele>102.6</ele>
        <time>2013-09-19T19:31:12.480Z</time>
      </trkpt>
      <trkpt lat="48.86509" lon="2.30003">
        <ele>107.1</ele>
        <time>2013-09-19T19:31:16.363Z</time>
      </trkpt>
      <trkpt lat="48.86508" lon="2.30007">
        <ele>107.8</ele>
        <time>2013-09-19T19:31:17.568Z</time>
      </trkpt>
      <trkpt lat="48.86506" lon="2.30016">
        <ele>109</ele>
        <time>2013-09-19T19:31:19.474Z</time>
      </trkpt>
      <trkpt lat="48.86505" lon="2.30021">
        <ele>108.8</ele>
        <time>2013-09-19T19:31:20.507Z</time>
      </trkpt>
      <trkpt lat="48.86504" lon="2.30031">
        <ele>108.6</ele>
        <time>2013-09-19T19:31:22.596Z</time>
      </trkpt>
      <trkpt lat="48.86503" lon="2.30036">
        <ele>108.5</ele>
        <time>2013-09-19T19:31:23.373Z</time>
      </trkpt>
      <trkpt lat="48.86503" lon="2.30046">
        <ele>108.2</ele>
        <time>2013-09-19T19:31:25.363Z</time>
      </trkpt>
      <trkpt lat="48.86503" lon="2.30051">
        <ele>107.4</ele>
        <time>2013-09-19T19:31:26.509Z</time>
      </trkpt>
      <trkpt lat="48.86501" lon="2.30061">
        <ele>105.8</ele>
        <time>2013-09-19T19:31:28.453Z</time>
      </trkpt>
      <trkpt lat="48.86499" lon="2.30065">
        <ele>102.5</ele>
        <time>2013-09-19T19:31:29.586Z</time>
      </trkpt>
      <trkpt lat="48.86493" lon="2.30072">
        <ele>94.2</ele>
        <time>2013-09-19T19:31:31.532Z</time>
      </trkpt>
      <trkpt lat="48.86491" lon="2.30074">
        <ele>92.8</ele>
        <time>2013-09-19T19:31:32.372Z</time>
      </trkpt>
      <trkpt lat="48.86484" lon="2.30076">
        <ele>93.9</ele>
        <time>2013-09-19T19:31:35.477Z</time>
      </trkpt>
      <trkpt lat="48.86481" lon="2.30076">
        <ele>93.6</ele>
        <time>2013-09-19T19:31:36.559Z</time>
      </trkpt>
      <trkpt lat="48.86478" lon="2.30074">
        <ele>93.2</ele>
        <time>2013-09-19T19:31:44.443Z</time>
      </trkpt>
      <trkpt lat="48.86478" lon="2.30074">
        <ele>92.7</ele>
        <time>2013-09-19T19:31:45.549Z</time>
      </trkpt>
      <trkpt lat="48.86479" lon="2.30076">
        <ele>92.4</ele>
        <time>2013-09-19T19:32:57.422Z</time>
      </trkpt>
      <trkpt lat="48.86479" lon="2.30077">
        <ele>92</ele>
        <time>2013-09-19T19:32:58.355Z</time>
      </trkpt>
      <trkpt lat="48.86487" lon="2.30084">
        <ele>90.4</ele>
        <time>2013-09-19T19:33:02.460Z</time>
      </trkpt>
      <trkpt lat="48.86488" lon="2.30086">
        <ele>89.4</ele>
        <time>2013-09-19T19:33:03.383Z</time>
      </trkpt>
      <trkpt lat="48.86492" lon="2.30098">
        <ele>89.5</ele>
        <time>2013-09-19T19:33:07.401Z</time>
      </trkpt>
      <trkpt lat="48.86492" lon="2.30101">
        <ele>89.8</ele>
        <time>2013-09-19T19:33:08.364Z</time>
      </trkpt>
      <trkpt lat="48.86494" lon="2.30112">
        <ele>85.9</ele>
        <time>2013-09-19T19:33:12.556Z</time>
      </trkpt>
      <trkpt lat="48.86493" lon="2.30114">
        <ele>86</ele>
        <time>2013-09-19T19:33:13.426Z</time>
      </trkpt>
      <trkpt lat="48.86494" lon="2.30127">
        <ele>86.5</ele>
        <time>2013-09-19T19:33:27.616Z</time>
      </trkpt>
      <trkpt lat="48.86494" lon="2.30128">
        <ele>86.4</ele>
        <time>2013-09-19T19:33:28.468Z</time>
      </trkpt>
      <trkpt lat="48.86493" lon="2.30139">
        <ele>88.5</ele>
        <time>2013-09-19T19:33:33.378Z</time>
      </trkpt>
      <trkpt lat="48.86493" lon="2.30142">
        <ele>89.7</ele>
        <time>2013-09-19T19:33:34.534Z</time>
      </trkpt>
      <trkpt lat="48.86493" lon="2.30152">
        <ele>89.5</ele>
        <time>2013-09-19T19:33:37.365Z</time>
      </trkpt>
      <trkpt lat="48.86492" lon="2.30156">
        <ele>89.2</ele>
        <time>2013-09-19T19:33:38.365Z</time>
      </trkpt>
      <trkpt lat="48.86493" lon="2.30165">
        <ele>84.7</ele>
        <time>2013-09-19T19:33:40.370Z</time>
      </trkpt>
      <trkpt lat="48.86494" lon="2.3017">
        <ele>86.2</ele>
        <time>2013-09-19T19:33:41.373Z</time>
      </trkpt>
      <trkpt lat="48.86495" lon="2.3018">
        <ele>86.7</ele>
        <time>2013-09-19T19:33:43.366Z</time>
      </trkpt>
      <trkpt lat="48.86496" lon="2.30184">
        <ele>86.4</ele>
        <time>2013-09-19T19:33:44.374Z</time>
      </trkpt>
      <trkpt lat="48.86496" lon="2.30197">
        <ele>82.6</ele>
        <time>2013-09-19T19:33:50.413Z</time>
      </trkpt>
      <trkpt lat="48.86495" lon="2.30198">
        <ele>82.5</ele>
        <time>2013-09-19T19:33:51.494Z</time>
      </trkpt>
      <trkpt lat="48.86492" lon="2.302">
        <ele>82</ele>
        <time>2013-09-19T19:33:59.372Z</time>
      </trkpt>
      <trkpt lat="48.86492" lon="2.302">
        <ele>82</ele>
        <time>2013-09-19T19:34:00.374Z</time>
      </trkpt>
      <trkpt lat="48.86493" lon="2.302">
        <ele>80.7</ele>
        <time>2013-09-19T19:34:35.370Z</time>
      </trkpt>
      <trkpt lat="48.86494" lon="2.302">
        <ele>80.6</ele>
        <time>2013-09-19T19:34:36.370Z</time>
      </trkpt>
      <trkpt lat="48.865" lon="2.30209">
        <ele>81.5</ele>
        <time>2013-09-19T19:34:41.925Z</time>
      </trkpt>
      <trkpt lat="48.86502" lon="2.30212">
        <ele>80.5</ele>
        <time>2013-09-19T19:34:42.372Z</time>
      </trkpt>
      <trkpt lat="48.86505" lon="2.3022">
        <ele>81.5</ele>
        <time>2013-09-19T19:34:44.378Z</time>
      </trkpt>
      <trkpt lat="48.86507" lon="2.30225">
        <ele>82.5</ele>
        <time>2013-09-19T19:34:45.375Z</time>
      </trkpt>
      <trkpt lat="48.86511" lon="2.30236">
        <ele>82.5</ele>
        <time>2013-09-19T19:34:47.533Z</time>
      </trkpt>
      <trkpt lat="48.86513" lon="2.30241">
        <ele>81.9</ele>
        <time>2013-09-19T19:34:48.516Z</time>
      </trkpt>
      <trkpt lat="48.86516" lon="2.30247">
        <ele>80.4</ele>
        <time>2013-09-19T19:34:49.435Z</time>
      </trkpt>
      <trkpt lat="48.86519" lon="2.30254">
        <ele>80.7</ele>
        <time>2013-09-19T19:34:50.587Z</time>
      </trkpt>
      <trkpt lat="48.86522" lon="2.30259">
        <ele>80.4</ele>
        <time>2013-09-19T19:34:51.982Z</time>
      </trkpt>
      <trkpt lat="48.86526" lon="2.30266">
        <ele>80.4</ele>
        <time>2013-09-19T19:34:52.628Z</time>
      </trkpt>
      <trkpt lat="48.86529" lon="2.30271">
        <ele>80.9</ele>
        <time>2013-09-19T19:34:53.393Z</time>
      </trkpt>
      <trkpt lat="48.86533" lon="2.30277">
        <ele>81.1</ele>
        <time>2013-09-19T19:34:54.526Z</time>
      </trkpt>
      <trkpt lat="48.86536" lon="2.30282">
        <ele>81</ele>
        <time>2013-09-19T19:34:55.580Z</time>
      </trkpt>
      <trkpt lat="48.86539" lon="2.30287">
        <ele>82.2</ele>
        <time>2013-09-19T19:34:56.477Z</time>
      </trkpt>
      <trkpt lat="48.86544" lon="2.30297">
        <ele>83.3</ele>
        <time>2013-09-19T19:34:58.419Z</time>
      </trkpt>
      <trkpt lat="48.86547" lon="2.30302">
        <ele>82</ele>
        <time>2013-09-19T19:34:59.581Z</time>
      </trkpt>
      <trkpt lat="48.86552" lon="2.30312">
        <ele>79.9</ele>
        <time>2013-09-19T19:35:02.055Z</time>
      </trkpt>
      <trkpt lat="48.86555" lon="2.30316">
        <ele>80.6</ele>
        <time>2013-09-19T19:35:02.435Z</time>
      </trkpt>
      <trkpt lat="48.86561" lon="2.30326">
        <ele>81.6</ele>
        <time>2013-09-19T19:35:04.557Z</time>
      </trkpt>
      <trkpt lat="48.86563" lon="2.30331">
        <ele>82.8</ele>
        <time>2013-09-19T19:35:05.443Z</time>
      </trkpt>
      <trkpt lat="48.86569" lon="2.3034">
        <ele>84.6</ele>
        <time>2013-09-19T19:35:07.454Z</time>
      </trkpt>
      <trkpt lat="48.86572" lon="2.30346">
        <ele>85.2</ele>
        <time>2013-09-19T19:35:08.607Z</time>
      </trkpt>
      <trkpt lat="48.86575" lon="2.3035">
        <ele>85.9</ele>
        <time>2013-09-19T19:35:09.383Z</time>
      </trkpt>
      <trkpt lat="48.86578" lon="2.30356">
        <ele>86.2</ele>
        <time>2013-09-19T19:35:10.535Z</time>
      </trkpt>
      <trkpt lat="48.86582" lon="2.30361">
        <ele>87.3</ele>
        <time>2013-09-19T19:35:12.097Z</time>
      </trkpt>
      <trkpt lat="48.86585" lon="2.30366">
        <ele>87.8</ele>
        <time>2013-09-19T19:35:12.463Z</time>
      </trkpt>
      <trkpt lat="48.86591" lon="2.30375">
        <ele>91.3</ele>
        <time>2013-09-19T19:35:14.421Z</time>
      </trkpt>
      <trkpt lat="48.86594" lon="2.3038">
        <ele>93.3</ele>
        <time>2013-09-19T19:35:15.581Z</time>
      </trkpt>
      <trkpt lat="48.86599" lon="2.30391">
        <ele>95.5</ele>
        <time>2013-09-19T19:35:17.564Z</time>
      </trkpt>
      <trkpt lat="48.86601" lon="2.30396">
        <ele>96.3</ele>
        <time>2013-09-19T19:35:18.383Z</time>
      </trkpt>
      <trkpt lat="48.86603" lon="2.30404">
        <ele>96.7</ele>
        <time>2013-09-19T19:35:19.373Z</time>
      </trkpt>
      <trkpt lat="48.86605" lon="2.30411">
        <ele>96.5</ele>
        <time>2013-09-19T19:35:20.382Z</time>
      </trkpt>
      <trkpt lat="48.86608" lon="2.30418">
        <ele>97.2</ele>
        <time>2013-09-19T19:35:21.429Z</time>
      </trkpt>
      <trkpt lat="48.86611" lon="2.30425">
        <ele>98.4</ele>
        <time>2013-09-19T19:35:22.463Z</time>
      </trkpt>
      <trkpt lat="48.86614" lon="2.30431">
        <ele>98.3</ele>
        <time>2013-09-19T19:35:23.392Z</time>
      </trkpt>
      <trkpt lat="48.86617" lon="2.30437">
        <ele>98.3</ele>
        <time>2013-09-19T19:35:24.370Z</time>
      </trkpt>
      <trkpt lat="48.86621" lon="2.30444">
        <ele>97.8</ele>
        <time>2013-09-19T19:35:25.374Z</time>
      </trkpt>
      <trkpt lat="48.86625" lon="2.30451">
        <ele>98.1</ele>
        <time>2013-09-19T19:35:26.376Z</time>
      </trkpt>
      <trkpt lat="48.86629" lon="2.30458">
        <ele>98.3</ele>
        <time>2013-09-19T19:35:27.420Z</time>
      </trkpt>
      <trkpt lat="48.86631" lon="2.30463">
        <ele>99.7</ele>
        <time>2013-09-19T19:35:28.392Z</time>
      </trkpt>
      <trkpt lat="48.86636" lon="2.30473">
        <ele>100.6</ele>
        <time>2013-09-19T19:35:30.374Z</time>
      </trkpt>
      <trkpt lat="48.8664" lon="2.30478">
        <ele>100.7</ele>
        <time>2013-09-19T19:35:31.427Z</time>
      </trkpt>
      <trkpt lat="48.86646" lon="2.30486">
        <ele>101.6</ele>
        <time>2013-09-19T19:35:33.642Z</time>
      </trkpt>
      <trkpt lat="48.86648" lon="2.30492">
        <ele>102.7</ele>
        <time>2013-09-19T19:35:34.383Z</time>
      </trkpt>
      <trkpt lat="48.86653" lon="2.30504">
        <ele>103.4</ele>
        <time>2013-09-19T19:35:37.021Z</time>
      </trkpt>
      <trkpt lat="48.86654" lon="2.3051">
        <ele>103.3</ele>
        <time>2013-09-19T19:35:37.384Z</time>
      </trkpt>
      <trkpt lat="48.86656" lon="2.30517">
        <ele>102.7</ele>
        <time>2013-09-19T19:35:38.384Z</time>
      </trkpt>
      <trkpt lat="48.86658" lon="2.30525">
        <ele>101.9</ele>
        <time>2013-09-19T19:35:39.384Z</time>
      </trkpt>
      <trkpt lat="48.8666" lon="2.30532">
        <ele>102.4</ele>
        <time>2013-09-19T19:35:40.384Z</time>
      </trkpt>
      <trkpt lat="48.86662" lon="2.30539">
        <ele>102.3</ele>
        <time>2013-09-19T19:35:41.391Z</time>
      </trkpt>
      <trkpt lat="48.86668" lon="2.30544">
        <ele>105.5</ele>
        <time>2013-09-19T19:35:42.391Z</time>
      </trkpt>
      <trkpt lat="48.86673" lon="2.3055">
        <ele>106.5</ele>
        <time>2013-09-19T19:35:43.544Z</time>
      </trkpt>
      <trkpt lat="48.86679" lon="2.30558">
        <ele>107</ele>
        <time>2013-09-19T19:35:45.375Z</time>
      </trkpt>
      <trkpt lat="48.86682" lon="2.30562">
        <ele>108.2</ele>
        <time>2013-09-19T19:35:46.394Z</time>
      </trkpt>
      <trkpt lat="48.86687" lon="2.3057">
        <ele>107.4</ele>
        <time>2013-09-19T19:35:48.382Z</time>
      </trkpt>
      <trkpt lat="48.8669" lon="2.30576">
        <ele>103.8</ele>
        <time>2013-09-19T19:35:49.438Z</time>
      </trkpt>
      <trkpt lat="48.86694" lon="2.30582">
        <ele>100.3</ele>
        <time>2013-09-19T19:35:50.434Z</time>
      </trkpt>
      <trkpt lat="48.86697" lon="2.30587">
        <ele>99.8</ele>
        <time>2013-09-19T19:35:51.375Z</time>
      </trkpt>
      <trkpt lat="48.86703" lon="2.30597">
        <ele>97.5</ele>
        <time>2013-09-19T19:35:53.386Z</time>
      </trkpt>
      <trkpt lat="48.86706" lon="2.30601">
        <ele>96.2</ele>
        <time>2013-09-19T19:35:54.390Z</time>
      </trkpt>
      <trkpt lat="48.8671" lon="2.30611">
        <ele>96.3</ele>
        <time>2013-09-19T19:35:57.393Z</time>
      </trkpt>
      <trkpt lat="48.86711" lon="2.30613">
        <ele>96.9</ele>
        <time>2013-09-19T19:35:58.392Z</time>
      </trkpt>
      <trkpt lat="48.86706" lon="2.30623">
        <ele>94.9</ele>
        <time>2013-09-19T19:36:03.546Z</time>
      </trkpt>
      <trkpt lat="48.86704" lon="2.30624">
        <ele>93.9</ele>
        <time>2013-09-19T19:36:04.511Z</time>
      </trkpt>
      <trkpt lat="48.86704" lon="2.30635">
        <ele>95.9</ele>
        <time>2013-09-19T19:36:13.585Z</time>
      </trkpt>
      <trkpt lat="48.86705" lon="2.30638">
        <ele>96.9</ele>
        <time>2013-09-19T19:36:14.439Z</time>
      </trkpt>
      <trkpt lat="48.86709" lon="2.30649">
        <ele>96.5</ele>
        <time>2013-09-19T19:36:17.625Z</time>
      </trkpt>
      <trkpt lat="48.86711" lon="2.30653">
        <ele>96.4</ele>
        <time>2013-09-19T19:36:18.386Z</time>
      </trkpt>
      <trkpt lat="48.86715" lon="2.30661">
        <ele>96</ele>
        <time>2013-09-19T19:36:20.386Z</time>
      </trkpt>
      <trkpt lat="48.86718" lon="2.30665">
        <ele>93.7</ele>
        <time>2013-09-19T19:36:21.379Z</time>
      </trkpt>
      <trkpt lat="48.86722" lon="2.30672">
        <ele>90.2</ele>
        <time>2013-09-19T19:36:23.399Z</time>
      </trkpt>
      <trkpt lat="48.86724" lon="2.30676">
        <ele>88.9</ele>
        <time>2013-09-19T19:36:24.396Z</time>
      </trkpt>
      <trkpt lat="48.86729" lon="2.30684">
        <ele>87.1</ele>
        <time>2013-09-19T19:36:26.389Z</time>
      </trkpt>
      <trkpt lat="48.86732" lon="2.30688">
        <ele>87.5</ele>
        <time>2013-09-19T19:36:27.405Z</time>
      </trkpt>
      <trkpt lat="48.86737" lon="2.30695">
        <ele>85.9</ele>
        <time>2013-09-19T19:36:29.380Z</time>
      </trkpt>
      <trkpt lat="48.8674" lon="2.307">
        <ele>86.5</ele>
        <time>2013-09-19T19:36:30.380Z</time>
      </trkpt>
      <trkpt lat="48.86745" lon="2.30708">
        <ele>87.7</ele>
        <time>2013-09-19T19:36:32.539Z</time>
      </trkpt>
      <trkpt lat="48.86747" lon="2.30712">
        <ele>87</ele>
        <time>2013-09-19T19:36:33.380Z</time>
      </trkpt>
      <trkpt lat="48.86752" lon="2.3072">
        <ele>86.1</ele>
        <time>2013-09-19T19:36:35.396Z</time>
      </trkpt>
      <trkpt lat="48.86754" lon="2.30724">
        <ele>86.7</ele>
        <time>2013-09-19T19:36:36.376Z</time>
      </trkpt>
      <trkpt lat="48.86758" lon="2.30733">
        <ele>86.4</ele>
        <time>2013-09-19T19:36:38.381Z</time>
      </trkpt>
      <trkpt lat="48.8676" lon="2.30738">
        <ele>86.4</ele>
        <time>2013-09-19T19:36:39.387Z</time>
      </trkpt>
      <trkpt lat="48.86766" lon="2.30747">
        <ele>85.5</ele>
        <time>2013-09-19T19:36:42.400Z</time>
      </trkpt>
      <trkpt lat="48.86767" lon="2.30748">
        <ele>85.2</ele>
        <time>2013-09-19T19:36:43.385Z</time>
      </trkpt>
      <trkpt lat="48.86773" lon="2.30753">
        <ele>87.1</ele>
        <time>2013-09-19T19:36:47.388Z</time>
      </trkpt>
      <trkpt lat="48.86775" lon="2.30755">
        <ele>87.5</ele>
        <time>2013-09-19T19:36:48.415Z</time>
      </trkpt>
      <trkpt lat="48.86781" lon="2.30761">
        <ele>83.8</ele>
        <time>2013-09-19T19:36:52.013Z</time>
      </trkpt>
      <trkpt lat="48.86783" lon="2.30764">
        <ele>83.4</ele>
        <time>2013-09-19T19:36:52.381Z</time>
      </trkpt>
      <trkpt lat="48.86786" lon="2.30772">
        <ele>82.6</ele>
        <time>2013-09-19T19:36:54.390Z</time>
      </trkpt>
      <trkpt lat="48.86788" lon="2.30777">
        <ele>82.7</ele>
        <time>2013-09-19T19:36:55.389Z</time>
      </trkpt>
      <trkpt lat="48.86792" lon="2.30786">
        <ele>83.6</ele>
        <time>2013-09-19T19:36:57.390Z</time>
      </trkpt>
      <trkpt lat="48.86795" lon="2.30791">
        <ele>82.4</ele>
        <time>2013-09-19T19:36:58.389Z</time>
      </trkpt>
      <trkpt lat="48.868" lon="2.30801">
        <ele>82</ele>
        <time>2013-09-19T19:37:00.389Z</time>
      </trkpt>
      <trkpt lat="48.86803" lon="2.30806">
        <ele>81.1</ele>
        <time>2013-09-19T19:37:01.382Z</time>
      </trkpt>
      <trkpt lat="48.86806" lon="2.30811">
        <ele>80.9</ele>
        <time>2013-09-19T19:37:02.415Z</time>
      </trkpt>
      <trkpt lat="48.86809" lon="2.30816">
        <ele>80.5</ele>
        <time>2013-09-19T19:37:03.549Z</time>
      </trkpt>
      <trkpt lat="48.86815" lon="2.30825">
        <ele>79.7</ele>
        <time>2013-09-19T19:37:05.549Z</time>
      </trkpt>
      <trkpt lat="48.86818" lon="2.30829">
        <ele>79.7</ele>
        <time>2013-09-19T19:37:06.559Z</time>
      </trkpt>
      <trkpt lat="48.86823" lon="2.30836">
        <ele>81.9</ele>
        <time>2013-09-19T19:37:08.607Z</time>
      </trkpt>
      <trkpt lat="48.86826" lon="2.30839">
        <ele>85.5</ele>
        <time>2013-09-19T19:37:09.400Z</time>
      </trkpt>
      <trkpt lat="48.86832" lon="2.30847">
        <ele>85.7</ele>
        <time>2013-09-19T19:37:12.170Z</time>
      </trkpt>
      <trkpt lat="48.86835" lon="2.30851">
        <ele>86.6</ele>
        <time>2013-09-19T19:37:12.575Z</time>
      </trkpt>
      <trkpt lat="48.86841" lon="2.30858">
        <ele>86.8</ele>
        <time>2013-09-19T19:37:14.472Z</time>
      </trkpt>
      <trkpt lat="48.86844" lon="2.30861">
        <ele>87.1</ele>
        <time>2013-09-19T19:37:15.558Z</time>
      </trkpt>
      <trkpt lat="48.86851" lon="2.3087">
        <ele>86.1</ele>
        <time>2013-09-19T19:37:18.399Z</time>
      </trkpt>
      <trkpt lat="48.86853" lon="2.30873">
        <ele>85.9</ele>
        <time>2013-09-19T19:37:19.561Z</time>
      </trkpt>
      <trkpt lat="48.86855" lon="2.30884">
        <ele>88</ele>
        <time>2013-09-19T19:37:22.653Z</time>
      </trkpt>
      <trkpt lat="48.86855" lon="2.30887">
        <ele>88.4</ele>
        <time>2013-09-19T19:37:23.405Z</time>
      </trkpt>
      <trkpt lat="48.86858" lon="2.30899">
        <ele>88.5</ele>
        <time>2013-09-19T19:37:27.245Z</time>
      </trkpt>
      <trkpt lat="48.86859" lon="2.30903">
        <ele>90.3</ele>
        <time>2013-09-19T19:37:27.444Z</time>
      </trkpt>
      <trkpt lat="48.86862" lon="2.30911">
        <ele>92.2</ele>
        <time>2013-09-19T19:37:29.389Z</time>
      </trkpt>
      <trkpt lat="48.86863" lon="2.30915">
        <ele>93.8</ele>
        <time>2013-09-19T19:37:30.391Z</time>
      </trkpt>
      <trkpt lat="48.86867" lon="2.30925">
        <ele>96.4</ele>
        <time>2013-09-19T19:37:33.566Z</time>
      </trkpt>
      <trkpt lat="48.86868" lon="2.30928">
        <ele>96.7</ele>
        <time>2013-09-19T19:37:34.401Z</time>
      </trkpt>
      <trkpt lat="48.8687" lon="2.3094">
        <ele>96.1</ele>
        <time>2013-09-19T19:37:38.615Z</time>
      </trkpt>
      <trkpt lat="48.8687" lon="2.30943">
        <ele>97</ele>
        <time>2013-09-19T19:37:39.432Z</time>
      </trkpt>
      <trkpt lat="48.86868" lon="2.30955">
        <ele>94.6</ele>
        <time>2013-09-19T19:37:42.403Z</time>
      </trkpt>
      <trkpt lat="48.86866" lon="2.30959">
        <ele>94.7</ele>
        <time>2013-09-19T19:37:43.392Z</time>
      </trkpt>
      <trkpt lat="48.86863" lon="2.30971">
        <ele>94.3</ele>
        <time>2013-09-19T19:37:46.455Z</time>
      </trkpt>
      <trkpt lat="48.86861" lon="2.30976">
        <ele>94.5</ele>
        <time>2013-09-19T19:37:47.394Z</time>
      </trkpt>
      <trkpt lat="48.86858" lon="2.30986">
        <ele>92.3</ele>
        <time>2013-09-19T19:37:49.384Z</time>
      </trkpt>
      <trkpt lat="48.86856" lon="2.30991">
        <ele>92.5</ele>
        <time>2013-09-19T19:37:50.394Z</time>
      </trkpt>
      <trkpt lat="48.86849" lon="2.30995">
        <ele>87.6</ele>
        <time>2013-09-19T19:37:55.385Z</time>
      </trkpt>
      <trkpt lat="48.86848" lon="2.30995">
        <ele>87.9</ele>
        <time>2013-09-19T19:37:56.537Z</time>
      </trkpt>
      <trkpt lat="48.86847" lon="2.30994">
        <ele>87.8</ele>
        <time>2013-09-19T19:37:59.412Z</time>
      </trkpt>
      <trkpt lat="48.86847" lon="2.30994">
        <ele>88.1</ele>
        <time>2013-09-19T19:38:00.393Z</time>
      </trkpt>
      <trkpt lat="48.86846" lon="2.30995">
        <ele>87.7</ele>
        <time>2013-09-19T19:38:52.047Z</time>
      </trkpt>
      <trkpt lat="48.86846" lon="2.30996">
        <ele>87.5</ele>
        <time>2013-09-19T19:38:52.557Z</time>
      </trkpt>
      <trkpt lat="48.86846" lon="2.31009">
        <ele>87.9</ele>
        <time>2013-09-19T19:38:57.589Z</time>
      </trkpt>
      <trkpt lat="48.86847" lon="2.31011">
        <ele>85.7</ele>
        <time>2013-09-19T19:38:58.399Z</time>
      </trkpt>
      <trkpt lat="48.86855" lon="2.31011">
        <ele>82.9</ele>
        <time>2013-09-19T19:39:03.493Z</time>
      </trkpt>
      <trkpt lat="48.86858" lon="2.3101">
        <ele>83.2</ele>
        <time>2013-09-19T19:39:04.607Z</time>
      </trkpt>
      <trkpt lat="48.86866" lon="2.31012">
        <ele>82.6</ele>
        <time>2013-09-19T19:39:08.586Z</time>
      </trkpt>
      <trkpt lat="48.86868" lon="2.31012">
        <ele>82.9</ele>
        <time>2013-09-19T19:39:09.497Z</time>
      </trkpt>
      <trkpt lat="48.86875" lon="2.31021">
        <ele>83.3</ele>
        <time>2013-09-19T19:39:13.415Z</time>
      </trkpt>
      <trkpt lat="48.86875" lon="2.31025">
        <ele>85.2</ele>
        <time>2013-09-19T19:39:14.397Z</time>
      </trkpt>
      <trkpt lat="48.86875" lon="2.31037">
        <ele>84</ele>
        <time>2013-09-19T19:39:18.393Z</time>
      </trkpt>
      <trkpt lat="48.86874" lon="2.31039">
        <ele>84</ele>
        <time>2013-09-19T19:39:19.399Z</time>
      </trkpt>
      <trkpt lat="48.86875" lon="2.31041">
        <ele>83</ele>
        <time>2013-09-19T19:39:23.393Z</time>
      </trkpt>
      <trkpt lat="48.86875" lon="2.31041">
        <ele>82.5</ele>
        <time>2013-09-19T19:39:24.592Z</time>
      </trkpt>
      <trkpt lat="48.86875" lon="2.31041">
        <ele>81.2</ele>
        <time>2013-09-19T19:39:48.410Z</time>
      </trkpt>
      <trkpt lat="48.86875" lon="2.31042">
        <ele>80.7</ele>
        <time>2013-09-19T19:39:49.581Z</time>
      </trkpt>
      <trkpt lat="48.86884" lon="2.31045">
        <ele>81.3</ele>
        <time>2013-09-19T19:39:54.473Z</time>
      </trkpt>
      <trkpt lat="48.86886" lon="2.31045">
        <ele>80.6</ele>
        <time>2013-09-19T19:39:55.595Z</time>
      </trkpt>
      <trkpt lat="48.86893" lon="2.31048">
        <ele>78.5</ele>
        <time>2013-09-19T19:39:59.571Z</time>
      </trkpt>
      <trkpt lat="48.86895" lon="2.31048">
        <ele>78.2</ele>
        <time>2013-09-19T19:40:00.560Z</time>
      </trkpt>
      <trkpt lat="48.86902" lon="2.31047">
        <ele>77.9</ele>
        <time>2013-09-19T19:40:04.617Z</time>
      </trkpt>
      <trkpt lat="48.86904" lon="2.31047">
        <ele>78</ele>
        <time>2013-09-19T19:40:05.411Z</time>
      </trkpt>
      <trkpt lat="48.86912" lon="2.3105">
        <ele>76.1</ele>
        <time>2013-09-19T19:40:09.615Z</time>
      </trkpt>
      <trkpt lat="48.86914" lon="2.31052">
        <ele>76.2</ele>
        <time>2013-09-19T19:40:10.475Z</time>
      </trkpt>
      <trkpt lat="48.86918" lon="2.3106">
        <ele>72.4</ele>
        <time>2013-09-19T19:40:12.420Z</time>
      </trkpt>
      <trkpt lat="48.8692" lon="2.31065">
        <ele>72.3</ele>
        <time>2013-09-19T19:40:13.412Z</time>
      </trkpt>
      <trkpt lat="48.86923" lon="2.31075">
        <ele>70.8</ele>
        <time>2013-09-19T19:40:15.405Z</time>
      </trkpt>
      <trkpt lat="48.86924" lon="2.3108">
        <ele>72.9</ele>
        <time>2013-09-19T19:40:16.398Z</time>
      </trkpt>
      <trkpt lat="48.86926" lon="2.31089">
        <ele>73.6</ele>
        <time>2013-09-19T19:40:18.414Z</time>
      </trkpt>
      <trkpt lat="48.86927" lon="2.31093">
        <ele>74.1</ele>
        <time>2013-09-19T19:40:19.398Z</time>
      </trkpt>
      <trkpt lat="48.86933" lon="2.31104">
        <ele>75.8</ele>
        <time>2013-09-19T19:40:22.421Z</time>
      </trkpt>
      <trkpt lat="48.86935" lon="2.31107">
        <ele>79.1</ele>
        <time>2013-09-19T19:40:23.397Z</time>
      </trkpt>
      <trkpt lat="48.86941" lon="2.31115">
        <ele>84.1</ele>
        <time>2013-09-19T19:40:26.398Z</time>
      </trkpt>
      <trkpt lat="48.86942" lon="2.31117">
        <ele>85.4</ele>
        <time>2013-09-19T19:40:27.463Z</time>
      </trkpt>
      <trkpt lat="48.86948" lon="2.31127">
        <ele>87.2</ele>
        <time>2013-09-19T19:40:30.399Z</time>
      </trkpt>
      <trkpt lat="48.8695" lon="2.31132">
        <ele>86.2</ele>
        <time>2013-09-19T19:40:31.404Z</time>
      </trkpt>
      <trkpt lat="48.86954" lon="2.31137">
        <ele>86.7</ele>
        <time>2013-09-19T19:40:32.466Z</time>
      </trkpt>
      <trkpt lat="48.86958" lon="2.31143">
        <ele>86.9</ele>
        <time>2013-09-19T19:40:33.430Z</time>
      </trkpt>
      <trkpt lat="48.86962" lon="2.3115">
        <ele>85.9</ele>
        <time>2013-09-19T19:40:34.422Z</time>
      </trkpt>
      <trkpt lat="48.86967" lon="2.31156">
        <ele>83.5</ele>
        <time>2013-09-19T19:40:35.422Z</time>
      </trkpt>
      <trkpt lat="48.86972" lon="2.31162">
        <ele>83.3</ele>
        <time>2013-09-19T19:40:36.942Z</time>
      </trkpt>
      <trkpt lat="48.86977" lon="2.31169">
        <ele>82.1</ele>
        <time>2013-09-19T19:40:37.560Z</time>
      </trkpt>
      <trkpt lat="48.86981" lon="2.31174">
        <ele>81.7</ele>
        <time>2013-09-19T19:40:38.532Z</time>
      </trkpt>
      <trkpt lat="48.86985" lon="2.31179">
        <ele>80</ele>
        <time>2013-09-19T19:40:39.493Z</time>
      </trkpt>
      <trkpt lat="48.86992" lon="2.31186">
        <ele>80.1</ele>
        <time>2013-09-19T19:40:41.978Z</time>
      </trkpt>
      <trkpt lat="48.86994" lon="2.31189">
        <ele>79.9</ele>
        <time>2013-09-19T19:40:42.431Z</time>
      </trkpt>
      <trkpt lat="48.87" lon="2.31198">
        <ele>85.4</ele>
        <time>2013-09-19T19:40:52.008Z</time>
      </trkpt>
      <trkpt lat="48.87001" lon="2.31199">
        <ele>86.4</ele>
        <time>2013-09-19T19:40:52.431Z</time>
      </trkpt>
      <trkpt lat="48.87006" lon="2.3121">
        <ele>86.9</ele>
        <time>2013-09-19T19:40:56.466Z</time>
      </trkpt>
      <trkpt lat="48.87007" lon="2.31214">
        <ele>86.1</ele>
        <time>2013-09-19T19:40:57.422Z</time>
      </trkpt>
      <trkpt lat="48.87012" lon="2.31222">
        <ele>86.2</ele>
        <time>2013-09-19T19:40:59.429Z</time>
      </trkpt>
      <trkpt lat="48.87014" lon="2.31225">
        <ele>84.4</ele>
        <time>2013-09-19T19:41:00.415Z</time>
      </trkpt>
      <trkpt lat="48.8702" lon="2.31233">
        <ele>83.8</ele>
        <time>2013-09-19T19:41:02.538Z</time>
      </trkpt>
      <trkpt lat="48.87023" lon="2.31237">
        <ele>84.2</ele>
        <time>2013-09-19T19:41:03.496Z</time>
      </trkpt>
      <trkpt lat="48.87026" lon="2.31242">
        <ele>84.6</ele>
        <time>2013-09-19T19:41:04.520Z</time>
      </trkpt>
      <trkpt lat="48.87029" lon="2.31247">
        <ele>85</ele>
        <time>2013-09-19T19:41:05.449Z</time>
      </trkpt>
      <trkpt lat="48.87033" lon="2.31252">
        <ele>85.3</ele>
        <time>2013-09-19T19:41:06.409Z</time>
      </trkpt>
      <trkpt lat="48.87037" lon="2.31257">
        <ele>86.2</ele>
        <time>2013-09-19T19:41:07.417Z</time>
      </trkpt>
      <trkpt lat="48.8704" lon="2.31263">
        <ele>86.5</ele>
        <time>2013-09-19T19:41:08.429Z</time>
      </trkpt>
      <trkpt lat="48.87044" lon="2.31268">
        <ele>88.1</ele>
        <time>2013-09-19T19:41:09.528Z</time>
      </trkpt>
      <trkpt lat="48.87049" lon="2.31277">
        <ele>88.6</ele>
        <time>2013-09-19T19:41:11.499Z</time>
      </trkpt>
      <trkpt lat="48.87052" lon="2.31281">
        <ele>89.7</ele>
        <time>2013-09-19T19:41:12.473Z</time>
      </trkpt>
      <trkpt lat="48.87058" lon="2.31289">
        <ele>91.2</ele>
        <time>2013-09-19T19:41:14.410Z</time>
      </trkpt>
      <trkpt lat="48.8706" lon="2.31293">
        <ele>92.5</ele>
        <time>2013-09-19T19:41:15.412Z</time>
      </trkpt>
      <trkpt lat="48.87065" lon="2.31301">
        <ele>95.4</ele>
        <time>2013-09-19T19:41:17.513Z</time>
      </trkpt>
      <trkpt lat="48.87067" lon="2.31305">
        <ele>96.1</ele>
        <time>2013-09-19T19:41:18.530Z</time>
      </trkpt>
      <trkpt lat="48.87072" lon="2.31311">
        <ele>98.3</ele>
        <time>2013-09-19T19:41:20.464Z</time>
      </trkpt>
      <trkpt lat="48.87075" lon="2.31314">
        <ele>98.6</ele>
        <time>2013-09-19T19:41:21.427Z</time>
      </trkpt>
      <trkpt lat="48.87081" lon="2.31321">
        <ele>100.5</ele>
        <time>2013-09-19T19:41:23.424Z</time>
      </trkpt>
      <trkpt lat="48.87084" lon="2.31324">
        <ele>101.1</ele>
        <time>2013-09-19T19:41:24.427Z</time>
      </trkpt>
      <trkpt lat="48.87091" lon="2.31332">
        <ele>98.3</ele>
        <time>2013-09-19T19:41:27.206Z</time>
      </trkpt>
      <trkpt lat="48.87095" lon="2.31336">
        <ele>98.1</ele>
        <time>2013-09-19T19:41:27.531Z</time>
      </trkpt>
      <trkpt lat="48.871" lon="2.31339">
        <ele>96.7</ele>
        <time>2013-09-19T19:41:28.469Z</time>
      </trkpt>
      <trkpt lat="48.87104" lon="2.31343">
        <ele>96.7</ele>
        <time>2013-09-19T19:41:29.426Z</time>
      </trkpt>
      <trkpt lat="48.87108" lon="2.31346">
        <ele>97.7</ele>
        <time>2013-09-19T19:41:30.404Z</time>
      </trkpt>
      <trkpt lat="48.87113" lon="2.3135">
        <ele>98</ele>
        <time>2013-09-19T19:41:31.420Z</time>
      </trkpt>
      <trkpt lat="48.87117" lon="2.31355">
        <ele>99.1</ele>
        <time>2013-09-19T19:41:32.514Z</time>
      </trkpt>
      <trkpt lat="48.87121" lon="2.31359">
        <ele>98.6</ele>
        <time>2013-09-19T19:41:33.540Z</time>
      </trkpt>
      <trkpt lat="48.87125" lon="2.31363">
        <ele>99.5</ele>
        <time>2013-09-19T19:41:34.530Z</time>
      </trkpt>
      <trkpt lat="48.87129" lon="2.31367">
        <ele>100.2</ele>
        <time>2013-09-19T19:41:35.503Z</time>
      </trkpt>
      <trkpt lat="48.87134" lon="2.31373">
        <ele>100.4</ele>
        <time>2013-09-19T19:41:36.948Z</time>
      </trkpt>
      <trkpt lat="48.87138" lon="2.31378">
        <ele>100.8</ele>
        <time>2013-09-19T19:41:37.435Z</time>
      </trkpt>
      <trkpt lat="48.87143" lon="2.31382">
        <ele>101.8</ele>
        <time>2013-09-19T19:41:38.420Z</time>
      </trkpt>
      <trkpt lat="48.87147" lon="2.31386">
        <ele>102.8</ele>
        <time>2013-09-19T19:41:39.420Z</time>
      </trkpt>
      <trkpt lat="48.87152" lon="2.31389">
        <ele>103.2</ele>
        <time>2013-09-19T19:41:40.416Z</time>
      </trkpt>
      <trkpt lat="48.87156" lon="2.31393">
        <ele>103.4</ele>
        <time>2013-09-19T19:41:41.419Z</time>
      </trkpt>
      <trkpt lat="48.87159" lon="2.31397">
        <ele>105.8</ele>
        <time>2013-09-19T19:41:42.419Z</time>
      </trkpt>
      <trkpt lat="48.87165" lon="2.314">
        <ele>103.3</ele>
        <time>2013-09-19T19:41:43.509Z</time>
      </trkpt>
      <trkpt lat="48.87172" lon="2.31401">
        <ele>107.7</ele>
        <time>2013-09-19T19:41:45.427Z</time>
      </trkpt>
      <trkpt lat="48.87176" lon="2.31401">
        <ele>107.6</ele>
        <time>2013-09-19T19:41:46.412Z</time>
      </trkpt>
      <trkpt lat="48.87183" lon="2.31403">
        <ele>107.6</ele>
        <time>2013-09-19T19:41:48.415Z</time>
      </trkpt>
      <trkpt lat="48.87187" lon="2.31406">
        <ele>108.3</ele>
        <time>2013-09-19T19:41:49.494Z</time>
      </trkpt>
      <trkpt lat="48.87195" lon="2.31411">
        <ele>109</ele>
        <time>2013-09-19T19:41:51.490Z</time>
      </trkpt>
      <trkpt lat="48.87199" lon="2.31414">
        <ele>109.1</ele>
        <time>2013-09-19T19:41:52.477Z</time>
      </trkpt>
      <trkpt lat="48.87206" lon="2.31419">
        <ele>109</ele>
        <time>2013-09-19T19:41:54.437Z</time>
      </trkpt>
      <trkpt lat="48.8721" lon="2.31422">
        <ele>109.7</ele>
        <time>2013-09-19T19:41:55.430Z</time>
      </trkpt>
      <trkpt lat="48.87215" lon="2.31425">
        <ele>109.5</ele>
        <time>2013-09-19T19:41:56.413Z</time>
      </trkpt>
      <trkpt lat="48.87219" lon="2.3143">
        <ele>110.1</ele>
        <time>2013-09-19T19:41:57.453Z</time>
      </trkpt>
      <trkpt lat="48.87223" lon="2.31435">
        <ele>110.6</ele>
        <time>2013-09-19T19:41:58.405Z</time>
      </trkpt>
      <trkpt lat="48.87227" lon="2.31439">
        <ele>110.9</ele>
        <time>2013-09-19T19:41:59.413Z</time>
      </trkpt>
      <trkpt lat="48.87234" lon="2.31447">
        <ele>111.8</ele>
        <time>2013-09-19T19:42:01.401Z</time>
      </trkpt>
      <trkpt lat="48.87238" lon="2.3145">
        <ele>111.5</ele>
        <time>2013-09-19T19:42:02.443Z</time>
      </trkpt>
      <trkpt lat="48.87244" lon="2.31453">
        <ele>110.1</ele>
        <time>2013-09-19T19:42:03.406Z</time>
      </trkpt>
      <trkpt lat="48.87249" lon="2.31456">
        <ele>110.1</ele>
        <time>2013-09-19T19:42:04.420Z</time>
      </trkpt>
      <trkpt lat="48.87255" lon="2.3146">
        <ele>108.8</ele>
        <time>2013-09-19T19:42:05.410Z</time>
      </trkpt>
      <trkpt lat="48.8726" lon="2.31464">
        <ele>107.3</ele>
        <time>2013-09-19T19:42:06.424Z</time>
      </trkpt>
      <trkpt lat="48.87269" lon="2.31463">
        <ele>107.5</ele>
        <time>2013-09-19T19:42:09.430Z</time>
      </trkpt>
      <trkpt lat="48.87271" lon="2.3146">
        <ele>107.1</ele>
        <time>2013-09-19T19:42:10.445Z</time>
      </trkpt>
      <trkpt lat="48.87277" lon="2.31455">
        <ele>107.9</ele>
        <time>2013-09-19T19:42:12.478Z</time>
      </trkpt>
      <trkpt lat="48.8728" lon="2.31454">
        <ele>108.2</ele>
        <time>2013-09-19T19:42:13.415Z</time>
      </trkpt>
      <trkpt lat="48.87287" lon="2.31451">
        <ele>108.3</ele>
        <time>2013-09-19T19:42:15.437Z</time>
      </trkpt>
      <trkpt lat="48.8729" lon="2.3145">
        <ele>107.2</ele>
        <time>2013-09-19T19:42:16.463Z</time>
      </trkpt>
      <trkpt lat="48.87299" lon="2.31447">
        <ele>109.5</ele>
        <time>2013-09-19T19:42:19.422Z</time>
      </trkpt>
      <trkpt lat="48.87301" lon="2.31446">
        <ele>110.1</ele>
        <time>2013-09-19T19:42:20.428Z</time>
      </trkpt>
      <trkpt lat="48.8731" lon="2.31444">
        <ele>108.5</ele>
        <time>2013-09-19T19:42:23.530Z</time>
      </trkpt>
      <trkpt lat="48.87312" lon="2.31444">
        <ele>109.2</ele>
        <time>2013-09-19T19:42:24.516Z</time>
      </trkpt>
      <trkpt lat="48.8732" lon="2.31443">
        <ele>106.2</ele>
        <time>2013-09-19T19:42:27.501Z</time>
      </trkpt>
      <trkpt lat="48.87322" lon="2.31442">
        <ele>103.5</ele>
        <time>2013-09-19T19:42:28.400Z</time>
      </trkpt>
      <trkpt lat="48.87329" lon="2.3144">
        <ele>100.7</ele>
        <time>2013-09-19T19:42:30.438Z</time>
      </trkpt>
      <trkpt lat="48.87333" lon="2.31438">
        <ele>100.1</ele>
        <time>2013-09-19T19:42:31.512Z</time>
      </trkpt>
      <trkpt lat="48.87341" lon="2.31432">
        <ele>98.3</ele>
        <time>2013-09-19T19:42:34.454Z</time>
      </trkpt>
      <trkpt lat="48.87342" lon="2.31431">
        <ele>100.6</ele>
        <time>2013-09-19T19:42:35.449Z</time>
      </trkpt>
      <trkpt lat="48.87349" lon="2.31432">
        <ele>101.8</ele>
        <time>2013-09-19T19:42:39.414Z</time>
      </trkpt>
      <trkpt lat="48.87351" lon="2.31434">
        <ele>103.8</ele>
        <time>2013-09-19T19:42:40.418Z</time>
      </trkpt>
      <trkpt lat="48.87359" lon="2.31437">
        <ele>104.9</ele>
        <time>2013-09-19T19:42:43.513Z</time>
      </trkpt>
      <trkpt lat="48.87362" lon="2.31436">
        <ele>108.9</ele>
        <time>2013-09-19T19:42:44.431Z</time>
      </trkpt>
      <trkpt lat="48.87369" lon="2.31438">
        <ele>112.9</ele>
        <time>2013-09-19T19:42:47.417Z</time>
      </trkpt>
      <trkpt lat="48.87371" lon="2.31438">
        <ele>112.9</ele>
        <time>2013-09-19T19:42:48.417Z</time>
      </trkpt>
      <trkpt lat="48.87378" lon="2.31439">
        <ele>112.6</ele>
        <time>2013-09-19T19:42:51.518Z</time>
      </trkpt>
      <trkpt lat="48.87381" lon="2.31439">
        <ele>112.2</ele>
        <time>2013-09-19T19:42:52.417Z</time>
      </trkpt>
      <trkpt lat="48.87387" lon="2.31439">
        <ele>112.9</ele>
        <time>2013-09-19T19:42:54.410Z</time>
      </trkpt>
      <trkpt lat="48.87391" lon="2.31438">
        <ele>113.3</ele>
        <time>2013-09-19T19:42:55.418Z</time>
      </trkpt>
      <trkpt lat="48.87397" lon="2.31438">
        <ele>116.7</ele>
        <time>2013-09-19T19:42:57.416Z</time>
      </trkpt>
      <trkpt lat="48.874" lon="2.31437">
        <ele>116.8</ele>
        <time>2013-09-19T19:42:58.410Z</time>
      </trkpt>
      <trkpt lat="48.87406" lon="2.31438">
        <ele>115.2</ele>
        <time>2013-09-19T19:43:00.405Z</time>
      </trkpt>
      <trkpt lat="48.8741" lon="2.31438">
        <ele>113.6</ele>
        <time>2013-09-19T19:43:01.421Z</time>
      </trkpt>
      <trkpt lat="48.87416" lon="2.31437">
        <ele>113.8</ele>
        <time>2013-09-19T19:43:03.409Z</time>
      </trkpt>
      <trkpt lat="48.8742" lon="2.31437">
        <ele>114.3</ele>
        <time>2013-09-19T19:43:04.410Z</time>
      </trkpt>
      <trkpt lat="48.87427" lon="2.31435">
        <ele>112.9</ele>
        <time>2013-09-19T19:43:06.411Z</time>
      </trkpt>
      <trkpt lat="48.87431" lon="2.31433">
        <ele>112.6</ele>
        <time>2013-09-19T19:43:07.461Z</time>
      </trkpt>
      <trkpt lat="48.87437" lon="2.3143">
        <ele>115.5</ele>
        <time>2013-09-19T19:43:09.419Z</time>
      </trkpt>
      <trkpt lat="48.87441" lon="2.31429">
        <ele>117.1</ele>
        <time>2013-09-19T19:43:10.413Z</time>
      </trkpt>
      <trkpt lat="48.87449" lon="2.31424">
        <ele>118.9</ele>
        <time>2013-09-19T19:43:13.411Z</time>
      </trkpt>
      <trkpt lat="48.87451" lon="2.31423">
        <ele>119.1</ele>
        <time>2013-09-19T19:43:14.409Z</time>
      </trkpt>
      <trkpt lat="48.87458" lon="2.31423">
        <ele>118</ele>
        <time>2013-09-19T19:43:17.450Z</time>
      </trkpt>
      <trkpt lat="48.87461" lon="2.31423">
        <ele>117.7</ele>
        <time>2013-09-19T19:43:18.455Z</time>
      </trkpt>
      <trkpt lat="48.87467" lon="2.31422">
        <ele>114.8</ele>
        <time>2013-09-19T19:43:20.411Z</time>
      </trkpt>
      <trkpt lat="48.8747" lon="2.31422">
        <ele>112.9</ele>
        <time>2013-09-19T19:43:21.408Z</time>
      </trkpt>
      <trkpt lat="48.87478" lon="2.31421">
        <ele>109.5</ele>
        <time>2013-09-19T19:43:23.414Z</time>
      </trkpt>
      <trkpt lat="48.87482" lon="2.3142">
        <ele>106</ele>
        <time>2013-09-19T19:43:24.427Z</time>
      </trkpt>
      <trkpt lat="48.8749" lon="2.31421">
        <ele>104.4</ele>
        <time>2013-09-19T19:43:26.474Z</time>
      </trkpt>
      <trkpt lat="48.87493" lon="2.31422">
        <ele>100.4</ele>
        <time>2013-09-19T19:43:27.420Z</time>
      </trkpt>
      <trkpt lat="48.87498" lon="2.3143">
        <ele>97.1</ele>
        <time>2013-09-19T19:43:29.412Z</time>
      </trkpt>
      <trkpt lat="48.875" lon="2.31437">
        <ele>94.9</ele>
        <time>2013-09-19T19:43:30.412Z</time>
      </trkpt>
      <trkpt lat="48.87501" lon="2.31443">
        <ele>94.6</ele>
        <time>2013-09-19T19:43:32.216Z</time>
      </trkpt>
      <trkpt lat="48.87502" lon="2.3145">
        <ele>93.2</ele>
        <time>2013-09-19T19:43:32.450Z</time>
      </trkpt>
      <trkpt lat="48.87502" lon="2.31458">
        <ele>89.8</ele>
        <time>2013-09-19T19:43:33.412Z</time>
      </trkpt>
      <trkpt lat="48.87502" lon="2.31466">
        <ele>88.9</ele>
        <time>2013-09-19T19:43:34.421Z</time>
      </trkpt>
      <trkpt lat="48.87502" lon="2.31473">
        <ele>88.2</ele>
        <time>2013-09-19T19:43:35.432Z</time>
      </trkpt>
      <trkpt lat="48.87502" lon="2.31481">
        <ele>89.5</ele>
        <time>2013-09-19T19:43:36.421Z</time>
      </trkpt>
      <trkpt lat="48.87502" lon="2.31494">
        <ele>89.1</ele>
        <time>2013-09-19T19:43:38.417Z</time>
      </trkpt>
      <trkpt lat="48.87502" lon="2.315">
        <ele>89.8</ele>
        <time>2013-09-19T19:43:39.421Z</time>
      </trkpt>
      <trkpt lat="48.87503" lon="2.31511">
        <ele>89.9</ele>
        <time>2013-09-19T19:43:41.978Z</time>
      </trkpt>
      <trkpt lat="48.87504" lon="2.31516">
        <ele>89.8</ele>
        <time>2013-09-19T19:43:42.430Z</time>
      </trkpt>
      <trkpt lat="48.87507" lon="2.31526">
        <ele>89.7</ele>
        <time>2013-09-19T19:43:44.418Z</time>
      </trkpt>
      <trkpt lat="48.87509" lon="2.31531">
        <ele>90.5</ele>
        <time>2013-09-19T19:43:45.431Z</time>
      </trkpt>
      <trkpt lat="48.87514" lon="2.31542">
        <ele>91.1</ele>
        <time>2013-09-19T19:43:47.416Z</time>
      </trkpt>
      <trkpt lat="48.87517" lon="2.31548">
        <ele>92.2</ele>
        <time>2013-09-19T19:43:48.422Z</time>
      </trkpt>
      <trkpt lat="48.87522" lon="2.31554">
        <ele>92.4</ele>
        <time>2013-09-19T19:43:49.412Z</time>
      </trkpt>
      <trkpt lat="48.87532" lon="2.31563">
        <ele>92.5</ele>
        <time>2013-09-19T19:43:50.423Z</time>
      </trkpt>
      <trkpt lat="48.8754" lon="2.31572">
        <ele>92.1</ele>
        <time>2013-09-19T19:43:51.432Z</time>
      </trkpt>
      <trkpt lat="48.87546" lon="2.3158">
        <ele>91.9</ele>
        <time>2013-09-19T19:43:52.436Z</time>
      </trkpt>
      <trkpt lat="48.87549" lon="2.31584">
        <ele>92.7</ele>
        <time>2013-09-19T19:43:53.413Z</time>
      </trkpt>
      <trkpt lat="48.87543" lon="2.31588">
        <ele>93.7</ele>
        <time>2013-09-19T19:43:57.462Z</time>
      </trkpt>
      <trkpt lat="48.8754" lon="2.31587">
        <ele>92.5</ele>
        <time>2013-09-19T19:43:58.414Z</time>
      </trkpt>
      <trkpt lat="48.87541" lon="2.31598">
        <ele>92.6</ele>
        <time>2013-09-19T19:44:02.617Z</time>
      </trkpt>
      <trkpt lat="48.87543" lon="2.31601">
        <ele>95</ele>
        <time>2013-09-19T19:44:03.477Z</time>
      </trkpt>
      <trkpt lat="48.8755" lon="2.3161">
        <ele>102.2</ele>
        <time>2013-09-19T19:44:07.296Z</time>
      </trkpt>
      <trkpt lat="48.87551" lon="2.31613">
        <ele>103.5</ele>
        <time>2013-09-19T19:44:07.603Z</time>
      </trkpt>
      <trkpt lat="48.87553" lon="2.31625">
        <ele>105.6</ele>
        <time>2013-09-19T19:44:12.378Z</time>
      </trkpt>
      <trkpt lat="48.87552" lon="2.31628">
        <ele>105.3</ele>
        <time>2013-09-19T19:44:12.664Z</time>
      </trkpt>
      <trkpt lat="48.87544" lon="2.31629">
        <ele>98.2</ele>
        <time>2013-09-19T19:44:16.609Z</time>
      </trkpt>
      <trkpt lat="48.87541" lon="2.31629">
        <ele>97.7</ele>
        <time>2013-09-19T19:44:17.431Z</time>
      </trkpt>
      <trkpt lat="48.87534" lon="2.31628">
        <ele>95.3</ele>
        <time>2013-09-19T19:44:27.626Z</time>
      </trkpt>
      <trkpt lat="48.87534" lon="2.31628">
        <ele>95.5</ele>
        <time>2013-09-19T19:44:28.420Z</time>
      </trkpt>
      <trkpt lat="48.87535" lon="2.31628">
        <ele>97.8</ele>
        <time>2013-09-19T19:44:32.776Z</time>
      </trkpt>
      <trkpt lat="48.87535" lon="2.31629">
        <ele>97.4</ele>
        <time>2013-09-19T19:44:33.424Z</time>
      </trkpt>
      <trkpt lat="48.87537" lon="2.31642">
        <ele>94.2</ele>
        <time>2013-09-19T19:44:46.424Z</time>
      </trkpt>
      <trkpt lat="48.87537" lon="2.31643">
        <ele>94.4</ele>
        <time>2013-09-19T19:44:47.434Z</time>
      </trkpt>
      <trkpt lat="48.87534" lon="2.31655">
        <ele>92.4</ele>
        <time>2013-09-19T19:44:52.439Z</time>
      </trkpt>
      <trkpt lat="48.87533" lon="2.31658">
        <ele>88.1</ele>
        <time>2013-09-19T19:44:53.419Z</time>
      </trkpt>
      <trkpt lat="48.8753" lon="2.3167">
        <ele>87.8</ele>
        <time>2013-09-19T19:44:57.604Z</time>
      </trkpt>
      <trkpt lat="48.8753" lon="2.31672">
        <ele>87.9</ele>
        <time>2013-09-19T19:44:58.433Z</time>
      </trkpt>
      <trkpt lat="48.8753" lon="2.31683">
        <ele>89.1</ele>
        <time>2013-09-19T19:45:01.559Z</time>
      </trkpt>
      <trkpt lat="48.8753" lon="2.31688">
        <ele>89.7</ele>
        <time>2013-09-19T19:45:02.625Z</time>
      </trkpt>
      <trkpt lat="48.87529" lon="2.31701">
        <ele>89.6</ele>
        <time>2013-09-19T19:45:04.613Z</time>
      </trkpt>
      <trkpt lat="48.87528" lon="2.31707">
        <ele>89.9</ele>
        <time>2013-09-19T19:45:05.452Z</time>
      </trkpt>
      <trkpt lat="48.87527" lon="2.31719">
        <ele>91</ele>
        <time>2013-09-19T19:45:07.554Z</time>
      </trkpt>
      <trkpt lat="48.87527" lon="2.31726">
        <ele>91.5</ele>
        <time>2013-09-19T19:45:08.533Z</time>
      </trkpt>
      <trkpt lat="48.87526" lon="2.31738">
        <ele>92.8</ele>
        <time>2013-09-19T19:45:10.472Z</time>
      </trkpt>
      <trkpt lat="48.87526" lon="2.31744">
        <ele>92.5</ele>
        <time>2013-09-19T19:45:11.597Z</time>
      </trkpt>
      <trkpt lat="48.87526" lon="2.31756">
        <ele>92.2</ele>
        <time>2013-09-19T19:45:13.579Z</time>
      </trkpt>
      <trkpt lat="48.87526" lon="2.31762">
        <ele>93</ele>
        <time>2013-09-19T19:45:14.434Z</time>
      </trkpt>
      <trkpt lat="48.87525" lon="2.31773">
        <ele>92.8</ele>
        <time>2013-09-19T19:45:17.144Z</time>
      </trkpt>
      <trkpt lat="48.87525" lon="2.31779">
        <ele>93.2</ele>
        <time>2013-09-19T19:45:17.514Z</time>
      </trkpt>
      <trkpt lat="48.87523" lon="2.31789">
        <ele>95.9</ele>
        <time>2013-09-19T19:45:19.466Z</time>
      </trkpt>
      <trkpt lat="48.87522" lon="2.31795">
        <ele>96.5</ele>
        <time>2013-09-19T19:45:20.650Z</time>
      </trkpt>
      <trkpt lat="48.8752" lon="2.31806">
        <ele>96.3</ele>
        <time>2013-09-19T19:45:22.606Z</time>
      </trkpt>
      <trkpt lat="48.8752" lon="2.3181">
        <ele>96</ele>
        <time>2013-09-19T19:45:23.497Z</time>
      </trkpt>
      <trkpt lat="48.87518" lon="2.31821">
        <ele>98.2</ele>
        <time>2013-09-19T19:45:25.609Z</time>
      </trkpt>
      <trkpt lat="48.87517" lon="2.31825">
        <ele>98.8</ele>
        <time>2013-09-19T19:45:26.489Z</time>
      </trkpt>
      <trkpt lat="48.87516" lon="2.31833">
        <ele>100.3</ele>
        <time>2013-09-19T19:45:28.435Z</time>
      </trkpt>
      <trkpt lat="48.87514" lon="2.31838">
        <ele>99.6</ele>
        <time>2013-09-19T19:45:29.637Z</time>
      </trkpt>
      <trkpt lat="48.87513" lon="2.31851">
        <ele>103.8</ele>
        <time>2013-09-19T19:45:32.645Z</time>
      </trkpt>
      <trkpt lat="48.87513" lon="2.31855">
        <ele>103.7</ele>
        <time>2013-09-19T19:45:33.510Z</time>
      </trkpt>
      <trkpt lat="48.87513" lon="2.31868">
        <ele>103.5</ele>
        <time>2013-09-19T19:45:36.894Z</time>
      </trkpt>
      <trkpt lat="48.87512" lon="2.31871">
        <ele>104.3</ele>
        <time>2013-09-19T19:45:37.442Z</time>
      </trkpt>
      <trkpt lat="48.8751" lon="2.31883">
        <ele>106.1</ele>
        <time>2013-09-19T19:45:40.547Z</time>
      </trkpt>
      <trkpt lat="48.8751" lon="2.31887">
        <ele>106.3</ele>
        <time>2013-09-19T19:45:41.597Z</time>
      </trkpt>
      <trkpt lat="48.87508" lon="2.31897">
        <ele>104.4</ele>
        <time>2013-09-19T19:45:43.633Z</time>
      </trkpt>
      <trkpt lat="48.87507" lon="2.319">
        <ele>104.6</ele>
        <time>2013-09-19T19:45:44.429Z</time>
      </trkpt>
      <trkpt lat="48.87505" lon="2.31914">
        <ele>105.7</ele>
        <time>2013-09-19T19:45:47.612Z</time>
      </trkpt>
      <trkpt lat="48.87505" lon="2.31916">
        <ele>106.4</ele>
        <time>2013-09-19T19:45:48.571Z</time>
      </trkpt>
      <trkpt lat="48.87511" lon="2.31922">
        <ele>106.1</ele>
        <time>2013-09-19T19:46:02.440Z</time>
      </trkpt>
      <trkpt lat="48.87513" lon="2.31924">
        <ele>106.3</ele>
        <time>2013-09-19T19:46:03.422Z</time>
      </trkpt>
      <trkpt lat="48.8751" lon="2.31935">
        <ele>96.7</ele>
        <time>2013-09-19T19:46:19.423Z</time>
      </trkpt>
      <trkpt lat="48.8751" lon="2.31938">
        <ele>95.2</ele>
        <time>2013-09-19T19:46:20.432Z</time>
      </trkpt>
      <trkpt lat="48.8751" lon="2.3195">
        <ele>98.7</ele>
        <time>2013-09-19T19:46:23.434Z</time>
      </trkpt>
      <trkpt lat="48.8751" lon="2.31953">
        <ele>96.1</ele>
        <time>2013-09-19T19:46:24.423Z</time>
      </trkpt>
      <trkpt lat="48.8751" lon="2.31965">
        <ele>94.2</ele>
        <time>2013-09-19T19:46:28.498Z</time>
      </trkpt>
      <trkpt lat="48.8751" lon="2.31967">
        <ele>93.9</ele>
        <time>2013-09-19T19:46:29.570Z</time>
      </trkpt>
      <trkpt lat="48.87508" lon="2.3198">
        <ele>90.5</ele>
        <time>2013-09-19T19:46:33.464Z</time>
      </trkpt>
      <trkpt lat="48.87507" lon="2.31983">
        <ele>90.8</ele>
        <time>2013-09-19T19:46:34.611Z</time>
      </trkpt>
      <trkpt lat="48.87501" lon="2.31992">
        <ele>91.7</ele>
        <time>2013-09-19T19:46:37.500Z</time>
      </trkpt>
      <trkpt lat="48.87499" lon="2.31996">
        <ele>91.1</ele>
        <time>2013-09-19T19:46:38.569Z</time>
      </trkpt>
      <trkpt lat="48.87497" lon="2.32006">
        <ele>88.4</ele>
        <time>2013-09-19T19:46:41.681Z</time>
      </trkpt>
      <trkpt lat="48.87497" lon="2.32009">
        <ele>86.9</ele>
        <time>2013-09-19T19:46:42.436Z</time>
      </trkpt>
      <trkpt lat="48.87498" lon="2.32018">
        <ele>87</ele>
        <time>2013-09-19T19:46:44.433Z</time>
      </trkpt>
      <trkpt lat="48.87499" lon="2.32023">
        <ele>86.4</ele>
        <time>2013-09-19T19:46:45.571Z</time>
      </trkpt>
      <trkpt lat="48.87501" lon="2.32034">
        <ele>85.5</ele>
        <time>2013-09-19T19:46:47.519Z</time>
      </trkpt>
      <trkpt lat="48.87502" lon="2.3204">
        <ele>86</ele>
        <time>2013-09-19T19:46:48.620Z</time>
      </trkpt>
      <trkpt lat="48.87504" lon="2.32052">
        <ele>86.9</ele>
        <time>2013-09-19T19:46:50.619Z</time>
      </trkpt>
      <trkpt lat="48.87504" lon="2.32057">
        <ele>86.9</ele>
        <time>2013-09-19T19:46:51.450Z</time>
      </trkpt>
      <trkpt lat="48.87506" lon="2.3207">
        <ele>86.6</ele>
        <time>2013-09-19T19:46:53.525Z</time>
      </trkpt>
      <trkpt lat="48.87507" lon="2.32076">
        <ele>86.5</ele>
        <time>2013-09-19T19:46:54.438Z</time>
      </trkpt>
      <trkpt lat="48.87509" lon="2.32088">
        <ele>87.6</ele>
        <time>2013-09-19T19:46:56.437Z</time>
      </trkpt>
      <trkpt lat="48.8751" lon="2.32094">
        <ele>87.3</ele>
        <time>2013-09-19T19:46:57.435Z</time>
      </trkpt>
      <trkpt lat="48.87511" lon="2.32107">
        <ele>89.2</ele>
        <time>2013-09-19T19:46:59.476Z</time>
      </trkpt>
      <trkpt lat="48.87512" lon="2.32113">
        <ele>89.5</ele>
        <time>2013-09-19T19:47:00.446Z</time>
      </trkpt>
      <trkpt lat="48.87513" lon="2.32126">
        <ele>90.4</ele>
        <time>2013-09-19T19:47:02.463Z</time>
      </trkpt>
      <trkpt lat="48.87513" lon="2.32134">
        <ele>90.6</ele>
        <time>2013-09-19T19:47:03.507Z</time>
      </trkpt>
      <trkpt lat="48.87514" lon="2.32141">
        <ele>90.9</ele>
        <time>2013-09-19T19:47:04.551Z</time>
      </trkpt>
      <trkpt lat="48.87514" lon="2.32147">
        <ele>90.4</ele>
        <time>2013-09-19T19:47:05.432Z</time>
      </trkpt>
      <trkpt lat="48.87515" lon="2.32154">
        <ele>90.6</ele>
        <time>2013-09-19T19:47:06.505Z</time>
      </trkpt>
      <trkpt lat="48.87516" lon="2.32161">
        <ele>91.1</ele>
        <time>2013-09-19T19:47:07.507Z</time>
      </trkpt>
      <trkpt lat="48.87517" lon="2.32173">
        <ele>87.3</ele>
        <time>2013-09-19T19:47:09.504Z</time>
      </trkpt>
      <trkpt lat="48.87518" lon="2.3218">
        <ele>87.7</ele>
        <time>2013-09-19T19:47:10.534Z</time>
      </trkpt>
      <trkpt lat="48.87518" lon="2.32187">
        <ele>88.2</ele>
        <time>2013-09-19T19:47:11.430Z</time>
      </trkpt>
      <trkpt lat="48.87518" lon="2.32194">
        <ele>88.8</ele>
        <time>2013-09-19T19:47:12.499Z</time>
      </trkpt>
      <trkpt lat="48.87518" lon="2.32207">
        <ele>88.7</ele>
        <time>2013-09-19T19:47:14.435Z</time>
      </trkpt>
      <trkpt lat="48.87519" lon="2.32213">
        <ele>89.3</ele>
        <time>2013-09-19T19:47:15.432Z</time>
      </trkpt>
      <trkpt lat="48.87521" lon="2.32224">
        <ele>91.8</ele>
        <time>2013-09-19T19:47:17.453Z</time>
      </trkpt>
      <trkpt lat="48.87522" lon="2.32228">
        <ele>91.7</ele>
        <time>2013-09-19T19:47:18.447Z</time>
      </trkpt>
      <trkpt lat="48.87524" lon="2.32236">
        <ele>91.4</ele>
        <time>2013-09-19T19:47:20.431Z</time>
      </trkpt>
      <trkpt lat="48.87525" lon="2.32241">
        <ele>90.5</ele>
        <time>2013-09-19T19:47:21.430Z</time>
      </trkpt>
      <trkpt lat="48.87525" lon="2.32253">
        <ele>88.3</ele>
        <time>2013-09-19T19:47:23.801Z</time>
      </trkpt>
      <trkpt lat="48.87525" lon="2.32259">
        <ele>88.3</ele>
        <time>2013-09-19T19:47:24.425Z</time>
      </trkpt>
      <trkpt lat="48.87527" lon="2.3227">
        <ele>89.8</ele>
        <time>2013-09-19T19:47:26.445Z</time>
      </trkpt>
      <trkpt lat="48.87528" lon="2.32274">
        <ele>90.4</ele>
        <time>2013-09-19T19:47:27.520Z</time>
      </trkpt>
      <trkpt lat="48.87532" lon="2.32284">
        <ele>91.4</ele>
        <time>2013-09-19T19:47:31.455Z</time>
      </trkpt>
      <trkpt lat="48.87533" lon="2.32287">
        <ele>92.8</ele>
        <time>2013-09-19T19:47:32.430Z</time>
      </trkpt>
      <trkpt lat="48.87529" lon="2.32297">
        <ele>92.5</ele>
        <time>2013-09-19T19:47:37.453Z</time>
      </trkpt>
      <trkpt lat="48.87528" lon="2.32299">
        <ele>94.5</ele>
        <time>2013-09-19T19:47:38.440Z</time>
      </trkpt>
      <trkpt lat="48.87521" lon="2.32307">
        <ele>103.6</ele>
        <time>2013-09-19T19:47:47.441Z</time>
      </trkpt>
      <trkpt lat="48.8752" lon="2.32307">
        <ele>103.5</ele>
        <time>2013-09-19T19:47:48.434Z</time>
      </trkpt>
      <trkpt lat="48.87519" lon="2.32319">
        <ele>104.4</ele>
        <time>2013-09-19T19:47:57.055Z</time>
      </trkpt>
      <trkpt lat="48.87519" lon="2.32324">
        <ele>103.3</ele>
        <time>2013-09-19T19:47:57.440Z</time>
      </trkpt>
      <trkpt lat="48.87519" lon="2.32334">
        <ele>100.2</ele>
        <time>2013-09-19T19:47:59.432Z</time>
      </trkpt>
      <trkpt lat="48.8752" lon="2.3234">
        <ele>99.2</ele>
        <time>2013-09-19T19:48:00.456Z</time>
      </trkpt>
      <trkpt lat="48.87522" lon="2.32352">
        <ele>97.2</ele>
        <time>2013-09-19T19:48:02.433Z</time>
      </trkpt>
      <trkpt lat="48.87524" lon="2.32357">
        <ele>95.4</ele>
        <time>2013-09-19T19:48:03.434Z</time>
      </trkpt>
      <trkpt lat="48.8753" lon="2.32362">
        <ele>90.1</ele>
        <time>2013-09-19T19:48:05.435Z</time>
      </trkpt>
      <trkpt lat="48.87533" lon="2.32362">
        <ele>88</ele>
        <time>2013-09-19T19:48:06.434Z</time>
      </trkpt>
      <trkpt lat="48.8754" lon="2.32361">
        <ele>87</ele>
        <time>2013-09-19T19:48:08.433Z</time>
      </trkpt>
      <trkpt lat="48.87542" lon="2.3236">
        <ele>86.5</ele>
        <time>2013-09-19T19:48:09.441Z</time>
      </trkpt>
      <trkpt lat="48.87551" lon="2.32362">
        <ele>84.8</ele>
        <time>2013-09-19T19:48:17.584Z</time>
      </trkpt>
      <trkpt lat="48.87551" lon="2.32365">
        <ele>85</ele>
        <time>2013-09-19T19:48:18.487Z</time>
      </trkpt>
      <trkpt lat="48.87551" lon="2.32377">
        <ele>86</ele>
        <time>2013-09-19T19:48:22.206Z</time>
      </trkpt>
      <trkpt lat="48.87552" lon="2.32381">
        <ele>86.9</ele>
        <time>2013-09-19T19:48:22.438Z</time>
      </trkpt>
      <trkpt lat="48.87559" lon="2.32385">
        <ele>91</ele>
        <time>2013-09-19T19:48:25.521Z</time>
      </trkpt>
      <trkpt lat="48.87562" lon="2.32383">
        <ele>90.8</ele>
        <time>2013-09-19T19:48:26.572Z</time>
      </trkpt>
      <trkpt lat="48.87569" lon="2.32381">
        <ele>91.7</ele>
        <time>2013-09-19T19:48:28.549Z</time>
      </trkpt>
      <trkpt lat="48.87571" lon="2.32379">
        <ele>91.4</ele>
        <time>2013-09-19T19:48:29.462Z</time>
      </trkpt>
      <trkpt lat="48.8758" lon="2.32377">
        <ele>94.1</ele>
        <time>2013-09-19T19:48:33.523Z</time>
      </trkpt>
      <trkpt lat="48.87582" lon="2.32378">
        <ele>96.9</ele>
        <time>2013-09-19T19:48:34.485Z</time>
      </trkpt>
      <trkpt lat="48.87591" lon="2.3238">
        <ele>101.3</ele>
        <time>2013-09-19T19:48:38.451Z</time>
      </trkpt>
      <trkpt lat="48.87593" lon="2.32379">
        <ele>100.7</ele>
        <time>2013-09-19T19:48:39.555Z</time>
      </trkpt>
      <trkpt lat="48.87599" lon="2.32373">
        <ele>98.7</ele>
        <time>2013-09-19T19:48:42.549Z</time>
      </trkpt>
      <trkpt lat="48.87602" lon="2.32372">
        <ele>98.7</ele>
        <time>2013-09-19T19:48:43.463Z</time>
      </trkpt>
      <trkpt lat="48.87609" lon="2.32366">
        <ele>100.6</ele>
        <time>2013-09-19T19:48:46.990Z</time>
      </trkpt>
      <trkpt lat="48.8761" lon="2.32365">
        <ele>100.3</ele>
        <time>2013-09-19T19:48:47.452Z</time>
      </trkpt>
      <trkpt lat="48.87618" lon="2.3236">
        <ele>101.4</ele>
        <time>2013-09-19T19:48:52.052Z</time>
      </trkpt>
      <trkpt lat="48.87621" lon="2.32358">
        <ele>102</ele>
        <time>2013-09-19T19:48:52.441Z</time>
      </trkpt>
      <trkpt lat="48.87627" lon="2.32356">
        <ele>102.2</ele>
        <time>2013-09-19T19:48:54.464Z</time>
      </trkpt>
      <trkpt lat="48.8763" lon="2.32355">
        <ele>102.8</ele>
        <time>2013-09-19T19:48:55.590Z</time>
      </trkpt>
      <trkpt lat="48.87638" lon="2.32353">
        <ele>106.1</ele>
        <time>2013-09-19T19:48:58.557Z</time>
      </trkpt>
      <trkpt lat="48.8764" lon="2.32352">
        <ele>105.8</ele>
        <time>2013-09-19T19:48:59.443Z</time>
      </trkpt>
      <trkpt lat="48.87648" lon="2.32349">
        <ele>106.3</ele>
        <time>2013-09-19T19:49:02.618Z</time>
      </trkpt>
      <trkpt lat="48.8765" lon="2.32348">
        <ele>106</ele>
        <time>2013-09-19T19:49:03.444Z</time>
      </trkpt>
      <trkpt lat="48.87656" lon="2.32347">
        <ele>105.7</ele>
        <time>2013-09-19T19:49:05.452Z</time>
      </trkpt>
      <trkpt lat="48.8766" lon="2.32347">
        <ele>105.1</ele>
        <time>2013-09-19T19:49:06.440Z</time>
      </trkpt>
      <trkpt lat="48.87666" lon="2.32346">
        <ele>104.9</ele>
        <time>2013-09-19T19:49:08.450Z</time>
      </trkpt>
      <trkpt lat="48.87669" lon="2.32345">
        <ele>104.1</ele>
        <time>2013-09-19T19:49:09.437Z</time>
      </trkpt>
      <trkpt lat="48.87675" lon="2.32344">
        <ele>104.9</ele>
        <time>2013-09-19T19:49:12.149Z</time>
      </trkpt>
      <trkpt lat="48.87678" lon="2.32344">
        <ele>105.2</ele>
        <time>2013-09-19T19:49:12.471Z</time>
      </trkpt>
      <trkpt lat="48.87687" lon="2.32344">
        <ele>107.4</ele>
        <time>2013-09-19T19:49:15.446Z</time>
      </trkpt>
      <trkpt lat="48.87689" lon="2.32343">
        <ele>107.3</ele>
        <time>2013-09-19T19:49:16.440Z</time>
      </trkpt>
      <trkpt lat="48.87697" lon="2.32342">
        <ele>104.1</ele>
        <time>2013-09-19T19:49:19.486Z</time>
      </trkpt>
      <trkpt lat="48.877" lon="2.32341">
        <ele>103.6</ele>
        <time>2013-09-19T19:49:20.446Z</time>
      </trkpt>
      <trkpt lat="48.87705" lon="2.32337">
        <ele>99.6</ele>
        <time>2013-09-19T19:49:22.496Z</time>
      </trkpt>
      <trkpt lat="48.87707" lon="2.32332">
        <ele>98.4</ele>
        <time>2013-09-19T19:49:23.433Z</time>
      </trkpt>
      <trkpt lat="48.8771" lon="2.32326">
        <ele>96.3</ele>
        <time>2013-09-19T19:49:24.491Z</time>
      </trkpt>
      <trkpt lat="48.87713" lon="2.32319">
        <ele>95.5</ele>
        <time>2013-09-19T19:49:25.454Z</time>
      </trkpt>
      <trkpt lat="48.87716" lon="2.32312">
        <ele>94.5</ele>
        <time>2013-09-19T19:49:27.252Z</time>
      </trkpt>
      <trkpt lat="48.87718" lon="2.32305">
        <ele>94.3</ele>
        <time>2013-09-19T19:49:27.630Z</time>
      </trkpt>
      <trkpt lat="48.87722" lon="2.32296">
        <ele>93</ele>
        <time>2013-09-19T19:49:29.527Z</time>
      </trkpt>
      <trkpt lat="48.87724" lon="2.32293">
        <ele>92.9</ele>
        <time>2013-09-19T19:49:30.640Z</time>
      </trkpt>
      <trkpt lat="48.87731" lon="2.3229">
        <ele>96.2</ele>
        <time>2013-09-19T19:49:33.464Z</time>
      </trkpt>
      <trkpt lat="48.87734" lon="2.3229">
        <ele>96.3</ele>
        <time>2013-09-19T19:49:34.569Z</time>
      </trkpt>
      <trkpt lat="48.87741" lon="2.32284">
        <ele>100.3</ele>
        <time>2013-09-19T19:49:38.490Z</time>
      </trkpt>
      <trkpt lat="48.87743" lon="2.32283">
        <ele>101.4</ele>
        <time>2013-09-19T19:49:39.579Z</time>
      </trkpt>
      <trkpt lat="48.8775" lon="2.32281">
        <ele>105</ele>
        <time>2013-09-19T19:49:44.530Z</time>
      </trkpt>
      <trkpt lat="48.87752" lon="2.32281">
        <ele>105.7</ele>
        <time>2013-09-19T19:49:45.522Z</time>
      </trkpt>
      <trkpt lat="48.87759" lon="2.3228">
        <ele>109.9</ele>
        <time>2013-09-19T19:49:49.485Z</time>
      </trkpt>
      <trkpt lat="48.87762" lon="2.3228">
        <ele>110.1</ele>
        <time>2013-09-19T19:49:50.570Z</time>
      </trkpt>
      <trkpt lat="48.87769" lon="2.32278">
        <ele>107.2</ele>
        <time>2013-09-19T19:49:53.579Z</time>
      </trkpt>
      <trkpt lat="48.87772" lon="2.32275">
        <ele>108</ele>
        <time>2013-09-19T19:49:54.490Z</time>
      </trkpt>
      <trkpt lat="48.8778" lon="2.32277">
        <ele>109</ele>
        <time>2013-09-19T19:50:02.282Z</time>
      </trkpt>
      <trkpt lat="48.87782" lon="2.32277">
        <ele>109.3</ele>
        <time>2013-09-19T19:50:02.592Z</time>
      </trkpt>
      <trkpt lat="48.87789" lon="2.32273">
        <ele>106.4</ele>
        <time>2013-09-19T19:50:08.554Z</time>
      </trkpt>
      <trkpt lat="48.8779" lon="2.32272">
        <ele>104.3</ele>
        <time>2013-09-19T19:50:09.580Z</time>
      </trkpt>
      <trkpt lat="48.87798" lon="2.3227">
        <ele>103.4</ele>
        <time>2013-09-19T19:50:17.620Z</time>
      </trkpt>
      <trkpt lat="48.878" lon="2.3227">
        <ele>102.9</ele>
        <time>2013-09-19T19:50:18.595Z</time>
      </trkpt>
      <trkpt lat="48.87805" lon="2.32267">
        <ele>106.4</ele>
        <time>2013-09-19T19:50:21.464Z</time>
      </trkpt>
      <trkpt lat="48.87808" lon="2.32264">
        <ele>105.1</ele>
        <time>2013-09-19T19:50:22.682Z</time>
      </trkpt>
      <trkpt lat="48.87814" lon="2.32258">
        <ele>102</ele>
        <time>2013-09-19T19:50:24.565Z</time>
      </trkpt>
      <trkpt lat="48.87818" lon="2.32258">
        <ele>100.7</ele>
        <time>2013-09-19T19:50:25.602Z</time>
      </trkpt>
      <trkpt lat="48.87825" lon="2.32261">
        <ele>100.2</ele>
        <time>2013-09-19T19:50:27.578Z</time>
      </trkpt>
      <trkpt lat="48.87828" lon="2.32264">
        <ele>100.3</ele>
        <time>2013-09-19T19:50:28.443Z</time>
      </trkpt>
      <trkpt lat="48.87834" lon="2.32272">
        <ele>98.1</ele>
        <time>2013-09-19T19:50:30.458Z</time>
      </trkpt>
      <trkpt lat="48.87837" lon="2.32277">
        <ele>98</ele>
        <time>2013-09-19T19:50:31.596Z</time>
      </trkpt>
      <trkpt lat="48.8784" lon="2.32285">
        <ele>97.8</ele>
        <time>2013-09-19T19:50:33.542Z</time>
      </trkpt>
      <trkpt lat="48.87841" lon="2.32289">
        <ele>99.3</ele>
        <time>2013-09-19T19:50:34.614Z</time>
      </trkpt>
      <trkpt lat="48.87847" lon="2.32297">
        <ele>97.7</ele>
        <time>2013-09-19T19:50:37.457Z</time>
      </trkpt>
      <trkpt lat="48.87849" lon="2.32298">
        <ele>97.9</ele>
        <time>2013-09-19T19:50:38.446Z</time>
      </trkpt>
      <trkpt lat="48.87857" lon="2.32301">
        <ele>98.6</ele>
        <time>2013-09-19T19:50:41.951Z</time>
      </trkpt>
      <trkpt lat="48.87859" lon="2.32303">
        <ele>98</ele>
        <time>2013-09-19T19:50:42.452Z</time>
      </trkpt>
      <trkpt lat="48.87867" lon="2.32307">
        <ele>97.3</ele>
        <time>2013-09-19T19:50:45.463Z</time>
      </trkpt>
      <trkpt lat="48.8787" lon="2.32308">
        <ele>98.6</ele>
        <time>2013-09-19T19:50:46.468Z</time>
      </trkpt>
      <trkpt lat="48.87877" lon="2.32305">
        <ele>99.5</ele>
        <time>2013-09-19T19:50:51.985Z</time>
      </trkpt>
      <trkpt lat="48.87879" lon="2.32304">
        <ele>98.8</ele>
        <time>2013-09-19T19:50:52.453Z</time>
      </trkpt>
      <trkpt lat="48.87886" lon="2.32297">
        <ele>97.6</ele>
        <time>2013-09-19T19:50:57.453Z</time>
      </trkpt>
      <trkpt lat="48.87888" lon="2.32296">
        <ele>96.7</ele>
        <time>2013-09-19T19:50:58.467Z</time>
      </trkpt>
      <trkpt lat="48.87896" lon="2.32297">
        <ele>95.7</ele>
        <time>2013-09-19T19:51:02.466Z</time>
      </trkpt>
      <trkpt lat="48.87898" lon="2.32297">
        <ele>94.5</ele>
        <time>2013-09-19T19:51:03.462Z</time>
      </trkpt>
      <trkpt lat="48.87906" lon="2.323">
        <ele>92.8</ele>
        <time>2013-09-19T19:51:08.447Z</time>
      </trkpt>
      <trkpt lat="48.87908" lon="2.32302">
        <ele>92.7</ele>
        <time>2013-09-19T19:51:09.446Z</time>
      </trkpt>
      <trkpt lat="48.87914" lon="2.32311">
        <ele>91.4</ele>
        <time>2013-09-19T19:51:14.165Z</time>
      </trkpt>
      <trkpt lat="48.87914" lon="2.32313">
        <ele>92</ele>
        <time>2013-09-19T19:51:14.454Z</time>
      </trkpt>
      <trkpt lat="48.87917" lon="2.32323">
        <ele>93.1</ele>
        <time>2013-09-19T19:51:17.486Z</time>
      </trkpt>
      <trkpt lat="48.87918" lon="2.32326">
        <ele>93</ele>
        <time>2013-09-19T19:51:18.464Z</time>
      </trkpt>
      <trkpt lat="48.87922" lon="2.32337">
        <ele>90.7</ele>
        <time>2013-09-19T19:51:22.229Z</time>
      </trkpt>
      <trkpt lat="48.87925" lon="2.3234">
        <ele>90.1</ele>
        <time>2013-09-19T19:51:22.521Z</time>
      </trkpt>
      <trkpt lat="48.87932" lon="2.32345">
        <ele>90.1</ele>
        <time>2013-09-19T19:51:24.471Z</time>
      </trkpt>
      <trkpt lat="48.87935" lon="2.32347">
        <ele>89.7</ele>
        <time>2013-09-19T19:51:25.473Z</time>
      </trkpt>
      <trkpt lat="48.87939" lon="2.32351">
        <ele>89.8</ele>
        <time>2013-09-19T19:51:27.312Z</time>
      </trkpt>
      <trkpt lat="48.87943" lon="2.32354">
        <ele>90.8</ele>
        <time>2013-09-19T19:51:27.648Z</time>
      </trkpt>
      <trkpt lat="48.8795" lon="2.3236">
        <ele>91.9</ele>
        <time>2013-09-19T19:51:29.545Z</time>
      </trkpt>
      <trkpt lat="48.87953" lon="2.32363">
        <ele>92.9</ele>
        <time>2013-09-19T19:51:30.592Z</time>
      </trkpt>
      <trkpt lat="48.87959" lon="2.32367">
        <ele>94</ele>
        <time>2013-09-19T19:51:32.639Z</time>
      </trkpt>
      <trkpt lat="48.87962" lon="2.3237">
        <ele>93.7</ele>
        <time>2013-09-19T19:51:33.458Z</time>
      </trkpt>
      <trkpt lat="48.87968" lon="2.32375">
        <ele>94.4</ele>
        <time>2013-09-19T19:51:35.499Z</time>
      </trkpt>
      <trkpt lat="48.87971" lon="2.32378">
        <ele>95.6</ele>
        <time>2013-09-19T19:51:36.557Z</time>
      </trkpt>
      <trkpt lat="48.87976" lon="2.32382">
        <ele>96.4</ele>
        <time>2013-09-19T19:51:38.499Z</time>
      </trkpt>
      <trkpt lat="48.8798" lon="2.32384">
        <ele>96.8</ele>
        <time>2013-09-19T19:51:39.569Z</time>
      </trkpt>
      <trkpt lat="48.87988" lon="2.32389">
        <ele>98</ele>
        <time>2013-09-19T19:51:42.467Z</time>
      </trkpt>
      <trkpt lat="48.8799" lon="2.3239">
        <ele>98.3</ele>
        <time>2013-09-19T19:51:43.554Z</time>
      </trkpt>
      <trkpt lat="48.87996" lon="2.32399">
        <ele>99</ele>
        <time>2013-09-19T19:51:47.461Z</time>
      </trkpt>
      <trkpt lat="48.87998" lon="2.32403">
        <ele>99.4</ele>
        <time>2013-09-19T19:51:48.594Z</time>
      </trkpt>
      <trkpt lat="48.88" lon="2.32414">
        <ele>98.2</ele>
        <time>2013-09-19T19:51:52.466Z</time>
      </trkpt>
      <trkpt lat="48.88001" lon="2.32416">
        <ele>98.4</ele>
        <time>2013-09-19T19:51:53.484Z</time>
      </trkpt>
      <trkpt lat="48.88007" lon="2.32425">
        <ele>99.2</ele>
        <time>2013-09-19T19:51:57.025Z</time>
      </trkpt>
      <trkpt lat="48.8801" lon="2.32428">
        <ele>99.7</ele>
        <time>2013-09-19T19:51:57.456Z</time>
      </trkpt>
      <trkpt lat="48.88015" lon="2.32432">
        <ele>102.6</ele>
        <time>2013-09-19T19:51:59.468Z</time>
      </trkpt>
      <trkpt lat="48.88018" lon="2.32434">
        <ele>103.1</ele>
        <time>2013-09-19T19:52:00.464Z</time>
      </trkpt>
      <trkpt lat="48.88023" lon="2.3244">
        <ele>103.5</ele>
        <time>2013-09-19T19:52:03.618Z</time>
      </trkpt>
      <trkpt lat="48.88025" lon="2.32443">
        <ele>103.7</ele>
        <time>2013-09-19T19:52:04.468Z</time>
      </trkpt>
      <trkpt lat="48.8803" lon="2.32449">
        <ele>103.1</ele>
        <time>2013-09-19T19:52:07.068Z</time>
      </trkpt>
      <trkpt lat="48.88033" lon="2.32452">
        <ele>103.2</ele>
        <time>2013-09-19T19:52:07.580Z</time>
      </trkpt>
      <trkpt lat="48.88039" lon="2.32458">
        <ele>102.5</ele>
        <time>2013-09-19T19:52:09.541Z</time>
      </trkpt>
      <trkpt lat="48.88042" lon="2.32462">
        <ele>103.4</ele>
        <time>2013-09-19T19:52:10.468Z</time>
      </trkpt>
      <trkpt lat="48.8805" lon="2.32463">
        <ele>101.4</ele>
        <time>2013-09-19T19:52:12.485Z</time>
      </trkpt>
      <trkpt lat="48.88054" lon="2.3246">
        <ele>100.8</ele>
        <time>2013-09-19T19:52:13.468Z</time>
      </trkpt>
      <trkpt lat="48.88062" lon="2.32453">
        <ele>102.1</ele>
        <time>2013-09-19T19:52:15.470Z</time>
      </trkpt>
      <trkpt lat="48.88066" lon="2.32452">
        <ele>102.2</ele>
        <time>2013-09-19T19:52:16.467Z</time>
      </trkpt>
      <trkpt lat="48.88073" lon="2.32456">
        <ele>103.9</ele>
        <time>2013-09-19T19:52:18.468Z</time>
      </trkpt>
      <trkpt lat="48.88078" lon="2.3246">
        <ele>104.1</ele>
        <time>2013-09-19T19:52:19.475Z</time>
      </trkpt>
      <trkpt lat="48.88082" lon="2.32464">
        <ele>105.7</ele>
        <time>2013-09-19T19:52:20.473Z</time>
      </trkpt>
      <trkpt lat="48.88086" lon="2.32468">
        <ele>105.4</ele>
        <time>2013-09-19T19:52:21.472Z</time>
      </trkpt>
      <trkpt lat="48.8809" lon="2.32472">
        <ele>109.2</ele>
        <time>2013-09-19T19:52:22.495Z</time>
      </trkpt>
      <trkpt lat="48.88095" lon="2.32476">
        <ele>109.5</ele>
        <time>2013-09-19T19:52:23.597Z</time>
      </trkpt>
      <trkpt lat="48.88102" lon="2.32484">
        <ele>109.7</ele>
        <time>2013-09-19T19:52:25.557Z</time>
      </trkpt>
      <trkpt lat="48.88106" lon="2.32488">
        <ele>110.4</ele>
        <time>2013-09-19T19:52:26.614Z</time>
      </trkpt>
      <trkpt lat="48.88113" lon="2.32496">
        <ele>110.6</ele>
        <time>2013-09-19T19:52:28.605Z</time>
      </trkpt>
      <trkpt lat="48.88115" lon="2.32501">
        <ele>110.4</ele>
        <time>2013-09-19T19:52:29.466Z</time>
      </trkpt>
      <trkpt lat="48.88118" lon="2.32507">
        <ele>110.1</ele>
        <time>2013-09-19T19:52:30.592Z</time>
      </trkpt>
      <trkpt lat="48.8812" lon="2.32512">
        <ele>111.2</ele>
        <time>2013-09-19T19:52:31.488Z</time>
      </trkpt>
      <trkpt lat="48.88123" lon="2.32518">
        <ele>111.2</ele>
        <time>2013-09-19T19:52:32.598Z</time>
      </trkpt>
      <trkpt lat="48.88125" lon="2.32524">
        <ele>111.7</ele>
        <time>2013-09-19T19:52:33.572Z</time>
      </trkpt>
      <trkpt lat="48.88131" lon="2.32533">
        <ele>112</ele>
        <time>2013-09-19T19:52:35.591Z</time>
      </trkpt>
      <trkpt lat="48.88134" lon="2.32536">
        <ele>113</ele>
        <time>2013-09-19T19:52:36.486Z</time>
      </trkpt>
      <trkpt lat="48.88141" lon="2.32542">
        <ele>114.4</ele>
        <time>2013-09-19T19:52:38.470Z</time>
      </trkpt>
      <trkpt lat="48.88145" lon="2.32546">
        <ele>115.6</ele>
        <time>2013-09-19T19:52:39.616Z</time>
      </trkpt>
      <trkpt lat="48.88151" lon="2.32552">
        <ele>117.7</ele>
        <time>2013-09-19T19:52:41.994Z</time>
      </trkpt>
      <trkpt lat="48.88154" lon="2.32556">
        <ele>116.9</ele>
        <time>2013-09-19T19:52:42.689Z</time>
      </trkpt>
      <trkpt lat="48.88159" lon="2.32563">
        <ele>115.4</ele>
        <time>2013-09-19T19:52:44.582Z</time>
      </trkpt>
      <trkpt lat="48.88161" lon="2.32566">
        <ele>115.9</ele>
        <time>2013-09-19T19:52:45.469Z</time>
      </trkpt>
      <trkpt lat="48.88166" lon="2.32572">
        <ele>120.7</ele>
        <time>2013-09-19T19:52:47.464Z</time>
      </trkpt>
      <trkpt lat="48.88169" lon="2.32574">
        <ele>121.6</ele>
        <time>2013-09-19T19:52:48.595Z</time>
      </trkpt>
      <trkpt lat="48.88176" lon="2.32579">
        <ele>124.6</ele>
        <time>2013-09-19T19:52:52.024Z</time>
      </trkpt>
      <trkpt lat="48.88179" lon="2.3258">
        <ele>125.8</ele>
        <time>2013-09-19T19:52:52.472Z</time>
      </trkpt>
      <trkpt lat="48.88185" lon="2.32582">
        <ele>125.8</ele>
        <time>2013-09-19T19:52:54.473Z</time>
      </trkpt>
      <trkpt lat="48.88189" lon="2.32584">
        <ele>125.4</ele>
        <time>2013-09-19T19:52:55.609Z</time>
      </trkpt>
      <trkpt lat="48.88194" lon="2.32588">
        <ele>124.8</ele>
        <time>2013-09-19T19:52:57.560Z</time>
      </trkpt>
      <trkpt lat="48.88198" lon="2.3259">
        <ele>124.5</ele>
        <time>2013-09-19T19:52:58.611Z</time>
      </trkpt>
      <trkpt lat="48.88205" lon="2.32596">
        <ele>126.2</ele>
        <time>2013-09-19T19:53:02.088Z</time>
      </trkpt>
      <trkpt lat="48.88207" lon="2.32597">
        <ele>127.4</ele>
        <time>2013-09-19T19:53:02.592Z</time>
      </trkpt>
      <trkpt lat="48.88215" lon="2.32599">
        <ele>125</ele>
        <time>2013-09-19T19:53:05.576Z</time>
      </trkpt>
      <trkpt lat="48.88218" lon="2.32601">
        <ele>121.6</ele>
        <time>2013-09-19T19:53:06.539Z</time>
      </trkpt>
      <trkpt lat="48.88226" lon="2.32606">
        <ele>118.5</ele>
        <time>2013-09-19T19:53:08.481Z</time>
      </trkpt>
      <trkpt lat="48.88231" lon="2.3261">
        <ele>117</ele>
        <time>2013-09-19T19:53:09.617Z</time>
      </trkpt>
      <trkpt lat="48.88234" lon="2.32613">
        <ele>118.3</ele>
        <time>2013-09-19T19:53:10.476Z</time>
      </trkpt>
      <trkpt lat="48.88239" lon="2.32616">
        <ele>117.5</ele>
        <time>2013-09-19T19:53:11.584Z</time>
      </trkpt>
      <trkpt lat="48.88246" lon="2.32621">
        <ele>118.3</ele>
        <time>2013-09-19T19:53:13.570Z</time>
      </trkpt>
      <trkpt lat="48.8825" lon="2.32624">
        <ele>118.8</ele>
        <time>2013-09-19T19:53:14.592Z</time>
      </trkpt>
      <trkpt lat="48.88256" lon="2.32631">
        <ele>119</ele>
        <time>2013-09-19T19:53:17.159Z</time>
      </trkpt>
      <trkpt lat="48.88259" lon="2.32633">
        <ele>119.2</ele>
        <time>2013-09-19T19:53:17.514Z</time>
      </trkpt>
      <trkpt lat="48.88264" lon="2.32638">
        <ele>120</ele>
        <time>2013-09-19T19:53:19.468Z</time>
      </trkpt>
      <trkpt lat="48.88267" lon="2.3264">
        <ele>120.7</ele>
        <time>2013-09-19T19:53:20.614Z</time>
      </trkpt>
      <trkpt lat="48.88275" lon="2.32645">
        <ele>122.1</ele>
        <time>2013-09-19T19:53:23.608Z</time>
      </trkpt>
      <trkpt lat="48.88278" lon="2.32646">
        <ele>123.2</ele>
        <time>2013-09-19T19:53:24.468Z</time>
      </trkpt>
      <trkpt lat="48.88284" lon="2.32655">
        <ele>116.6</ele>
        <time>2013-09-19T19:53:27.567Z</time>
      </trkpt>
      <trkpt lat="48.88285" lon="2.32657">
        <ele>117</ele>
        <time>2013-09-19T19:53:28.499Z</time>
      </trkpt>
      <trkpt lat="48.88294" lon="2.32661">
        <ele>111.4</ele>
        <time>2013-09-19T19:53:32.302Z</time>
      </trkpt>
      <trkpt lat="48.88297" lon="2.32662">
        <ele>109.9</ele>
        <time>2013-09-19T19:53:32.631Z</time>
      </trkpt>
      <trkpt lat="48.88304" lon="2.32664">
        <ele>104.8</ele>
        <time>2013-09-19T19:53:35.484Z</time>
      </trkpt>
      <trkpt lat="48.88306" lon="2.32664">
        <ele>104.6</ele>
        <time>2013-09-19T19:53:36.602Z</time>
      </trkpt>
      <trkpt lat="48.88314" lon="2.32661">
        <ele>103.6</ele>
        <time>2013-09-19T19:53:45.467Z</time>
      </trkpt>
      <trkpt lat="48.88315" lon="2.32661">
        <ele>103.5</ele>
        <time>2013-09-19T19:53:46.475Z</time>
      </trkpt>
      <trkpt lat="48.88323" lon="2.32663">
        <ele>103.3</ele>
        <time>2013-09-19T19:53:57.566Z</time>
      </trkpt>
      <trkpt lat="48.88324" lon="2.32664">
        <ele>102.7</ele>
        <time>2013-09-19T19:53:58.637Z</time>
      </trkpt>
      <trkpt lat="48.88329" lon="2.32671">
        <ele>107.9</ele>
        <time>2013-09-19T19:54:02.493Z</time>
      </trkpt>
      <trkpt lat="48.88331" lon="2.32673">
        <ele>109.6</ele>
        <time>2013-09-19T19:54:03.509Z</time>
      </trkpt>
      <trkpt lat="48.88338" lon="2.32677">
        <ele>111.8</ele>
        <time>2013-09-19T19:54:06.540Z</time>
      </trkpt>
      <trkpt lat="48.8834" lon="2.32677">
        <ele>110.4</ele>
        <time>2013-09-19T19:54:07.471Z</time>
      </trkpt>
      <trkpt lat="48.88348" lon="2.32676">
        <ele>109.9</ele>
        <time>2013-09-19T19:54:10.477Z</time>
      </trkpt>
      <trkpt lat="48.88351" lon="2.32675">
        <ele>112.4</ele>
        <time>2013-09-19T19:54:11.470Z</time>
      </trkpt>
      <trkpt lat="48.88357" lon="2.32671">
        <ele>115.3</ele>
        <time>2013-09-19T19:54:14.468Z</time>
      </trkpt>
      <trkpt lat="48.88359" lon="2.3267">
        <ele>115.7</ele>
        <time>2013-09-19T19:54:15.479Z</time>
      </trkpt>
      <trkpt lat="48.88366" lon="2.32665">
        <ele>119</ele>
        <time>2013-09-19T19:54:19.480Z</time>
      </trkpt>
      <trkpt lat="48.88368" lon="2.32663">
        <ele>119.6</ele>
        <time>2013-09-19T19:54:20.616Z</time>
      </trkpt>
      <trkpt lat="48.88376" lon="2.32656">
        <ele>124.5</ele>
        <time>2013-09-19T19:54:23.475Z</time>
      </trkpt>
      <trkpt lat="48.88378" lon="2.32653">
        <ele>123.9</ele>
        <time>2013-09-19T19:54:24.479Z</time>
      </trkpt>
      <trkpt lat="48.88384" lon="2.32648">
        <ele>124</ele>
        <time>2013-09-19T19:54:27.251Z</time>
      </trkpt>
      <trkpt lat="48.88387" lon="2.32646">
        <ele>124.4</ele>
        <time>2013-09-19T19:54:27.553Z</time>
      </trkpt>
      <trkpt lat="48.88394" lon="2.32641">
        <ele>124.4</ele>
        <time>2013-09-19T19:54:29.469Z</time>
      </trkpt>
      <trkpt lat="48.884" lon="2.32638">
        <ele>123.3</ele>
        <time>2013-09-19T19:54:30.508Z</time>
      </trkpt>
      <trkpt lat="48.88406" lon="2.32634">
        <ele>123.3</ele>
        <time>2013-09-19T19:54:32.286Z</time>
      </trkpt>
      <trkpt lat="48.88411" lon="2.32632">
        <ele>122.9</ele>
        <time>2013-09-19T19:54:32.599Z</time>
      </trkpt>
      <trkpt lat="48.88416" lon="2.32629">
        <ele>123.6</ele>
        <time>2013-09-19T19:54:33.581Z</time>
      </trkpt>
      <trkpt lat="48.88421" lon="2.32626">
        <ele>123.3</ele>
        <time>2013-09-19T19:54:34.584Z</time>
      </trkpt>
      <trkpt lat="48.88425" lon="2.32622">
        <ele>123.4</ele>
        <time>2013-09-19T19:54:35.525Z</time>
      </trkpt>
      <trkpt lat="48.8843" lon="2.32619">
        <ele>123.3</ele>
        <time>2013-09-19T19:54:36.603Z</time>
      </trkpt>
      <trkpt lat="48.88436" lon="2.32612">
        <ele>123.4</ele>
        <time>2013-09-19T19:54:38.607Z</time>
      </trkpt>
      <trkpt lat="48.88439" lon="2.32609">
        <ele>121.3</ele>
        <time>2013-09-19T19:54:39.491Z</time>
      </trkpt>
      <trkpt lat="48.88446" lon="2.32601">
        <ele>120.6</ele>
        <time>2013-09-19T19:54:41.964Z</time>
      </trkpt>
      <trkpt lat="48.8845" lon="2.32598">
        <ele>120.7</ele>
        <time>2013-09-19T19:54:42.530Z</time>
      </trkpt>
      <trkpt lat="48.88454" lon="2.32594">
        <ele>121</ele>
        <time>2013-09-19T19:54:43.641Z</time>
      </trkpt>
      <trkpt lat="48.88457" lon="2.32591">
        <ele>120.2</ele>
        <time>2013-09-19T19:54:44.479Z</time>
      </trkpt>
      <trkpt lat="48.88462" lon="2.32586">
        <ele>119.7</ele>
        <time>2013-09-19T19:54:45.640Z</time>
      </trkpt>
      <trkpt lat="48.88466" lon="2.32583">
        <ele>119.9</ele>
        <time>2013-09-19T19:54:46.498Z</time>
      </trkpt>
      <trkpt lat="48.8847" lon="2.32578">
        <ele>120</ele>
        <time>2013-09-19T19:54:47.586Z</time>
      </trkpt>
      <trkpt lat="48.88474" lon="2.32574">
        <ele>120.3</ele>
        <time>2013-09-19T19:54:48.520Z</time>
      </trkpt>
      <trkpt lat="48.88478" lon="2.3257">
        <ele>119.5</ele>
        <time>2013-09-19T19:54:49.569Z</time>
      </trkpt>
      <trkpt lat="48.88481" lon="2.32566">
        <ele>118.9</ele>
        <time>2013-09-19T19:54:50.601Z</time>
      </trkpt>
      <trkpt lat="48.88489" lon="2.32561">
        <ele>119</ele>
        <time>2013-09-19T19:54:52.570Z</time>
      </trkpt>
      <trkpt lat="48.88492" lon="2.32559">
        <ele>118.4</ele>
        <time>2013-09-19T19:54:53.485Z</time>
      </trkpt>
      <trkpt lat="48.885" lon="2.32556">
        <ele>117</ele>
        <time>2013-09-19T19:54:55.504Z</time>
      </trkpt>
      <trkpt lat="48.88503" lon="2.32553">
        <ele>117.5</ele>
        <time>2013-09-19T19:54:56.579Z</time>
      </trkpt>
      <trkpt lat="48.88508" lon="2.32545">
        <ele>117.3</ele>
        <time>2013-09-19T19:54:59.637Z</time>
      </trkpt>
      <trkpt lat="48.88509" lon="2.32542">
        <ele>116.7</ele>
        <time>2013-09-19T19:55:00.498Z</time>
      </trkpt>
      <trkpt lat="48.88516" lon="2.32536">
        <ele>113.5</ele>
        <time>2013-09-19T19:55:03.593Z</time>
      </trkpt>
      <trkpt lat="48.88518" lon="2.32535">
        <ele>114</ele>
        <time>2013-09-19T19:55:04.546Z</time>
      </trkpt>
      <trkpt lat="48.88525" lon="2.32529">
        <ele>114.3</ele>
        <time>2013-09-19T19:55:07.560Z</time>
      </trkpt>
      <trkpt lat="48.88527" lon="2.32526">
        <ele>114.2</ele>
        <time>2013-09-19T19:55:08.623Z</time>
      </trkpt>
      <trkpt lat="48.88532" lon="2.32519">
        <ele>113.5</ele>
        <time>2013-09-19T19:55:10.603Z</time>
      </trkpt>
      <trkpt lat="48.88535" lon="2.32516">
        <ele>113.7</ele>
        <time>2013-09-19T19:55:11.472Z</time>
      </trkpt>
      <trkpt lat="48.88539" lon="2.32509">
        <ele>113.8</ele>
        <time>2013-09-19T19:55:13.566Z</time>
      </trkpt>
      <trkpt lat="48.88541" lon="2.32505">
        <ele>113.3</ele>
        <time>2013-09-19T19:55:14.547Z</time>
      </trkpt>
      <trkpt lat="48.88547" lon="2.32496">
        <ele>109.9</ele>
        <time>2013-09-19T19:55:17.414Z</time>
      </trkpt>
      <trkpt lat="48.8855" lon="2.32491">
        <ele>109.3</ele>
        <time>2013-09-19T19:55:17.598Z</time>
      </trkpt>
      <trkpt lat="48.88557" lon="2.32484">
        <ele>110</ele>
        <time>2013-09-19T19:55:19.484Z</time>
      </trkpt>
      <trkpt lat="48.88561" lon="2.3248">
        <ele>109.3</ele>
        <time>2013-09-19T19:55:20.482Z</time>
      </trkpt>
      <trkpt lat="48.88569" lon="2.32474">
        <ele>109.5</ele>
        <time>2013-09-19T19:55:22.524Z</time>
      </trkpt>
      <trkpt lat="48.88572" lon="2.32472">
        <ele>109.5</ele>
        <time>2013-09-19T19:55:23.479Z</time>
      </trkpt>
      <trkpt lat="48.88579" lon="2.32467">
        <ele>109.1</ele>
        <time>2013-09-19T19:55:25.483Z</time>
      </trkpt>
      <trkpt lat="48.88582" lon="2.32464">
        <ele>108.9</ele>
        <time>2013-09-19T19:55:26.477Z</time>
      </trkpt>
      <trkpt lat="48.88587" lon="2.32459">
        <ele>109.6</ele>
        <time>2013-09-19T19:55:28.483Z</time>
      </trkpt>
      <trkpt lat="48.8859" lon="2.32456">
        <ele>109.4</ele>
        <time>2013-09-19T19:55:29.492Z</time>
      </trkpt>
      <trkpt lat="48.88596" lon="2.32449">
        <ele>110.9</ele>
        <time>2013-09-19T19:55:31.482Z</time>
      </trkpt>
      <trkpt lat="48.88598" lon="2.32444">
        <ele>111.7</ele>
        <time>2013-09-19T19:55:32.475Z</time>
      </trkpt>
      <trkpt lat="48.88604" lon="2.32436">
        <ele>112</ele>
        <time>2013-09-19T19:55:34.478Z</time>
      </trkpt>
      <trkpt lat="48.88607" lon="2.32431">
        <ele>111.6</ele>
        <time>2013-09-19T19:55:35.495Z</time>
      </trkpt>
      <trkpt lat="48.88613" lon="2.32422">
        <ele>111.3</ele>
        <time>2013-09-19T19:55:37.711Z</time>
      </trkpt>
      <trkpt lat="48.88616" lon="2.32418">
        <ele>111.1</ele>
        <time>2013-09-19T19:55:38.486Z</time>
      </trkpt>
      <trkpt lat="48.88619" lon="2.32413">
        <ele>110.9</ele>
        <time>2013-09-19T19:55:39.493Z</time>
      </trkpt>
      <trkpt lat="48.88623" lon="2.32408">
        <ele>110.3</ele>
        <time>2013-09-19T19:55:40.480Z</time>
      </trkpt>
      <trkpt lat="48.88627" lon="2.32403">
        <ele>109.9</ele>
        <time>2013-09-19T19:55:41.485Z</time>
      </trkpt>
      <trkpt lat="48.88631" lon="2.32397">
        <ele>109.3</ele>
        <time>2013-09-19T19:55:42.488Z</time>
      </trkpt>
      <trkpt lat="48.88636" lon="2.32391">
        <ele>107.9</ele>
        <time>2013-09-19T19:55:43.549Z</time>
      </trkpt>
      <trkpt lat="48.88641" lon="2.32386">
        <ele>107.5</ele>
        <time>2013-09-19T19:55:44.540Z</time>
      </trkpt>
      <trkpt lat="48.88645" lon="2.32382">
        <ele>107.2</ele>
        <time>2013-09-19T19:55:45.485Z</time>
      </trkpt>
      <trkpt lat="48.88649" lon="2.32377">
        <ele>106.9</ele>
        <time>2013-09-19T19:55:46.477Z</time>
      </trkpt>
      <trkpt lat="48.88653" lon="2.32372">
        <ele>106.9</ele>
        <time>2013-09-19T19:55:47.477Z</time>
      </trkpt>
      <trkpt lat="48.88657" lon="2.32367">
        <ele>106.5</ele>
        <time>2013-09-19T19:55:48.477Z</time>
      </trkpt>
      <trkpt lat="48.88663" lon="2.32361">
        <ele>107.9</ele>
        <time>2013-09-19T19:55:50.475Z</time>
      </trkpt>
      <trkpt lat="48.88666" lon="2.32359">
        <ele>105.8</ele>
        <time>2013-09-19T19:55:51.477Z</time>
      </trkpt>
      <trkpt lat="48.88672" lon="2.3235">
        <ele>104.4</ele>
        <time>2013-09-19T19:55:54.494Z</time>
      </trkpt>
      <trkpt lat="48.88673" lon="2.32346">
        <ele>105</ele>
        <time>2013-09-19T19:55:55.477Z</time>
      </trkpt>
      <trkpt lat="48.88676" lon="2.32337">
        <ele>105.1</ele>
        <time>2013-09-19T19:55:57.484Z</time>
      </trkpt>
      <trkpt lat="48.88678" lon="2.32333">
        <ele>105.2</ele>
        <time>2013-09-19T19:55:58.485Z</time>
      </trkpt>
      <trkpt lat="48.88681" lon="2.32324">
        <ele>105.7</ele>
        <time>2013-09-19T19:56:00.487Z</time>
      </trkpt>
      <trkpt lat="48.88683" lon="2.3232">
        <ele>106.1</ele>
        <time>2013-09-19T19:56:01.477Z</time>
      </trkpt>
      <trkpt lat="48.88687" lon="2.32313">
        <ele>104.6</ele>
        <time>2013-09-19T19:56:03.495Z</time>
      </trkpt>
      <trkpt lat="48.8869" lon="2.32309">
        <ele>103.8</ele>
        <time>2013-09-19T19:56:04.476Z</time>
      </trkpt>
      <trkpt lat="48.88698" lon="2.32306">
        <ele>102.2</ele>
        <time>2013-09-19T19:56:07.482Z</time>
      </trkpt>
      <trkpt lat="48.88701" lon="2.32307">
        <ele>101.4</ele>
        <time>2013-09-19T19:56:08.480Z</time>
      </trkpt>
      <trkpt lat="48.88707" lon="2.32313">
        <ele>100.6</ele>
        <time>2013-09-19T19:56:10.480Z</time>
      </trkpt>
      <trkpt lat="48.8871" lon="2.32315">
        <ele>100.9</ele>
        <time>2013-09-19T19:56:11.487Z</time>
      </trkpt>
      <trkpt lat="48.88715" lon="2.32321">
        <ele>98</ele>
        <time>2013-09-19T19:56:13.486Z</time>
      </trkpt>
      <trkpt lat="48.88717" lon="2.32325">
        <ele>99.4</ele>
        <time>2013-09-19T19:56:14.477Z</time>
      </trkpt>
      <trkpt lat="48.88721" lon="2.32333">
        <ele>98.7</ele>
        <time>2013-09-19T19:56:16.487Z</time>
      </trkpt>
      <trkpt lat="48.88723" lon="2.32337">
        <ele>99.3</ele>
        <time>2013-09-19T19:56:17.520Z</time>
      </trkpt>
      <trkpt lat="48.88727" lon="2.32349">
        <ele>100.4</ele>
        <time>2013-09-19T19:56:20.584Z</time>
      </trkpt>
      <trkpt lat="48.88728" lon="2.32352">
        <ele>98.9</ele>
        <time>2013-09-19T19:56:21.520Z</time>
      </trkpt>
      <trkpt lat="48.88733" lon="2.3236">
        <ele>100.3</ele>
        <time>2013-09-19T19:56:24.502Z</time>
      </trkpt>
      <trkpt lat="48.88736" lon="2.32363">
        <ele>101.2</ele>
        <time>2013-09-19T19:56:25.608Z</time>
      </trkpt>
      <trkpt lat="48.88741" lon="2.32372">
        <ele>102.5</ele>
        <time>2013-09-19T19:56:28.493Z</time>
      </trkpt>
      <trkpt lat="48.88744" lon="2.32376">
        <ele>103.6</ele>
        <time>2013-09-19T19:56:29.587Z</time>
      </trkpt>
      <trkpt lat="48.88748" lon="2.32385">
        <ele>103.3</ele>
        <time>2013-09-19T19:56:32.274Z</time>
      </trkpt>
      <trkpt lat="48.8875" lon="2.32389">
        <ele>102.6</ele>
        <time>2013-09-19T19:56:32.602Z</time>
      </trkpt>
      <trkpt lat="48.88754" lon="2.32396">
        <ele>99.5</ele>
        <time>2013-09-19T19:56:34.489Z</time>
      </trkpt>
      <trkpt lat="48.88756" lon="2.324">
        <ele>100</ele>
        <time>2013-09-19T19:56:35.498Z</time>
      </trkpt>
      <trkpt lat="48.8876" lon="2.32411">
        <ele>100.3</ele>
        <time>2013-09-19T19:56:38.490Z</time>
      </trkpt>
      <trkpt lat="48.88762" lon="2.32414">
        <ele>98.8</ele>
        <time>2013-09-19T19:56:39.478Z</time>
      </trkpt>
      <trkpt lat="48.88767" lon="2.32423">
        <ele>101</ele>
        <time>2013-09-19T19:56:42.480Z</time>
      </trkpt>
      <trkpt lat="48.88769" lon="2.32426">
        <ele>100.6</ele>
        <time>2013-09-19T19:56:43.489Z</time>
      </trkpt>
      <trkpt lat="48.88773" lon="2.32435">
        <ele>99.6</ele>
        <time>2013-09-19T19:56:46.490Z</time>
      </trkpt>
      <trkpt lat="48.88775" lon="2.32437">
        <ele>100.5</ele>
        <time>2013-09-19T19:56:47.491Z</time>
      </trkpt>
      <trkpt lat="48.88783" lon="2.32443">
        <ele>102.4</ele>
        <time>2013-09-19T19:56:51.509Z</time>
      </trkpt>
      <trkpt lat="48.88784" lon="2.32444">
        <ele>103.1</ele>
        <time>2013-09-19T19:56:52.649Z</time>
      </trkpt>
      <trkpt lat="48.88792" lon="2.32442">
        <ele>106.4</ele>
        <time>2013-09-19T19:56:59.620Z</time>
      </trkpt>
      <trkpt lat="48.88794" lon="2.3244">
        <ele>106.6</ele>
        <time>2013-09-19T19:57:00.501Z</time>
      </trkpt>
      <trkpt lat="48.88799" lon="2.32434">
        <ele>108.6</ele>
        <time>2013-09-19T19:57:02.498Z</time>
      </trkpt>
      <trkpt lat="48.88801" lon="2.32431">
        <ele>108.9</ele>
        <time>2013-09-19T19:57:03.481Z</time>
      </trkpt>
      <trkpt lat="48.88807" lon="2.32424">
        <ele>107.8</ele>
        <time>2013-09-19T19:57:05.483Z</time>
      </trkpt>
      <trkpt lat="48.88809" lon="2.3242">
        <ele>105.3</ele>
        <time>2013-09-19T19:57:06.490Z</time>
      </trkpt>
      <trkpt lat="48.88814" lon="2.32413">
        <ele>103.7</ele>
        <time>2013-09-19T19:57:08.483Z</time>
      </trkpt>
      <trkpt lat="48.88817" lon="2.32409">
        <ele>103.7</ele>
        <time>2013-09-19T19:57:09.501Z</time>
      </trkpt>
      <trkpt lat="48.88823" lon="2.32403">
        <ele>103</ele>
        <time>2013-09-19T19:57:12.604Z</time>
      </trkpt>
      <trkpt lat="48.88825" lon="2.32403">
        <ele>103.5</ele>
        <time>2013-09-19T19:57:13.509Z</time>
      </trkpt>
      <trkpt lat="48.88829" lon="2.32409">
        <ele>105.6</ele>
        <time>2013-09-19T19:57:15.600Z</time>
      </trkpt>
      <trkpt lat="48.88831" lon="2.32413">
        <ele>106.7</ele>
        <time>2013-09-19T19:57:16.484Z</time>
      </trkpt>
      <trkpt lat="48.88837" lon="2.32422">
        <ele>108.2</ele>
        <time>2013-09-19T19:57:18.493Z</time>
      </trkpt>
      <trkpt lat="48.88839" lon="2.32426">
        <ele>108.3</ele>
        <time>2013-09-19T19:57:19.604Z</time>
      </trkpt>
      <trkpt lat="48.88844" lon="2.32434">
        <ele>110.2</ele>
        <time>2013-09-19T19:57:22.140Z</time>
      </trkpt>
      <trkpt lat="48.88846" lon="2.32438">
        <ele>111.3</ele>
        <time>2013-09-19T19:57:22.636Z</time>
      </trkpt>
      <trkpt lat="48.88851" lon="2.32444">
        <ele>110.2</ele>
        <time>2013-09-19T19:57:24.492Z</time>
      </trkpt>
      <trkpt lat="48.88853" lon="2.32447">
        <ele>109.6</ele>
        <time>2013-09-19T19:57:25.524Z</time>
      </trkpt>
      <trkpt lat="48.88861" lon="2.32453">
        <ele>109.1</ele>
        <time>2013-09-19T19:57:28.489Z</time>
      </trkpt>
      <trkpt lat="48.88864" lon="2.32453">
        <ele>109.1</ele>
        <time>2013-09-19T19:57:29.491Z</time>
      </trkpt>
      <trkpt lat="48.8887" lon="2.32452">
        <ele>109.1</ele>
        <time>2013-09-19T19:57:31.485Z</time>
      </trkpt>
      <trkpt lat="48.88874" lon="2.32451">
        <ele>108.9</ele>
        <time>2013-09-19T19:57:32.489Z</time>
      </trkpt>
      <trkpt lat="48.8888" lon="2.32446">
        <ele>108.6</ele>
        <time>2013-09-19T19:57:34.497Z</time>
      </trkpt>
      <trkpt lat="48.88883" lon="2.32442">
        <ele>108.6</ele>
        <time>2013-09-19T19:57:35.605Z</time>
      </trkpt>
      <trkpt lat="48.88886" lon="2.32436">
        <ele>108.4</ele>
        <time>2013-09-19T19:57:36.972Z</time>
      </trkpt>
      <trkpt lat="48.88889" lon="2.3243">
        <ele>108.4</ele>
        <time>2013-09-19T19:57:37.504Z</time>
      </trkpt>
      <trkpt lat="48.88892" lon="2.32423">
        <ele>109</ele>
        <time>2013-09-19T19:57:38.495Z</time>
      </trkpt>
      <trkpt lat="48.88896" lon="2.32417">
        <ele>109.8</ele>
        <time>2013-09-19T19:57:39.519Z</time>
      </trkpt>
      <trkpt lat="48.889" lon="2.32411">
        <ele>110.3</ele>
        <time>2013-09-19T19:57:40.488Z</time>
      </trkpt>
      <trkpt lat="48.88903" lon="2.32406">
        <ele>108.9</ele>
        <time>2013-09-19T19:57:41.533Z</time>
      </trkpt>
      <trkpt lat="48.88909" lon="2.32399">
        <ele>109</ele>
        <time>2013-09-19T19:57:43.486Z</time>
      </trkpt>
      <trkpt lat="48.88911" lon="2.32396">
        <ele>109.4</ele>
        <time>2013-09-19T19:57:44.521Z</time>
      </trkpt>
      <trkpt lat="48.88916" lon="2.32387">
        <ele>109.2</ele>
        <time>2013-09-19T19:57:47.519Z</time>
      </trkpt>
      <trkpt lat="48.88917" lon="2.32384">
        <ele>109.5</ele>
        <time>2013-09-19T19:57:48.580Z</time>
      </trkpt>
      <trkpt lat="48.88925" lon="2.32386">
        <ele>104.8</ele>
        <time>2013-09-19T19:57:54.628Z</time>
      </trkpt>
      <trkpt lat="48.88927" lon="2.3239">
        <ele>104.3</ele>
        <time>2013-09-19T19:57:55.511Z</time>
      </trkpt>
      <trkpt lat="48.88931" lon="2.32398">
        <ele>103.2</ele>
        <time>2013-09-19T19:57:57.509Z</time>
      </trkpt>
      <trkpt lat="48.88932" lon="2.32402">
        <ele>101.5</ele>
        <time>2013-09-19T19:57:58.605Z</time>
      </trkpt>
      <trkpt lat="48.88938" lon="2.32411">
        <ele>97.3</ele>
        <time>2013-09-19T19:58:02.105Z</time>
      </trkpt>
      <trkpt lat="48.8894" lon="2.32414">
        <ele>97.2</ele>
        <time>2013-09-19T19:58:02.543Z</time>
      </trkpt>
      <trkpt lat="48.88945" lon="2.32419">
        <ele>95.3</ele>
        <time>2013-09-19T19:58:04.486Z</time>
      </trkpt>
      <trkpt lat="48.88948" lon="2.32421">
        <ele>95.9</ele>
        <time>2013-09-19T19:58:05.616Z</time>
      </trkpt>
      <trkpt lat="48.88954" lon="2.32428">
        <ele>98.9</ele>
        <time>2013-09-19T19:58:08.491Z</time>
      </trkpt>
      <trkpt lat="48.88956" lon="2.32431">
        <ele>99.1</ele>
        <time>2013-09-19T19:58:09.484Z</time>
      </trkpt>
      <trkpt lat="48.88961" lon="2.32441">
        <ele>97.5</ele>
        <time>2013-09-19T19:58:12.494Z</time>
      </trkpt>
      <trkpt lat="48.88962" lon="2.32445">
        <ele>96.5</ele>
        <time>2013-09-19T19:58:13.544Z</time>
      </trkpt>
      <trkpt lat="48.88966" lon="2.32456">
        <ele>95.1</ele>
        <time>2013-09-19T19:58:16.497Z</time>
      </trkpt>
      <trkpt lat="48.8897" lon="2.32459">
        <ele>94.9</ele>
        <time>2013-09-19T19:58:17.511Z</time>
      </trkpt>
      <trkpt lat="48.88974" lon="2.32462">
        <ele>93.5</ele>
        <time>2013-09-19T19:58:18.529Z</time>
      </trkpt>
      <trkpt lat="48.88978" lon="2.32466">
        <ele>94</ele>
        <time>2013-09-19T19:58:19.596Z</time>
      </trkpt>
      <trkpt lat="48.88985" lon="2.32473">
        <ele>94.9</ele>
        <time>2013-09-19T19:58:21.627Z</time>
      </trkpt>
      <trkpt lat="48.88988" lon="2.32477">
        <ele>92.9</ele>
        <time>2013-09-19T19:58:22.561Z</time>
      </trkpt>
      <trkpt lat="48.88995" lon="2.32486">
        <ele>91</ele>
        <time>2013-09-19T19:58:24.585Z</time>
      </trkpt>
      <trkpt lat="48.88998" lon="2.32491">
        <ele>90.3</ele>
        <time>2013-09-19T19:58:25.572Z</time>
      </trkpt>
      <trkpt lat="48.89003" lon="2.32501">
        <ele>89.5</ele>
        <time>2013-09-19T19:58:27.523Z</time>
      </trkpt>
      <trkpt lat="48.89006" lon="2.32506">
        <ele>89.4</ele>
        <time>2013-09-19T19:58:28.602Z</time>
      </trkpt>
      <trkpt lat="48.89011" lon="2.32514">
        <ele>90.8</ele>
        <time>2013-09-19T19:58:30.626Z</time>
      </trkpt>
      <trkpt lat="48.89014" lon="2.32518">
        <ele>91.4</ele>
        <time>2013-09-19T19:58:31.533Z</time>
      </trkpt>
      <trkpt lat="48.89021" lon="2.32525">
        <ele>91.6</ele>
        <time>2013-09-19T19:58:33.624Z</time>
      </trkpt>
      <trkpt lat="48.89025" lon="2.32529">
        <ele>90.1</ele>
        <time>2013-09-19T19:58:34.536Z</time>
      </trkpt>
      <trkpt lat="48.8903" lon="2.32533">
        <ele>91.2</ele>
        <time>2013-09-19T19:58:35.632Z</time>
      </trkpt>
      <trkpt lat="48.89033" lon="2.32537">
        <ele>90.3</ele>
        <time>2013-09-19T19:58:36.488Z</time>
      </trkpt>
      <trkpt lat="48.89037" lon="2.32541">
        <ele>89.9</ele>
        <time>2013-09-19T19:58:37.529Z</time>
      </trkpt>
      <trkpt lat="48.89041" lon="2.32545">
        <ele>88.3</ele>
        <time>2013-09-19T19:58:38.500Z</time>
      </trkpt>
      <trkpt lat="48.89048" lon="2.32552">
        <ele>89.1</ele>
        <time>2013-09-19T19:58:40.496Z</time>
      </trkpt>
      <trkpt lat="48.89052" lon="2.32556">
        <ele>88.7</ele>
        <time>2013-09-19T19:58:41.492Z</time>
      </trkpt>
      <trkpt lat="48.89059" lon="2.32563">
        <ele>89.6</ele>
        <time>2013-09-19T19:58:43.494Z</time>
      </trkpt>
      <trkpt lat="48.89062" lon="2.32567">
        <ele>90.1</ele>
        <time>2013-09-19T19:58:44.489Z</time>
      </trkpt>
      <trkpt lat="48.89069" lon="2.32575">
        <ele>90.3</ele>
        <time>2013-09-19T19:58:46.575Z</time>
      </trkpt>
      <trkpt lat="48.89071" lon="2.32579">
        <ele>90.2</ele>
        <time>2013-09-19T19:58:47.500Z</time>
      </trkpt>
      <trkpt lat="48.89074" lon="2.32588">
        <ele>91.2</ele>
        <time>2013-09-19T19:58:49.497Z</time>
      </trkpt>
      <trkpt lat="48.89074" lon="2.32593">
        <ele>91.7</ele>
        <time>2013-09-19T19:58:50.500Z</time>
      </trkpt>
      <trkpt lat="48.89072" lon="2.32601">
        <ele>91.7</ele>
        <time>2013-09-19T19:58:52.493Z</time>
      </trkpt>
      <trkpt lat="48.8907" lon="2.32605">
        <ele>92.2</ele>
        <time>2013-09-19T19:58:53.483Z</time>
      </trkpt>
      <trkpt lat="48.89065" lon="2.32616">
        <ele>92.3</ele>
        <time>2013-09-19T19:58:57.493Z</time>
      </trkpt>
      <trkpt lat="48.89064" lon="2.32618">
        <ele>93.1</ele>
        <time>2013-09-19T19:58:58.500Z</time>
      </trkpt>
      <trkpt lat="48.89064" lon="2.32629">
        <ele>92.4</ele>
        <time>2013-09-19T19:59:03.493Z</time>
      </trkpt>
      <trkpt lat="48.89064" lon="2.32632">
        <ele>91.7</ele>
        <time>2013-09-19T19:59:04.493Z</time>
      </trkpt>
      <trkpt lat="48.89068" lon="2.32641">
        <ele>94.9</ele>
        <time>2013-09-19T19:59:13.507Z</time>
      </trkpt>
      <trkpt lat="48.89071" lon="2.32641">
        <ele>95.6</ele>
        <time>2013-09-19T19:59:14.496Z</time>
      </trkpt>
      <trkpt lat="48.89079" lon="2.32643">
        <ele>94.4</ele>
        <time>2013-09-19T19:59:17.491Z</time>
      </trkpt>
      <trkpt lat="48.89081" lon="2.32644">
        <ele>94.7</ele>
        <time>2013-09-19T19:59:18.509Z</time>
      </trkpt>
      <trkpt lat="48.89088" lon="2.3265">
        <ele>96.1</ele>
        <time>2013-09-19T19:59:22.221Z</time>
      </trkpt>
      <trkpt lat="48.8909" lon="2.32651">
        <ele>96</ele>
        <time>2013-09-19T19:59:22.490Z</time>
      </trkpt>
      <trkpt lat="48.89098" lon="2.32654">
        <ele>96</ele>
        <time>2013-09-19T19:59:27.280Z</time>
      </trkpt>
      <trkpt lat="48.891" lon="2.32655">
        <ele>95.8</ele>
        <time>2013-09-19T19:59:27.535Z</time>
      </trkpt>
      <trkpt lat="48.89104" lon="2.3266">
        <ele>91.6</ele>
        <time>2013-09-19T19:59:29.579Z</time>
      </trkpt>
      <trkpt lat="48.89107" lon="2.32664">
        <ele>90.1</ele>
        <time>2013-09-19T19:59:30.601Z</time>
      </trkpt>
      <trkpt lat="48.89112" lon="2.32673">
        <ele>89.2</ele>
        <time>2013-09-19T19:59:32.630Z</time>
      </trkpt>
      <trkpt lat="48.89114" lon="2.32676">
        <ele>89.6</ele>
        <time>2013-09-19T19:59:33.509Z</time>
      </trkpt>
      <trkpt lat="48.89119" lon="2.32683">
        <ele>88.9</ele>
        <time>2013-09-19T19:59:35.511Z</time>
      </trkpt>
      <trkpt lat="48.89122" lon="2.32686">
        <ele>89.9</ele>
        <time>2013-09-19T19:59:36.591Z</time>
      </trkpt>
      <trkpt lat="48.89128" lon="2.3269">
        <ele>94.3</ele>
        <time>2013-09-19T19:59:38.542Z</time>
      </trkpt>
      <trkpt lat="48.89132" lon="2.3269">
        <ele>95.1</ele>
        <time>2013-09-19T19:59:39.629Z</time>
      </trkpt>
      <trkpt lat="48.89136" lon="2.3269">
        <ele>95.3</ele>
        <time>2013-09-19T19:59:40.499Z</time>
      </trkpt>
      <trkpt lat="48.89141" lon="2.32689">
        <ele>93.9</ele>
        <time>2013-09-19T19:59:41.609Z</time>
      </trkpt>
      <trkpt lat="48.89146" lon="2.32688">
        <ele>93.7</ele>
        <time>2013-09-19T19:59:42.501Z</time>
      </trkpt>
      <trkpt lat="48.89151" lon="2.32686">
        <ele>93.6</ele>
        <time>2013-09-19T19:59:43.640Z</time>
      </trkpt>
      <trkpt lat="48.89155" lon="2.32685">
        <ele>93</ele>
        <time>2013-09-19T19:59:44.568Z</time>
      </trkpt>
      <trkpt lat="48.8916" lon="2.32683">
        <ele>93.2</ele>
        <time>2013-09-19T19:59:45.576Z</time>
      </trkpt>
      <trkpt lat="48.89167" lon="2.32683">
        <ele>94.9</ele>
        <time>2013-09-19T19:59:47.519Z</time>
      </trkpt>
      <trkpt lat="48.8917" lon="2.32684">
        <ele>95.5</ele>
        <time>2013-09-19T19:59:48.649Z</time>
      </trkpt>
      <trkpt lat="48.89177" lon="2.32687">
        <ele>95.9</ele>
        <time>2013-09-19T19:59:50.674Z</time>
      </trkpt>
      <trkpt lat="48.8918" lon="2.3269">
        <ele>96.1</ele>
        <time>2013-09-19T19:59:51.529Z</time>
      </trkpt>
      <trkpt lat="48.89187" lon="2.32694">
        <ele>95</ele>
        <time>2013-09-19T19:59:53.634Z</time>
      </trkpt>
      <trkpt lat="48.8919" lon="2.32696">
        <ele>95.4</ele>
        <time>2013-09-19T19:59:54.554Z</time>
      </trkpt>
      <trkpt lat="48.89199" lon="2.32698">
        <ele>95.7</ele>
        <time>2013-09-19T19:59:57.612Z</time>
      </trkpt>
      <trkpt lat="48.89201" lon="2.32699">
        <ele>95.2</ele>
        <time>2013-09-19T19:59:58.499Z</time>
      </trkpt>
      <trkpt lat="48.89208" lon="2.32702">
        <ele>95.6</ele>
        <time>2013-09-19T20:00:02.104Z</time>
      </trkpt>
      <trkpt lat="48.89211" lon="2.32703">
        <ele>96.2</ele>
        <time>2013-09-19T20:00:02.617Z</time>
      </trkpt>
      <trkpt lat="48.89219" lon="2.32706">
        <ele>100</ele>
        <time>2013-09-19T20:00:05.503Z</time>
      </trkpt>
      <trkpt lat="48.89223" lon="2.32707">
        <ele>101.5</ele>
        <time>2013-09-19T20:00:06.627Z</time>
      </trkpt>
      <trkpt lat="48.8923" lon="2.32709">
        <ele>102</ele>
        <time>2013-09-19T20:00:09.662Z</time>
      </trkpt>
      <trkpt lat="48.89231" lon="2.3271">
        <ele>102.4</ele>
        <time>2013-09-19T20:00:10.545Z</time>
      </trkpt>
      <trkpt lat="48.89228" lon="2.32722">
        <ele>107.2</ele>
        <time>2013-09-19T20:00:20.494Z</time>
      </trkpt>
      <trkpt lat="48.89228" lon="2.32723">
        <ele>107.3</ele>
        <time>2013-09-19T20:00:21.507Z</time>
      </trkpt>
      <trkpt lat="48.8923" lon="2.32726">
        <ele>106.7</ele>
        <time>2013-09-19T20:00:28.496Z</time>
      </trkpt>
      <trkpt lat="48.89231" lon="2.32725">
        <ele>106.7</ele>
        <time>2013-09-19T20:00:29.499Z</time>
      </trkpt>
      <trkpt lat="48.89231" lon="2.32725">
        <ele>106.7</ele>
        <time>2013-09-19T20:00:32.498Z</time>
      </trkpt>
    </trkseg>
  </trk>
</gpx>